# Wetter Temperatur Luftdruck Luftfeuchtigkeit Sichtweite Windgeschwindigkeit Windrichtung Zeit
1 Clouds 16 1026 55 10000 5.1 70 19:56 17.10.2019
2 Clouds 16 1026 55 10000 5.1 70 19:38 17.10.2019
3 Clouds 16 1026 55 10000 5.1 70 19:19 17.10.2019
4 Clouds 17 1025 55 10000 6.2 70 18:43 17.10.2019
5 Clouds 17 1025 55 10000 6.2 70 18:21 17.10.2019
6 Clouds 18 1024 52 10000 7.2 80 17:58 17.10.2019
7 Clouds 18 1024 52 10000 7.2 80 17:40 17.10.2019
8 Clouds 18 1024 52 10000 7.2 80 17:22 17.10.2019
9 Clouds 20 1024 52 10000 7.2 80 16:55 17.10.2019
10 Clouds 20 1024 52 10000 7.2 80 16:37 17.10.2019
11 Clouds 20 1024 52 10000 7.2 80 16:18 17.10.2019
12 Clouds 22 1024 49 10000 7.2 100 15:41 17.10.2019
13 Clouds 22 1023 49 10000 7.2 110 15:21 17.10.2019
14 Clouds 22 1023 49 10000 7.2 110 14:59 17.10.2019
15 Clouds 22 1023 49 10000 7.2 110 14:59 17.10.2019
16 Clouds 22 1023 49 10000 7.2 110 14:41 17.10.2019
17 Clouds 22 1023 49 10000 7.2 110 14:23 17.10.2019
18 Clouds 23 1024 43 10000 6.2 110 13:42 17.10.2019
19 Clouds 23 1024 43 10000 6.2 110 13:21 17.10.2019
20 Clouds 21 1026 49 10000 5.1 100 12:59 17.10.2019
21 Clouds 21 1026 49 10000 5.1 100 12:40 17.10.2019
22 Clouds 21 1026 49 10000 5.1 100 12:20 17.10.2019
23 Clouds 21 1026 49 10000 5.1 90 11:57 17.10.2019
24 Clouds 21 1026 49 10000 5.1 90 11:39 17.10.2019
25 Clouds 21 1026 49 10000 5.1 90 11:19 17.10.2019
26 Clouds 21 1027 46 0 5.7 70 10:42 17.10.2019
27 Clouds 21 1027 46 0 5.7 70 10:42 17.10.2019
28 Clouds 21 1027 46 0 5.7 70 10:21 17.10.2019
29 Clouds 21 1027 46 0 5.7 70 10:21 17.10.2019
30 Clouds 20 1027 52 0 5.1 80 09:59 17.10.2019
31 Clouds 20 1027 52 0 5.1 80 09:41 17.10.2019
32 Clouds 20 1027 52 0 5.1 80 09:41 17.10.2019
33 Clouds 20 1027 52 0 5.1 80 09:21 17.10.2019
34 Clouds 16 1018 65 0 4.006 78 08:58 17.10.2019
35 Clouds 16 1018 65 0 4.006 78 08:39 17.10.2019
36 Clouds 16 1027 63 10000 4.6 70 08:19 17.10.2019
37 Clouds 16 1027 63 10000 4.6 70 07:53 17.10.2019
38 Clouds 16 1027 63 10000 4.6 70 07:21 17.10.2019
39 Clouds 13 1027 71 10000 1.5 170 06:59 17.10.2019
40 Clouds 13 1027 71 10000 1.5 170 06:39 17.10.2019
41 Clouds 13 1027 71 10000 1.5 170 06:20 17.10.2019
42 Clouds 11 1026 81 10000 1 250 05:46 17.10.2019
43 Clouds 11 1026 81 10000 1 250 05:28 17.10.2019
44 Clouds 12 1026 76 10000 1 50 04:50 17.10.2019
45 Clouds 12 1026 76 10000 1 50 03:52 17.10.2019
46 Clouds 12 1026 76 10000 3.1 160 02:35 17.10.2019
47 Clouds 9 1016 81 0 2.419 17 00:54 17.10.2019
48 Clouds 9 1016 81 0 2.419 17 00:36 17.10.2019
49 Clouds 15 1026 58 10000 4.1 90 00:18 17.10.2019
50 Clouds 15 1026 58 10000 4.1 90 23:42 16.10.2019
51 Clouds 15 1026 58 10000 4.1 90 23:20 16.10.2019
52 Clouds 15 1026 58 10000 4.1 90 22:55 16.10.2019
53 Clouds 15 1026 58 10000 2.6 50 22:36 16.10.2019
54 Clouds 15 1026 58 10000 2.6 50 22:18 16.10.2019
55 Clouds 10 1017 75 0 2.709 15 21:55 16.10.2019
56 Clouds 10 1017 75 0 2.84 15 21:37 16.10.2019
57 Clouds 16 1025 55 10000 4.1 60 21:18 16.10.2019
58 Clouds 16 1025 55 10000 4.1 60 20:56 16.10.2019
59 Clouds 16 1025 55 10000 4.1 60 20:38 16.10.2019
60 Clouds 16 1025 55 10000 4.1 60 20:20 16.10.2019
61 Clear 11 1016 71 0 3.767 48 19:42 16.10.2019
62 Clear 11 1016 71 0 3.767 48 19:21 16.10.2019
63 Clear 11 1016 71 0 3.767 48 18:59 16.10.2019
64 Clear 11 1016 71 0 3.767 48 18:39 16.10.2019
65 Clouds 18 1023 48 10000 4.1 80 18:19 16.10.2019
66 Clouds 18 1023 48 10000 4.1 80 18:19 16.10.2019
67 Clouds 18 1023 48 10000 4.1 80 17:56 16.10.2019
68 -273 0 0 0 0 0 17:56 16.10.2019
69 Clouds 13 1013 71 0 4.396 80 17:37 16.10.2019
70 Clouds 20 1023 40 10000 6.7 90 17:19 16.10.2019
71 Clouds 20 1023 40 10000 6.7 90 16:57 16.10.2019
72 Clouds 20 1023 40 10000 6.7 90 16:38 16.10.2019
73 Clouds 20 1023 40 10000 6.7 90 16:20 16.10.2019
74 Clouds 13 1013 71 0 4.396 80 15:42 16.10.2019
75 Clouds 13 1013 71 0 4.396 80 15:41 16.10.2019
76 Clouds 13 1013 71 0 4.396 80 15:41 16.10.2019
77 -273 0 0 0 0 0 15:41 16.10.2019
78 Clouds 22 1023 40 10000 5.1 100 15:20 16.10.2019
79 Clouds 18 1010 63 0 7.089 92 14:59 16.10.2019
80 Clear 18 1011 64 0 7 93 14:41 16.10.2019
81 Clouds 22 1024 37 10000 7.7 100 14:23 16.10.2019
82 Clouds 22 1024 37 10000 7.7 100 13:59 16.10.2019
83 Clouds 22 1024 37 10000 7.7 100 13:41 16.10.2019
84 Clouds 22 1024 37 10000 7.7 100 13:22 16.10.2019
85 Clouds 21 1025 46 10000 7.7 100 12:44 16.10.2019
86 Clouds 21 1025 46 10000 7.7 100 12:20 16.10.2019
87 Clouds 21 1026 46 10000 7.2 90 11:59 16.10.2019
88 Clouds 21 1026 46 10000 7.2 90 11:41 16.10.2019
89 Clouds 21 1026 46 10000 7.2 90 11:18 16.10.2019
90 Clouds 20 1026 49 10000 7.2 90 10:37 16.10.2019
91 Clouds 20 1026 49 10000 7.2 90 10:19 16.10.2019
92 Clouds 20 1026 49 10000 6.7 90 09:41 16.10.2019
93 Clouds 20 1026 49 10000 6.7 90 09:22 16.10.2019
94 Clouds 18 1027 55 10000 5.1 100 08:58 16.10.2019
95 Clouds 18 1027 55 10000 5.1 100 08:40 16.10.2019
96 Clouds 18 1027 55 10000 5.1 100 08:21 16.10.2019
97 Clouds 14 1027 71 10000 2.6 140 07:43 16.10.2019
98 Clouds 14 1027 71 10000 2.6 140 07:24 16.10.2019
99 Clear 15 1017 71 0 5.032 82 06:56 16.10.2019
100 Clear 15 1017 71 0 5.032 82 06:56 16.10.2019
101 Clear 15 1017 71 0 5.032 82 06:35 16.10.2019
102 Clouds 14 1025 62 10000 2.1 10 05:23 16.10.2019
103 Clouds 14 1025 62 10000 3.1 60 02:57 16.10.2019
104 Clouds 14 1025 62 10000 3.1 60 02:37 16.10.2019
105 Clouds 14 1025 62 10000 5.1 50 01:18 16.10.2019
106 Clouds 14 1025 62 10000 3.1 50 00:46 16.10.2019
107 Clouds 14 1025 62 10000 3.1 50 00:25 16.10.2019
108 Clouds 15 1026 54 10000 5.1 50 23:39 15.10.2019
109 Clouds 15 1026 54 10000 5.1 50 23:21 15.10.2019
110 Clouds 15 1026 58 10000 4.1 60 22:55 15.10.2019
111 Clouds 15 1026 58 10000 4.1 60 22:37 15.10.2019
112 Clouds 15 1026 58 10000 4.1 60 22:19 15.10.2019
113 Clouds 16 1026 55 10000 5.1 40 21:55 15.10.2019
114 Clouds 16 1026 55 10000 5.1 40 21:37 15.10.2019
115 -273 0 0 0 0 0 21:19 15.10.2019
116 Clouds 16 1026 55 10000 6.2 60 20:57 15.10.2019
117 Clouds 16 1026 55 10000 6.2 60 20:39 15.10.2019
118 Clouds 16 1026 55 10000 6.2 60 20:20 15.10.2019
119 Clouds 11 1016 73 0 3.18 36 19:57 15.10.2019
120 -273 0 0 0 0 0 19:39 15.10.2019
121 Clouds 16 1024 55 10000 5.1 70 19:19 15.10.2019
122 Clouds 16 1024 55 10000 5.1 70 19:19 15.10.2019
123 Clouds 16 1024 55 10000 5.1 70 18:44 15.10.2019
124 -273 0 0 0 0 0 18:26 15.10.2019
125 Clouds 13 1013 71 0 4.228 84 17:58 15.10.2019
126 Clouds 13 1013 71 0 4.228 84 17:38 15.10.2019
127 Clouds 21 1023 37 10000 7.2 80 17:19 15.10.2019
128 Clouds 21 1023 37 10000 7.2 80 16:46 15.10.2019
129 Clouds 13 1013 71 0 4.228 84 16:23 15.10.2019
130 Clouds 13 1013 71 0 4.228 84 15:59 15.10.2019
131 Clouds 13 1013 71 0 4.228 84 15:41 15.10.2019
132 Clouds 13 1013 71 0 4.228 84 15:41 15.10.2019
133 Clouds 22 1024 35 10000 8.2 90 15:20 15.10.2019
134 Clouds 22 1024 35 10000 8.2 90 14:58 15.10.2019
135 Clouds 22 1024 35 10000 8.2 90 14:38 15.10.2019
136 Clouds 22 1024 35 10000 8.2 90 14:19 15.10.2019
137 Clouds 22 1024 35 10000 8.2 90 13:44 15.10.2019
138 Clouds 22 1024 35 10000 8.2 90 13:21 15.10.2019
139 Clouds 22 1025 33 10000 9.3 80 12:59 15.10.2019
140 Clouds 22 1025 33 10000 9.3 80 12:39 15.10.2019
141 Clouds 22 1025 33 10000 9.3 80 12:21 15.10.2019
142 Clouds 22 1026 33 10000 10.3 80 11:55 15.10.2019
143 Clouds 22 1026 33 10000 10.3 80 11:37 15.10.2019
144 Clouds 22 1026 33 10000 10.3 80 11:18 15.10.2019
145 Clouds 21 1027 32 10000 9.3 100 10:42 15.10.2019
146 Clouds 21 1027 32 10000 9.3 100 10:19 15.10.2019
147 Clouds 21 1027 28 10000 10.3 90 09:57 15.10.2019
148 Clouds 21 1027 28 10000 10.3 90 09:37 15.10.2019
149 Clouds 21 1027 28 10000 10.3 90 09:19 15.10.2019
150 Clouds 18 1027 42 10000 5.1 110 08:42 15.10.2019
151 Clouds 18 1027 42 10000 5.1 110 08:22 15.10.2019
152 Clouds 14 1027 58 10000 1 140 07:56 15.10.2019
153 Clouds 14 1027 58 10000 1 140 07:56 15.10.2019
154 Clouds 14 1027 58 10000 1 140 07:38 15.10.2019
155 Clouds 14 1027 58 10000 1 140 07:19 15.10.2019
156 Clouds 16 1018 61 0 1.86 120.943 06:44 15.10.2019
157 Clouds 10 1026 71 10000 2.07 31.535 06:25 15.10.2019
158 Clouds 10 1026 71 10000 2.07 31.535 05:41 15.10.2019
159 Clouds 10 1026 71 10000 2.07 31.535 05:23 15.10.2019
160 Clouds 10 1026 71 10000 2.07 31.535 04:25 15.10.2019
161 Clouds 10 1026 71 10000 2.07 31.535 03:37 15.10.2019
162 Clouds 10 1026 71 10000 2.07 31.535 03:37 15.10.2019
163 Clouds 12 1026 62 10000 2.1 340 02:24 15.10.2019
164 Clouds 12 1026 62 10000 1.5 340 01:48 15.10.2019
165 Clouds 12 1026 62 10000 1.5 340 01:19 15.10.2019
166 Clouds 13 1027 58 10000 1 280 00:49 15.10.2019
167 Clouds 13 1027 58 10000 1 280 00:21 15.10.2019
168 Clouds 14 1027 50 10000 3.1 50 23:43 14.10.2019
169 Clouds 14 1027 50 10000 3.1 50 23:20 14.10.2019
170 Clouds 14 1028 47 10000 5.1 50 22:55 14.10.2019
171 Clouds 14 1028 47 10000 5.1 50 22:37 14.10.2019
172 Clouds 14 1028 47 10000 5.1 50 22:37 14.10.2019
173 Clouds 14 1028 47 10000 5.1 50 22:18 14.10.2019
174 Clouds 10 1019 68 0 1.94 27.172 21:41 14.10.2019
175 Clouds 15 1027 47 10000 6.2 60 21:22 14.10.2019
176 Clouds 15 1027 47 10000 6.2 60 20:59 14.10.2019
177 Clouds 15 1027 47 10000 6.2 60 20:40 14.10.2019
178 Clouds 15 1027 47 10000 6.2 60 20:21 14.10.2019
179 Clouds 15 1027 47 10000 6.2 60 19:59 14.10.2019
180 Clouds 15 1026 51 10000 7.2 60 19:40 14.10.2019
181 Clouds 16 1025 44 10000 6.2 70 19:22 14.10.2019
182 Clouds 16 1025 44 10000 6.2 70 18:58 14.10.2019
183 Clouds 16 1025 44 10000 6.2 70 18:58 14.10.2019
184 Clouds 16 1025 44 10000 6.2 70 18:58 14.10.2019
185 Clouds 16 1025 44 10000 6.2 70 18:38 14.10.2019
186 Clouds 16 1025 44 10000 6.2 70 18:19 14.10.2019
187 Clouds 18 1025 42 10000 8.2 80 17:44 14.10.2019
188 Clouds 18 1025 42 10000 8.2 80 17:44 14.10.2019
189 Clouds 18 1025 42 10000 8.2 80 17:26 14.10.2019
190 Clouds 18 1025 42 10000 8.2 80 16:59 14.10.2019
191 Clouds 21 1024 40 10000 8.2 90 16:40 14.10.2019
192 Clouds 21 1024 40 10000 8.2 90 16:20 14.10.2019
193 Clouds 21 1024 43 10000 8.2 100 15:42 14.10.2019
194 Clouds 21 1024 43 10000 8.2 100 15:22 14.10.2019
195 Clouds 21 1024 46 10000 7.2 90 14:56 14.10.2019
196 Clouds 21 1024 46 10000 7.2 90 14:56 14.10.2019
197 Clouds 21 1024 46 10000 7.2 90 14:38 14.10.2019
198 Clouds 21 1024 46 10000 7.2 90 14:18 14.10.2019
199 Clouds 20 1012 57 0 5.66 107.237 13:42 14.10.2019
200 Clouds 22 1026 40 10000 9.3 100 13:21 14.10.2019
201 Clouds 22 1026 40 10000 9.3 100 12:54 14.10.2019
202 Clouds 22 1026 40 10000 9.3 100 12:36 14.10.2019
203 Clouds 22 1026 40 10000 9.3 100 12:18 14.10.2019
204 Clouds 20 1016 56 0 3.27 139.995 11:43 14.10.2019
205 Clouds 20 1016 56 0 3.27 139.995 11:24 14.10.2019
206 Clouds 20 1016 56 0 3.27 139.995 10:55 14.10.2019
207 Clouds 20 1016 56 0 3.27 139.995 10:37 14.10.2019
208 Clouds 20 1016 56 0 3.27 139.995 10:18 14.10.2019
209 Clouds 20 1016 56 0 3.27 139.995 09:41 14.10.2019
210 Clouds 17 1028 67 10000 2.1 140 09:21 14.10.2019
211 Clouds 17 1028 67 10000 2.1 140 08:50 14.10.2019
212 Clouds 17 1028 67 10000 2.1 140 08:23 14.10.2019
213 Clouds 15 1018 73 0 0.79 122.388 07:47 14.10.2019
214 Clouds 15 1018 73 0 0.79 122.388 07:25 14.10.2019
215 Clouds 15 1018 73 0 0.79 122.388 06:58 14.10.2019
216 Clouds 15 1018 73 0 0.79 122.388 06:28 14.10.2019
217 Clouds 10 1018 86 0 1.18 14.909 05:57 14.10.2019
218 Clouds 10 1018 86 0 1.18 14.909 05:26 14.10.2019
219 Clouds 11 1026 87 10000 2.1 340 03:50 14.10.2019
220 Clouds 11 1026 87 10000 2.1 340 03:25 14.10.2019
221 Clouds 11 1026 87 10000 2.1 70 02:31 14.10.2019
222 Clouds 13 1026 76 10000 2.1 240 01:21 14.10.2019
223 Clouds 13 1026 76 10000 1 160 00:42 14.10.2019
224 Clouds 13 1026 76 10000 1 160 00:18 14.10.2019
225 Clouds 13 1027 82 10000 2.1 80 23:41 13.10.2019
226 Clouds 13 1027 82 10000 2.1 80 23:19 13.10.2019
227 Clouds 13 1027 82 10000 2.1 80 23:19 13.10.2019
228 Clouds 10 1017 85 0 0.98 30.034 22:57 13.10.2019
229 Clouds 10 1017 85 0 0.98 30.034 22:57 13.10.2019
230 Clouds 10 1017 85 0 0.98 30.034 22:39 13.10.2019
231 Clouds 10 1017 85 0 0.98 30.034 22:20 13.10.2019
232 Clouds 10 1017 85 0 0.98 30.034 22:20 13.10.2019
233 Clouds 10 1017 85 0 0.98 30.034 21:57 13.10.2019
234 Clouds 10 1017 85 0 0.98 30.034 21:36 13.10.2019
235 Clouds 15 1026 77 10000 2.1 30 21:18 13.10.2019
236 Clouds 15 1026 77 10000 2.1 30 20:56 13.10.2019
237 Clouds 15 1026 77 10000 2.1 30 20:37 13.10.2019
238 Clouds 15 1026 77 10000 2.1 30 20:37 13.10.2019
239 Clouds 15 1026 77 10000 2.1 30 20:37 13.10.2019
240 Clouds 15 1026 77 10000 2.1 30 20:18 13.10.2019
241 Clouds 15 1026 77 10000 3.6 70 19:55 13.10.2019
242 Clouds 15 1026 77 10000 3.6 70 19:36 13.10.2019
243 Clouds 15 1026 77 10000 3.6 70 19:36 13.10.2019
244 Clouds 15 1026 77 10000 3.6 70 19:18 13.10.2019
245 Rain 12 1016 83 0 2.41 71.911 18:41 13.10.2019
246 Rain 15 1012 78 0 2.9 109.055 18:21 13.10.2019
247 Rain 15 1012 78 0 2.9 109.055 17:59 13.10.2019
248 Rain 15 1012 78 0 2.9 109.055 17:41 13.10.2019
249 Rain 15 1012 78 0 2.9 109.055 17:41 13.10.2019
250 Rain 15 1012 78 0 2.9 109.055 17:41 13.10.2019
251 Clouds 18 1023 63 10000 5.1 90 17:23 13.10.2019
252 Rain 15 1012 78 0 2.9 109.055 16:44 13.10.2019
253 Clouds 19 1023 59 10000 6.2 100 16:20 13.10.2019
254 Rain 15 1012 78 0 2.9 109.055 15:58 13.10.2019
255 Rain 15 1012 78 0 2.9 109.055 15:39 13.10.2019
256 Rain 19 1009 67 0 5.07 106.194 15:20 13.10.2019
257 Rain 19 1009 67 0 5.07 106.194 14:58 13.10.2019
258 Rain 19 1009 67 0 5.07 106.194 14:39 13.10.2019
259 Rain 19 1009 67 0 5.07 106.194 14:39 13.10.2019
260 Clouds 20 1023 52 10000 7.7 80 14:21 13.10.2019
261 Clouds 20 1023 52 10000 7.7 80 13:56 13.10.2019
262 Clouds 20 1023 52 10000 7.7 80 13:37 13.10.2019
263 Clouds 20 1023 52 10000 7.7 80 13:18 13.10.2019
264 Clouds 20 1024 49 10000 8.7 110 12:55 13.10.2019
265 Rain 20 1010 66 0 4.94 111.509 12:37 13.10.2019
266 Clouds 20 1024 52 10000 8.2 90 12:18 13.10.2019
267 Clouds 20 1024 52 10000 8.2 90 11:55 13.10.2019
268 Clouds 20 1024 52 10000 8.2 90 11:37 13.10.2019
269 Clouds 20 1024 52 10000 8.2 90 11:18 13.10.2019
270 Clouds 20 1024 52 10000 8.2 90 11:18 13.10.2019
271 Clouds 19 1013 65 0 2.89 152.957 10:41 13.10.2019
272 Clouds 19 1013 65 0 2.89 152.957 10:41 13.10.2019
273 Clouds 19 1025 52 10000 8.2 90 10:22 13.10.2019
274 Clouds 19 1025 52 10000 8.2 90 09:41 13.10.2019
275 Clouds 19 1025 52 10000 8.2 90 09:21 13.10.2019
276 Clouds 15 1016 72 0 0.77 208.19 08:58 13.10.2019
277 Clouds 15 1016 72 0 0.77 208.19 08:38 13.10.2019
278 Clouds 16 1025 67 10000 4.1 90 08:19 13.10.2019
279 Clouds 16 1025 67 10000 4.1 90 07:46 13.10.2019
280 Clouds 14 1025 82 10000 2.6 110 06:59 13.10.2019
281 Clouds 14 1025 82 10000 2.6 110 06:41 13.10.2019
282 Clouds 12 1024 93 10000 1 360 05:39 13.10.2019
283 Clouds 13 1023 87 10000 3.1 120 04:46 13.10.2019
284 Clouds 10 1016 81 0 1.17 33.104 03:40 13.10.2019
285 Clouds 13 1024 93 10000 3.6 50 02:41 13.10.2019
286 Clouds 10 1014 80 0 1.22 45.199 01:53 13.10.2019
287 Clouds 10 1014 80 0 1.26 40.532 01:26 13.10.2019
288 Clouds 10 1014 80 0 1.26 40.532 01:26 13.10.2019
289 Clouds 10 1014 80 0 1.26 40.532 00:46 13.10.2019
290 Clouds 16 1025 72 10000 3.1 120 00:21 13.10.2019
291 Clouds 16 1025 72 10000 3.1 120 23:55 12.10.2019
292 Clouds 16 1025 72 10000 3.1 120 23:36 12.10.2019
293 Clouds 16 1025 72 10000 3.1 120 23:18 12.10.2019
294 Clouds 16 1025 77 10000 2.1 130 22:56 12.10.2019
295 Clouds 16 1025 77 10000 2.1 130 22:37 12.10.2019
296 Clouds 16 1025 77 10000 2.1 130 22:37 12.10.2019
297 Clouds 11 1016 77 0 1.69 30.364 22:19 12.10.2019
298 Clouds 11 1016 77 0 1.69 30.364 21:42 12.10.2019
299 -273 0 0 0 0 0 21:24 12.10.2019
300 Clouds 12 1015 81 0 2.27 41.355 20:58 12.10.2019
301 Clouds 12 1015 81 0 2.27 41.355 20:58 12.10.2019
302 Clouds 12 1015 81 0 2.27 41.355 20:39 12.10.2019
303 Clouds 17 1024 67 10000 3.1 70 20:21 12.10.2019
304 Clouds 17 1024 67 10000 3.1 70 19:37 12.10.2019
305 Clouds 17 1024 67 10000 3.1 70 19:19 12.10.2019
306 Clouds 17 1024 67 10000 3.1 70 18:56 12.10.2019
307 Clouds 12 1015 81 0 2.27 41.355 18:36 12.10.2019
308 Clouds 19 1023 59 10000 5.1 90 18:18 12.10.2019
309 Clouds 19 1023 59 10000 5.1 90 17:42 12.10.2019
310 Clouds 19 1023 59 10000 5.1 90 17:19 12.10.2019
311 Clouds 21 1022 49 10000 7.2 90 16:41 12.10.2019
312 Clouds 21 1022 49 10000 7.2 90 16:41 12.10.2019
313 Clouds 21 1022 49 10000 7.2 90 16:22 12.10.2019
314 Clouds 22 1021 43 10000 7.7 90 15:59 12.10.2019
315 Clouds 22 1021 43 10000 7.7 90 15:40 12.10.2019
316 Clouds 22 1021 43 10000 7.7 90 15:21 12.10.2019
317 Clouds 20 1009 66 0 5.66 103.832 14:41 12.10.2019
318 Clouds 22 1023 46 10000 7.2 90 14:22 12.10.2019
319 Clouds 22 1023 46 10000 7.2 90 14:22 12.10.2019
320 Clouds 22 1023 46 10000 7.2 90 13:53 12.10.2019
321 Clouds 22 1023 46 10000 7.2 90 13:33 12.10.2019
322 Clouds 22 1023 46 10000 7.2 90 12:59 12.10.2019
323 Clouds 22 1023 46 10000 7.2 90 12:59 12.10.2019
324 Clouds 19 1024 55 10000 6.2 70 12:39 12.10.2019
325 Clouds 21 1025 49 10000 6.7 100 12:20 12.10.2019
326 Clouds 21 1025 49 10000 6.7 100 11:58 12.10.2019
327 Clouds 21 1025 49 10000 6.7 100 11:38 12.10.2019
328 Clouds 21 1025 49 10000 6.7 100 11:19 12.10.2019
329 Clouds 20 1025 52 10000 5.1 110 10:41 12.10.2019
330 Clouds 20 1025 52 10000 5.1 110 10:23 12.10.2019
331 Clouds 20 1026 52 10000 4.1 120 09:57 12.10.2019
332 -273 0 0 0 0 0 09:57 12.10.2019
333 Clouds 20 1026 52 10000 4.1 120 09:38 12.10.2019
334 Clouds 20 1026 52 10000 4.1 120 09:19 12.10.2019
335 Clouds 18 1026 59 10000 3.6 100 08:44 12.10.2019
336 Clouds 18 1026 59 10000 3.6 100 08:25 12.10.2019
337 Clouds 15 1017 78 0 1.22 188.276 07:57 12.10.2019
338 Clouds 13 1026 82 10000 1.5 80 07:31 12.10.2019
339 Clouds 13 1026 82 10000 1.5 80 06:28 12.10.2019
340 Clouds 9 1017 88 0 0.98 20.329 05:43 12.10.2019
341 Clouds 12 1024 81 10000 0.98 20.329 04:34 12.10.2019
342 Clouds 9 1017 88 0 0.98 20.329 03:54 12.10.2019
343 Clouds 10 1015 91 0 1.06 14.365 02:50 12.10.2019
344 Clouds 14 1024 71 10000 2.1 70 01:33 12.10.2019
345 Clouds 14 1025 67 10000 3.1 100 00:56 12.10.2019
346 Clouds 14 1025 67 10000 3.1 100 00:37 12.10.2019
347 Clouds 15 1025 62 10000 3.1 50 23:55 11.10.2019
348 Clouds 15 1025 62 10000 3.1 50 23:36 11.10.2019
349 Clouds 15 1025 62 10000 3.1 50 23:18 11.10.2019
350 Clouds 15 1025 62 10000 4.1 50 22:38 11.10.2019
351 Clouds 15 1025 62 10000 4.1 50 22:19 11.10.2019
352 Clouds 15 1025 82 10000 2.1 50 21:43 11.10.2019
353 Clouds 15 1025 82 10000 2.1 50 21:21 11.10.2019
354 Clouds 15 1025 82 10000 3.1 70 20:57 11.10.2019
355 Clouds 15 1025 82 10000 3.1 70 20:39 11.10.2019
356 Clouds 15 1025 82 10000 3.1 70 20:20 11.10.2019
357 Clouds 15 1025 82 10000 3.1 70 20:20 11.10.2019
358 Clouds 15 1024 82 10000 3.1 80 19:55 11.10.2019
359 Clouds 15 1024 82 10000 3.1 80 19:37 11.10.2019
360 Clouds 15 1024 82 10000 3.1 80 19:18 11.10.2019
361 Clouds 15 1024 82 10000 3.1 80 19:18 11.10.2019
362 Clouds 15 1024 82 10000 3.1 80 19:18 11.10.2019
363 Clouds 15 1024 82 10000 3.1 80 19:18 11.10.2019
364 Clouds 15 1024 82 10000 3.1 80 19:18 11.10.2019
365 Clouds 15 1024 82 10000 3.1 80 18:56 11.10.2019
366 Rain 12 1015 91 0 1.86 30.837 18:37 11.10.2019
367 Clouds 18 1023 59 10000 6.2 90 18:18 11.10.2019
368 Clouds 18 1023 59 10000 6.2 90 17:55 11.10.2019
369 Clouds 18 1023 59 10000 6.2 90 17:36 11.10.2019
370 Clouds 18 1023 59 10000 6.2 90 17:18 11.10.2019
371 Clouds 21 1023 49 10000 6.7 100 16:40 11.10.2019
372 Clouds 21 1023 49 10000 6.7 100 16:20 11.10.2019
373 Clouds 21 1023 46 10000 7.2 90 15:58 11.10.2019
374 Clouds 21 1023 46 10000 7.2 90 15:38 11.10.2019
375 Rain 19 1011 73 0 3.87 113.889 15:18 11.10.2019
376 Rain 19 1011 73 0 3.87 113.889 14:46 11.10.2019
377 Clouds 21 1024 49 10000 7.7 100 14:28 11.10.2019
378 Clouds 21 1024 49 10000 7.7 100 13:56 11.10.2019
379 Clouds 21 1024 49 10000 7.7 100 13:37 11.10.2019
380 Clouds 21 1025 49 10000 7.2 100 13:18 11.10.2019
381 Clouds 21 1025 49 10000 7.2 100 12:42 11.10.2019
382 Clouds 21 1025 49 10000 7.2 100 12:22 11.10.2019
383 Rain 19 1014 71 0 2.65 142.352 12:00 11.10.2019
384 Rain 19 1014 71 0 2.65 142.352 11:40 11.10.2019
385 Clouds 19 1027 52 10000 5.7 90 11:21 11.10.2019
386 Clouds 19 1027 52 10000 5.7 90 10:56 11.10.2019
387 Clouds 19 1027 52 10000 5.7 90 10:56 11.10.2019
388 Clouds 19 1027 52 10000 5.7 90 10:38 11.10.2019
389 Clouds 19 1027 52 10000 5.7 90 10:19 11.10.2019
390 Clouds 18 1028 63 10000 3.1 110 09:54 11.10.2019
391 Clouds 18 1028 63 10000 3.1 110 09:54 11.10.2019
392 Clouds 18 1028 63 10000 3.1 110 09:36 11.10.2019
393 Clouds 18 1028 63 10000 3.1 110 09:18 11.10.2019
394 Clear 15 1018 79 0 1.05 181.206 08:39 11.10.2019
395 Clear 15 1018 79 0 1.05 181.206 08:21 11.10.2019
396 Clear 15 1018 79 0 1.05 181.206 07:59 11.10.2019
397 Clear 15 1018 79 0 1.05 181.206 07:40 11.10.2019
398 Clouds 12 1027 87 10000 1 80 07:20 11.10.2019
399 Clouds 12 1027 87 10000 1 80 06:43 11.10.2019
400 Clouds 12 1027 87 10000 1 80 06:21 11.10.2019
401 Clouds 12 1025 87 10000 2.1 320 05:32 11.10.2019
402 Clouds 12 1025 87 10000 2.1 320 04:59 11.10.2019
403 Clouds 12 1025 87 10000 1 210 03:46 11.10.2019
404 Clear 10 1016 90 0 0.74 4.673 01:58 11.10.2019
405 Clouds 10 1016 91 0 0.63 355.335 00:42 11.10.2019
406 Clouds 10 1016 91 0 0.63 355.335 00:42 11.10.2019
407 Clouds 14 1026 82 10000 3.1 100 00:23 11.10.2019
408 Clouds 14 1026 82 10000 3.1 100 23:42 10.10.2019
409 Clouds 14 1026 82 10000 3.1 100 23:20 10.10.2019
410 Clouds 14 1026 82 10000 2.6 80 22:57 10.10.2019
411 Clouds 14 1026 82 10000 2.6 80 22:38 10.10.2019
412 Clouds 14 1026 82 10000 2.6 80 22:19 10.10.2019
413 Clouds 11 1017 91 0 0.92 28.01 21:54 10.10.2019
414 Clouds 11 1017 91 0 0.92 28.01 21:36 10.10.2019
415 Rain 12 1016 92 0 1.74 58.472 21:18 10.10.2019
416 Rain 12 1016 91 0 1.76 56.481 20:41 10.10.2019
417 Clouds 16 1025 72 10000 5.1 70 20:21 10.10.2019
418 Clouds 16 1025 72 10000 5.1 70 19:58 10.10.2019
419 Clouds 16 1025 72 10000 5.1 70 19:39 10.10.2019
420 Clouds 16 1025 72 10000 5.1 70 19:20 10.10.2019
421 Clouds 17 1024 67 10000 3.1 100 18:56 10.10.2019
422 Clouds 17 1024 67 10000 3.1 100 18:38 10.10.2019
423 Clouds 17 1024 67 10000 3.1 100 18:19 10.10.2019
424 Clouds 19 1023 55 10000 5.7 100 17:41 10.10.2019
425 Clouds 19 1023 55 10000 5.7 100 17:41 10.10.2019
426 Clouds 19 1023 55 10000 5.7 100 17:20 10.10.2019
427 Clouds 21 1022 43 10000 4.1 80 16:58 10.10.2019
428 Clouds 21 1022 43 10000 4.1 80 16:40 10.10.2019
429 Clouds 21 1022 43 10000 4.1 80 16:21 10.10.2019
430 Clouds 21 1023 43 10000 6.2 80 15:43 10.10.2019
431 Clouds 21 1023 43 10000 6.2 80 15:43 10.10.2019
432 Clouds 21 1023 43 10000 6.2 80 15:24 10.10.2019
433 Clouds 21 1023 43 10000 6.2 80 14:59 10.10.2019
434 Clouds 21 1023 46 10000 7.2 80 14:37 10.10.2019
435 Clouds 21 1023 46 10000 7.2 80 14:19 10.10.2019
436 Clouds 21 1024 49 10000 7.2 80 13:59 10.10.2019
437 Clouds 21 1024 49 10000 7.2 80 13:39 10.10.2019
438 Clouds 21 1024 49 10000 7.2 80 13:18 10.10.2019
439 Clouds 21 1024 49 10000 7.2 80 13:18 10.10.2019
440 Clouds 20 1025 52 10000 7.2 90 12:54 10.10.2019
441 Clouds 20 1025 52 10000 7.2 90 12:36 10.10.2019
442 Clouds 20 1025 52 10000 7.2 90 12:18 10.10.2019
443 Clouds 19 1026 52 10000 7.2 90 11:42 10.10.2019
444 Clouds 19 1026 52 10000 7.2 90 11:42 10.10.2019
445 Clouds 19 1026 52 10000 7.2 90 11:20 10.10.2019
446 Clouds 19 1014 64 0 2.52 157.92 10:58 10.10.2019
447 Clouds 19 1014 64 0 2.52 157.92 10:40 10.10.2019
448 Clouds 18 1027 55 10000 6.2 90 10:21 10.10.2019
449 -273 0 0 0 0 0 09:54 10.10.2019
450 Clouds 18 1027 55 10000 6.2 90 09:36 10.10.2019
451 Clouds 18 1027 55 10000 6.2 90 09:18 10.10.2019
452 Clouds 17 1027 67 10000 4.1 80 08:41 10.10.2019
453 Clouds 17 1027 67 10000 4.1 80 08:21 10.10.2019
454 Clouds 14 1018 78 0 1.75 171.43 07:57 10.10.2019
455 Clouds 14 1018 78 0 1.75 171.43 07:36 10.10.2019
456 Clouds 14 1018 78 0 1.75 171.43 07:18 10.10.2019
457 Clouds 14 1018 78 0 1.75 171.43 06:39 10.10.2019
458 Clouds 10 1017 82 0 1.37 33.991 05:57 10.10.2019
459 Clouds 10 1017 82 0 1.37 33.991 05:22 10.10.2019
460 Clouds 10 1017 82 0 1.37 33.991 04:36 10.10.2019
461 Clouds 10 1016 85 0 1.04 49.196 02:49 10.10.2019
462 Clouds 10 1016 85 0 1.04 49.196 01:41 10.10.2019
463 Clouds 10 1015 87 0 0.88 58.077 01:22 10.10.2019
464 Clouds 10 1015 87 0 0.88 58.077 00:41 10.10.2019
465 Clouds 11 1017 88 0 1.4 55.307 00:19 10.10.2019
466 Clouds 11 1017 88 0 1.4 55.307 23:38 09.10.2019
467 Clouds 11 1017 88 0 1.4 55.307 23:19 09.10.2019
468 Clouds 11 1017 88 0 1.4 55.307 23:19 09.10.2019
469 Clouds 11 1017 88 0 1.4 55.307 22:42 09.10.2019
470 Clouds 11 1017 88 0 1.4 55.307 22:23 09.10.2019
471 Clouds 11 1017 88 0 1.4 55.307 21:58 09.10.2019
472 Clouds 11 1017 88 0 1.4 55.307 21:39 09.10.2019
473 Clear 12 1016 89 0 2.23 58.825 21:19 09.10.2019
474 Rain 12 1015 89 0 2.14 50.842 20:55 09.10.2019
475 Rain 12 1015 89 0 2.14 50.842 20:55 09.10.2019
476 Rain 12 1015 89 0 2.14 50.842 20:37 09.10.2019
477 Rain 12 1015 89 0 2.14 50.842 20:18 09.10.2019
478 Rain 12 1015 89 0 2.14 50.842 20:18 09.10.2019
479 Rain 12 1015 89 0 2.14 50.842 20:18 09.10.2019
480 Rain 12 1015 89 0 2.14 50.842 19:45 09.10.2019
481 Rain 12 1015 89 0 2.14 50.842 19:23 09.10.2019
482 Rain 12 1015 89 0 2.14 50.842 18:56 09.10.2019
483 Rain 12 1015 89 0 2.14 50.842 18:37 09.10.2019
484 Clear 15 1012 82 0 2.58 114.924 18:18 09.10.2019
485 Clear 15 1012 82 0 2.58 114.924 17:54 09.10.2019
486 Clear 15 1012 82 0 2.58 114.924 17:36 09.10.2019
487 Clear 15 1012 82 0 2.58 114.924 17:18 09.10.2019
488 Clear 15 1012 82 0 2.58 114.924 16:40 09.10.2019
489 Clouds 22 1022 46 10000 7.2 80 16:21 09.10.2019
490 Clouds 22 1022 46 10000 7.2 80 15:57 09.10.2019
491 Clouds 22 1022 46 10000 7.2 80 15:38 09.10.2019
492 Clouds 22 1022 46 10000 7.2 80 15:19 09.10.2019
493 Clouds 22 1023 46 10000 8.2 90 14:56 09.10.2019
494 Clouds 22 1023 46 10000 8.2 90 14:37 09.10.2019
495 Clouds 22 1023 46 10000 8.2 90 14:18 09.10.2019
496 Rain 20 1010 62 0 5.57 106.384 13:39 09.10.2019
497 Rain 20 1010 62 0 5.57 106.384 13:39 09.10.2019
498 Clouds 21 1025 46 10000 8.2 90 13:20 09.10.2019
499 Clouds 21 1025 46 10000 8.2 90 12:57 09.10.2019
500 Clouds 21 1025 46 10000 8.2 90 12:37 09.10.2019
501 Clouds 20 1026 52 10000 8.2 100 12:19 09.10.2019
502 Rain 19 1015 63 0 5.51 113.432 11:40 09.10.2019
503 Clouds 20 1027 49 10000 8.2 100 11:21 09.10.2019
504 Clouds 20 1027 49 10000 8.2 100 10:59 09.10.2019
505 Rain 19 1015 63 0 5.51 113.432 10:40 09.10.2019
506 Clouds 19 1027 59 10000 7.2 80 10:20 09.10.2019
507 Clouds 19 1027 59 10000 7.2 80 09:56 09.10.2019
508 Clouds 19 1027 59 10000 7.2 80 09:38 09.10.2019
509 Clouds 19 1027 59 10000 7.2 80 09:38 09.10.2019
510 Clouds 19 1027 59 10000 7.2 80 09:18 09.10.2019
511 Clouds 16 1017 75 0 2.57 131.125 08:39 09.10.2019
512 Clouds 16 1017 75 0 2.57 131.125 08:20 09.10.2019
513 Clouds 16 1017 75 0 2.57 131.125 08:20 09.10.2019
514 Clouds 16 1017 75 0 2.57 131.125 07:47 09.10.2019
515 Clouds 16 1017 75 0 2.57 131.125 07:25 09.10.2019
516 Clouds 16 1017 75 0 2.57 131.125 07:25 09.10.2019
517 Clouds 16 1017 75 0 2.57 131.125 07:25 09.10.2019
518 Clouds 16 1017 75 0 2.57 131.125 06:58 09.10.2019
519 Clouds 16 1017 75 0 2.57 131.125 06:40 09.10.2019
520 Clouds 10 1018 95 0 0.71 14.389 05:53 09.10.2019
521 Clouds 10 1018 95 0 0.71 14.389 05:18 09.10.2019
522 Clouds 10 1018 95 0 0.71 14.389 03:48 09.10.2019
523 Rain 11 1016 94 0 0.19 207.231 02:35 09.10.2019
524 Rain 11 1016 94 0 0.19 207.231 01:39 09.10.2019
525 Clouds 14 1025 82 10000 3.1 130 01:18 09.10.2019
526 Clouds 14 1025 82 10000 3.1 130 00:55 09.10.2019
527 Clouds 14 1025 82 10000 3.1 130 00:55 09.10.2019
528 Clouds 14 1025 82 10000 3.1 130 00:36 09.10.2019
529 Clouds 14 1025 82 10000 3.1 130 00:18 09.10.2019
530 Clouds 15 1026 72 10000 3.1 100 23:38 08.10.2019
531 Clouds 15 1026 72 10000 3.1 100 23:18 08.10.2019
532 Drizzle 15 1027 82 0 2.1 140 22:55 08.10.2019
533 Drizzle 15 1027 82 0 2.1 140 22:36 08.10.2019
534 Clouds 15 1027 87 10000 2.1 200 22:18 08.10.2019
535 Clouds 15 1027 87 10000 2.1 200 21:55 08.10.2019
536 Clouds 15 1027 87 10000 2.1 200 21:36 08.10.2019
537 Clouds 15 1027 87 10000 2.1 200 21:18 08.10.2019
538 Clouds 16 1026 67 10000 2.1 100 20:55 08.10.2019
539 Clouds 16 1026 67 10000 2.1 100 20:36 08.10.2019
540 Clouds 16 1026 67 10000 2.1 100 20:18 08.10.2019
541 Clouds 11 1016 86 0 1.92 62.155 19:42 08.10.2019
542 Clouds 11 1016 86 0 1.92 62.155 19:24 08.10.2019
543 Clouds 11 1016 86 0 1.92 62.155 18:59 08.10.2019
544 Clouds 11 1016 86 0 1.92 62.155 18:41 08.10.2019
545 Clouds 15 1013 79 0 3.01 89.638 18:22 08.10.2019
546 Clouds 15 1013 79 0 3.01 89.638 17:57 08.10.2019
547 Clouds 15 1013 79 0 3.01 89.638 17:39 08.10.2019
548 Clouds 15 1013 79 0 3.01 89.638 17:18 08.10.2019
549 Clouds 15 1013 79 0 3.01 89.638 16:55 08.10.2019
550 Clouds 15 1013 79 0 3.01 89.638 16:37 08.10.2019
551 Clouds 23 1023 43 10000 6.2 90 16:18 08.10.2019
552 Clouds 23 1023 43 10000 6.2 90 15:38 08.10.2019
553 Clouds 23 1023 43 10000 6.2 90 15:20 08.10.2019
554 Clouds 23 1023 43 10000 8.2 80 14:55 08.10.2019
555 Clouds 23 1023 43 10000 8.2 80 14:37 08.10.2019
556 Clouds 23 1023 43 10000 8.2 80 14:19 08.10.2019
557 Clouds 21 1023 46 10000 8.2 80 13:54 08.10.2019
558 -273 0 0 0 0 0 13:54 08.10.2019
559 Clouds 21 1023 46 10000 8.2 80 13:36 08.10.2019
560 Clouds 21 1023 46 10000 8.2 80 13:18 08.10.2019
561 Clouds 19 1010 62 0 7.59 95.454 12:40 08.10.2019
562 Clear 20 1014 59 0 7.04 93.721 12:20 08.10.2019
563 Clear 20 1014 59 0 7.04 93.721 11:57 08.10.2019
564 Clear 20 1014 59 0 7.04 93.721 11:38 08.10.2019
565 Clear 20 1014 59 0 7.04 93.721 11:20 08.10.2019
566 Clear 20 1014 59 0 7.04 93.721 10:42 08.10.2019
567 Clear 20 1014 59 0 7.04 93.721 10:22 08.10.2019
568 Clear 20 1014 59 0 7.04 93.721 09:58 08.10.2019
569 Clear 20 1014 59 0 7.04 93.721 09:40 08.10.2019
570 Clear 20 1014 59 0 7.04 93.721 09:40 08.10.2019
571 Clouds 17 1016 66 0 3.31 96.812 09:21 08.10.2019
572 Clouds 16 1017 68 0 2.95 108.072 08:45 08.10.2019
573 Clouds 16 1017 68 0 2.95 108.072 08:25 08.10.2019
574 Clouds 16 1017 68 0 2.95 108.072 07:47 08.10.2019
575 Clouds 16 1017 68 0 2.95 108.072 07:23 08.10.2019
576 Clouds 16 1017 68 0 2.95 108.072 06:57 08.10.2019
577 Clouds 16 1017 68 0 2.95 108.072 06:36 08.10.2019
578 Clouds 10 1017 83 0 2.33 42.1 05:59 08.10.2019
579 Clouds 10 1017 83 0 2.33 42.1 05:40 08.10.2019
580 Clouds 10 1017 83 0 2.33 42.1 05:40 08.10.2019
581 Clouds 15 1024 72 10000 2.6 160 04:55 08.10.2019
582 Clouds 14 1023 82 10000 2.6 100 03:30 08.10.2019
583 Clouds 14 1023 82 10000 2.6 100 03:30 08.10.2019
584 Clouds 14 1023 82 10000 2.6 100 02:40 08.10.2019
585 Clouds 11 1015 86 0 2.03 32.389 01:51 08.10.2019
586 Clouds 17 1025 77 10000 2.6 60 01:32 08.10.2019
587 Clouds 17 1025 77 10000 2.6 60 00:55 08.10.2019
588 Clouds 17 1025 77 10000 2.6 60 00:22 08.10.2019
589 Clouds 11 1016 87 0 1.65 45.688 23:43 07.10.2019
590 Clouds 17 1025 77 10000 3.1 80 23:21 07.10.2019
591 Clouds 11 1016 87 0 1.65 45.688 22:58 07.10.2019
592 Clouds 11 1016 87 0 1.65 45.688 22:58 07.10.2019
593 Clouds 11 1016 87 0 1.65 45.688 22:40 07.10.2019
594 Clouds 18 1026 72 10000 2.6 80 22:21 07.10.2019
595 Clouds 18 1026 72 10000 2.6 80 22:21 07.10.2019
596 Clouds 18 1026 72 10000 2.6 80 21:58 07.10.2019
597 Clouds 18 1026 72 10000 2.6 80 21:40 07.10.2019
598 Clouds 18 1026 72 10000 2.6 80 21:20 07.10.2019
599 Clouds 19 1025 72 10000 2.1 100 20:58 07.10.2019
600 Clouds 19 1025 72 10000 2.1 100 20:39 07.10.2019
601 Clouds 19 1025 72 10000 2.1 100 20:21 07.10.2019
602 Clouds 19 1025 72 10000 5.1 70 19:58 07.10.2019
603 Clouds 19 1025 72 10000 5.1 70 19:40 07.10.2019
604 Clouds 19 1025 72 10000 5.1 70 19:20 07.10.2019
605 Clouds 19 1025 72 10000 5.1 70 19:20 07.10.2019
606 Clear 12 1015 88 0 2 50.11 18:58 07.10.2019
607 Clear 12 1015 88 0 2 50.11 18:38 07.10.2019
608 Clear 15 1012 80 0 2.9 95.705 18:18 07.10.2019
609 Clear 15 1012 80 0 2.9 95.705 17:43 07.10.2019
610 Clear 15 1012 80 0 2.9 95.705 17:43 07.10.2019
611 Clear 15 1012 80 0 2.9 95.705 17:22 07.10.2019
612 Clear 15 1012 80 0 2.9 95.705 16:58 07.10.2019
613 Clear 15 1012 80 0 2.9 95.705 16:58 07.10.2019
614 Clear 15 1012 80 0 2.9 95.705 16:39 07.10.2019
615 Clear 15 1012 80 0 2.9 95.705 16:20 07.10.2019
616 Clear 15 1012 80 0 2.9 95.705 15:45 07.10.2019
617 Clear 20 1010 60 0 6.57 92.007 15:26 07.10.2019
618 Clear 20 1010 60 0 6.57 92.007 15:26 07.10.2019
619 Clear 20 1010 60 0 6.57 92.007 15:26 07.10.2019
620 Clear 20 1010 60 0 6.57 92.007 14:56 07.10.2019
621 Clear 20 1010 60 0 6.57 92.007 14:38 07.10.2019
622 Clear 20 1010 60 0 6.57 92.007 14:20 07.10.2019
623 Clear 20 1010 60 0 6.57 92.007 13:43 07.10.2019
624 Clear 20 1010 59 0 6.33 92.973 13:20 07.10.2019
625 Clear 20 1010 59 0 6.33 92.973 12:56 07.10.2019
626 Clear 20 1010 59 0 6.33 92.973 12:38 07.10.2019
627 Clear 20 1013 57 0 6.56 95.922 12:19 07.10.2019
628 Clear 20 1013 57 0 6.56 95.922 11:57 07.10.2019
629 Clear 20 1013 57 0 6.56 95.922 11:37 07.10.2019
630 Clear 20 1013 57 0 6.56 95.922 11:18 07.10.2019
631 Clear 20 1013 57 0 6.56 95.922 10:42 07.10.2019
632 Clear 20 1013 57 0 6.56 95.922 10:20 07.10.2019
633 Clear 20 1013 57 0 6.56 95.922 09:43 07.10.2019
634 Clouds 16 1016 68 0 2.6 108.588 09:25 07.10.2019
635 Clouds 16 1016 68 0 2.6 108.588 08:58 07.10.2019
636 Clear 16 1016 68 0 2.07 110.016 08:39 07.10.2019
637 Clear 16 1016 68 0 2.07 110.016 08:20 07.10.2019
638 Clear 16 1016 68 0 2.07 110.016 07:43 07.10.2019
639 Clear 16 1016 68 0 2.07 110.016 07:25 07.10.2019
640 Clear 16 1016 68 0 2.07 110.016 06:54 07.10.2019
641 Clear 16 1016 68 0 2.07 110.016 06:34 07.10.2019
642 Clear 10 1017 83 0 2.04 36.515 05:49 07.10.2019
643 Clouds 12 1024 81 10000 2.1 320 05:23 07.10.2019
644 Clouds 12 1024 81 10000 2.1 320 04:42 07.10.2019
645 Clear 10 1017 83 0 2.04 36.515 03:45 07.10.2019
646 Clouds 14 1024 76 10000 1 300 03:23 07.10.2019
647 Clouds 14 1024 76 10000 1 300 03:23 07.10.2019
648 Clouds 14 1024 76 10000 1 300 02:23 07.10.2019
649 Clouds 14 1024 76 10000 1 300 02:23 07.10.2019
650 Clouds 14 1024 82 10000 1 50 01:52 07.10.2019
651 Clouds 14 1024 82 10000 1 50 01:22 07.10.2019
652 Clouds 12 1015 85 0 1.24 40.651 00:44 07.10.2019
653 Clouds 15 1025 77 10000 2.1 80 00:22 07.10.2019
654 Clouds 15 1025 77 10000 2.1 80 23:54 06.10.2019
655 Clouds 15 1025 77 10000 2.1 80 23:36 06.10.2019
656 Clouds 15 1025 77 10000 2.1 80 23:18 06.10.2019
657 Clear 11 1016 81 0 2.51 40.156 22:41 06.10.2019
658 Clouds 14 1026 82 10000 1 90 22:22 06.10.2019
659 Clouds 14 1026 82 10000 1 90 21:58 06.10.2019
660 Clouds 14 1026 82 10000 1 90 21:38 06.10.2019
661 Clouds 14 1026 82 10000 1 90 21:19 06.10.2019
662 Clouds 14 1025 82 10000 2.1 130 20:58 06.10.2019
663 Clouds 14 1025 82 10000 2.1 130 20:40 06.10.2019
664 Clouds 14 1025 82 10000 2.1 130 20:21 06.10.2019
665 Clear 12 1016 81 0 2.5 35.015 19:58 06.10.2019
666 Clear 12 1016 81 0 2.5 35.015 19:38 06.10.2019
667 Clear 12 1016 81 0 2.5 35.015 19:38 06.10.2019
668 Clear 12 1016 81 0 2.5 35.015 19:20 06.10.2019
669 Clear 12 1016 81 0 2.5 35.015 18:57 06.10.2019
670 Clear 12 1016 81 0 2.5 35.015 18:39 06.10.2019
671 Clouds 18 1023 63 10000 8.2 90 18:20 06.10.2019
672 Clouds 18 1023 63 10000 8.2 90 17:59 06.10.2019
673 Clouds 18 1023 63 10000 8.2 90 17:39 06.10.2019
674 Clouds 18 1023 63 10000 8.2 90 17:19 06.10.2019
675 Clouds 20 1023 45 10000 9.3 80 16:43 06.10.2019
676 Clouds 20 1023 45 10000 9.3 80 16:24 06.10.2019
677 Clouds 20 1023 45 10000 9.3 80 16:24 06.10.2019
678 Clear 15 1012 79 0 3.1 96.401 15:59 06.10.2019
679 Clear 15 1012 79 0 3.1 96.401 15:41 06.10.2019
680 Clouds 21 1024 40 10000 9.3 80 15:19 06.10.2019
681 Clouds 21 1024 40 10000 9.3 80 14:43 06.10.2019
682 Clouds 21 1024 40 10000 9.3 80 14:24 06.10.2019
683 Clouds 22 1024 37 10000 9.3 90 13:58 06.10.2019
684 Clouds 22 1024 37 10000 9.3 90 13:39 06.10.2019
685 Clouds 22 1024 37 10000 9.3 90 13:21 06.10.2019
686 Rain 20 1011 63 0 5.7 94.033 12:57 06.10.2019
687 Rain 20 1011 63 0 5.7 94.033 12:39 06.10.2019
688 Clouds 21 1026 40 10000 8.7 100 12:20 06.10.2019
689 Clouds 21 1026 40 10000 8.7 100 12:20 06.10.2019
690 Clouds 21 1026 40 10000 8.7 100 11:57 06.10.2019
691 Clouds 21 1026 40 10000 8.7 100 11:57 06.10.2019
692 Clouds 21 1026 40 10000 8.7 100 11:38 06.10.2019
693 Clouds 21 1026 40 10000 8.7 100 11:20 06.10.2019
694 Clouds 21 1026 37 10000 7.2 80 10:44 06.10.2019
695 Clouds 21 1026 37 10000 7.2 80 10:44 06.10.2019
696 Clouds 21 1026 37 10000 7.2 80 10:26 06.10.2019
697 Clouds 20 1027 40 10000 7.2 70 09:58 06.10.2019
698 Clouds 20 1027 40 10000 7.2 70 09:39 06.10.2019
699 Clouds 20 1027 40 10000 7.2 70 09:18 06.10.2019
700 Clouds 19 1026 42 10000 5.1 80 08:43 06.10.2019
701 Clouds 17 1026 59 10000 2.1 100 08:21 06.10.2019
702 Clouds 17 1026 59 10000 2.1 100 07:56 06.10.2019
703 Clouds 17 1026 59 10000 2.1 100 07:33 06.10.2019
704 Clouds 14 1026 87 10000 2.1 190 06:20 06.10.2019
705 Clouds 14 1025 76 10000 1.5 270 05:34 06.10.2019
706 Clouds 10 1017 85 0 1.08 36.405 03:42 06.10.2019
707 Clouds 14 1025 87 10000 2.1 130 02:43 06.10.2019
708 Clouds 14 1025 87 10000 2.1 130 02:21 06.10.2019
709 Clouds 12 1016 87 0 0.4 23.646 01:44 06.10.2019
710 Clouds 15 1026 77 10000 2.1 60 01:26 06.10.2019
711 Clouds 15 1026 77 10000 2.1 60 00:52 06.10.2019
712 Clouds 15 1026 77 10000 2.1 60 00:26 06.10.2019
713 Clouds 12 1016 88 0 1.6 28.831 23:45 05.10.2019
714 Clouds 15 1026 82 10000 3.1 60 23:22 05.10.2019
715 Clouds 15 1026 82 10000 3.1 60 22:58 05.10.2019
716 Clouds 15 1026 82 10000 3.1 60 22:40 05.10.2019
717 Clouds 15 1026 82 10000 3.1 60 22:20 05.10.2019
718 Clouds 12 1016 88 0 1.6 28.831 21:56 05.10.2019
719 Clouds 12 1016 88 0 1.6 28.831 21:38 05.10.2019
720 Rain 12 1016 89 0 2.13 35.462 21:18 05.10.2019
721 Rain 12 1016 89 0 2.13 35.462 20:55 05.10.2019
722 Rain 13 1015 88 0 1.69 28.857 20:37 05.10.2019
723 Rain 13 1015 88 0 1.69 28.857 20:18 05.10.2019
724 Rain 13 1015 88 0 1.69 28.857 19:37 05.10.2019
725 Clouds 16 1024 87 10000 3.1 90 19:19 05.10.2019
726 Clouds 16 1024 87 10000 3.1 90 19:19 05.10.2019
727 Clouds 16 1024 87 10000 3.1 90 18:55 05.10.2019
728 Rain 13 1015 88 0 1.69 28.857 18:37 05.10.2019
729 Clouds 17 1023 82 10000 3.1 110 18:19 05.10.2019
730 Clouds 17 1023 82 10000 3.1 110 17:43 05.10.2019
731 Clouds 17 1023 82 10000 3.1 110 17:24 05.10.2019
732 Clouds 17 1023 72 10000 2.1 40 16:57 05.10.2019
733 Clouds 17 1023 72 10000 2.1 40 16:39 05.10.2019
734 Clouds 17 1023 72 10000 2.1 40 16:20 05.10.2019
735 Thunderstorm 15 1023 82 9000 7.2 80 15:56 05.10.2019
736 Thunderstorm 15 1023 82 9000 7.2 80 15:38 05.10.2019
737 Thunderstorm 15 1023 82 9000 7.2 80 15:19 05.10.2019
738 Clouds 22 1023 49 10000 6.7 100 14:43 05.10.2019
739 Clouds 22 1023 49 10000 6.7 100 14:24 05.10.2019
740 Rain 19 1010 75 0 2.49 109.214 13:58 05.10.2019
741 Rain 19 1010 75 0 2.49 109.214 13:40 05.10.2019
742 Clouds 21 1024 49 10000 6.2 110 13:19 05.10.2019
743 Rain 18 1010 76 0 2.53 114.581 12:43 05.10.2019
744 Clouds 20 1026 49 10000 6.2 70 12:19 05.10.2019
745 Clouds 20 1026 49 10000 6.2 70 11:43 05.10.2019
746 Rain 19 1015 71 0 2.13 124.743 11:21 05.10.2019
747 Rain 19 1015 71 0 2.13 124.743 10:58 05.10.2019
748 Rain 19 1015 71 0 2.13 124.743 10:40 05.10.2019
749 Clouds 19 1027 45 10000 5.1 90 10:21 05.10.2019
750 Clouds 19 1027 45 10000 5.1 90 09:55 05.10.2019
751 Clouds 19 1027 45 10000 5.1 90 09:37 05.10.2019
752 Clouds 19 1027 45 10000 5.1 90 09:18 05.10.2019
753 Clouds 18 1027 52 10000 5.1 70 08:39 05.10.2019
754 Clouds 18 1027 52 10000 5.1 70 08:19 05.10.2019
755 Clouds 16 1026 63 10000 2.1 100 07:52 05.10.2019
756 Clouds 16 1026 63 10000 2.1 100 07:30 05.10.2019
757 Clouds 14 1026 76 10000 1 100 06:56 05.10.2019
758 Clouds 14 1026 76 10000 1 100 06:23 05.10.2019
759 Clouds 10 1018 88 0 1.49 1.696 05:39 05.10.2019
760 Clouds 14 1025 87 10000 2.1 100 03:32 05.10.2019
761 Clouds 14 1025 87 10000 2.1 100 02:45 05.10.2019
762 Clouds 15 1025 87 10000 1.5 130 01:27 05.10.2019
763 Clouds 15 1026 87 10000 1.5 80 00:49 05.10.2019
764 Clouds 15 1026 87 10000 1.5 80 00:28 05.10.2019
765 Mist 14 1026 93 9000 2.1 80 23:58 04.10.2019
766 Mist 14 1026 93 9000 2.1 80 23:40 04.10.2019
767 Mist 14 1026 93 9000 2.1 80 23:21 04.10.2019
768 Clouds 15 1026 87 10000 2.1 150 22:56 04.10.2019
769 Clouds 15 1026 87 10000 2.1 150 22:37 04.10.2019
770 Clouds 15 1026 87 10000 2.1 150 22:37 04.10.2019
771 Clouds 15 1026 87 10000 2.1 150 22:19 04.10.2019
772 Clouds 15 1026 87 10000 2.1 90 21:40 04.10.2019
773 Clouds 15 1026 87 10000 2.1 90 21:22 04.10.2019
774 Clouds 15 1026 87 10000 2.1 90 21:22 04.10.2019
775 Clouds 15 1025 87 10000 4.1 70 20:59 04.10.2019
776 Clouds 15 1025 87 10000 4.1 70 20:59 04.10.2019
777 Clouds 15 1025 87 10000 4.1 70 20:41 04.10.2019
778 Clouds 15 1025 87 10000 4.1 70 20:22 04.10.2019
779 Clouds 16 1025 82 10000 4.6 90 19:56 04.10.2019
780 Clouds 16 1025 82 10000 4.6 90 19:37 04.10.2019
781 Clouds 16 1025 82 10000 4.6 90 19:19 04.10.2019
782 Clouds 16 1025 82 10000 4.6 90 18:54 04.10.2019
783 Clouds 16 1024 77 10000 5.1 80 18:36 04.10.2019
784 Clouds 18 1024 72 10000 6.2 80 18:18 04.10.2019
785 Clouds 18 1024 72 10000 6.2 80 17:39 04.10.2019
786 Rain 15 1012 84 0 1.49 91.573 17:21 04.10.2019
787 Rain 15 1012 84 0 1.49 91.573 16:57 04.10.2019
788 Rain 15 1012 84 0 1.49 91.573 16:39 04.10.2019
789 Clouds 21 1023 49 10000 7.2 80 16:18 04.10.2019
790 Clouds 21 1023 49 10000 7.2 80 15:56 04.10.2019
791 Clouds 21 1023 49 10000 7.2 80 15:37 04.10.2019
792 Clouds 21 1023 49 10000 7.2 80 15:19 04.10.2019
793 Clouds 21 1023 49 10000 7.2 80 15:19 04.10.2019
794 Clouds 20 1023 52 10000 7.2 80 14:55 04.10.2019
795 Clouds 20 1023 52 10000 7.2 80 14:36 04.10.2019
796 Clouds 20 1023 52 10000 7.2 80 14:18 04.10.2019
797 Clouds 20 1024 52 10000 6.7 40 13:43 04.10.2019
798 Clouds 20 1024 52 10000 6.7 40 13:20 04.10.2019
799 Clouds 19 1026 59 10000 8.2 70 12:47 04.10.2019
800 Clouds 19 1026 59 10000 8.2 70 12:29 04.10.2019
801 Clouds 18 1026 68 10000 7.2 80 11:59 04.10.2019
802 Rain 19 1014 72 0 3.28 116.354 11:40 04.10.2019
803 Rain 19 1014 72 0 3.28 116.354 11:40 04.10.2019
804 Rain 19 1014 72 0 3.28 116.354 11:40 04.10.2019
805 Rain 19 1014 72 0 3.28 116.354 11:20 04.10.2019
806 Rain 19 1014 72 0 3.28 116.354 10:40 04.10.2019
807 Rain 19 1014 72 0 3.28 116.354 10:21 04.10.2019
808 Rain 19 1014 72 0 3.28 116.354 09:47 04.10.2019
809 Rain 19 1014 73 0 3.46 119.021 09:28 04.10.2019
810 Clear 16 1017 81 0 2 138.86 08:56 04.10.2019
811 Clear 16 1017 81 0 2 138.86 08:38 04.10.2019
812 Clear 16 1017 81 0 2 138.86 08:19 04.10.2019
813 Clear 16 1017 81 0 2 138.86 07:44 04.10.2019
814 Clouds 14 1027 87 10000 3.1 30 07:22 04.10.2019
815 Clouds 14 1027 87 10000 3.1 30 06:44 04.10.2019
816 Clouds 14 1027 87 10000 3.1 30 06:44 04.10.2019
817 Clouds 14 1027 87 10000 3.1 30 06:25 04.10.2019
818 Clouds 14 1027 87 10000 3.1 30 06:25 04.10.2019
819 Clouds 14 1026 87 10000 5.1 30 05:42 04.10.2019
820 Clouds 14 1026 87 10000 5.1 30 05:18 04.10.2019
821 Clear 10 1017 89 0 1.1 58.259 03:48 04.10.2019
822 Rain 14 1026 87 8000 4.1 70 02:53 04.10.2019
823 Rain 14 1026 87 8000 4.1 70 02:53 04.10.2019
824 Clouds 14 1026 87 10000 4.1 60 01:55 04.10.2019
825 Clouds 14 1026 87 10000 4.1 60 01:30 04.10.2019
826 Clouds 14 1026 87 10000 4.1 50 00:58 04.10.2019
827 Clouds 14 1026 87 10000 4.1 50 23:58 03.10.2019
828 Clouds 14 1026 87 10000 35 50 23:37 03.10.2019
829 Clouds 14 1026 87 10000 35 50 23:18 03.10.2019
830 Clouds 14 1026 87 10000 35 50 23:18 03.10.2019
831 Clouds 14 1026 87 10000 35 50 23:18 03.10.2019
832 Clouds 14 1026 87 10000 35 50 23:18 03.10.2019
833 Clouds 14 1026 87 10000 35 50 22:56 03.10.2019
834 Clear 12 1016 91 0 1.53 37.47 22:37 03.10.2019
835 Clear 12 1016 91 0 1.53 37.47 22:19 03.10.2019
836 Clear 12 1016 91 0 1.53 37.47 21:55 03.10.2019
837 Clear 12 1016 91 0 1.53 37.47 21:36 03.10.2019
838 Clouds 16 1026 82 10000 6.2 70 21:18 03.10.2019
839 Clouds 16 1026 82 10000 6.2 70 20:55 03.10.2019
840 Clouds 16 1026 82 10000 6.2 70 20:55 03.10.2019
841 Clouds 16 1026 82 10000 6.2 70 20:37 03.10.2019
842 Clouds 16 1026 82 10000 6.2 70 20:19 03.10.2019
843 Clouds 16 1026 77 10000 5.1 90 19:41 03.10.2019
844 Clouds 16 1026 77 10000 5.1 90 19:22 03.10.2019
845 Rain 12 1015 91 0 2.26 59.935 18:58 03.10.2019
846 Rain 12 1015 91 0 2.26 59.935 18:39 03.10.2019
847 Rain 16 1012 85 0 2.44 116.638 18:19 03.10.2019
848 Rain 16 1012 85 0 2.44 116.638 17:56 03.10.2019
849 Clouds 21 1024 49 10000 5.1 90 17:37 03.10.2019
850 Clouds 21 1024 49 10000 5.1 90 17:19 03.10.2019
851 Clouds 21 1024 49 10000 5.1 90 16:41 03.10.2019
852 Clouds 21 1024 49 10000 5.1 90 16:23 03.10.2019
853 Rain 16 1012 85 0 2.44 116.638 15:55 03.10.2019
854 Rain 16 1012 85 0 2.44 116.638 15:55 03.10.2019
855 Rain 16 1012 85 0 2.44 116.638 15:37 03.10.2019
856 Rain 19 1009 75 0 4.48 120.386 15:19 03.10.2019
857 Rain 19 1009 75 0 4.48 120.386 14:45 03.10.2019
858 Rain 19 1009 75 0 4.48 120.386 14:26 03.10.2019
859 Rain 19 1009 75 0 4.48 120.386 13:57 03.10.2019
860 Rain 19 1009 75 0 4.48 120.386 13:39 03.10.2019
861 Clouds 20 1025 56 10000 4.6 120 13:19 03.10.2019
862 Clouds 20 1025 56 10000 4.6 120 12:55 03.10.2019
863 Clouds 20 1025 56 10000 4.6 120 12:36 03.10.2019
864 Clouds 18 1027 63 10000 5.7 100 12:18 03.10.2019
865 Clouds 18 1027 63 10000 5.7 100 11:41 03.10.2019
866 Clouds 18 1027 72 10000 5.1 100 11:22 03.10.2019
867 Clouds 18 1027 72 10000 5.1 100 10:58 03.10.2019
868 Clouds 18 1027 72 10000 5.1 100 10:58 03.10.2019
869 Clouds 18 1027 72 10000 5.1 100 10:40 03.10.2019
870 Clouds 18 1027 72 10000 5.1 100 10:18 03.10.2019
871 Clouds 18 1028 68 10000 6.2 110 09:57 03.10.2019
872 Clouds 18 1028 68 10000 6.2 110 09:39 03.10.2019
873 Clouds 18 1028 68 10000 6.2 110 09:20 03.10.2019
874 Clouds 18 1027 68 10000 3.6 90 08:43 03.10.2019
875 Clouds 18 1027 68 10000 3.6 90 08:25 03.10.2019
876 Clouds 16 1027 72 10000 3.6 80 07:56 03.10.2019
877 Clouds 16 1027 72 10000 3.6 80 07:37 03.10.2019
878 Clouds 16 1027 72 10000 3.6 80 07:19 03.10.2019
879 Clouds 15 1027 77 10000 2.6 100 06:45 03.10.2019
880 Clouds 11 1018 88 0 1.1 55.357 06:18 03.10.2019
881 Clouds 11 1018 88 0 1.1 55.357 05:38 03.10.2019
882 Clouds 14 1025 82 10000 2.1 100 04:50 03.10.2019
883 Clouds 14 1025 82 10000 2.1 100 04:25 03.10.2019
884 Clouds 13 1025 87 10000 2.1 30 03:21 03.10.2019
885 Clouds 14 1025 82 10000 2.1 40 02:33 03.10.2019
886 Clouds 11 1016 90 0 0.7 23.414 01:50 03.10.2019
887 Clouds 11 1016 92 0 0.83 21.304 01:31 03.10.2019
888 Clouds 11 1016 92 0 0.83 21.304 00:45 03.10.2019
889 Clouds 15 1026 77 10000 2.1 80 00:18 03.10.2019
890 Clouds 15 1026 77 10000 2.1 80 23:43 02.10.2019
891 Clouds 15 1026 77 10000 2.1 80 23:20 02.10.2019
892 Rain 12 1017 92 0 1.07 32.307 22:43 02.10.2019
893 Clouds 16 1026 77 10000 3.1 60 22:21 02.10.2019
894 Clouds 16 1026 77 10000 3.1 60 21:56 02.10.2019
895 Clouds 16 1026 77 10000 3.1 60 21:38 02.10.2019
896 Clouds 16 1026 77 10000 3.1 60 21:19 02.10.2019
897 Clouds 16 1026 77 10000 3.1 70 20:56 02.10.2019
898 Clouds 16 1026 77 10000 3.1 70 20:37 02.10.2019
899 Clouds 16 1026 77 10000 3.1 70 20:19 02.10.2019
900 Clouds 16 1026 77 10000 3.1 70 19:47 02.10.2019
901 Clouds 16 1026 77 10000 3.1 70 19:25 02.10.2019
902 Clouds 16 1026 77 10000 3.1 70 18:59 02.10.2019
903 Clouds 17 1025 72 10000 4.1 90 18:40 02.10.2019
904 Clouds 17 1025 72 10000 4.1 90 18:22 02.10.2019
905 Clouds 17 1025 72 10000 4.1 90 17:59 02.10.2019
906 Clouds 20 1024 60 10000 5.1 100 17:40 02.10.2019
907 Clouds 20 1024 60 10000 5.1 100 17:21 02.10.2019
908 Clouds 20 1024 60 10000 5.1 100 16:57 02.10.2019
909 Clouds 20 1024 60 10000 5.1 100 16:38 02.10.2019
910 Clouds 20 1024 60 10000 5.1 100 16:20 02.10.2019
911 Clouds 20 1024 60 10000 6.2 100 15:56 02.10.2019
912 Clouds 20 1024 60 10000 6.2 100 15:37 02.10.2019
913 Clouds 20 1024 60 10000 6.2 100 15:18 02.10.2019
914 Clouds 21 1024 56 10000 4.6 120 14:43 02.10.2019
915 Clouds 21 1024 56 10000 4.6 120 14:25 02.10.2019
916 Clouds 20 1025 56 10000 2.78 108.65 13:57 02.10.2019
917 Clouds 20 1025 56 10000 2.78 108.65 13:39 02.10.2019
918 Clouds 20 1025 56 10000 2.73 69.348 13:20 02.10.2019
919 Rain 18 1012 76 0 2.73 69.348 12:40 02.10.2019
920 Clouds 20 1027 64 10000 1.72 111.522 12:22 02.10.2019
921 Clouds 20 1027 64 10000 1.72 111.522 11:58 02.10.2019
922 Clouds 20 1027 64 10000 1.72 111.522 11:40 02.10.2019
923 Clouds 20 1027 64 10000 1.72 111.522 11:18 02.10.2019
924 Clouds 18 1027 68 10000 1.72 111.522 10:38 02.10.2019
925 Clouds 18 1027 68 10000 1.72 111.522 10:19 02.10.2019
926 Clouds 17 1028 72 10000 1.72 111.522 09:40 02.10.2019
927 Clouds 17 1028 72 10000 0.84 203.082 09:20 02.10.2019
928 Clouds 15 1028 82 10000 0.84 203.082 08:56 02.10.2019
929 Clouds 15 1028 82 10000 0.35 167.347 08:37 02.10.2019
930 Clouds 15 1028 82 10000 0.35 167.347 08:19 02.10.2019
931 Rain 15 1018 86 0 0.35 167.347 07:39 02.10.2019
932 Rain 15 1018 86 0 0.35 167.347 07:21 02.10.2019
933 Rain 15 1018 86 0 0.35 167.347 06:54 02.10.2019
934 Clouds 12 1026 93 10000 1.01 47.497 05:56 02.10.2019
935 Clouds 12 1026 93 10000 1.01 47.497 05:25 02.10.2019
936 Rain 12 1017 93 0 1.01 47.497 04:58 02.10.2019
937 Rain 12 1017 93 0 1.01 47.497 03:53 02.10.2019
938 Rain 14 1025 87 8000 0.73 43.063 03:19 02.10.2019
939 Rain 14 1025 87 8000 0.73 43.063 02:24 02.10.2019
940 Rain 12 1015 94 0 0.73 43.063 01:52 02.10.2019
941 Rain 14 1026 87 0 0.8 1.43 00:51 02.10.2019
942 Clouds 14 1027 87 10000 1 40 00:29 02.10.2019
943 Clouds 14 1027 87 10000 1 40 23:46 01.10.2019
944 Clouds 14 1027 87 10000 1 40 23:27 01.10.2019
945 Clouds 14 1027 87 10000 1 330 22:59 01.10.2019
946 Clouds 14 1027 87 10000 1 330 22:41 01.10.2019
947 Clouds 14 1027 87 10000 1 330 22:20 01.10.2019
948 Clouds 14 1027 87 10000 2.1 290 21:58 01.10.2019
949 Clouds 14 1027 87 10000 2.1 290 21:39 01.10.2019
950 Clouds 14 1027 87 10000 2.1 290 21:21 01.10.2019
951 Clouds 15 1027 82 10000 3.1 250 20:57 01.10.2019
952 Clouds 15 1027 82 10000 3.1 250 20:38 01.10.2019
953 Clouds 15 1027 82 10000 3.1 250 20:19 01.10.2019
954 Rain 14 1015 83 0 1.68 9.434 19:56 01.10.2019
955 Rain 14 1015 83 0 1.68 9.434 19:38 01.10.2019
956 Rain 14 1015 83 0 1.68 9.434 19:18 01.10.2019
957 Rain 14 1015 83 0 1.68 9.434 18:41 01.10.2019
958 Rain 16 1012 84 0 0.62 126.279 18:22 01.10.2019
959 Rain 16 1012 84 0 0.62 126.279 17:59 01.10.2019
960 Rain 16 1012 84 0 0.62 126.279 17:40 01.10.2019
961 Rain 16 1012 84 0 0.62 126.279 17:20 01.10.2019
962 Rain 16 1012 84 0 0.62 126.279 16:58 01.10.2019
963 Rain 16 1012 84 0 0.62 126.279 16:40 01.10.2019
964 Clouds 16 1024 82 0 5.7 170 16:21 01.10.2019
965 Clouds 16 1024 82 0 5.7 170 15:46 01.10.2019
966 Clouds 16 1024 82 0 5.7 170 15:23 01.10.2019
967 Clouds 21 1023 56 10000 3.1 180 14:55 01.10.2019
968 Clouds 21 1023 56 10000 3.1 180 14:37 01.10.2019
969 Clouds 21 1023 56 10000 3.1 180 14:18 01.10.2019
970 Rain 19 1010 68 0 1.94 173.033 13:40 01.10.2019
971 Clouds 19 1024 68 10000 3.6 190 13:21 01.10.2019
972 Clouds 19 1024 68 10000 3.6 190 12:59 01.10.2019
973 Clouds 19 1024 68 10000 3.6 190 12:40 01.10.2019
974 Clouds 19 1024 68 10000 3.6 190 12:19 01.10.2019
975 Clouds 19 1025 68 10000 4.1 160 11:58 01.10.2019
976 Clouds 19 1025 68 10000 4.1 160 11:38 01.10.2019
977 Clouds 19 1025 68 10000 4.1 160 11:18 01.10.2019
978 Clouds 19 1026 63 10000 4.6 190 10:49 01.10.2019
979 Clouds 19 1026 63 10000 4.6 190 10:29 01.10.2019
980 Clouds 18 1027 68 10000 4.6 180 09:49 01.10.2019
981 Clouds 18 1027 68 10000 4.6 180 09:31 01.10.2019
982 Clouds 16 1017 80 0 0.93 234.815 08:57 01.10.2019
983 Clouds 16 1016 80 0 0.62 243.6 08:39 01.10.2019
984 Clouds 16 1026 87 10000 1 320 08:21 01.10.2019
985 Clouds 16 1026 87 10000 1 320 07:43 01.10.2019
986 Clouds 16 1026 87 10000 1 320 07:24 01.10.2019
987 Clouds 13 1026 93 10000 1 50 06:47 01.10.2019
988 Clouds 13 1026 93 10000 1 50 06:19 01.10.2019
989 Clouds 11 1016 89 0 1.1 359.065 05:46 01.10.2019
990 Clouds 11 1016 89 0 1.1 359.065 05:18 01.10.2019
991 Clouds 13 1025 93 10000 3.1 310 04:29 01.10.2019
992 Rain 11 1014 90 0 1.59 16.188 02:28 01.10.2019
993 Rain 11 1014 90 0 1.59 16.188 01:58 01.10.2019
994 Rain 12 1014 91 0 1.67 14.028 00:53 01.10.2019
995 Rain 12 1014 91 0 1.67 14.028 00:28 01.10.2019
996 Rain 13 1016 91 0 0.07 358.264 23:56 30.09.2019
997 Rain 13 1016 91 0 0.07 358.264 23:38 30.09.2019
998 Clouds 15 1025 87 10000 2.1 70 23:19 30.09.2019
999 Clouds 15 1025 87 10000 2.1 70 22:43 30.09.2019
1000 Clouds 15 1025 87 10000 2.1 70 22:24 30.09.2019
1001 Rain 13 1016 91 0 0.07 358.264 21:57 30.09.2019
1002 Rain 13 1016 91 0 0.07 358.264 21:38 30.09.2019
1003 Clouds 15 1025 87 10000 2.1 70 21:19 30.09.2019
1004 Clouds 15 1025 87 10000 2.1 70 21:19 30.09.2019
1005 Clouds 15 1025 87 10000 2.1 70 20:57 30.09.2019
1006 Clouds 15 1025 87 10000 2.1 70 20:38 30.09.2019
1007 Clouds 15 1025 87 10000 2.1 70 20:20 30.09.2019
1008 Clouds 15 1024 93 10000 2.1 180 19:56 30.09.2019
1009 Clouds 15 1024 93 10000 2.1 180 19:56 30.09.2019
1010 Rain 13 1015 87 0 2.09 60.863 19:38 30.09.2019
1011 Rain 13 1015 87 0 2.09 60.863 19:19 30.09.2019
1012 -273 0 0 0 0 0 18:56 30.09.2019
1013 Rain 13 1015 87 0 2.09 60.863 18:56 30.09.2019
1014 Rain 13 1015 87 0 2.09 60.863 18:37 30.09.2019
1015 Rain 13 1015 87 0 2.09 60.863 18:37 30.09.2019
1016 Clouds 17 1024 82 9000 4.1 140 18:19 30.09.2019
1017 Clouds 17 1024 82 9000 4.1 140 17:41 30.09.2019
1018 Clouds 18 1022 77 10000 3.1 160 17:22 30.09.2019
1019 Clouds 18 1022 77 10000 3.1 160 16:56 30.09.2019
1020 Clouds 18 1022 77 10000 3.1 160 16:38 30.09.2019
1021 Clouds 18 1022 77 10000 3.1 160 16:19 30.09.2019
1022 Clouds 19 1022 77 10000 5.1 150 15:57 30.09.2019
1023 Clouds 19 1022 77 10000 5.1 150 15:57 30.09.2019
1024 Clouds 19 1022 77 10000 5.1 150 15:37 30.09.2019
1025 Clouds 19 1022 77 10000 5.1 150 15:19 30.09.2019
1026 Clouds 20 1022 60 10000 5.1 140 14:57 30.09.2019
1027 Clouds 20 1022 60 10000 5.1 140 14:37 30.09.2019
1028 Clouds 20 1022 60 10000 5.1 140 14:18 30.09.2019
1029 Clouds 20 1023 60 0 6.2 70 13:56 30.09.2019
1030 Clouds 20 1023 60 0 6.2 70 13:37 30.09.2019
1031 Clouds 20 1023 60 0 6.2 70 13:19 30.09.2019
1032 Clouds 19 1026 68 0 8.2 80 12:41 30.09.2019
1033 Clouds 19 1026 68 0 8.2 80 12:21 30.09.2019
1034 Clouds 20 1025 64 10000 6.2 90 11:56 30.09.2019
1035 Clouds 20 1025 64 10000 6.2 90 11:37 30.09.2019
1036 Clouds 20 1025 64 10000 6.2 90 11:18 30.09.2019
1037 Rain 17 1013 85 0 1.91 218.369 10:40 30.09.2019
1038 Rain 17 1013 85 0 1.91 218.369 10:19 30.09.2019
1039 Rain 17 1013 85 0 1.91 218.369 09:58 30.09.2019
1040 Rain 17 1013 85 0 1.91 218.369 09:39 30.09.2019
1041 Rain 13 1016 94 0 0.81 224.85 09:20 30.09.2019
1042 Rain 13 1016 94 0 0.81 224.85 08:47 30.09.2019
1043 Rain 13 1016 96 0 0.81 253.743 08:28 30.09.2019
1044 Rain 13 1016 96 0 0.81 253.743 07:46 30.09.2019
1045 Rain 13 1016 96 0 0.81 253.743 07:28 30.09.2019
1046 Rain 13 1016 96 0 0.81 253.743 06:56 30.09.2019
1047 Rain 13 1016 96 0 0.81 253.743 06:34 30.09.2019
1048 Rain 13 1016 96 0 0.81 253.743 06:34 30.09.2019
1049 Rain 12 1016 91 0 0.83 342.043 05:48 30.09.2019
1050 Rain 12 1016 91 0 0.83 342.043 04:40 30.09.2019
1051 Rain 12 1013 91 0 0.21 331.83 02:48 30.09.2019
1052 Rain 12 1013 91 0 0.21 331.83 01:38 30.09.2019
1053 Rain 12 1014 91 0 0.21 327.216 00:43 30.09.2019
1054 Rain 12 1015 88 0 1.37 31.602 00:22 30.09.2019
1055 Rain 12 1015 88 0 1.37 31.602 23:55 29.09.2019
1056 Rain 12 1015 88 0 1.37 31.602 23:36 29.09.2019
1057 Rain 12 1015 88 0 1.37 31.602 23:18 29.09.2019
1058 Rain 12 1015 88 0 1.37 31.602 22:42 29.09.2019
1059 Rain 12 1015 88 0 1.37 31.602 22:23 29.09.2019
1060 Rain 12 1015 88 0 1.37 31.602 21:58 29.09.2019
1061 Rain 12 1015 88 0 1.37 31.602 21:38 29.09.2019
1062 Rain 13 1014 90 0 2.2 57.843 21:19 29.09.2019
1063 Rain 13 1014 90 0 2.2 57.843 20:45 29.09.2019
1064 Rain 14 1014 90 0 1.71 61.799 20:20 29.09.2019
1065 Rain 14 1014 90 0 1.71 61.799 19:59 29.09.2019
1066 Rain 14 1014 90 0 1.71 61.799 19:38 29.09.2019
1067 Rain 14 1014 90 0 1.71 61.799 19:19 29.09.2019
1068 Rain 14 1014 90 0 1.71 61.799 18:56 29.09.2019
1069 Rain 14 1014 90 0 1.71 61.799 18:56 29.09.2019
1070 Rain 14 1014 90 0 1.71 61.799 18:38 29.09.2019
1071 Rain 16 1011 88 0 2.47 145.756 18:19 29.09.2019
1072 Rain 16 1011 88 0 2.47 145.756 17:59 29.09.2019
1073 Rain 16 1011 88 0 2.47 145.756 17:41 29.09.2019
1074 -273 0 0 0 0 0 17:41 29.09.2019
1075 Rain 16 1011 88 0 2.47 145.756 17:20 29.09.2019
1076 Rain 16 1011 88 0 2.47 145.756 17:20 29.09.2019
1077 Rain 16 1011 88 0 2.47 145.756 16:59 29.09.2019
1078 Rain 16 1011 88 0 2.47 145.756 16:40 29.09.2019
1079 Clouds 20 1022 64 10000 7.2 110 16:19 29.09.2019
1080 Clouds 20 1022 64 10000 7.2 110 15:57 29.09.2019
1081 Clouds 20 1022 64 10000 7.2 110 15:37 29.09.2019
1082 Clouds 20 1022 64 10000 7.2 110 15:18 29.09.2019
1083 Clouds 20 1022 64 10000 4.1 130 14:55 29.09.2019
1084 Clouds 20 1022 64 10000 4.1 130 14:37 29.09.2019
1085 Clouds 20 1022 64 10000 4.1 130 14:18 29.09.2019
1086 Clouds 20 1023 68 10000 6.2 160 13:42 29.09.2019
1087 Clouds 20 1023 68 10000 6.2 160 13:19 29.09.2019
1088 Clouds 20 1024 68 10000 4.1 140 12:59 29.09.2019
1089 Clouds 20 1024 68 10000 4.1 140 12:41 29.09.2019
1090 Clouds 20 1024 68 10000 4.1 140 12:22 29.09.2019
1091 Clouds 19 1026 68 10000 2.1 100 11:59 29.09.2019
1092 Clouds 19 1026 68 10000 2.1 100 11:40 29.09.2019
1093 Clouds 19 1026 68 10000 2.1 100 11:19 29.09.2019
1094 Clouds 19 1027 63 10000 5.1 150 10:57 29.09.2019
1095 Clouds 19 1027 63 10000 5.1 150 10:38 29.09.2019
1096 Clouds 19 1027 63 10000 5.1 150 10:19 29.09.2019
1097 Clouds 18 1027 68 10000 5.1 110 09:56 29.09.2019
1098 Clouds 18 1027 68 10000 5.1 110 09:37 29.09.2019
1099 Clouds 18 1027 68 10000 5.1 110 09:18 29.09.2019
1100 Clouds 18 1027 63 10000 4.1 80 08:42 29.09.2019
1101 Clouds 18 1027 63 10000 4.1 80 08:21 29.09.2019
1102 Clouds 15 1026 77 10000 1 340 07:43 29.09.2019
1103 Clouds 15 1026 77 10000 1 340 07:25 29.09.2019
1104 Clouds 15 1026 77 10000 1 340 06:46 29.09.2019
1105 Clouds 14 1025 82 10000 2.1 20 05:54 29.09.2019
1106 Clouds 14 1025 82 10000 3.1 340 04:42 29.09.2019
1107 Clouds 14 1025 82 10000 3.1 340 04:23 29.09.2019
1108 Rain 12 1014 92 0 1.43 331.732 02:55 29.09.2019
1109 Clouds 13 1024 87 10000 3.1 320 02:19 29.09.2019
1110 Clouds 13 1024 87 10000 3.1 320 01:40 29.09.2019
1111 Clouds 14 1025 87 10000 2.1 30 00:53 29.09.2019
1112 Clouds 14 1025 87 10000 2.1 30 00:21 29.09.2019
1113 Rain 12 1016 93 0 1.12 322.679 23:56 28.09.2019
1114 Clouds 15 1027 72 10000 2.1 30 23:37 28.09.2019
1115 Clouds 15 1027 72 10000 2.1 30 23:18 28.09.2019
1116 Clouds 15 1027 72 10000 2.1 30 22:40 28.09.2019
1117 Clouds 15 1027 72 10000 2.1 30 22:21 28.09.2019
1118 Clouds 16 1027 72 10000 2.1 90 21:57 28.09.2019
1119 Clouds 16 1027 72 10000 2.1 90 21:39 28.09.2019
1120 Clouds 16 1027 72 10000 2.1 90 21:21 28.09.2019
1121 Clouds 16 1026 72 10000 2.1 350 20:57 28.09.2019
1122 Clouds 16 1026 72 10000 2.1 350 20:38 28.09.2019
1123 Clouds 16 1026 72 10000 2.1 350 20:18 28.09.2019
1124 Rain 13 1015 89 0 1.84 53.904 19:56 28.09.2019
1125 Rain 13 1015 89 0 1.84 53.904 19:37 28.09.2019
1126 Rain 13 1015 89 0 1.84 53.904 19:37 28.09.2019
1127 Clouds 17 1026 72 10000 1 340 19:19 28.09.2019
1128 Rain 13 1015 89 0 1.84 53.904 18:54 28.09.2019
1129 Rain 13 1015 89 0 1.84 53.904 18:36 28.09.2019
1130 Rain 16 1013 88 0 1.51 102.208 18:18 28.09.2019
1131 Rain 16 1013 88 0 1.51 102.208 17:42 28.09.2019
1132 Rain 16 1013 88 0 1.51 102.208 17:22 28.09.2019
1133 Rain 16 1013 88 0 1.51 102.208 16:57 28.09.2019
1134 Rain 16 1013 88 0 1.51 102.208 16:57 28.09.2019
1135 Rain 16 1013 88 0 1.51 102.208 16:38 28.09.2019
1136 Rain 16 1013 88 0 1.51 102.208 16:20 28.09.2019
1137 Rain 16 1013 88 0 1.51 102.208 15:40 28.09.2019
1138 Rain 16 1013 88 0 1.51 102.208 15:40 28.09.2019
1139 Rain 18 1011 77 0 2.42 162.899 15:22 28.09.2019
1140 Rain 18 1011 77 0 2.42 162.899 14:56 28.09.2019
1141 Rain 18 1011 77 0 2.42 162.899 14:56 28.09.2019
1142 Rain 18 1011 77 0 2.42 162.899 14:37 28.09.2019
1143 Rain 18 1011 77 0 2.42 162.899 14:19 28.09.2019
1144 Rain 18 1011 77 0 2.42 162.899 13:55 28.09.2019
1145 Rain 18 1011 77 0 2.42 162.899 13:55 28.09.2019
1146 Rain 18 1011 77 0 2.42 162.899 13:36 28.09.2019
1147 Clouds 15 1026 82 9000 1.5 230 13:18 28.09.2019
1148 Clouds 15 1026 82 9000 1.5 230 12:39 28.09.2019
1149 Clouds 15 1026 82 9000 1.5 230 12:19 28.09.2019
1150 Clouds 16 1027 77 10000 3.1 210 11:42 28.09.2019
1151 Clouds 16 1027 77 10000 3.1 210 11:21 28.09.2019
1152 Clouds 15 1029 82 10000 5.1 190 10:59 28.09.2019
1153 Clouds 15 1029 82 10000 5.1 190 10:39 28.09.2019
1154 Clouds 15 1029 82 10000 5.1 190 10:19 28.09.2019
1155 Clouds 14 1029 82 10000 1 240 09:42 28.09.2019
1156 Mist 13 1029 87 8000 1 240 09:23 28.09.2019
1157 Mist 13 1029 87 8000 1 240 08:55 28.09.2019
1158 Mist 13 1029 87 8000 1 240 08:37 28.09.2019
1159 Mist 13 1029 87 8000 1 240 08:18 28.09.2019
1160 Mist 13 1029 93 8000 1 210 07:43 28.09.2019
1161 Mist 13 1029 93 8000 1 210 07:19 28.09.2019
1162 Mist 14 1028 87 8000 1.5 300 06:51 28.09.2019
1163 Clouds 13 1027 93 10000 1 30 06:30 28.09.2019
1164 Rain 12 1018 98 0 0.44 306.56 05:41 28.09.2019
1165 Rain 13 1027 93 6000 1 230 05:19 28.09.2019
1166 Rain 13 1027 93 6000 1 230 04:37 28.09.2019
1167 Rain 13 1027 93 5000 5.1 70 03:48 28.09.2019
1168 Rain 13 1027 93 5000 5.1 70 03:20 28.09.2019
1169 Clouds 13 1026 93 10000 2.1 20 02:43 28.09.2019
1170 Clouds 13 1026 93 10000 2.1 20 02:25 28.09.2019
1171 Rain 13 1017 96 0 1.2 145.008 01:46 28.09.2019
1172 Rain 13 1016 98 0 1.2 126.927 01:24 28.09.2019
1173 Rain 13 1016 98 0 1.2 126.927 00:49 28.09.2019
1174 Rain 13 1016 98 0 1.2 126.927 00:30 28.09.2019
1175 Rain 13 1018 93 0 0.5 129.426 23:41 27.09.2019
1176 Rain 13 1018 93 0 0.5 129.426 23:22 27.09.2019
1177 Rain 13 1018 93 0 0.5 129.426 22:59 27.09.2019
1178 Rain 13 1018 93 0 0.5 129.426 22:41 27.09.2019
1179 Clouds 17 1028 77 10000 0.5 129.426 22:18 27.09.2019
1180 Clouds 17 1028 77 10000 0.5 129.426 22:18 27.09.2019
1181 Clouds 17 1028 77 10000 0.5 129.426 21:55 27.09.2019
1182 Clouds 17 1028 77 10000 0.5 129.426 21:36 27.09.2019
1183 Clouds 17 1028 77 10000 0.97 23.106 21:18 27.09.2019
1184 -273 0 0 0 0 0 20:54 27.09.2019
1185 Clouds 17 1027 72 10000 4.1 200 20:36 27.09.2019
1186 Clouds 17 1027 72 10000 4.1 200 20:18 27.09.2019
1187 Rain 14 1016 87 0 1.53 41.776 19:42 27.09.2019
1188 Rain 14 1016 87 0 1.53 41.776 19:23 27.09.2019
1189 Rain 14 1016 87 0 1.53 41.776 18:55 27.09.2019
1190 Rain 14 1016 87 0 1.53 41.776 18:37 27.09.2019
1191 Clouds 19 1025 68 10000 2.1 150 18:19 27.09.2019
1192 Clouds 19 1025 68 10000 2.1 150 17:40 27.09.2019
1193 Clouds 19 1025 68 10000 2.1 150 17:22 27.09.2019
1194 Rain 16 1014 85 0 1.69 129.196 16:59 27.09.2019
1195 Rain 16 1014 85 0 1.69 129.196 16:41 27.09.2019
1196 Clouds 18 1024 68 10000 1.5 200 16:20 27.09.2019
1197 Clouds 18 1024 68 10000 1.5 200 16:20 27.09.2019
1198 Clouds 18 1024 68 10000 1.5 200 15:55 27.09.2019
1199 Rain 16 1014 85 0 1.69 129.196 15:37 27.09.2019
1200 Clouds 19 1025 59 10000 1.5 320 15:19 27.09.2019
1201 Rain 19 1011 74 0 3.49 122.952 14:56 27.09.2019
1202 Rain 19 1011 74 0 3.49 122.952 14:37 27.09.2019
1203 Rain 19 1011 74 0 3.49 122.952 14:18 27.09.2019
1204 Rain 19 1011 74 0 3.49 122.952 13:42 27.09.2019
1205 Rain 19 1011 73 0 2.93 127.738 13:22 27.09.2019
1206 Rain 19 1011 73 0 2.93 127.738 13:22 27.09.2019
1207 Rain 19 1011 73 0 2.93 127.738 12:57 27.09.2019
1208 Rain 19 1011 73 0 2.93 127.738 12:38 27.09.2019
1209 Rain 19 1014 69 0 2.83 146.552 12:20 27.09.2019
1210 Rain 19 1014 69 0 2.83 146.552 11:39 27.09.2019
1211 Rain 19 1014 69 0 2.83 146.552 11:21 27.09.2019
1212 Rain 19 1014 69 0 2.83 146.552 10:57 27.09.2019
1213 Rain 19 1014 69 0 2.83 146.552 10:39 27.09.2019
1214 Rain 19 1014 69 0 2.83 146.552 10:39 27.09.2019
1215 Rain 19 1014 69 0 2.83 146.552 10:20 27.09.2019
1216 Rain 19 1014 69 0 2.83 146.552 09:42 27.09.2019
1217 Clouds 17 1017 76 0 1.21 216.274 09:21 27.09.2019
1218 Clouds 17 1017 76 0 1.21 216.274 08:57 27.09.2019
1219 Rain 16 1017 78 0 1.6 195.403 08:38 27.09.2019
1220 Rain 16 1017 78 0 1.6 195.403 08:38 27.09.2019
1221 Rain 16 1017 78 0 1.6 195.403 08:19 27.09.2019
1222 Rain 16 1017 78 0 1.6 195.403 07:45 27.09.2019
1223 Rain 16 1017 78 0 1.6 195.403 07:22 27.09.2019
1224 Rain 16 1017 78 0 1.6 195.403 06:43 27.09.2019
1225 Clouds 11 1017 87 0 1.17 36.006 06:23 27.09.2019
1226 Clouds 11 1017 87 0 1.17 36.006 05:50 27.09.2019
1227 Clouds 11 1017 87 0 1.17 36.006 05:31 27.09.2019
1228 Clouds 11 1017 87 0 1.17 36.006 03:55 27.09.2019
1229 Clouds 12 1015 84 0 1.4 37.346 02:41 27.09.2019
1230 Clouds 12 1015 84 0 1.4 37.346 01:44 27.09.2019
1231 Clouds 12 1015 85 0 1.91 37.896 00:59 27.09.2019
1232 Clouds 12 1016 80 0 2.06 47.267 00:20 27.09.2019
1233 Clouds 12 1016 80 0 2.06 47.267 23:56 26.09.2019
1234 Clouds 12 1016 80 0 2.06 47.267 23:37 26.09.2019
1235 Clouds 12 1016 80 0 2.06 47.267 23:18 26.09.2019
1236 Clouds 12 1016 80 0 2.06 47.267 22:55 26.09.2019
1237 Clouds 12 1016 80 0 2.06 47.267 22:55 26.09.2019
1238 Clouds 12 1016 80 0 2.06 47.267 22:37 26.09.2019
1239 Clouds 12 1016 80 0 2.06 47.267 22:18 26.09.2019
1240 Clouds 12 1016 80 0 2.06 47.267 21:55 26.09.2019
1241 Clouds 12 1016 80 0 2.06 47.267 21:36 26.09.2019
1242 Clouds 13 1016 79 0 2.99 47.956 21:18 26.09.2019
1243 Rain 14 1015 79 0 2.46 48.115 20:56 26.09.2019
1244 Rain 14 1015 79 0 2.46 48.115 20:37 26.09.2019
1245 Rain 14 1015 79 0 2.46 48.115 20:19 26.09.2019
1246 Rain 14 1015 79 0 2.46 48.115 19:40 26.09.2019
1247 Rain 14 1015 79 0 2.46 48.115 19:19 26.09.2019
1248 Rain 14 1015 79 0 2.46 48.115 18:58 26.09.2019
1249 Rain 14 1015 79 0 2.46 48.115 18:58 26.09.2019
1250 Rain 14 1015 79 0 2.46 48.115 18:39 26.09.2019
1251 Rain 14 1015 79 0 2.46 48.115 18:39 26.09.2019
1252 Rain 16 1012 79 0 3.04 106.38 18:21 26.09.2019
1253 Rain 16 1012 79 0 3.04 106.38 17:54 26.09.2019
1254 Rain 16 1012 79 0 3.04 106.38 17:36 26.09.2019
1255 Rain 16 1012 79 0 3.04 106.38 17:18 26.09.2019
1256 Rain 16 1012 79 0 3.04 106.38 16:39 26.09.2019
1257 Rain 16 1012 79 0 3.04 106.38 16:20 26.09.2019
1258 Rain 16 1012 79 0 3.04 106.38 15:58 26.09.2019
1259 Rain 16 1012 79 0 3.04 106.38 15:38 26.09.2019
1260 Rain 20 1010 64 0 4.86 85.245 15:19 26.09.2019
1261 Rain 20 1010 64 0 4.86 85.245 14:57 26.09.2019
1262 Rain 20 1010 64 0 4.86 85.245 14:37 26.09.2019
1263 Rain 20 1010 64 0 4.86 85.245 14:37 26.09.2019
1264 Rain 20 1010 64 0 4.86 85.245 14:19 26.09.2019
1265 Rain 20 1010 64 0 4.86 85.245 13:41 26.09.2019
1266 Rain 20 1010 63 0 4.87 95.502 13:20 26.09.2019
1267 Rain 20 1010 63 0 4.87 95.502 12:59 26.09.2019
1268 Rain 20 1010 63 0 4.87 95.502 12:41 26.09.2019
1269 Rain 20 1014 69 0 4.97 117.452 12:20 26.09.2019
1270 Rain 20 1014 69 0 4.97 117.452 11:42 26.09.2019
1271 Rain 20 1014 69 0 4.97 117.452 11:23 26.09.2019
1272 Rain 20 1014 69 0 4.97 117.452 10:56 26.09.2019
1273 Rain 20 1014 69 0 4.97 117.452 10:38 26.09.2019
1274 Rain 20 1014 69 0 4.97 117.452 10:20 26.09.2019
1275 Rain 20 1014 69 0 4.97 117.452 09:45 26.09.2019
1276 Clouds 17 1016 73 0 3.06 113.976 09:26 26.09.2019
1277 Clouds 17 1016 73 0 3.06 113.976 08:58 26.09.2019
1278 Clouds 18 1016 70 0 3.11 120.218 08:40 26.09.2019
1279 Clouds 18 1016 70 0 3.11 120.218 08:22 26.09.2019
1280 Clouds 18 1016 70 0 3.11 120.218 07:44 26.09.2019
1281 Clouds 18 1016 70 0 3.11 120.218 07:22 26.09.2019
1282 Clouds 18 1016 70 0 3.11 120.218 06:47 26.09.2019
1283 Clouds 18 1016 70 0 3.11 120.218 06:27 26.09.2019
1284 Clouds 13 1016 80 0 1.27 44.459 05:46 26.09.2019
1285 Clouds 13 1016 80 0 1.27 44.459 05:25 26.09.2019
1286 Clouds 13 1014 84 0 1.85 35.314 03:18 26.09.2019
1287 Clouds 13 1014 84 0 1.85 35.314 01:54 26.09.2019
1288 Clouds 13 1014 84 0 1.85 35.314 01:54 26.09.2019
1289 Clouds 14 1014 81 0 1.77 40.869 01:31 26.09.2019
1290 Clouds 14 1014 81 0 1.77 40.869 00:56 26.09.2019
1291 Clouds 14 1014 81 0 1.77 40.869 00:38 26.09.2019
1292 Clouds 14 1016 84 0 2.12 31.793 00:19 26.09.2019
1293 Clouds 14 1016 84 0 2.12 31.793 23:42 25.09.2019
1294 Clouds 14 1016 84 0 2.12 31.793 23:19 25.09.2019
1295 Clouds 14 1016 84 0 2.12 31.793 22:42 25.09.2019
1296 Clouds 14 1016 84 0 2.12 31.793 22:21 25.09.2019
1297 Clouds 14 1016 84 0 2.12 31.793 22:21 25.09.2019
1298 Clouds 14 1016 84 0 2.12 31.793 21:58 25.09.2019
1299 Clouds 14 1016 84 0 2.12 31.793 21:40 25.09.2019
1300 Rain 14 1016 84 0 1.85 45.088 21:19 25.09.2019
1301 Rain 14 1016 84 0 1.85 45.088 20:58 25.09.2019
1302 Rain 14 1016 88 0 1.19 355.76 20:40 25.09.2019
1303 Rain 14 1016 88 0 1.19 355.76 20:22 25.09.2019
1304 Rain 14 1016 88 0 1.19 355.76 19:55 25.09.2019
1305 Rain 14 1016 88 0 1.19 355.76 19:36 25.09.2019
1306 Rain 14 1016 88 0 1.19 355.76 19:18 25.09.2019
1307 Rain 14 1016 88 0 1.19 355.76 18:55 25.09.2019
1308 Rain 14 1016 88 0 1.19 355.76 18:37 25.09.2019
1309 Rain 16 1013 87 0 1.01 114.491 18:18 25.09.2019
1310 Rain 16 1013 87 0 1.01 114.491 17:39 25.09.2019
1311 Rain 16 1013 87 0 1.01 114.491 17:19 25.09.2019
1312 Rain 16 1013 87 0 1.01 114.491 16:56 25.09.2019
1313 Rain 16 1013 87 0 1.01 114.491 16:36 25.09.2019
1314 Rain 16 1013 87 0 1.01 114.491 16:18 25.09.2019
1315 Rain 16 1013 87 0 1.01 114.491 15:41 25.09.2019
1316 Rain 19 1010 75 0 2.73 111.408 15:23 25.09.2019
1317 Rain 19 1010 75 0 2.73 111.408 14:57 25.09.2019
1318 Rain 19 1010 75 0 2.73 111.408 14:57 25.09.2019
1319 Rain 19 1010 75 0 2.73 111.408 14:39 25.09.2019
1320 Rain 19 1010 75 0 2.73 111.408 14:21 25.09.2019
1321 Rain 19 1010 75 0 2.73 111.408 13:56 25.09.2019
1322 Rain 19 1010 75 0 2.73 111.408 13:37 25.09.2019
1323 Rain 19 1011 76 0 2.15 123.203 13:19 25.09.2019
1324 Rain 19 1011 76 0 2.15 123.203 12:41 25.09.2019
1325 Rain 19 1014 75 0 2.74 125.013 12:23 25.09.2019
1326 Rain 19 1014 75 0 2.74 125.013 11:57 25.09.2019
1327 Rain 19 1014 75 0 2.74 125.013 11:38 25.09.2019
1328 Rain 19 1014 75 0 2.74 125.013 11:19 25.09.2019
1329 Rain 19 1014 75 0 2.74 125.013 10:43 25.09.2019
1330 Rain 19 1014 75 0 2.74 125.013 10:25 25.09.2019
1331 -273 0 0 0 0 0 10:25 25.09.2019
1332 Rain 19 1014 75 0 2.74 125.013 09:58 25.09.2019
1333 Rain 19 1014 75 0 2.74 125.013 09:37 25.09.2019
1334 Rain 16 1017 82 0 0.93 247.889 09:19 25.09.2019
1335 Rain 16 1017 82 0 0.32 170.746 08:44 25.09.2019
1336 Rain 16 1017 82 0 0.32 170.746 08:21 25.09.2019
1337 Rain 16 1017 82 0 0.32 170.746 07:57 25.09.2019
1338 Rain 16 1017 82 0 0.32 170.746 07:38 25.09.2019
1339 Rain 16 1017 82 0 0.32 170.746 07:20 25.09.2019
1340 Rain 16 1017 82 0 0.32 170.746 06:45 25.09.2019
1341 Rain 13 1016 91 0 0.67 289.961 06:22 25.09.2019
1342 Rain 13 1016 91 0 0.67 289.961 05:35 25.09.2019
1343 Rain 13 1016 91 0 0.67 289.961 04:55 25.09.2019
1344 Rain 13 1015 89 0 0.54 10.457 02:31 25.09.2019
1345 Rain 13 1015 91 0 0.97 278.948 00:46 25.09.2019
1346 Rain 13 1016 89 0 1.56 39.108 00:27 25.09.2019
1347 Rain 13 1016 89 0 1.56 39.108 23:59 24.09.2019
1348 Rain 13 1016 89 0 1.56 39.108 23:40 24.09.2019
1349 Rain 13 1016 89 0 1.56 39.108 23:21 24.09.2019
1350 Rain 13 1016 89 0 1.56 39.108 22:39 24.09.2019
1351 Rain 13 1016 89 0 1.56 39.108 22:21 24.09.2019
1352 Rain 13 1016 91 0 0.81 8.843 21:58 24.09.2019
1353 Rain 13 1016 91 0 0.81 8.843 21:58 24.09.2019
1354 Rain 13 1016 91 0 0.81 8.843 21:38 24.09.2019
1355 Rain 13 1015 88 0 2.07 50.709 21:19 24.09.2019
1356 Rain 13 1015 88 0 2.07 50.709 20:58 24.09.2019
1357 Rain 13 1015 88 0 2.07 50.709 20:40 24.09.2019
1358 Rain 13 1015 88 0 2.07 50.709 20:22 24.09.2019
1359 Rain 13 1015 88 0 2.07 50.709 19:57 24.09.2019
1360 Rain 13 1015 88 0 2.07 50.709 19:57 24.09.2019
1361 Rain 13 1015 88 0 2.07 50.709 19:39 24.09.2019
1362 Rain 13 1015 88 0 2.07 50.709 19:18 24.09.2019
1363 Rain 13 1015 88 0 2.07 50.709 18:42 24.09.2019
1364 Rain 16 1012 87 0 2.16 116.815 18:22 24.09.2019
1365 Rain 16 1012 87 0 2.16 116.815 17:59 24.09.2019
1366 Rain 16 1012 87 0 2.16 116.815 17:39 24.09.2019
1367 Rain 16 1012 87 0 2.16 116.815 17:21 24.09.2019
1368 Rain 16 1012 87 0 2.16 116.815 16:59 24.09.2019
1369 Rain 16 1012 87 0 2.16 116.815 16:41 24.09.2019
1370 Rain 16 1012 87 0 2.16 116.815 16:19 24.09.2019
1371 Rain 16 1012 87 0 2.16 116.815 15:43 24.09.2019
1372 Rain 19 1011 72 0 1.99 171.617 15:24 24.09.2019
1373 Rain 19 1011 72 0 1.99 171.617 14:58 24.09.2019
1374 Rain 19 1011 72 0 1.99 171.617 14:58 24.09.2019
1375 Rain 19 1011 72 0 1.99 171.617 14:37 24.09.2019
1376 Rain 19 1011 72 0 1.99 171.617 14:18 24.09.2019
1377 Rain 19 1011 72 0 1.99 171.617 13:40 24.09.2019
1378 Rain 20 1011 70 0 1.97 158.49 13:21 24.09.2019
1379 Rain 20 1011 70 0 1.97 158.49 12:42 24.09.2019
1380 Rain 20 1014 65 0 1.77 135.481 12:21 24.09.2019
1381 Rain 20 1014 65 0 1.77 135.481 11:57 24.09.2019
1382 Rain 20 1014 65 0 1.77 135.481 11:39 24.09.2019
1383 Rain 20 1014 65 0 1.77 135.481 11:21 24.09.2019
1384 Rain 20 1014 65 0 1.77 135.481 10:40 24.09.2019
1385 Rain 20 1014 65 0 1.77 135.481 10:21 24.09.2019
1386 Rain 20 1014 65 0 1.77 135.481 09:57 24.09.2019
1387 Rain 20 1014 65 0 1.77 135.481 09:39 24.09.2019
1388 Rain 16 1017 77 0 0.6 119.008 09:19 24.09.2019
1389 Rain 16 1017 77 0 0.6 119.008 08:55 24.09.2019
1390 Rain 16 1017 84 0 1.56 252.101 08:37 24.09.2019
1391 Rain 16 1017 84 0 1.56 252.101 08:18 24.09.2019
1392 Rain 16 1017 84 0 1.56 252.101 07:42 24.09.2019
1393 Rain 16 1017 84 0 1.56 252.101 07:23 24.09.2019
1394 Rain 16 1017 84 0 1.56 252.101 06:46 24.09.2019
1395 Rain 16 1017 84 0 1.56 252.101 06:27 24.09.2019
1396 Rain 13 1017 91 0 0.25 269.323 05:26 24.09.2019
1397 Rain 13 1017 91 0 0.25 269.323 04:19 24.09.2019
1398 Rain 13 1017 91 0 0.25 269.323 03:34 24.09.2019
1399 Rain 14 1015 89 0 0.4 129.86 02:45 24.09.2019
1400 Rain 14 1015 89 0 0.4 129.86 01:43 24.09.2019
1401 Rain 13 1016 97 0 1.33 253.028 00:42 24.09.2019
1402 Rain 14 1017 92 0 0.44 297.502 00:23 24.09.2019
1403 Rain 14 1017 92 0 0.44 297.502 23:43 23.09.2019
1404 Clouds 15 1027 87 10000 1 30 23:23 23.09.2019
1405 Clouds 15 1027 87 10000 1 30 22:57 23.09.2019
1406 Clouds 15 1027 87 10000 1 30 22:38 23.09.2019
1407 Clouds 15 1027 87 10000 1 30 22:20 23.09.2019
1408 Clouds 15 1026 87 10000 2.6 10 21:56 23.09.2019
1409 Clouds 15 1026 87 10000 2.6 10 21:37 23.09.2019
1410 Clouds 15 1026 87 10000 2.6 10 21:18 23.09.2019
1411 Mist 15 1026 93 0 1.5 40 20:40 23.09.2019
1412 Mist 15 1026 93 0 1.5 40 20:20 23.09.2019
1413 Rain 14 1016 90 0 1.42 71.629 19:56 23.09.2019
1414 Rain 14 1016 90 0 1.42 71.629 19:38 23.09.2019
1415 Rain 14 1016 90 0 1.42 71.629 19:20 23.09.2019
1416 Rain 14 1016 90 0 1.42 71.629 18:42 23.09.2019
1417 Rain 16 1013 87 0 2.04 118.364 18:21 23.09.2019
1418 Rain 16 1013 87 0 2.04 118.364 17:59 23.09.2019
1419 Rain 16 1013 87 0 2.04 118.364 17:39 23.09.2019
1420 Rain 16 1013 87 0 2.04 118.364 17:20 23.09.2019
1421 Rain 16 1013 87 0 2.04 118.364 16:58 23.09.2019
1422 Rain 16 1013 87 0 2.04 118.364 16:37 23.09.2019
1423 Clouds 16 1025 82 10000 2.1 90 16:19 23.09.2019
1424 Clouds 16 1025 82 10000 2.1 90 15:57 23.09.2019
1425 Clouds 16 1025 82 10000 2.1 90 15:38 23.09.2019
1426 Clouds 16 1025 82 10000 2.1 90 15:19 23.09.2019
1427 Clouds 16 1025 82 10000 2.1 90 15:19 23.09.2019
1428 Rain 19 1011 71 0 2.34 165.424 14:40 23.09.2019
1429 Rain 19 1011 71 0 2.34 165.424 14:40 23.09.2019
1430 Rain 19 1011 71 0 2.34 165.424 14:40 23.09.2019
1431 Rain 19 1011 71 0 2.34 165.424 14:21 23.09.2019
1432 Rain 19 1011 71 0 2.34 165.424 13:59 23.09.2019
1433 Rain 19 1011 71 0 2.34 165.424 13:39 23.09.2019
1434 Clouds 19 1025 72 10000 5.1 190 13:18 23.09.2019
1435 Clouds 19 1025 72 10000 5.1 190 12:56 23.09.2019
1436 Clouds 19 1025 72 10000 5.1 190 12:37 23.09.2019
1437 Clouds 19 1025 72 10000 5.1 190 12:19 23.09.2019
1438 Clouds 19 1026 68 10000 5.1 180 11:44 23.09.2019
1439 Clouds 19 1026 68 10000 5.1 180 11:26 23.09.2019
1440 Rain 17 1014 79 0 1.61 209.935 10:55 23.09.2019
1441 Rain 17 1014 79 0 1.61 209.935 10:36 23.09.2019
1442 Clouds 17 1028 63 10000 2.1 130 10:18 23.09.2019
1443 Clouds 17 1028 63 10000 2.1 130 09:39 23.09.2019
1444 Clouds 17 1028 63 10000 2.1 130 09:21 23.09.2019
1445 Rain 16 1017 82 0 0.87 223.273 08:50 23.09.2019
1446 Clouds 15 1027 82 10000 2.1 320 08:30 23.09.2019
1447 Clouds 15 1027 82 10000 2.1 320 07:58 23.09.2019
1448 Clouds 15 1027 82 10000 2.1 320 07:31 23.09.2019
1449 Clouds 13 1027 93 10000 2.1 310 06:42 23.09.2019
1450 Clouds 14 1026 82 10000 1 180 06:18 23.09.2019
1451 Clouds 14 1026 82 10000 1 180 05:22 23.09.2019
1452 Clouds 14 1025 82 10000 1 100 04:55 23.09.2019
1453 Rain 13 1017 97 0 0.75 231.066 03:34 23.09.2019
1454 Clouds 15 1025 82 10000 2.6 350 01:19 23.09.2019
1455 Clouds 15 1026 82 10000 1 320 00:23 23.09.2019
1456 Clouds 15 1026 82 10000 1 320 23:57 22.09.2019
1457 Clouds 15 1026 82 10000 1 320 23:33 22.09.2019
1458 Clouds 15 1027 77 10000 1.5 40 22:59 22.09.2019
1459 Clouds 15 1027 77 10000 1.5 40 22:41 22.09.2019
1460 Clouds 15 1027 77 10000 1.5 40 22:22 22.09.2019
1461 Rain 13 1017 90 0 0.86 336.608 21:43 22.09.2019
1462 Clouds 15 1026 87 10000 2.1 340 21:23 22.09.2019
1463 Clouds 15 1026 87 10000 2.1 340 20:59 22.09.2019
1464 Clouds 15 1026 87 10000 2.1 340 20:41 22.09.2019
1465 Clouds 15 1026 87 10000 2.1 340 20:23 22.09.2019
1466 Rain 13 1017 96 0 1.02 59.804 19:42 22.09.2019
1467 Rain 13 1017 96 0 1.02 59.804 19:42 22.09.2019
1468 Clouds 15 1025 87 10000 2.1 300 19:24 22.09.2019
1469 Clouds 15 1025 87 10000 2.1 300 19:24 22.09.2019
1470 Clouds 15 1025 87 10000 2.1 300 18:59 22.09.2019
1471 Clouds 15 1025 87 10000 2.1 300 18:41 22.09.2019
1472 Clouds 15 1025 87 10000 2.1 300 18:20 22.09.2019
1473 Clouds 14 1025 93 10000 3.1 270 17:59 22.09.2019
1474 Clouds 14 1025 93 10000 3.1 270 17:59 22.09.2019
1475 Clouds 14 1025 93 10000 3.1 270 17:41 22.09.2019
1476 Clouds 14 1025 93 10000 3.1 270 17:20 22.09.2019
1477 Rain 15 1014 89 0 0.6 243.606 16:45 22.09.2019
1478 Rain 15 1014 89 0 0.6 243.606 16:45 22.09.2019
1479 Rain 13 1024 93 6000 5.1 30 16:26 22.09.2019
1480 Rain 13 1024 93 6000 5.1 30 15:57 22.09.2019
1481 Rain 13 1024 93 6000 5.1 30 15:38 22.09.2019
1482 Rain 13 1024 93 6000 5.1 30 15:38 22.09.2019
1483 Rain 13 1024 93 6000 5.1 30 15:19 22.09.2019
1484 Clouds 20 1024 64 10000 4.1 210 14:43 22.09.2019
1485 Clouds 20 1024 64 10000 4.1 210 14:25 22.09.2019
1486 Clouds 19 1025 63 10000 4.1 240 13:58 22.09.2019
1487 Clouds 19 1025 63 10000 4.1 240 13:40 22.09.2019
1488 Clouds 19 1025 63 10000 4.1 240 13:40 22.09.2019
1489 Clouds 19 1025 63 10000 4.1 240 13:21 22.09.2019
1490 Rain 18 1013 78 0 2.78 223.892 12:44 22.09.2019
1491 Clouds 16 1027 87 10000 4.1 220 12:24 22.09.2019
1492 Clouds 16 1027 87 10000 4.1 220 11:59 22.09.2019
1493 Clouds 16 1027 87 10000 4.1 220 11:40 22.09.2019
1494 Clouds 16 1027 87 10000 4.1 220 11:22 22.09.2019
1495 Rain 15 1028 87 10000 3.1 180 10:45 22.09.2019
1496 Rain 15 1028 87 10000 3.1 180 10:20 22.09.2019
1497 Rain 15 1028 82 7000 2.29 207.125 09:58 22.09.2019
1498 Rain 15 1028 82 7000 2.29 207.125 09:39 22.09.2019
1499 Rain 15 1028 82 7000 1.4 281.246 09:19 22.09.2019
1500 Rain 14 1028 87 6000 3.1 290 08:45 22.09.2019
1501 Rain 14 1028 87 6000 3.1 290 08:25 22.09.2019
1502 Clouds 14 1028 93 10000 1 40 07:56 22.09.2019
1503 Clouds 14 1028 93 10000 1 40 07:37 22.09.2019
1504 Clouds 14 1028 93 10000 1 40 07:18 22.09.2019
1505 Rain 13 1018 95 0 1.81 299.266 06:54 22.09.2019
1506 Clouds 14 1026 87 10000 2.1 270 05:30 22.09.2019
1507 Rain 13 1016 96 0 0.73 5.273 03:33 22.09.2019
1508 Rain 13 1015 98 0 1.91 308.149 02:38 22.09.2019
1509 Rain 13 1015 98 0 1.91 308.149 02:38 22.09.2019
1510 Rain 13 1025 93 0 2.1 320 02:18 22.09.2019
1511 Rain 12 1015 98 0 1.78 280.236 00:59 22.09.2019
1512 Clouds 15 1026 87 10000 2.6 250 00:33 22.09.2019
1513 Clouds 15 1026 87 10000 2.6 250 23:59 21.09.2019
1514 Clouds 15 1026 87 10000 2.6 250 23:40 21.09.2019
1515 Clouds 15 1026 87 10000 2.6 250 23:19 21.09.2019
1516 Rain 13 1016 98 0 0.95 252.387 22:39 21.09.2019
1517 Clouds 15 1026 93 10000 2.6 180 22:21 21.09.2019
1518 Clouds 15 1026 93 10000 2.6 180 21:43 21.09.2019
1519 Clouds 15 1026 93 10000 2.6 180 21:20 21.09.2019
1520 Clouds 16 1025 87 10000 2.1 201 20:59 21.09.2019
1521 Clouds 16 1025 87 10000 2.1 201 20:38 21.09.2019
1522 Clouds 16 1025 87 10000 2.1 201 20:19 21.09.2019
1523 Rain 14 1015 90 0 1.53 50.089 19:47 21.09.2019
1524 Rain 14 1015 90 0 1.53 50.089 19:23 21.09.2019
1525 Rain 14 1015 90 0 1.53 50.089 18:55 21.09.2019
1526 Rain 14 1015 90 0 1.53 50.089 18:37 21.09.2019
1527 Rain 16 1012 85 0 1.04 121.096 18:18 21.09.2019
1528 Rain 16 1012 85 0 1.04 121.096 17:40 21.09.2019
1529 Rain 16 1012 85 0 1.04 121.096 17:20 21.09.2019
1530 Rain 16 1012 85 0 1.04 121.096 16:43 21.09.2019
1531 Rain 16 1012 85 0 1.04 121.096 16:24 21.09.2019
1532 Rain 16 1012 85 0 1.04 121.096 15:49 21.09.2019
1533 Rain 16 1012 85 0 1.04 121.096 15:25 21.09.2019
1534 Rain 19 1010 74 0 2.1 121.197 14:55 21.09.2019
1535 Thunderstorm 15 1024 77 8000 5.1 340 14:37 21.09.2019
1536 Thunderstorm 15 1024 77 8000 5.1 340 14:19 21.09.2019
1537 Thunderstorm 15 1024 77 8000 5.1 340 13:41 21.09.2019
1538 Thunderstorm 15 1024 77 8000 5.1 340 13:23 21.09.2019
1539 Rain 19 1010 74 0 2.19 125.204 12:57 21.09.2019
1540 Rain 19 1010 74 0 2.19 125.204 12:38 21.09.2019
1541 Clouds 19 1026 72 10000 2.6 190 12:20 21.09.2019
1542 Clouds 19 1026 72 10000 2.6 190 11:50 21.09.2019
1543 Clouds 19 1026 72 10000 2.6 190 11:25 21.09.2019
1544 Clouds 17 1026 82 10000 2.6 160 10:56 21.09.2019
1545 Clouds 17 1026 82 10000 2.6 160 10:37 21.09.2019
1546 Clouds 17 1026 82 10000 2.6 160 10:19 21.09.2019
1547 Mist 16 1027 87 6000 2.6 160 09:40 21.09.2019
1548 Mist 16 1027 87 6000 2.6 160 09:21 21.09.2019
1549 Rain 16 1016 78 0 1.21 249.952 08:59 21.09.2019
1550 Rain 16 1016 79 0 1.2 251.611 08:40 21.09.2019
1551 Rain 16 1016 79 0 1.2 251.611 07:55 21.09.2019
1552 Rain 16 1016 79 0 1.2 251.611 07:55 21.09.2019
1553 Rain 16 1016 79 0 1.2 251.611 07:37 21.09.2019
1554 Mist 15 1025 93 5000 1.2 251.611 07:18 21.09.2019
1555 Mist 15 1025 93 5000 1.2 251.611 06:34 21.09.2019
1556 Clouds 15 1025 93 10000 0.8 348.985 05:51 21.09.2019
1557 Clouds 11 1016 86 0 0.8 348.985 04:38 21.09.2019
1558 Clouds 15 1024 87 10000 2.1 140 03:25 21.09.2019
1559 Clouds 15 1024 87 10000 2.1 140 02:23 21.09.2019
1560 Clouds 15 1023 87 10000 2.1 210 01:46 21.09.2019
1561 Clouds 15 1024 87 10000 1 80 00:58 21.09.2019
1562 Clouds 15 1024 87 10000 1 80 00:22 21.09.2019
1563 Clouds 16 1024 82 10000 2.1 100 23:48 20.09.2019
1564 Clouds 16 1024 82 10000 2.1 100 23:29 20.09.2019
1565 Clouds 12 1016 87 0 1.22 38.189 22:44 20.09.2019
1566 Clouds 17 1026 77 10000 3.1 60 22:25 20.09.2019
1567 Clouds 17 1026 77 10000 3.1 60 21:57 20.09.2019
1568 Clouds 17 1026 77 10000 3.1 60 21:39 20.09.2019
1569 Clouds 17 1026 77 10000 3.1 60 21:20 20.09.2019
1570 Rain 13 1015 86 0 1.89 61.835 20:59 20.09.2019
1571 Rain 13 1015 86 0 1.52 54.191 20:39 20.09.2019
1572 Clouds 17 1025 77 10000 2.1 60 20:19 20.09.2019
1573 Rain 13 1015 86 0 1.52 54.191 19:55 20.09.2019
1574 Rain 13 1015 86 0 1.52 54.191 19:36 20.09.2019
1575 Clouds 17 1024 77 10000 1 40 19:18 20.09.2019
1576 Clouds 17 1024 77 10000 1 40 18:38 20.09.2019
1577 Clouds 17 1024 77 10000 1 40 18:20 20.09.2019
1578 Clouds 18 1024 77 10000 2.1 180 17:47 20.09.2019
1579 Clouds 18 1024 77 10000 2.1 180 17:27 20.09.2019
1580 Rain 17 1012 83 0 1.81 98.691 16:57 20.09.2019
1581 Rain 17 1012 83 0 1.81 98.691 16:37 20.09.2019
1582 Rain 17 1012 83 0 1.81 98.691 16:18 20.09.2019
1583 Rain 17 1012 83 0 1.81 98.691 15:41 20.09.2019
1584 Rain 17 1012 83 0 1.81 98.691 15:41 20.09.2019
1585 Clouds 21 1023 64 10000 2.1 230 15:22 20.09.2019
1586 Clouds 21 1023 64 10000 2.1 230 14:44 20.09.2019
1587 Rain 19 1010 73 0 2.61 126.22 14:20 20.09.2019
1588 Rain 19 1010 73 0 2.61 126.22 14:20 20.09.2019
1589 Rain 19 1010 73 0 2.61 126.22 14:00 20.09.2019
1590 Rain 19 1010 73 0 2.61 126.22 13:40 20.09.2019
1591 Rain 20 1010 70 0 2.98 131.72 13:21 20.09.2019
1592 Rain 20 1010 70 0 2.98 131.72 12:41 20.09.2019
1593 Rain 19 1014 75 0 2.58 153.743 12:22 20.09.2019
1594 Rain 19 1014 75 0 2.58 153.743 11:52 20.09.2019
1595 Rain 19 1014 75 0 2.58 153.743 11:26 20.09.2019
1596 Rain 19 1014 75 0 2.58 153.743 10:58 20.09.2019
1597 Rain 19 1014 75 0 2.58 153.743 10:40 20.09.2019
1598 Rain 19 1014 75 0 2.58 153.743 10:22 20.09.2019
1599 Rain 19 1014 75 0 2.58 153.743 09:38 20.09.2019
1600 Clouds 17 1016 74 0 2.2 145.096 09:19 20.09.2019
1601 Clouds 17 1016 74 0 2.2 145.096 08:48 20.09.2019
1602 Clouds 17 1016 74 0 2.2 145.096 08:28 20.09.2019
1603 Clouds 17 1016 74 0 2.2 145.096 07:59 20.09.2019
1604 Clouds 17 1017 71 0 1.39 125.404 07:40 20.09.2019
1605 Clouds 17 1017 71 0 1.39 125.404 07:40 20.09.2019
1606 Clouds 17 1017 71 0 1.39 125.404 07:20 20.09.2019
1607 Clouds 17 1017 71 0 1.39 125.404 06:42 20.09.2019
1608 Clouds 11 1025 81 0 2.1 320 06:18 20.09.2019
1609 Clouds 11 1024 81 0 1.5 340 04:31 20.09.2019
1610 Clouds 11 1024 87 0 2.1 250 03:27 20.09.2019
1611 Clouds 13 1024 71 0 2.6 10 02:18 20.09.2019
1612 Clouds 13 1025 71 10000 1 40 01:39 20.09.2019
1613 Clouds 14 1025 82 10000 1 120 00:42 20.09.2019
1614 Clouds 15 1026 82 10000 1 100 23:50 19.09.2019
1615 Clouds 15 1026 82 10000 1 100 23:50 19.09.2019
1616 Clouds 15 1026 82 10000 1 100 23:28 19.09.2019
1617 Clouds 12 1016 84 0 2.01 32.478 22:59 19.09.2019
1618 Clouds 12 1016 84 0 2.01 32.478 22:40 19.09.2019
1619 Clouds 16 1026 82 10000 2.6 20 22:21 19.09.2019
1620 Clouds 16 1026 82 10000 2.6 20 21:57 19.09.2019
1621 Clouds 16 1026 82 10000 2.6 20 21:38 19.09.2019
1622 Clouds 16 1026 82 10000 2.6 20 21:19 19.09.2019
1623 Clouds 16 1026 87 10000 3.1 30 20:55 19.09.2019
1624 Clouds 16 1026 87 10000 3.1 30 20:55 19.09.2019
1625 Clouds 16 1026 87 10000 3.1 30 20:37 19.09.2019
1626 Clouds 16 1026 87 10000 3.1 30 20:18 19.09.2019
1627 Rain 13 1016 87 0 1.97 52.344 19:40 19.09.2019
1628 Clouds 18 1025 72 10000 2.1 110 19:22 19.09.2019
1629 Clouds 18 1025 72 10000 2.1 110 18:59 19.09.2019
1630 Clouds 18 1025 72 10000 2.1 110 18:41 19.09.2019
1631 Clouds 18 1025 72 10000 2.1 110 18:21 19.09.2019
1632 Clouds 20 1024 60 10000 4.1 100 17:42 19.09.2019
1633 Clouds 20 1024 60 10000 4.1 100 17:24 19.09.2019
1634 Clouds 21 1024 60 10000 5.1 110 16:59 19.09.2019
1635 Clouds 21 1024 60 10000 5.1 110 16:59 19.09.2019
1636 Clouds 21 1024 60 10000 5.1 110 16:40 19.09.2019
1637 Clouds 21 1024 60 10000 5.1 110 16:19 19.09.2019
1638 Rain 16 1013 85 0 2.03 144.945 15:40 19.09.2019
1639 Rain 16 1013 85 0 2.03 144.945 15:40 19.09.2019
1640 Clouds 21 1024 60 10000 5.1 100 15:21 19.09.2019
1641 Clouds 21 1024 60 10000 5.1 100 14:57 19.09.2019
1642 Clouds 21 1024 60 10000 5.1 100 14:38 19.09.2019
1643 Clouds 21 1024 60 10000 5.1 100 14:18 19.09.2019
1644 Clouds 20 1024 64 10000 3.6 150 13:40 19.09.2019
1645 Clouds 20 1024 64 10000 3.6 150 13:40 19.09.2019
1646 Clouds 20 1024 64 10000 3.6 150 13:21 19.09.2019
1647 Clouds 21 1025 60 10000 4.6 160 12:58 19.09.2019
1648 Clouds 21 1025 60 10000 4.6 160 12:36 19.09.2019
1649 Clouds 21 1025 60 10000 4.6 160 12:18 19.09.2019
1650 Clouds 21 1026 60 10000 3.1 120 11:41 19.09.2019
1651 Clouds 21 1026 60 10000 3.1 120 11:21 19.09.2019
1652 Clouds 19 1027 63 10000 1.5 110 10:57 19.09.2019
1653 Clouds 19 1027 63 10000 1.5 110 10:37 19.09.2019
1654 Clouds 19 1027 63 10000 1.5 110 10:18 19.09.2019
1655 Rain 19 1015 72 0 2.48 137.734 09:42 19.09.2019
1656 Rain 17 1017 78 0 1.03 182.61 09:22 19.09.2019
1657 Rain 17 1017 78 0 1.03 182.61 08:56 19.09.2019
1658 Clear 17 1018 75 0 0.83 173.468 08:37 19.09.2019
1659 Clear 17 1018 75 0 0.83 173.468 08:19 19.09.2019
1660 Clear 17 1018 75 0 0.83 173.468 07:43 19.09.2019
1661 Clear 17 1018 75 0 0.83 173.468 07:21 19.09.2019
1662 Clear 17 1018 75 0 0.83 173.468 06:47 19.09.2019
1663 Clear 17 1018 75 0 0.83 173.468 06:27 19.09.2019
1664 Clear 12 1017 87 0 1.52 28.013 05:52 19.09.2019
1665 Clouds 12 1026 93 10000 2.1 300 04:58 19.09.2019
1666 Clear 12 1017 87 0 1.52 28.013 03:52 19.09.2019
1667 Rain 14 1016 87 0 0.7 87.219 02:45 19.09.2019
1668 Clouds 13 1026 87 10000 2.1 310 01:27 19.09.2019
1669 Clouds 13 1026 87 10000 2.1 310 00:50 19.09.2019
1670 Clouds 13 1026 87 10000 2.1 310 00:50 19.09.2019
1671 Clouds 14 1027 87 10000 2.1 190 00:26 19.09.2019
1672 Clouds 14 1027 87 10000 2.1 190 00:26 19.09.2019
1673 Clouds 14 1027 87 10000 2.1 190 23:42 18.09.2019
1674 Clouds 14 1027 87 10000 2.1 190 23:21 18.09.2019
1675 Clouds 13 1027 93 10000 2.1 310 22:55 18.09.2019
1676 Clouds 13 1027 93 10000 2.1 310 22:36 18.09.2019
1677 Clouds 13 1027 93 10000 2.1 310 22:18 18.09.2019
1678 Clouds 14 1027 82 10000 1 60 21:54 18.09.2019
1679 Clouds 14 1027 82 10000 1 60 21:54 18.09.2019
1680 Clouds 14 1027 82 10000 1 60 21:36 18.09.2019
1681 Clouds 14 1027 82 10000 1 60 21:18 18.09.2019
1682 Rain 14 1027 82 10000 6.2 20 20:55 18.09.2019
1683 Rain 14 1027 82 10000 6.2 20 20:37 18.09.2019
1684 Rain 14 1027 82 10000 6.2 20 20:18 18.09.2019
1685 Clouds 15 1026 87 10000 3.1 350 19:41 18.09.2019
1686 Clouds 15 1026 87 10000 3.1 350 19:20 18.09.2019
1687 Clouds 15 1026 82 10000 3.1 350 18:57 18.09.2019
1688 Clouds 15 1026 82 10000 3.1 350 18:38 18.09.2019
1689 Clouds 15 1026 82 10000 3.1 350 18:19 18.09.2019
1690 Rain 16 1015 86 0 1.39 187.186 17:59 18.09.2019
1691 Rain 16 1015 86 0 1.39 187.186 17:40 18.09.2019
1692 Rain 15 1025 87 9000 2.1 360 17:19 18.09.2019
1693 Rain 15 1025 87 9000 2.1 360 16:56 18.09.2019
1694 Rain 15 1025 87 9000 2.1 360 16:38 18.09.2019
1695 Rain 15 1025 87 9000 2.1 360 16:19 18.09.2019
1696 Clouds 18 1024 68 10000 3.1 290 15:56 18.09.2019
1697 Clouds 18 1024 68 10000 3.1 290 15:37 18.09.2019
1698 Clouds 18 1024 68 10000 3.1 290 15:19 18.09.2019
1699 Clouds 17 1025 82 10000 4.1 320 14:57 18.09.2019
1700 Clouds 17 1025 82 10000 4.1 320 14:39 18.09.2019
1701 Clouds 17 1025 82 10000 4.1 320 14:21 18.09.2019
1702 Rain 18 1025 63 9000 4.1 30 13:54 18.09.2019
1703 Rain 18 1025 63 9000 4.1 30 13:36 18.09.2019
1704 Rain 18 1025 63 9000 4.1 30 13:18 18.09.2019
1705 Rain 19 1013 70 0 3.22 150.271 12:37 18.09.2019
1706 Clouds 20 1026 64 10000 3.1 190 12:19 18.09.2019
1707 Clouds 20 1026 64 10000 3.1 190 11:40 18.09.2019
1708 Clouds 20 1026 64 10000 3.1 190 11:20 18.09.2019
1709 Rain 18 1016 77 0 2.47 189.28 10:41 18.09.2019
1710 Clouds 16 1028 77 10000 2.1 270 10:23 18.09.2019
1711 Clouds 16 1028 77 10000 2.1 270 10:23 18.09.2019
1712 Clouds 16 1028 77 10000 2.1 270 10:23 18.09.2019
1713 Clouds 16 1028 77 10000 2.1 270 09:59 18.09.2019
1714 Clouds 16 1028 77 10000 2.1 270 09:41 18.09.2019
1715 Clouds 16 1028 77 10000 2.1 270 09:22 18.09.2019
1716 Clouds 15 1028 87 10000 3.1 300 08:56 18.09.2019
1717 Clouds 15 1028 87 10000 3.1 300 08:38 18.09.2019
1718 Clouds 14 1028 87 10000 3.1 310 08:19 18.09.2019
1719 Clouds 14 1028 87 10000 3.1 310 07:43 18.09.2019
1720 Clouds 14 1028 87 10000 3.1 310 07:23 18.09.2019
1721 Rain 13 1027 93 8000 2.1 300 06:45 18.09.2019
1722 Rain 13 1027 100 9000 1 350 06:21 18.09.2019
1723 Rain 13 1027 100 9000 1 350 05:27 18.09.2019
1724 Rain 12 1017 90 0 1.42 12.337 03:40 18.09.2019
1725 Rain 14 1026 93 9000 3.1 100 02:40 18.09.2019
1726 Rain 14 1014 87 0 0.44 84.985 01:41 18.09.2019
1727 Clouds 14 1025 87 10000 3.1 30 00:55 18.09.2019
1728 Clouds 14 1025 87 10000 3.1 30 00:31 18.09.2019
1729 Clouds 14 1026 87 10000 3.1 120 23:48 17.09.2019
1730 Clouds 14 1026 87 10000 3.1 120 23:25 17.09.2019
1731 Rain 13 1026 93 9000 6.2 50 22:56 17.09.2019
1732 Rain 13 1026 93 9000 6.2 50 22:38 17.09.2019
1733 Rain 13 1026 93 9000 6.2 50 22:19 17.09.2019
1734 Rain 14 1016 88 0 1.58 55.392 21:54 17.09.2019
1735 Rain 14 1016 88 0 1.58 55.392 21:54 17.09.2019
1736 Rain 14 1016 88 0 1.58 55.392 21:36 17.09.2019
1737 Rain 15 1015 87 0 2.04 72.542 21:18 17.09.2019
1738 Rain 14 1015 87 0 2.11 57.762 20:55 17.09.2019
1739 Rain 14 1015 87 0 2.11 57.762 20:37 17.09.2019
1740 Clouds 16 1024 82 10000 4.1 190 20:19 17.09.2019
1741 Clouds 16 1024 82 10000 4.1 190 19:40 17.09.2019
1742 Clouds 16 1024 82 10000 4.1 190 19:20 17.09.2019
1743 Rain 14 1015 87 0 2.11 57.762 18:59 17.09.2019
1744 Rain 14 1015 87 0 2.11 57.762 18:59 17.09.2019
1745 Rain 14 1015 87 0 2.11 57.762 18:41 17.09.2019
1746 Rain 14 1015 87 0 2.11 57.762 18:41 17.09.2019
1747 Rain 16 1012 87 0 2.05 119.12 18:22 17.09.2019
1748 Rain 16 1012 87 0 2.05 119.12 17:55 17.09.2019
1749 Rain 16 1012 87 0 2.05 119.12 17:36 17.09.2019
1750 Rain 16 1012 87 0 2.05 119.12 17:18 17.09.2019
1751 Rain 16 1012 87 0 2.05 119.12 16:41 17.09.2019
1752 Rain 16 1012 87 0 2.05 119.12 16:22 17.09.2019
1753 Rain 16 1012 87 0 2.05 119.12 15:55 17.09.2019
1754 Rain 16 1012 87 0 2.05 119.12 15:37 17.09.2019
1755 Rain 19 1010 74 0 2.6 117.215 15:19 17.09.2019
1756 Rain 19 1010 74 0 2.6 117.215 14:55 17.09.2019
1757 Rain 19 1010 74 0 2.6 117.215 14:37 17.09.2019
1758 Rain 19 1010 74 0 2.6 117.215 14:18 17.09.2019
1759 Rain 19 1010 74 0 2.6 117.215 13:41 17.09.2019
1760 Clouds 19 1024 72 0 4.1 170 13:23 17.09.2019
1761 Rain 19 1010 73 0 3.15 131.579 12:55 17.09.2019
1762 Rain 19 1010 73 0 3.15 131.579 12:37 17.09.2019
1763 Clouds 17 1026 82 0 4.1 190 12:18 17.09.2019
1764 Clouds 17 1026 82 0 4.1 190 11:41 17.09.2019
1765 Clouds 17 1026 82 0 4.1 190 11:22 17.09.2019
1766 Clouds 17 1027 77 0 2.1 200 10:42 17.09.2019
1767 Clouds 17 1027 77 0 2.1 200 10:24 17.09.2019
1768 Clouds 16 1027 82 0 3.1 140 09:59 17.09.2019
1769 Clouds 16 1027 82 0 3.1 140 09:40 17.09.2019
1770 Clouds 16 1027 82 0 3.1 140 09:20 17.09.2019
1771 Clouds 16 1027 82 0 2.1 110 08:45 17.09.2019
1772 Clouds 14 1027 93 0 3.1 60 08:26 17.09.2019
1773 Clouds 14 1027 93 0 3.1 60 07:56 17.09.2019
1774 Clouds 14 1027 93 0 3.1 60 07:56 17.09.2019
1775 Clouds 14 1027 93 0 3.1 60 07:38 17.09.2019
1776 Clouds 14 1027 93 0 3.1 60 07:19 17.09.2019
1777 Rain 14 1017 92 0 1.37 296.079 06:45 17.09.2019
1778 Rain 13 1016 91 0 0.34 356.119 06:19 17.09.2019
1779 Rain 13 1016 91 0 0.34 356.119 05:35 17.09.2019
1780 Clouds 15 1024 93 10000 2.1 290 04:26 17.09.2019
1781 Clouds 14 1024 100 10000 1 340 02:53 17.09.2019
1782 Clouds 14 1024 100 10000 1 340 02:33 17.09.2019
1783 Clouds 15 1024 93 10000 1.5 250 01:19 17.09.2019
1784 Clouds 15 1025 93 10000 2.1 140 00:28 17.09.2019
1785 Clouds 16 1026 87 10000 2.1 100 23:38 16.09.2019
1786 Clouds 16 1026 87 10000 2.1 100 23:18 16.09.2019
1787 Clouds 16 1026 87 10000 2.1 100 22:42 16.09.2019
1788 Clouds 16 1026 87 10000 2.1 100 22:24 16.09.2019
1789 Clouds 16 1026 87 10000 2.1 120 21:59 16.09.2019
1790 Clouds 16 1026 87 10000 2.1 120 21:40 16.09.2019
1791 Clouds 16 1026 87 10000 2.1 120 21:21 16.09.2019
1792 Clouds 16 1026 87 10000 2.1 60 20:58 16.09.2019
1793 Clouds 16 1026 87 10000 2.1 60 20:39 16.09.2019
1794 Clouds 16 1026 87 10000 2.1 60 20:19 16.09.2019
1795 Clouds 17 1025 82 10000 2.1 90 19:56 16.09.2019
1796 Clouds 17 1025 82 10000 2.1 90 19:37 16.09.2019
1797 Clouds 17 1025 82 10000 2.1 90 19:18 16.09.2019
1798 Mist 18 1024 77 8000 3.1 100 18:43 16.09.2019
1799 Mist 18 1024 77 8000 3.1 100 18:25 16.09.2019
1800 Clouds 18 1024 82 10000 4.1 130 17:55 16.09.2019
1801 Clouds 18 1024 82 10000 4.1 130 17:37 16.09.2019
1802 Clouds 18 1024 82 10000 4.1 130 17:19 16.09.2019
1803 Rain 16 1012 85 0 2.57 127.973 16:43 16.09.2019
1804 Clouds 21 1023 64 10000 4.1 150 16:21 16.09.2019
1805 Clouds 21 1023 64 10000 4.1 150 15:57 16.09.2019
1806 Clouds 21 1023 64 10000 4.1 150 15:39 16.09.2019
1807 Clouds 21 1023 64 10000 4.1 150 15:20 16.09.2019
1808 Clouds 21 1023 64 10000 4.1 150 15:20 16.09.2019
1809 Rain 20 1010 68 0 4.93 113.02 14:58 16.09.2019
1810 Rain 20 1010 68 0 4.93 113.02 14:39 16.09.2019
1811 Clouds 20 1024 68 10000 5.1 160 14:20 16.09.2019
1812 Clouds 20 1024 68 10000 5.1 160 13:43 16.09.2019
1813 Clouds 20 1024 68 10000 5.1 160 13:22 16.09.2019
1814 Rain 20 1010 69 0 4.92 121.93 12:57 16.09.2019
1815 Rain 20 1010 69 0 4.92 121.93 12:57 16.09.2019
1816 Rain 20 1010 69 0 4.92 121.93 12:38 16.09.2019
1817 Clouds 19 1026 63 10000 4.1 200 12:18 16.09.2019
1818 Clouds 19 1026 63 10000 4.1 200 11:44 16.09.2019
1819 Clouds 19 1026 63 10000 4.1 200 11:22 16.09.2019
1820 Rain 19 1014 68 0 2.61 96.231 10:55 16.09.2019
1821 Rain 19 1014 68 0 2.61 96.231 10:55 16.09.2019
1822 Clouds 15 1027 87 9000 2.1 180 10:36 16.09.2019
1823 Clouds 15 1027 87 9000 2.1 180 10:18 16.09.2019
1824 Clouds 15 1027 87 9000 2.1 180 10:18 16.09.2019
1825 Clouds 15 1027 87 9000 2.1 180 09:41 16.09.2019
1826 Clouds 15 1027 87 9000 2.1 180 09:21 16.09.2019
1827 Rain 13 1027 87 9000 3.1 250 08:53 16.09.2019
1828 Rain 13 1027 87 9000 3.1 250 08:34 16.09.2019
1829 Rain 17 1017 77 0 1.58 147.289 07:59 16.09.2019
1830 Rain 17 1017 77 0 1.58 147.289 07:40 16.09.2019
1831 Clouds 14 1026 87 10000 2.1 60 07:20 16.09.2019
1832 Clouds 14 1026 87 10000 2.1 60 06:49 16.09.2019
1833 Clouds 14 1025 87 10000 2.1 340 06:31 16.09.2019
1834 Clouds 14 1025 87 10000 2.1 340 05:57 16.09.2019
1835 Clouds 14 1025 87 10000 2.1 340 05:39 16.09.2019
1836 Clouds 13 1025 93 10000 2.6 330 04:57 16.09.2019
1837 Clouds 13 1025 93 10000 2.6 310 03:35 16.09.2019
1838 Clouds 15 1025 87 10000 1 290 00:57 16.09.2019
1839 Clouds 15 1025 87 10000 1 290 00:36 16.09.2019
1840 Clouds 15 1025 87 10000 1 290 00:18 16.09.2019
1841 Clouds 14 1027 93 10000 2.1 320 23:37 15.09.2019
1842 Clouds 14 1027 93 10000 2.1 320 23:37 15.09.2019
1843 Clouds 14 1027 93 10000 2.1 320 23:18 15.09.2019
1844 Clouds 14 1027 93 10000 2.1 320 23:18 15.09.2019
1845 Clouds 14 1027 87 10000 1.32 48.855 22:39 15.09.2019
1846 Clouds 14 1027 87 10000 1.32 48.855 22:19 15.09.2019
1847 Clouds 15 1027 82 10000 1 20 21:56 15.09.2019
1848 Clouds 15 1027 82 10000 1 20 21:38 15.09.2019
1849 Clouds 15 1027 82 10000 1 20 21:38 15.09.2019
1850 Clouds 15 1027 82 10000 1 20 21:19 15.09.2019
1851 Clouds 15 1026 87 10000 2.19 45.907 20:45 15.09.2019
1852 Clouds 15 1026 87 10000 2.19 45.907 20:26 15.09.2019
1853 Clouds 15 1026 87 10000 2.19 45.907 20:26 15.09.2019
1854 Clouds 16 1026 77 10000 2.1 330 19:56 15.09.2019
1855 Clouds 16 1026 77 10000 2.1 330 19:37 15.09.2019
1856 Clouds 16 1026 77 10000 2.1 330 19:19 15.09.2019
1857 Clouds 15 1025 87 0 3.1 330 18:40 15.09.2019
1858 Clouds 15 1025 87 0 3.1 330 18:20 15.09.2019
1859 Clouds 16 1025 82 0 3.1 100 17:43 15.09.2019
1860 Clouds 16 1025 82 0 3.1 100 17:22 15.09.2019
1861 Rain 18 1024 68 0 5.7 70 16:58 15.09.2019
1862 Rain 18 1024 68 0 5.7 70 16:40 15.09.2019
1863 Rain 18 1024 68 0 5.7 70 16:22 15.09.2019
1864 Clouds 21 1024 49 10000 3.1 140 15:56 15.09.2019
1865 Clouds 21 1024 49 10000 3.1 140 15:37 15.09.2019
1866 Clouds 21 1024 49 10000 3.1 140 15:18 15.09.2019
1867 Clouds 21 1024 49 10000 3.1 140 14:43 15.09.2019
1868 Clouds 21 1024 49 10000 3.1 140 14:24 15.09.2019
1869 Clouds 20 1025 56 10000 2.1 180 13:55 15.09.2019
1870 Rain 20 1011 71 0 3.12 147.592 13:37 15.09.2019
1871 Clouds 19 1027 59 10000 2.1 150 13:19 15.09.2019
1872 Clouds 19 1027 59 10000 2.1 150 12:42 15.09.2019
1873 Clouds 19 1027 59 10000 2.1 150 12:23 15.09.2019
1874 Clouds 20 1028 56 10000 1 130 11:56 15.09.2019
1875 Clouds 20 1028 56 10000 1 130 11:38 15.09.2019
1876 Clouds 20 1028 56 10000 1 130 11:38 15.09.2019
1877 Clouds 20 1028 56 10000 1 130 11:19 15.09.2019
1878 Clouds 20 1028 60 10000 1 120 10:42 15.09.2019
1879 Clouds 20 1028 60 10000 1 120 10:22 15.09.2019
1880 Clouds 17 1029 72 10000 2.1 170 09:57 15.09.2019
1881 Clouds 17 1029 72 10000 2.1 170 09:37 15.09.2019
1882 Clouds 17 1029 72 10000 2.1 170 09:18 15.09.2019
1883 Clouds 16 1028 77 10000 1 210 08:44 15.09.2019
1884 Clouds 16 1028 77 10000 1 210 08:25 15.09.2019
1885 Clouds 15 1028 82 10000 2.1 70 07:48 15.09.2019
1886 Clouds 15 1028 82 10000 2.1 70 07:25 15.09.2019
1887 Rain 15 1018 83 0 0.79 209.772 06:33 15.09.2019
1888 Rain 13 1016 85 0 0.7 6.466 03:25 15.09.2019
1889 Rain 13 1016 85 0 0.7 6.466 02:32 15.09.2019
1890 Rain 13 1016 85 0 0.7 6.466 01:39 15.09.2019
1891 Clouds 14 1027 82 10000 2.1 290 01:19 15.09.2019
1892 Clouds 14 1027 82 10000 2.1 290 00:39 15.09.2019
1893 Clouds 14 1027 82 10000 2.1 290 00:20 15.09.2019
1894 Clouds 14 1027 87 10000 2.1 50 23:57 14.09.2019
1895 Clouds 14 1027 87 10000 2.1 50 23:39 14.09.2019
1896 Clouds 14 1027 87 10000 2.1 50 23:21 14.09.2019
1897 Rain 13 1018 85 0 1.49 55.777 22:59 14.09.2019
1898 Rain 13 1018 85 0 1.49 55.777 22:40 14.09.2019
1899 Clouds 15 1028 82 10000 2.6 160 22:19 14.09.2019
1900 Clouds 15 1028 82 10000 2.6 160 21:40 14.09.2019
1901 Clouds 15 1028 82 10000 2.6 160 21:22 14.09.2019
1902 Clouds 16 1027 77 10000 2.1 300 20:59 14.09.2019
1903 Clouds 16 1027 77 10000 2.1 300 20:40 14.09.2019
1904 Clouds 16 1027 77 10000 2.1 300 20:22 14.09.2019
1905 Rain 13 1017 87 0 1.56 45.155 19:51 14.09.2019
1906 Clouds 16 1026 82 7000 2.6 220 19:23 14.09.2019
1907 Rain 13 1017 87 0 1.56 45.155 18:59 14.09.2019
1908 Rain 13 1017 87 0 1.56 45.155 18:40 14.09.2019
1909 Rain 17 1014 85 0 1.47 156.525 18:21 14.09.2019
1910 Rain 17 1014 85 0 1.47 156.525 17:57 14.09.2019
1911 Rain 17 1014 85 0 1.47 156.525 17:39 14.09.2019
1912 Rain 17 1014 85 0 1.47 156.525 17:20 14.09.2019
1913 Rain 17 1014 85 0 1.47 156.525 16:43 14.09.2019
1914 Clouds 22 1024 56 10000 3.1 190 16:21 14.09.2019
1915 Clouds 22 1024 56 10000 3.1 190 15:42 14.09.2019
1916 Clouds 21 1024 64 10000 2.6 180 15:23 14.09.2019
1917 Clouds 21 1024 64 10000 2.6 180 14:58 14.09.2019
1918 Clouds 21 1024 64 10000 2.6 180 14:39 14.09.2019
1919 Rain 20 1012 66 0 2.82 170.979 14:18 14.09.2019
1920 Rain 20 1012 66 0 2.82 170.979 13:47 14.09.2019
1921 Clouds 20 1027 64 10000 4.1 220 13:22 14.09.2019
1922 Clouds 20 1027 64 10000 4.1 220 12:47 14.09.2019
1923 Clouds 20 1027 64 10000 4.1 220 12:25 14.09.2019
1924 Clouds 19 1027 68 10000 2.1 270 11:42 14.09.2019
1925 Clouds 19 1027 68 10000 2.1 270 11:21 14.09.2019
1926 Clouds 19 1028 68 10000 4.1 180 10:55 14.09.2019
1927 Clouds 19 1028 68 10000 4.1 180 10:36 14.09.2019
1928 Clouds 19 1028 68 10000 4.1 180 10:18 14.09.2019
1929 Rain 19 1015 65 0 3.06 220.813 09:55 14.09.2019
1930 Clouds 17 1028 82 10000 2.1 170 09:37 14.09.2019
1931 Clouds 17 1028 82 10000 2.1 170 09:18 14.09.2019
1932 Clouds 17 1028 82 10000 2.1 170 08:41 14.09.2019
1933 Clouds 17 1028 82 10000 2.1 170 08:22 14.09.2019
1934 Clouds 17 1028 72 10000 1 50 07:43 14.09.2019
1935 Rain 15 1019 84 0 0.96 182.326 07:23 14.09.2019
1936 Rain 15 1019 84 0 0.96 182.326 06:36 14.09.2019
1937 Clouds 14 1026 87 10000 3.1 320 05:55 14.09.2019
1938 Rain 13 1017 87 0 0.91 349.571 04:43 14.09.2019
1939 Rain 13 1017 87 0 0.91 349.571 03:32 14.09.2019
1940 Rain 14 1016 87 0 0.61 287.777 02:48 14.09.2019
1941 Clouds 14 1026 93 10000 2.1 320 01:45 14.09.2019
1942 Clouds 14 1026 93 10000 2.1 320 01:20 14.09.2019
1943 Mist 14 1027 93 0 2.1 250 00:41 14.09.2019
1944 Mist 14 1027 93 0 2.1 250 00:22 14.09.2019
1945 Mist 15 1028 93 0 1.5 230 23:56 13.09.2019
1946 Mist 15 1028 93 0 1.5 230 23:37 13.09.2019
1947 Mist 15 1028 93 0 1.5 230 23:18 13.09.2019
1948 Clouds 15 1028 93 0 2.1 330 22:55 13.09.2019
1949 Clouds 15 1028 93 0 2.1 330 22:55 13.09.2019
1950 Clouds 15 1028 93 0 2.1 330 22:37 13.09.2019
1951 Clouds 15 1028 93 0 2.1 330 22:37 13.09.2019
1952 Clouds 15 1028 93 0 2.1 330 22:19 13.09.2019
1953 Clouds 15 1028 87 10000 2.1 350 21:40 13.09.2019
1954 Clouds 15 1028 87 10000 2.1 350 21:19 13.09.2019
1955 Clouds 15 1028 87 10000 2.1 350 21:19 13.09.2019
1956 Clouds 15 1028 87 10000 1 100 20:58 13.09.2019
1957 Rain 13 1017 86 0 2.26 48.259 20:38 13.09.2019
1958 Clouds 15 1027 87 10000 2.1 90 20:20 13.09.2019
1959 Clouds 15 1027 87 10000 2.1 90 19:54 13.09.2019
1960 Clouds 15 1027 87 10000 2.1 90 19:36 13.09.2019
1961 Clouds 15 1027 87 10000 2.1 90 19:18 13.09.2019
1962 Clouds 15 1026 87 10000 2.1 140 18:38 13.09.2019
1963 Clouds 15 1026 87 10000 2.1 140 18:20 13.09.2019
1964 Thunderstorm 15 1025 77 7000 3.1 50 17:58 13.09.2019
1965 Thunderstorm 15 1025 77 7000 3.1 50 17:37 13.09.2019
1966 Thunderstorm 15 1025 77 7000 3.1 50 17:18 13.09.2019
1967 Clouds 19 1025 63 10000 3.1 330 16:40 13.09.2019
1968 Clouds 19 1025 63 10000 3.1 330 16:20 13.09.2019
1969 Clouds 21 1024 56 10000 4.1 180 15:44 13.09.2019
1970 Clouds 21 1024 56 10000 4.1 180 15:25 13.09.2019
1971 Rain 21 1012 64 0 3.07 152.743 14:56 13.09.2019
1972 Rain 21 1012 64 0 3.07 152.743 14:38 13.09.2019
1973 Rain 21 1012 64 0 3.07 152.743 14:19 13.09.2019
1974 Rain 21 1012 64 0 3.07 152.743 13:44 13.09.2019
1975 Clouds 20 1027 64 10000 3.1 220 13:22 13.09.2019
1976 Clouds 20 1027 64 10000 3.1 220 12:46 13.09.2019
1977 Clouds 20 1027 64 10000 3.1 220 12:26 13.09.2019
1978 Rain 19 1016 67 0 2.27 171.603 11:58 13.09.2019
1979 Clouds 17 1029 77 10000 2.1 270 11:21 13.09.2019
1980 Clouds 17 1029 77 10000 2.1 270 10:59 13.09.2019
1981 Clouds 17 1029 77 10000 2.1 270 10:37 13.09.2019
1982 Clouds 17 1029 77 10000 2.1 270 10:18 13.09.2019
1983 Clouds 17 1029 77 10000 1 310 09:43 13.09.2019
1984 Clouds 17 1029 77 10000 1 310 09:43 13.09.2019
1985 Clouds 17 1029 77 10000 1 310 09:23 13.09.2019
1986 Rain 15 1019 83 0 0.93 278.427 08:58 13.09.2019
1987 Rain 15 1019 82 0 1.56 276.824 08:39 13.09.2019
1988 Clouds 16 1029 77 10000 4.1 360 08:20 13.09.2019
1989 Rain 15 1019 82 0 1.56 276.824 07:43 13.09.2019
1990 Clouds 14 1028 93 10000 1.5 70 07:24 13.09.2019
1991 Rain 15 1019 82 0 1.56 276.824 06:39 13.09.2019
1992 Rain 12 1019 86 0 1.76 67.824 05:39 13.09.2019
1993 Clouds 15 1027 82 10000 2.1 270 04:34 13.09.2019
1994 Rain 12 1019 86 0 1.76 67.824 03:33 13.09.2019
1995 Clouds 11 1017 84 0 0.59 54.158 02:20 13.09.2019
1996 Clouds 11 1017 84 0 0.59 54.158 01:38 13.09.2019
1997 Clouds 14 1027 87 10000 2.1 340 00:59 13.09.2019
1998 Clouds 14 1027 87 10000 2.1 340 00:36 13.09.2019
1999 Clouds 14 1028 93 10000 1 340 23:53 12.09.2019
2000 Clouds 14 1028 93 10000 1 340 23:30 12.09.2019
2001 Clouds 12 1019 87 0 1.64 32.847 22:58 12.09.2019
2002 Clouds 12 1019 87 0 1.64 32.847 22:40 12.09.2019
2003 Clouds 12 1019 87 0 1.64 32.847 22:22 12.09.2019
2004 Clouds 12 1019 87 0 1.64 32.847 21:56 12.09.2019
2005 Clouds 12 1019 87 0 1.64 32.847 21:37 12.09.2019
2006 Clouds 16 1028 82 10000 1 360 21:19 12.09.2019
2007 Clouds 16 1028 82 10000 1 360 20:44 12.09.2019
2008 Clouds 16 1028 82 10000 1 360 20:23 12.09.2019
2009 Clouds 16 1027 82 10000 2.1 180 19:58 12.09.2019
2010 Clouds 16 1027 82 10000 2.1 180 19:40 12.09.2019
2011 Clouds 16 1027 82 10000 2.1 180 19:19 12.09.2019
2012 Clouds 17 1026 77 10000 2.1 160 18:56 12.09.2019
2013 Clouds 17 1026 77 10000 2.1 160 18:36 12.09.2019
2014 Clouds 17 1026 77 10000 2.1 160 18:18 12.09.2019
2015 Clouds 15 1016 86 0 1.42 111.989 17:41 12.09.2019
2016 Clouds 15 1016 86 0 1.42 111.989 17:20 12.09.2019
2017 Clouds 15 1016 86 0 1.42 111.989 16:56 12.09.2019
2018 Clouds 15 1016 86 0 1.42 111.989 16:38 12.09.2019
2019 Clouds 19 1026 68 10000 2.1 60 16:19 12.09.2019
2020 Clouds 19 1026 68 10000 2.1 60 15:41 12.09.2019
2021 Clouds 19 1026 68 10000 2.1 60 15:23 12.09.2019
2022 Rain 17 1015 74 0 2.3 122.662 14:46 12.09.2019
2023 Clouds 17 1027 77 10000 3.1 180 14:22 12.09.2019
2024 Clouds 17 1027 77 10000 3.1 180 13:58 12.09.2019
2025 Clouds 17 1027 77 10000 3.1 180 13:38 12.09.2019
2026 Clouds 17 1027 77 10000 3.1 180 13:19 12.09.2019
2027 Clouds 17 1028 77 10000 3.1 180 12:45 12.09.2019
2028 Clouds 17 1028 77 10000 3.1 180 12:19 12.09.2019
2029 Clouds 17 1028 77 10000 3.1 180 12:19 12.09.2019
2030 Clouds 16 1029 82 10000 3.1 180 11:57 12.09.2019
2031 Clouds 16 1029 82 10000 3.1 180 11:39 12.09.2019
2032 Clouds 16 1029 82 10000 3.1 180 11:19 12.09.2019
2033 Clouds 17 1029 72 10000 2.6 180 10:45 12.09.2019
2034 Clouds 17 1029 72 10000 2.6 180 10:26 12.09.2019
2035 Rain 14 1019 92 0 1.16 94.117 09:45 12.09.2019
2036 Rain 13 1020 94 0 1.3 98.653 09:25 12.09.2019
2037 Rain 13 1020 94 0 1.3 98.653 08:59 12.09.2019
2038 Rain 13 1021 97 0 1.49 128.138 08:40 12.09.2019
2039 Rain 14 1029 82 7000 2.1 360 08:22 12.09.2019
2040 Rain 14 1029 82 7000 2.1 360 07:40 12.09.2019
2041 Rain 14 1029 82 7000 2.1 360 07:20 12.09.2019
2042 Rain 13 1029 93 9000 2.1 340 06:51 12.09.2019
2043 Rain 12 1019 96 0 1.34 132.156 06:23 12.09.2019
2044 Rain 12 1019 96 0 1.34 132.156 05:51 12.09.2019
2045 Rain 12 1019 96 0 1.34 132.156 05:32 12.09.2019
2046 Rain 12 1019 96 0 1.34 132.156 04:40 12.09.2019
2047 Fog 14 1026 100 0 1 110 02:28 12.09.2019
2048 Fog 14 1026 100 0 1 110 01:36 12.09.2019
2049 Fog 14 1026 100 0 1 110 01:18 12.09.2019
2050 Fog 14 1027 93 0 1 280 00:42 12.09.2019
2051 Fog 14 1027 93 0 1 280 00:23 12.09.2019
2052 Fog 14 1027 100 0 2.1 200 23:42 11.09.2019
2053 Fog 14 1027 100 0 2.1 200 23:22 11.09.2019
2054 Clouds 12 1018 88 0 0.97 326.54 22:56 11.09.2019
2055 Clouds 12 1018 88 0 0.97 326.54 22:37 11.09.2019
2056 Clouds 14 1028 93 10000 2.1 200 22:19 11.09.2019
2057 Clouds 14 1028 93 10000 2.1 200 21:42 11.09.2019
2058 Clouds 14 1028 93 10000 2.1 200 21:24 11.09.2019
2059 Clouds 15 1028 93 10000 1 260 20:58 11.09.2019
2060 Clouds 15 1028 93 10000 1 260 20:39 11.09.2019
2061 Clouds 15 1028 93 10000 1 260 20:39 11.09.2019
2062 Clouds 15 1028 93 10000 1 260 20:19 11.09.2019
2063 Clouds 16 1027 82 10000 2.1 170 19:58 11.09.2019
2064 Clouds 16 1027 82 10000 2.1 170 19:39 11.09.2019
2065 Clouds 16 1027 82 10000 2.1 170 19:21 11.09.2019
2066 Clouds 17 1026 72 10000 2.1 150 18:58 11.09.2019
2067 Clouds 17 1026 72 10000 2.1 150 18:38 11.09.2019
2068 Clouds 17 1026 72 10000 2.1 150 18:19 11.09.2019
2069 Clouds 18 1025 72 10000 3.1 160 17:55 11.09.2019
2070 Clouds 18 1025 72 10000 3.1 160 17:37 11.09.2019
2071 Clouds 18 1025 72 10000 3.1 160 17:19 11.09.2019
2072 Rain 17 1015 82 0 0.65 80.798 16:46 11.09.2019
2073 Clouds 18 1025 72 10000 2.1 170 16:25 11.09.2019
2074 Clouds 18 1025 72 10000 2.1 170 15:54 11.09.2019
2075 Clouds 18 1025 72 10000 2.1 170 15:54 11.09.2019
2076 Clouds 18 1025 72 10000 2.1 170 15:36 11.09.2019
2077 Clouds 18 1025 72 10000 2.1 170 15:18 11.09.2019
2078 Clouds 18 1026 72 10000 2.6 320 14:41 11.09.2019
2079 Clouds 18 1027 72 10000 5.1 170 14:21 11.09.2019
2080 Clouds 18 1027 72 10000 5.1 170 13:59 11.09.2019
2081 Clouds 18 1027 72 10000 5.1 170 13:37 11.09.2019
2082 Clouds 18 1027 72 10000 5.1 170 13:19 11.09.2019
2083 Rain 20 1013 69 0 1.61 149.299 12:44 11.09.2019
2084 Mist 17 1029 67 8000 3.1 250 12:23 11.09.2019
2085 Mist 17 1029 67 8000 3.1 250 11:59 11.09.2019
2086 Mist 17 1029 67 8000 3.1 250 11:39 11.09.2019
2087 Mist 17 1029 67 8000 3.1 250 11:39 11.09.2019
2088 Mist 17 1029 67 8000 3.1 250 11:21 11.09.2019
2089 Mist 15 1030 82 8000 2.6 200 10:55 11.09.2019
2090 Mist 15 1030 82 8000 2.6 200 10:37 11.09.2019
2091 Mist 15 1030 82 8000 2.6 200 10:18 11.09.2019
2092 Rain 19 1015 70 0 0.44 240.031 09:37 11.09.2019
2093 Rain 16 1018 79 0 1.46 246.533 09:19 11.09.2019
2094 Rain 16 1018 79 0 1.52 237.587 08:42 11.09.2019
2095 Rain 16 1018 79 0 1.52 237.587 08:22 11.09.2019
2096 Rain 16 1018 79 0 1.52 237.587 07:57 11.09.2019
2097 Rain 16 1018 79 0 1.52 237.587 07:39 11.09.2019
2098 Rain 16 1018 79 0 1.52 237.587 07:20 11.09.2019
2099 Rain 16 1018 79 0 1.52 237.587 07:20 11.09.2019
2100 Rain 16 1018 79 0 1.52 237.587 06:40 11.09.2019
2101 Rain 13 1027 93 0 2.1 330 06:21 11.09.2019
2102 Rain 13 1027 93 0 2.1 330 05:34 11.09.2019
2103 Clouds 13 1026 93 10000 3.6 300 04:53 11.09.2019
2104 Clouds 13 1026 93 10000 3.6 300 04:18 11.09.2019
2105 Clouds 11 1018 88 0 0.75 349.695 03:27 11.09.2019
2106 Clouds 14 1027 87 10000 1 270 02:32 11.09.2019
2107 Clouds 14 1027 87 10000 1 270 01:32 11.09.2019
2108 Rain 12 1016 90 0 0.84 340.855 00:37 11.09.2019
2109 Rain 12 1017 88 0 0.6 10.27 00:19 11.09.2019
2110 Rain 12 1017 88 0 0.6 10.27 23:40 10.09.2019
2111 Clouds 14 1027 82 10000 2.1 320 23:21 10.09.2019
2112 Clouds 14 1027 82 10000 2.1 320 22:55 10.09.2019
2113 Clouds 14 1027 82 10000 2.1 320 22:37 10.09.2019
2114 Clouds 14 1027 82 10000 2.1 320 22:18 10.09.2019
2115 Clouds 14 1027 82 10000 2.1 340 21:54 10.09.2019
2116 Rain 12 1017 88 0 0.6 10.27 21:36 10.09.2019
2117 Clouds 15 1027 82 10000 2.1 300 21:18 10.09.2019
2118 Clouds 15 1027 82 10000 2.1 300 21:18 10.09.2019
2119 Clouds 15 1027 82 10000 2.1 300 21:18 10.09.2019
2120 Clouds 15 1027 82 10000 2.1 300 20:54 10.09.2019
2121 Clouds 15 1027 82 10000 2.1 300 20:54 10.09.2019
2122 Clouds 15 1027 82 10000 2.1 300 20:36 10.09.2019
2123 Clouds 15 1027 82 10000 2.1 300 20:18 10.09.2019
2124 -273 0 0 0 0 0 19:55 10.09.2019
2125 Clouds 16 1026 82 10000 1 200 19:55 10.09.2019
2126 Clouds 16 1026 82 10000 1 200 19:36 10.09.2019
2127 Clouds 16 1026 82 10000 1 200 19:18 10.09.2019
2128 Rain 13 1016 91 0 1.68 65.222 18:42 10.09.2019
2129 Rain 17 1013 82 0 0.88 187.946 18:22 10.09.2019
2130 Rain 17 1013 82 0 0.88 187.946 17:56 10.09.2019
2131 Clouds 17 1024 67 10000 2.1 340 17:38 10.09.2019
2132 Clouds 17 1024 67 10000 2.1 340 17:19 10.09.2019
2133 Clouds 17 1024 67 10000 2.1 340 16:56 10.09.2019
2134 Clouds 17 1024 67 10000 2.1 340 16:37 10.09.2019
2135 Clouds 17 1024 67 10000 2.1 340 16:19 10.09.2019
2136 Clouds 16 1025 72 10000 4.1 320 15:43 10.09.2019
2137 Clouds 16 1025 72 10000 4.1 320 15:23 10.09.2019
2138 Thunderstorm 14 1025 87 7000 9.3 20 14:57 10.09.2019
2139 Thunderstorm 14 1025 87 7000 9.3 20 14:39 10.09.2019
2140 Thunderstorm 14 1025 87 7000 9.3 20 14:19 10.09.2019
2141 Rain 19 1013 72 0 2.89 193.392 13:47 10.09.2019
2142 Clouds 20 1026 64 10000 3.1 180 13:23 10.09.2019
2143 Clouds 20 1026 64 10000 3.1 180 12:53 10.09.2019
2144 Clouds 20 1026 64 10000 3.1 180 12:53 10.09.2019
2145 Clouds 20 1026 64 10000 3.1 180 12:28 10.09.2019
2146 Clouds 19 1027 68 10000 3.1 190 11:59 10.09.2019
2147 Clouds 19 1027 68 10000 3.1 190 11:40 10.09.2019
2148 Clouds 19 1027 68 10000 3.1 190 11:22 10.09.2019
2149 Clouds 19 1028 63 10000 4.1 200 10:54 10.09.2019
2150 Clouds 19 1028 63 10000 4.1 200 10:36 10.09.2019
2151 Clouds 19 1028 63 10000 4.1 200 10:18 10.09.2019
2152 Rain 18 1015 72 0 2.77 213.179 09:42 10.09.2019
2153 Clouds 16 1019 78 0 1.53 240.06 09:20 10.09.2019
2154 Clouds 16 1019 78 0 1.6 230.286 08:47 10.09.2019
2155 Clouds 16 1019 78 0 1.6 230.286 08:29 10.09.2019
2156 Clouds 16 1019 78 0 1.6 230.286 07:56 10.09.2019
2157 Clouds 16 1019 78 0 1.6 230.286 07:38 10.09.2019
2158 Clouds 16 1019 78 0 1.6 230.286 07:20 10.09.2019
2159 Clouds 16 1019 78 0 1.6 230.286 06:40 10.09.2019
2160 Clouds 13 1027 87 10000 2.1 240 06:20 10.09.2019
2161 Clouds 13 1027 93 10000 3.1 280 04:19 10.09.2019
2162 Clouds 13 1026 87 10000 0.68 319.508 02:39 10.09.2019
2163 Clouds 13 1026 87 10000 0.68 319.508 02:39 10.09.2019
2164 Clouds 13 1026 87 10000 0.68 319.508 02:20 10.09.2019
2165 Clouds 13 1026 87 10000 0.68 319.508 02:20 10.09.2019
2166 Clouds 13 1026 87 10000 0.68 319.508 02:20 10.09.2019
2167 Clouds 13 1026 87 10000 0.68 319.508 02:20 10.09.2019
2168 Clouds 11 1016 88 0 0.68 319.508 01:50 10.09.2019
2169 Clouds 11 1016 88 0 0.68 319.508 01:50 10.09.2019
2170 Clouds 13 1027 93 10000 2.1 340 01:22 10.09.2019
2171 Clouds 13 1027 93 10000 2.1 340 00:36 10.09.2019
2172 Clear 11 1018 88 0 0.59 28.386 23:58 09.09.2019
2173 Clear 11 1018 88 0 0.59 28.386 23:40 09.09.2019
2174 Clouds 13 1028 87 10000 2.1 10 23:18 09.09.2019
2175 Clear 11 1018 88 0 0.59 28.386 22:54 09.09.2019
2176 Clouds 14 1028 87 10000 3.1 360 22:36 09.09.2019
2177 Clouds 14 1028 87 10000 3.1 360 22:18 09.09.2019
2178 Clear 11 1018 88 0 0.59 28.386 21:55 09.09.2019
2179 -273 0 0 0 0 0 21:55 09.09.2019
2180 Clear 11 1018 88 0 0.59 28.386 21:36 09.09.2019
2181 Clouds 15 1027 82 10000 1 180 21:18 09.09.2019
2182 Clouds 15 1027 82 10000 1 180 20:55 09.09.2019
2183 Clouds 15 1027 82 10000 1 180 20:36 09.09.2019
2184 Clouds 15 1027 82 10000 1 180 20:18 09.09.2019
2185 Clouds 15 1026 82 10000 1 120 19:55 09.09.2019
2186 Clouds 15 1026 82 10000 1 120 19:37 09.09.2019
2187 Clouds 15 1026 82 10000 1 120 19:18 09.09.2019
2188 Clouds 12 1016 87 0 0.6 49.617 18:54 09.09.2019
2189 Clouds 12 1016 87 0 0.6 49.617 18:36 09.09.2019
2190 Clouds 12 1016 87 0 0.6 49.617 18:36 09.09.2019
2191 Rain 15 1014 90 0 1.1 246.685 18:18 09.09.2019
2192 Rain 15 1014 90 0 1.1 246.685 17:55 09.09.2019
2193 Rain 15 1014 90 0 1.1 246.685 17:37 09.09.2019
2194 Clouds 18 1024 68 10000 3.1 160 17:19 09.09.2019
2195 Clouds 18 1024 68 10000 3.1 160 16:40 09.09.2019
2196 Clouds 18 1024 68 10000 3.1 160 16:21 09.09.2019
2197 Clouds 17 1024 67 10000 2.1 210 15:56 09.09.2019
2198 Clouds 17 1024 67 10000 2.1 210 15:38 09.09.2019
2199 Clouds 17 1024 67 10000 2.1 210 15:19 09.09.2019
2200 Clouds 16 1025 82 10000 2.1 210 14:57 09.09.2019
2201 Clouds 16 1025 82 10000 2.1 210 14:38 09.09.2019
2202 Clouds 16 1025 82 10000 2.1 210 14:20 09.09.2019
2203 Rain 16 1013 79 0 1.7 234.936 13:45 09.09.2019
2204 Mist 15 1027 87 8000 3.1 180 13:21 09.09.2019
2205 Mist 15 1027 87 8000 3.1 180 12:58 09.09.2019
2206 Mist 15 1027 87 8000 3.1 180 12:40 09.09.2019
2207 Mist 15 1027 87 8000 3.1 180 12:40 09.09.2019
2208 Mist 15 1027 87 8000 3.1 180 12:21 09.09.2019
2209 Mist 15 1029 87 8000 2.1 180 11:55 09.09.2019
2210 Mist 15 1029 87 8000 2.1 180 11:55 09.09.2019
2211 Mist 15 1029 87 8000 2.1 180 11:36 09.09.2019
2212 Mist 15 1029 87 8000 2.1 180 11:18 09.09.2019
2213 Clouds 14 1029 87 10000 2.1 120 10:41 09.09.2019
2214 Clouds 14 1029 87 10000 2.1 120 10:21 09.09.2019
2215 Clouds 13 1029 93 5000 4.1 300 09:57 09.09.2019
2216 Clouds 13 1029 93 5000 4.1 300 09:38 09.09.2019
2217 Clouds 13 1029 93 5000 4.1 300 09:20 09.09.2019
2218 Rain 14 1018 87 0 1.5 59.711 08:39 09.09.2019
2219 Rain 14 1018 87 0 1.5 59.711 08:20 09.09.2019
2220 Rain 14 1018 87 0 1.5 59.711 07:48 09.09.2019
2221 Rain 12 1028 93 5000 5.1 70 07:28 09.09.2019
2222 Rain 12 1028 93 5000 5.1 70 06:59 09.09.2019
2223 Rain 12 1028 93 5000 5.1 70 06:40 09.09.2019
2224 Clouds 13 1026 93 10000 0.77 169.463 05:34 09.09.2019
2225 Clouds 15 1025 82 10000 0.66 159.342 02:59 09.09.2019
2226 Clouds 15 1025 82 10000 0.66 159.342 02:39 09.09.2019
2227 Rain 13 1016 88 0 0.61 172.137 00:54 09.09.2019
2228 Rain 14 1016 86 0 0.23 81.31 00:23 09.09.2019
2229 Rain 14 1016 86 0 0.23 81.31 23:46 08.09.2019
2230 Clouds 16 1027 87 10000 1 110 23:26 08.09.2019
2231 Clouds 16 1027 87 10000 1 110 22:57 08.09.2019
2232 Clouds 16 1027 87 10000 1 110 22:38 08.09.2019
2233 Clouds 16 1027 87 10000 1 110 22:20 08.09.2019
2234 Clouds 16 1027 87 10000 1.5 350 21:55 08.09.2019
2235 Clouds 16 1027 87 10000 1.5 350 21:36 08.09.2019
2236 Clouds 16 1027 87 10000 1.5 350 21:18 08.09.2019
2237 -273 0 0 0 0 0 20:40 08.09.2019
2238 Clouds 16 1026 87 10000 1 70 20:22 08.09.2019
2239 Clouds 16 1026 87 10000 1 70 19:59 08.09.2019
2240 Clouds 16 1026 87 10000 1 70 19:38 08.09.2019
2241 Clouds 16 1026 87 10000 1 70 19:20 08.09.2019
2242 Rain 14 1015 85 0 1.16 30.456 18:57 08.09.2019
2243 Rain 14 1015 85 0 1.16 30.456 18:38 08.09.2019
2244 Clouds 18 1024 77 10000 4.1 200 18:19 08.09.2019
2245 Clouds 18 1024 77 10000 4.1 200 17:56 08.09.2019
2246 Clouds 18 1024 77 10000 4.1 200 17:56 08.09.2019
2247 Clouds 18 1024 77 10000 4.1 200 17:36 08.09.2019
2248 Clouds 18 1024 77 10000 4.1 200 17:18 08.09.2019
2249 Clouds 19 1024 68 10000 5.1 180 16:44 08.09.2019
2250 Clouds 19 1024 68 10000 5.1 180 16:22 08.09.2019
2251 Clouds 20 1024 60 10000 3.6 230 15:58 08.09.2019
2252 Clouds 20 1024 60 10000 3.6 230 15:40 08.09.2019
2253 Clouds 20 1024 60 10000 3.6 230 15:21 08.09.2019
2254 Clouds 19 1024 63 10000 4.1 290 14:57 08.09.2019
2255 Clouds 19 1024 63 10000 4.1 290 14:57 08.09.2019
2256 Clouds 19 1024 63 10000 4.1 290 14:38 08.09.2019
2257 Clouds 19 1024 63 10000 4.1 290 14:20 08.09.2019
2258 Clouds 21 1025 56 10000 1 180 13:56 08.09.2019
2259 Clouds 21 1025 56 10000 1 180 13:37 08.09.2019
2260 Clouds 21 1025 56 10000 1 180 13:19 08.09.2019
2261 Rain 20 1011 69 0 0.81 140.621 12:41 08.09.2019
2262 Rain 20 1011 69 0 0.81 140.621 12:41 08.09.2019
2263 Clouds 18 1027 72 10000 5.1 210 12:23 08.09.2019
2264 Clouds 18 1027 72 10000 5.1 210 11:58 08.09.2019
2265 Clouds 18 1027 72 10000 5.1 210 11:39 08.09.2019
2266 Clouds 18 1027 72 10000 5.1 210 11:20 08.09.2019
2267 Rain 19 1014 73 0 1.9 223.463 10:57 08.09.2019
2268 Rain 19 1014 73 0 1.9 223.463 10:39 08.09.2019
2269 Rain 19 1014 73 0 1.9 223.463 10:21 08.09.2019
2270 Rain 19 1014 73 0 1.9 223.463 09:38 08.09.2019
2271 Mist 14 1029 93 9000 3.1 100 09:20 08.09.2019
2272 Rain 13 1018 92 0 0.36 261.802 08:56 08.09.2019
2273 Rain 14 1018 88 0 1.44 201.75 08:37 08.09.2019
2274 Rain 14 1018 88 0 1.44 201.75 08:18 08.09.2019
2275 Rain 14 1018 88 0 1.44 201.75 07:39 08.09.2019
2276 Rain 14 1018 88 0 1.44 201.75 07:20 08.09.2019
2277 Rain 14 1018 88 0 1.44 201.75 06:49 08.09.2019
2278 Clouds 14 1027 93 10000 2.1 300 06:31 08.09.2019
2279 Clouds 14 1027 93 10000 2.1 300 05:37 08.09.2019
2280 Rain 12 1017 89 0 1.09 279.376 03:54 08.09.2019
2281 Clouds 14 1025 87 10000 2.1 280 02:57 08.09.2019
2282 Clouds 14 1025 87 10000 2.1 280 02:26 08.09.2019
2283 Clouds 14 1025 87 10000 2.1 280 02:26 08.09.2019
2284 Clouds 12 1016 87 0 1.25 354.102 01:45 08.09.2019
2285 Clouds 12 1016 89 0 0.81 351.497 01:19 08.09.2019
2286 Clouds 12 1016 89 0 0.81 351.497 00:44 08.09.2019
2287 Clouds 13 1017 84 0 0.69 325.226 00:26 08.09.2019
2288 Clouds 13 1017 84 0 0.69 325.226 23:38 07.09.2019
2289 Clouds 13 1017 84 0 0.69 325.226 23:20 07.09.2019
2290 Clouds 13 1017 84 0 0.69 325.226 22:57 07.09.2019
2291 Clouds 13 1017 84 0 0.69 325.226 22:38 07.09.2019
2292 Clouds 13 1017 84 0 0.69 325.226 22:19 07.09.2019
2293 Clouds 13 1017 84 0 0.69 325.226 21:42 07.09.2019
2294 Rain 14 1016 82 0 1.42 1.412 21:23 07.09.2019
2295 Rain 14 1016 82 0 1.42 1.412 20:57 07.09.2019
2296 Clouds 16 1026 82 10000 1.19 1.248 20:37 07.09.2019
2297 Clouds 16 1026 82 10000 1.19 1.248 20:18 07.09.2019
2298 Clouds 16 1026 82 10000 1.19 1.248 19:54 07.09.2019
2299 Clouds 16 1026 82 10000 1.19 1.248 19:36 07.09.2019
2300 Clouds 16 1026 82 10000 1.19 1.248 19:18 07.09.2019
2301 Clouds 17 1025 77 10000 2.1 240 18:54 07.09.2019
2302 Clouds 17 1025 77 10000 2.1 240 18:36 07.09.2019
2303 Clouds 17 1025 77 10000 2.1 240 18:18 07.09.2019
2304 Clouds 17 1025 77 10000 2.1 240 17:54 07.09.2019
2305 Clouds 18 1025 72 10000 3.1 180 17:36 07.09.2019
2306 Clouds 18 1025 72 10000 3.1 180 17:18 07.09.2019
2307 Clouds 19 1025 63 10000 2.1 160 16:42 07.09.2019
2308 Clouds 19 1025 63 10000 2.1 160 16:21 07.09.2019
2309 Clouds 19 1025 59 10000 2.1 180 15:49 07.09.2019
2310 Clouds 19 1025 59 10000 2.1 180 15:27 07.09.2019
2311 Clouds 19 1025 68 10000 4.1 190 14:58 07.09.2019
2312 Clouds 19 1025 68 10000 4.1 190 14:37 07.09.2019
2313 Clouds 19 1025 68 10000 4.1 190 14:19 07.09.2019
2314 Clouds 18 1026 68 10000 3.1 200 13:58 07.09.2019
2315 Clouds 18 1026 68 10000 3.1 200 13:40 07.09.2019
2316 Clouds 18 1026 68 10000 3.1 200 13:40 07.09.2019
2317 Clouds 18 1026 68 10000 3.1 200 13:40 07.09.2019
2318 Clouds 18 1026 68 10000 3.1 200 13:40 07.09.2019
2319 Clouds 18 1026 68 10000 3.1 200 13:22 07.09.2019
2320 Clouds 18 1027 68 10000 3.1 200 12:45 07.09.2019
2321 Clouds 18 1027 68 10000 3.1 200 12:26 07.09.2019
2322 Rain 19 1015 73 0 2.44 178.875 11:58 07.09.2019
2323 Rain 19 1015 73 0 2.44 178.875 11:39 07.09.2019
2324 Clouds 15 1029 82 10000 3.1 240 11:19 07.09.2019
2325 Clouds 15 1029 82 10000 3.1 240 10:41 07.09.2019
2326 Clouds 15 1029 82 10000 3.1 240 10:41 07.09.2019
2327 Clouds 15 1029 82 10000 3.1 240 10:22 07.09.2019
2328 Clouds 13 1030 93 9000 2.6 220 09:56 07.09.2019
2329 Clouds 13 1030 93 9000 2.6 220 09:38 07.09.2019
2330 Clouds 13 1030 93 9000 2.6 220 09:20 07.09.2019
2331 Clouds 13 1030 93 9000 2.6 220 09:20 07.09.2019
2332 Clouds 16 1017 81 0 1.64 227.715 08:44 07.09.2019
2333 Clouds 16 1017 81 0 1.64 227.715 08:26 07.09.2019
2334 Clouds 16 1017 81 0 1.64 227.715 07:47 07.09.2019
2335 Clouds 16 1017 81 0 1.64 227.715 07:28 07.09.2019
2336 Clouds 16 1017 81 0 1.64 227.715 06:52 07.09.2019
2337 Clouds 12 1017 87 0 0.94 10.251 06:20 07.09.2019
2338 Clouds 12 1017 87 0 0.94 10.251 04:49 07.09.2019
2339 Clouds 12 1017 87 0 0.94 10.251 04:23 07.09.2019
2340 Clouds 13 1025 87 10000 2.1 270 02:50 07.09.2019
2341 Clouds 13 1025 87 10000 2.1 270 02:20 07.09.2019
2342 Clouds 13 1026 93 10000 1 310 01:26 07.09.2019
2343 Clouds 14 1026 93 10000 1 110 00:41 07.09.2019
2344 Clouds 14 1026 93 10000 1 110 00:19 07.09.2019
2345 Clouds 14 1027 93 10000 0.8 309.391 23:41 06.09.2019
2346 Clouds 14 1027 93 10000 0.8 309.391 23:22 06.09.2019
2347 Mist 14 1027 93 0 2.1 340 22:58 06.09.2019
2348 Mist 14 1027 93 0 2.1 340 22:58 06.09.2019
2349 Mist 14 1027 93 0 2.1 340 22:38 06.09.2019
2350 Mist 14 1027 93 0 2.1 340 22:19 06.09.2019
2351 Mist 15 1027 93 0 1 20 21:57 06.09.2019
2352 Rain 14 1017 91 0 0.8 309.391 21:39 06.09.2019
2353 Rain 14 1017 91 0 0.8 309.391 21:39 06.09.2019
2354 Rain 14 1017 91 0 0.8 309.391 21:39 06.09.2019
2355 Clouds 15 1027 93 10000 1 50 21:20 06.09.2019
2356 Clouds 15 1027 93 10000 1 50 20:57 06.09.2019
2357 Clouds 15 1027 93 10000 1 50 20:39 06.09.2019
2358 Clouds 15 1027 93 10000 1 50 20:39 06.09.2019
2359 Clouds 15 1027 93 10000 1 50 20:21 06.09.2019
2360 Rain 15 1016 87 0 1.5 143.574 19:55 06.09.2019
2361 Rain 15 1016 87 0 1.5 143.574 19:37 06.09.2019
2362 Rain 15 1016 87 0 1.5 143.574 19:18 06.09.2019
2363 Rain 15 1016 87 0 1.5 143.574 18:41 06.09.2019
2364 Rain 15 1016 87 0 1.5 143.574 18:41 06.09.2019
2365 Rain 17 1013 87 0 0.94 138.849 18:23 06.09.2019
2366 Rain 17 1013 87 0 0.94 138.849 17:58 06.09.2019
2367 Rain 17 1013 87 0 0.94 138.849 17:58 06.09.2019
2368 Rain 17 1013 87 0 0.94 138.849 17:37 06.09.2019
2369 Clouds 16 1025 77 10000 2.1 350 17:19 06.09.2019
2370 Clouds 16 1025 77 10000 2.1 350 16:39 06.09.2019
2371 Clouds 16 1025 77 10000 2.1 350 16:19 06.09.2019
2372 Clouds 16 1025 82 10000 2.1 140 15:42 06.09.2019
2373 Clouds 16 1025 82 10000 2.1 140 15:42 06.09.2019
2374 Clouds 16 1025 82 10000 2.1 140 15:42 06.09.2019
2375 Clouds 16 1025 82 10000 2.1 140 15:24 06.09.2019
2376 Thunderstorm 13 1026 93 7000 5.1 350 14:55 06.09.2019
2377 Thunderstorm 13 1026 93 7000 5.1 350 14:55 06.09.2019
2378 Thunderstorm 13 1026 93 7000 5.1 350 14:37 06.09.2019
2379 Thunderstorm 13 1026 93 7000 5.1 350 14:37 06.09.2019
2380 Thunderstorm 13 1026 93 7000 5.1 350 14:18 06.09.2019
2381 Rain 19 1012 74 0 2.7 138.216 13:41 06.09.2019
2382 Rain 19 1012 74 0 2.7 138.216 13:41 06.09.2019
2383 Clouds 19 1027 68 10000 3.1 180 13:20 06.09.2019
2384 Clouds 19 1027 68 10000 3.1 180 12:38 06.09.2019
2385 Clouds 19 1027 68 10000 3.1 180 12:20 06.09.2019
2386 Rain 18 1016 77 0 2.52 128.316 11:54 06.09.2019
2387 Rain 18 1016 77 0 2.52 128.316 11:36 06.09.2019
2388 Clouds 17 1029 77 10000 4.1 180 11:18 06.09.2019
2389 Clouds 17 1029 77 10000 4.1 180 10:40 06.09.2019
2390 Clouds 17 1029 77 10000 4.1 180 10:22 06.09.2019
2391 Clouds 15 1029 82 10000 2.1 130 09:57 06.09.2019
2392 Clouds 15 1029 82 10000 2.1 130 09:36 06.09.2019
2393 Clouds 15 1029 82 10000 2.1 130 09:18 06.09.2019
2394 Clouds 15 1029 82 10000 2.1 220 08:43 06.09.2019
2395 Clouds 15 1029 82 10000 2.1 220 08:25 06.09.2019
2396 Clouds 14 1028 87 10000 2.1 320 07:48 06.09.2019
2397 Clouds 14 1028 87 10000 2.1 320 07:27 06.09.2019
2398 Clouds 14 1027 82 10000 2.1 240 06:58 06.09.2019
2399 Clouds 14 1027 82 10000 2.1 240 06:26 06.09.2019
2400 Rain 14 1018 84 0 1.38 5.599 05:43 06.09.2019
2401 Clouds 13 1026 87 10000 3.1 300 04:49 06.09.2019
2402 Clouds 13 1025 87 10000 4.1 290 03:53 06.09.2019
2403 Mist 12 1025 93 8000 1.5 150 02:23 06.09.2019
2404 Mist 13 1025 87 9000 3.6 340 00:45 06.09.2019
2405 Mist 13 1026 82 8000 2.1 10 23:56 05.09.2019
2406 Mist 13 1026 82 8000 2.1 10 23:38 05.09.2019
2407 Mist 13 1026 82 8000 2.1 10 23:19 05.09.2019
2408 Clouds 13 1026 82 10000 1 300 22:43 05.09.2019
2409 Clouds 13 1026 82 10000 1 300 22:24 05.09.2019
2410 Clouds 14 1026 82 10000 2.1 320 21:56 05.09.2019
2411 Rain 15 1017 82 0 0.64 348.093 21:38 05.09.2019
2412 Rain 15 1015 81 0 1.43 72.339 21:19 05.09.2019
2413 Rain 15 1015 81 0 1.43 72.339 20:57 05.09.2019
2414 Rain 13 1015 82 0 4.94 66.581 20:37 05.09.2019
2415 Rain 13 1015 82 0 4.94 66.581 20:19 05.09.2019
2416 Rain 13 1015 82 0 4.94 66.581 19:55 05.09.2019
2417 Rain 13 1015 82 0 4.94 66.581 19:37 05.09.2019
2418 Clouds 16 1023 77 10000 2.1 90 19:18 05.09.2019
2419 Clouds 16 1023 77 10000 2.1 90 18:41 05.09.2019
2420 Clouds 16 1023 77 10000 2.1 90 18:21 05.09.2019
2421 Rain 17 1013 80 0 1.23 351.969 17:57 05.09.2019
2422 Rain 17 1013 80 0 1.23 351.969 17:38 05.09.2019
2423 Clouds 18 1024 55 10000 5.1 350 17:20 05.09.2019
2424 Rain 17 1013 80 0 1.23 351.969 16:42 05.09.2019
2425 Clouds 17 1025 67 9000 7.2 30 16:21 05.09.2019
2426 Clouds 17 1025 67 9000 7.2 30 15:58 05.09.2019
2427 Clouds 17 1025 67 9000 7.2 30 15:39 05.09.2019
2428 Clouds 17 1025 67 9000 7.2 30 15:19 05.09.2019
2429 Clouds 17 1025 77 10000 5.1 330 14:55 05.09.2019
2430 Clouds 17 1025 77 10000 5.1 330 14:37 05.09.2019
2431 Clouds 17 1025 77 10000 5.1 330 14:18 05.09.2019
2432 Clouds 15 1025 87 0 2.1 270 13:41 05.09.2019
2433 Clouds 15 1025 87 0 2.1 270 13:18 05.09.2019
2434 Clouds 15 1026 87 10000 3.6 80 12:42 05.09.2019
2435 Clouds 15 1026 87 10000 3.6 80 12:24 05.09.2019
2436 Clouds 19 1027 72 10000 2.1 210 11:56 05.09.2019
2437 Clouds 19 1027 72 10000 2.1 210 11:36 05.09.2019
2438 Clouds 19 1027 72 10000 2.1 210 11:18 05.09.2019
2439 Clouds 19 1027 72 10000 2.1 210 10:37 05.09.2019
2440 Clouds 19 1027 72 10000 2.1 210 10:37 05.09.2019
2441 Clouds 19 1027 72 10000 2.1 210 10:19 05.09.2019
2442 Clouds 18 1027 72 10000 3.1 280 09:41 05.09.2019
2443 Clouds 18 1027 72 10000 3.1 280 09:22 05.09.2019
2444 Rain 17 1027 82 10000 2.1 250 08:57 05.09.2019
2445 Rain 17 1027 82 10000 2.1 250 08:39 05.09.2019
2446 Rain 17 1027 82 10000 2.1 250 08:39 05.09.2019
2447 Rain 17 1027 82 10000 2.1 250 08:21 05.09.2019
2448 Clouds 16 1027 82 10000 2.1 240 07:44 05.09.2019
2449 Clouds 16 1027 82 10000 2.1 240 07:25 05.09.2019
2450 Clouds 15 1027 87 10000 2.1 260 06:48 05.09.2019
2451 Clouds 15 1027 87 10000 2.1 260 06:28 05.09.2019
2452 Rain 13 1017 90 0 0.34 228.532 05:47 05.09.2019
2453 Rain 13 1017 90 0 0.34 228.532 05:28 05.09.2019
2454 Rain 13 1017 90 0 0.34 228.532 04:41 05.09.2019
2455 Clouds 15 1025 87 10000 4.1 270 04:18 05.09.2019
2456 Clouds 15 1025 87 10000 4.1 250 02:59 05.09.2019
2457 Clouds 15 1025 87 10000 4.1 250 02:59 05.09.2019
2458 Clouds 15 1025 87 10000 4.1 250 02:38 05.09.2019
2459 Clouds 15 1025 87 10000 4.1 250 02:18 05.09.2019
2460 Rain 14 1015 89 0 0.53 197.79 00:58 05.09.2019
2461 Rain 14 1015 89 0 0.53 197.79 00:39 05.09.2019
2462 Clouds 16 1026 87 10000 1 240 00:19 05.09.2019
2463 Clouds 16 1026 87 10000 1 240 23:41 04.09.2019
2464 Clouds 16 1026 87 10000 1 240 23:41 04.09.2019
2465 Clouds 16 1026 87 10000 1 240 23:22 04.09.2019
2466 Clouds 16 1026 87 10000 1 240 22:49 04.09.2019
2467 Clouds 16 1026 87 10000 1 240 22:21 04.09.2019
2468 Clouds 17 1026 82 10000 1 200 21:57 04.09.2019
2469 Clouds 17 1026 82 10000 1 200 21:38 04.09.2019
2470 Clouds 17 1026 82 10000 1 200 21:38 04.09.2019
2471 Clouds 17 1026 82 10000 1 200 21:19 04.09.2019
2472 Clouds 17 1026 82 10000 1.09 35.55 20:55 04.09.2019
2473 Clouds 17 1026 82 10000 1.09 35.55 20:55 04.09.2019
2474 Clouds 17 1026 82 10000 1.09 35.55 20:36 04.09.2019
2475 Clouds 17 1026 82 10000 1.09 35.55 20:18 04.09.2019
2476 Clouds 17 1024 88 10000 1.5 70 19:40 04.09.2019
2477 Clouds 17 1024 88 10000 1.5 70 19:21 04.09.2019
2478 Rain 15 1014 81 0 1.09 35.55 18:55 04.09.2019
2479 Rain 15 1014 81 0 1.09 35.55 18:55 04.09.2019
2480 Rain 15 1014 81 0 1.09 35.55 18:36 04.09.2019
2481 Clouds 19 1024 63 10000 2.6 300 18:18 04.09.2019
2482 Clouds 19 1024 63 10000 2.6 300 17:41 04.09.2019
2483 Clouds 19 1024 63 10000 2.6 300 17:22 04.09.2019
2484 Clouds 20 1023 60 10000 3.1 300 16:56 04.09.2019
2485 Clouds 20 1023 60 10000 3.1 300 16:38 04.09.2019
2486 Clouds 20 1023 60 10000 3.1 300 16:19 04.09.2019
2487 Rain 18 1011 83 0 1.27 113.976 15:41 04.09.2019
2488 Clouds 21 1023 60 10000 3.6 200 15:22 04.09.2019
2489 Clouds 21 1023 60 10000 3.6 200 14:58 04.09.2019
2490 Clouds 21 1023 60 10000 3.6 200 14:38 04.09.2019
2491 Clouds 21 1023 60 10000 3.6 200 14:20 04.09.2019
2492 Clouds 22 1024 56 10000 3.6 180 13:58 04.09.2019
2493 Clouds 22 1024 56 10000 3.6 180 13:58 04.09.2019
2494 Clouds 22 1024 56 10000 3.6 180 13:39 04.09.2019
2495 Clouds 20 1025 60 10000 4.1 180 13:21 04.09.2019
2496 Rain 21 1010 64 0 2.1 147.512 12:44 04.09.2019
2497 Clouds 19 1026 63 10000 3.6 180 12:26 04.09.2019
2498 Clouds 19 1026 63 10000 3.6 180 11:58 04.09.2019
2499 Clouds 19 1026 63 10000 3.6 180 11:38 04.09.2019
2500 Clouds 19 1026 63 10000 3.6 180 11:20 04.09.2019
2501 Mist 18 1027 72 9000 2.1 160 10:56 04.09.2019
2502 Mist 18 1027 72 9000 2.1 160 10:56 04.09.2019
2503 Mist 18 1027 72 9000 2.1 160 10:36 04.09.2019
2504 Mist 18 1027 72 9000 2.1 160 10:18 04.09.2019
2505 Mist 19 1027 72 9000 3.1 170 09:44 04.09.2019
2506 Mist 19 1027 72 9000 3.1 170 09:44 04.09.2019
2507 Mist 17 1027 77 9000 1.5 190 09:20 04.09.2019
2508 Mist 17 1027 77 9000 1.5 190 08:42 04.09.2019
2509 Mist 17 1027 77 9000 1.5 190 08:24 04.09.2019
2510 Mist 16 1026 100 8000 2.1 290 07:59 04.09.2019
2511 Mist 16 1026 100 8000 2.1 290 07:36 04.09.2019
2512 Mist 14 1026 87 8000 3.1 300 06:53 04.09.2019
2513 Mist 14 1026 87 8000 3.1 300 06:33 04.09.2019
2514 Rain 12 1016 89 0 0.84 344.745 04:54 04.09.2019
2515 Clouds 13 1026 93 10000 2.1 90 04:22 04.09.2019
2516 Clouds 12 1015 87 0 0.9 22.108 02:50 04.09.2019
2517 Clouds 12 1015 87 0 0.78 30.156 01:18 04.09.2019
2518 Clouds 12 1015 87 0 0.78 30.156 00:41 04.09.2019
2519 Clouds 14 1027 76 10000 2.1 290 00:22 04.09.2019
2520 Clouds 14 1027 76 10000 2.1 290 00:22 04.09.2019
2521 Clouds 14 1027 76 10000 2.1 290 23:48 03.09.2019
2522 Clouds 14 1027 76 10000 2.1 290 23:26 03.09.2019
2523 Clouds 15 1027 72 10000 3.1 120 22:41 03.09.2019
2524 Clouds 15 1027 72 10000 3.1 120 22:23 03.09.2019
2525 Clouds 16 1027 82 10000 3.1 120 21:57 03.09.2019
2526 Clouds 16 1027 82 10000 3.1 120 21:38 03.09.2019
2527 Clouds 16 1027 82 10000 3.1 120 21:20 03.09.2019
2528 Clouds 16 1026 72 10000 2.1 260 20:56 03.09.2019
2529 Clouds 16 1026 72 10000 2.1 260 20:37 03.09.2019
2530 Clouds 16 1026 72 10000 2.1 260 20:19 03.09.2019
2531 Rain 15 1015 84 0 1.27 349.328 19:43 03.09.2019
2532 Rain 15 1015 84 0 1.27 349.328 19:20 03.09.2019
2533 Rain 15 1015 84 0 1.27 349.328 18:59 03.09.2019
2534 Rain 15 1015 84 0 1.27 349.328 18:59 03.09.2019
2535 Rain 15 1015 84 0 1.27 349.328 18:40 03.09.2019
2536 Clouds 16 1025 82 9000 2.1 320 18:20 03.09.2019
2537 Clouds 16 1025 82 9000 2.1 320 17:56 03.09.2019
2538 Clouds 16 1025 82 9000 2.1 320 17:38 03.09.2019
2539 Clouds 16 1025 82 9000 2.1 320 17:18 03.09.2019
2540 Rain 17 1013 85 0 0.96 308.465 16:43 03.09.2019
2541 Thunderstorm 16 1024 82 7000 3.1 240 16:22 03.09.2019
2542 Thunderstorm 16 1024 82 7000 3.1 240 16:22 03.09.2019
2543 Thunderstorm 16 1024 82 7000 3.1 240 15:56 03.09.2019
2544 Thunderstorm 16 1024 82 7000 3.1 240 15:37 03.09.2019
2545 Thunderstorm 16 1024 82 7000 3.1 240 15:19 03.09.2019
2546 Rain 20 1024 77 8000 2.6 170 14:55 03.09.2019
2547 Rain 20 1024 77 8000 2.6 170 14:36 03.09.2019
2548 Rain 20 1024 77 8000 2.6 170 14:18 03.09.2019
2549 Clouds 21 1025 64 10000 2.1 120 13:55 03.09.2019
2550 Clouds 21 1025 64 10000 2.1 120 13:55 03.09.2019
2551 -273 0 0 0 0 0 13:55 03.09.2019
2552 Clouds 21 1025 64 10000 2.1 120 13:36 03.09.2019
2553 Clouds 21 1025 64 10000 2.1 120 13:18 03.09.2019
2554 Clouds 20 1025 64 10000 4.1 150 12:45 03.09.2019
2555 Clouds 20 1025 64 10000 4.1 150 12:26 03.09.2019
2556 Clouds 21 1027 64 10000 5.1 140 11:43 03.09.2019
2557 Clouds 21 1027 64 10000 5.1 140 11:23 03.09.2019
2558 Clouds 20 1027 68 10000 3.1 140 10:58 03.09.2019
2559 Clouds 20 1027 68 10000 3.1 140 10:39 03.09.2019
2560 Clouds 20 1027 68 10000 3.1 140 10:21 03.09.2019
2561 Rain 21 1015 64 0 1.46 159.559 09:49 03.09.2019
2562 Mist 18 1028 77 7000 2.1 170 09:31 03.09.2019
2563 Mist 18 1028 77 7000 2.1 170 08:57 03.09.2019
2564 Mist 18 1028 77 7000 2.1 170 08:37 03.09.2019
2565 Mist 18 1028 77 7000 2.1 170 08:19 03.09.2019
2566 Clouds 15 1028 113 10000 1 210 07:42 03.09.2019
2567 Clouds 15 1028 113 10000 1 210 07:24 03.09.2019
2568 Clouds 14 1027 87 10000 2.1 330 06:45 03.09.2019
2569 Clouds 14 1026 87 10000 2.1 360 06:27 03.09.2019
2570 Clouds 15 1026 82 10000 2.1 290 03:44 03.09.2019
2571 Clouds 15 1026 82 10000 2.1 250 02:47 03.09.2019
2572 Clouds 15 1026 82 10000 2.1 250 02:26 03.09.2019
2573 Clouds 14 1026 93 10000 2.1 330 01:52 03.09.2019
2574 Clouds 14 1026 93 10000 2.1 330 01:33 03.09.2019
2575 Clouds 14 1026 93 10000 1 310 00:56 03.09.2019
2576 Clouds 14 1026 93 10000 1 310 00:26 03.09.2019
2577 Clouds 14 1026 93 0 2.1 360 23:40 02.09.2019
2578 Clouds 14 1026 93 0 2.1 360 23:20 02.09.2019
2579 Clouds 15 1027 87 0 1 240 22:57 02.09.2019
2580 Clouds 15 1027 87 0 1 240 22:57 02.09.2019
2581 Clouds 15 1027 87 0 1 240 22:39 02.09.2019
2582 Clouds 15 1027 87 0 1 240 22:20 02.09.2019
2583 Clouds 13 1017 83 0 0.78 2.137 21:58 02.09.2019
2584 Clouds 13 1016 83 0 0.85 20.54 21:40 02.09.2019
2585 Clouds 16 1026 87 10000 1 10 21:20 02.09.2019
2586 Clouds 16 1026 87 10000 1 10 20:59 02.09.2019
2587 Clouds 16 1026 87 10000 1 10 20:40 02.09.2019
2588 Clouds 16 1026 87 10000 1 10 20:40 02.09.2019
2589 Clouds 16 1026 87 10000 1 10 20:19 02.09.2019
2590 Clouds 17 1026 82 10000 1.21 17.476 19:57 02.09.2019
2591 Clouds 17 1026 82 10000 1.21 17.476 19:38 02.09.2019
2592 Clouds 17 1026 82 10000 1.21 17.476 19:19 02.09.2019
2593 Clouds 20 1025 64 10000 1.21 17.476 18:40 02.09.2019
2594 Clouds 20 1025 64 10000 1.75 185.906 18:22 02.09.2019
2595 Clouds 20 1025 64 10000 1.75 185.906 17:58 02.09.2019
2596 Clouds 20 1025 64 10000 1.75 185.906 17:58 02.09.2019
2597 Clouds 20 1025 64 10000 1.75 185.906 17:39 02.09.2019
2598 Clouds 20 1025 64 10000 1.75 185.906 17:20 02.09.2019
2599 Rain 17 1013 83 0 1.75 185.906 16:58 02.09.2019
2600 Rain 17 1013 83 0 1.75 185.906 16:36 02.09.2019
2601 Rain 17 1013 83 0 1.75 185.906 16:18 02.09.2019
2602 Rain 17 1013 83 0 1.75 185.906 15:44 02.09.2019
2603 Rain 20 1012 61 0 1.37 108.077 15:22 02.09.2019
2604 Rain 20 1012 61 0 1.37 108.077 14:56 02.09.2019
2605 Rain 20 1012 61 0 1.37 108.077 14:37 02.09.2019
2606 Rain 20 1012 61 0 1.37 108.077 14:19 02.09.2019
2607 Rain 20 1012 61 0 1.37 108.077 13:46 02.09.2019
2608 Rain 19 1012 68 0 1.56 106.435 13:25 02.09.2019
2609 Rain 19 1012 68 0 1.56 106.435 12:59 02.09.2019
2610 Rain 19 1012 68 0 1.56 106.435 12:41 02.09.2019
2611 Rain 19 1016 76 0 4.15 67.037 12:23 02.09.2019
2612 Rain 19 1016 76 0 4.15 67.037 12:23 02.09.2019
2613 Rain 19 1016 76 0 4.15 67.037 11:58 02.09.2019
2614 Rain 19 1016 76 0 4.15 67.037 11:38 02.09.2019
2615 Rain 19 1016 76 0 4.15 67.037 11:19 02.09.2019
2616 Rain 19 1016 76 0 4.15 67.037 10:42 02.09.2019
2617 Rain 19 1016 76 0 4.15 67.037 10:22 02.09.2019
2618 Rain 19 1016 76 0 4.15 67.037 09:59 02.09.2019
2619 Rain 19 1016 76 0 4.15 67.037 09:40 02.09.2019
2620 Rain 16 1019 81 0 1.52 150.806 09:20 02.09.2019
2621 Rain 16 1019 81 0 1.52 150.806 09:20 02.09.2019
2622 Rain 16 1019 81 0 1.52 150.806 08:43 02.09.2019
2623 Rain 16 1019 81 0 1.52 150.806 08:22 02.09.2019
2624 Rain 16 1019 81 0 1.52 150.806 08:22 02.09.2019
2625 Rain 16 1019 81 0 1.52 150.806 07:57 02.09.2019
2626 Rain 16 1019 81 0 1.52 150.806 07:38 02.09.2019
2627 Rain 16 1019 81 0 1.52 150.806 07:20 02.09.2019
2628 Rain 16 1019 81 0 1.52 150.806 06:43 02.09.2019
2629 Rain 13 1016 88 0 0.63 345.433 05:54 02.09.2019
2630 Rain 13 1016 88 0 0.63 345.433 05:25 02.09.2019
2631 Rain 13 1016 88 0 0.63 345.433 04:48 02.09.2019
2632 Rain 14 1015 86 0 0.3 234.573 02:29 02.09.2019
2633 Rain 14 1015 87 0 0.56 288.468 01:37 02.09.2019
2634 Rain 14 1015 87 0 0.56 288.468 00:42 02.09.2019
2635 Rain 13 1016 86 0 0.43 322.148 00:20 02.09.2019
2636 Rain 13 1016 86 0 0.43 322.148 23:39 01.09.2019
2637 Rain 13 1016 86 0 0.43 322.148 23:19 01.09.2019
2638 Rain 13 1016 86 0 0.43 322.148 22:56 01.09.2019
2639 Rain 13 1016 86 0 0.43 322.148 22:56 01.09.2019
2640 Rain 13 1016 86 0 0.43 322.148 22:38 01.09.2019
2641 Rain 13 1016 86 0 0.43 322.148 22:18 01.09.2019
2642 Rain 14 1016 87 0 0.75 246.471 21:43 01.09.2019
2643 Rain 14 1015 86 0 0.85 309.204 21:23 01.09.2019
2644 Rain 14 1015 86 0 0.85 309.204 20:58 01.09.2019
2645 Rain 14 1015 86 0 0.85 309.204 20:40 01.09.2019
2646 Rain 14 1015 86 0 0.85 309.204 20:19 01.09.2019
2647 Rain 14 1015 86 0 0.85 309.204 20:19 01.09.2019
2648 Rain 14 1015 86 0 0.85 309.204 20:00 01.09.2019
2649 Rain 14 1015 86 0 0.85 309.204 19:40 01.09.2019
2650 Rain 14 1015 86 0 0.85 309.204 19:21 01.09.2019
2651 Rain 14 1015 86 0 0.85 309.204 18:49 01.09.2019
2652 Rain 14 1015 86 0 0.85 309.204 18:30 01.09.2019
2653 Rain 16 1012 87 0 1.16 276.416 17:59 01.09.2019
2654 Rain 16 1012 87 0 1.16 276.416 17:39 01.09.2019
2655 Rain 16 1024 82 9000 2.6 190 17:21 01.09.2019
2656 Rain 16 1024 82 9000 2.6 190 16:56 01.09.2019
2657 Rain 16 1012 87 0 1.16 276.416 16:37 01.09.2019
2658 Rain 16 1012 87 0 1.16 276.416 16:18 01.09.2019
2659 Rain 16 1012 87 0 1.16 276.416 15:42 01.09.2019
2660 Rain 16 1012 87 0 1.16 276.416 15:42 01.09.2019
2661 Clouds 19 1023 68 9000 2.1 320 15:23 01.09.2019
2662 Clouds 19 1023 68 9000 2.1 320 14:44 01.09.2019
2663 Clouds 19 1023 68 9000 2.1 320 14:26 01.09.2019
2664 Clouds 19 1023 68 10000 3.1 320 13:59 01.09.2019
2665 Clouds 19 1023 68 10000 3.1 320 13:41 01.09.2019
2666 Clouds 19 1023 68 10000 3.1 320 13:23 01.09.2019
2667 Rain 20 1025 68 0 3.1 220 12:44 01.09.2019
2668 Rain 20 1025 68 0 3.1 220 12:26 01.09.2019
2669 Clouds 20 1025 68 10000 3.1 220 11:58 01.09.2019
2670 Clouds 20 1025 68 10000 3.1 220 11:38 01.09.2019
2671 Clouds 20 1025 68 10000 3.1 220 11:19 01.09.2019
2672 Clouds 19 1026 63 10000 4.1 220 10:45 01.09.2019
2673 Clouds 19 1026 63 10000 4.1 220 10:23 01.09.2019
2674 Clouds 19 1026 72 10000 4.1 220 09:48 01.09.2019
2675 Clouds 19 1026 72 10000 4.1 220 09:26 01.09.2019
2676 Clouds 17 1026 82 10000 4.1 240 08:56 01.09.2019
2677 Clouds 17 1026 82 10000 4.1 240 08:38 01.09.2019
2678 Clouds 17 1026 82 10000 4.1 240 08:20 01.09.2019
2679 Clouds 16 1026 82 10000 4.1 280 07:41 01.09.2019
2680 Clouds 16 1026 82 10000 4.1 280 07:20 01.09.2019
2681 Rain 17 1016 80 0 1.6 249.112 06:38 01.09.2019
2682 Clear 12 1015 87 0 1.04 339.688 05:59 01.09.2019
2683 Clear 12 1015 87 0 1.04 339.688 05:59 01.09.2019
2684 Clear 12 1015 87 0 1.04 339.688 04:41 01.09.2019
2685 Clear 12 1015 87 0 1.04 339.688 03:49 01.09.2019
2686 Clouds 12 1023 93 10000 2.1 50 03:30 01.09.2019
2687 Clouds 12 1023 93 10000 2.1 50 02:37 01.09.2019
2688 Clouds 12 1023 93 10000 2.1 50 02:19 01.09.2019
2689 Clouds 13 1024 93 10000 3.1 310 01:28 01.09.2019
2690 Clouds 13 1024 93 10000 2.1 290 00:55 01.09.2019
2691 Clouds 13 1024 93 10000 2.1 290 00:36 01.09.2019
2692 Clouds 13 1024 93 10000 2.1 290 00:18 01.09.2019
2693 Clouds 14 1024 87 10000 2.1 330 23:40 31.08.2019
2694 Clouds 14 1024 87 10000 2.1 330 23:20 31.08.2019
2695 Clouds 15 1025 82 10000 1 10 22:55 31.08.2019
2696 Clouds 15 1025 82 10000 1 10 22:36 31.08.2019
2697 Clouds 15 1025 82 10000 1 10 22:18 31.08.2019
2698 Clouds 15 1025 82 10000 1 10 21:42 31.08.2019
2699 Clouds 15 1025 82 10000 1 10 21:21 31.08.2019
2700 Clouds 15 1024 82 10000 2.1 300 20:59 31.08.2019
2701 Clouds 15 1024 82 10000 2.1 300 20:40 31.08.2019
2702 Clouds 15 1024 82 10000 2.1 300 20:22 31.08.2019
2703 Rain 16 1013 80 0 1.09 11.496 19:41 31.08.2019
2704 Rain 16 1013 80 0 1.09 11.496 19:22 31.08.2019
2705 Rain 16 1013 80 0 1.09 11.496 18:55 31.08.2019
2706 Rain 16 1013 80 0 1.09 11.496 18:55 31.08.2019
2707 Rain 16 1013 80 0 1.09 11.496 18:36 31.08.2019
2708 Rain 17 1010 81 0 0.22 68.629 18:18 31.08.2019
2709 Rain 17 1010 81 0 0.22 68.629 17:54 31.08.2019
2710 Rain 17 1010 81 0 0.22 68.629 17:36 31.08.2019
2711 Rain 17 1010 81 0 0.22 68.629 17:18 31.08.2019
2712 Rain 17 1010 81 0 0.22 68.629 16:41 31.08.2019
2713 Clouds 16 1022 82 8000 3.1 320 16:21 31.08.2019
2714 Clouds 16 1022 82 8000 3.1 320 15:59 31.08.2019
2715 Rain 14 1022 82 6000 8.2 21 15:38 31.08.2019
2716 Rain 14 1022 82 6000 8.2 21 15:38 31.08.2019
2717 Rain 14 1022 82 6000 8.2 21 15:18 31.08.2019
2718 Rain 14 1022 82 6000 8.2 21 14:42 31.08.2019
2719 Rain 14 1022 82 6000 8.2 21 14:24 31.08.2019
2720 Clouds 18 1023 72 9000 5.7 330 13:56 31.08.2019
2721 Rain 20 1009 69 0 2.2 113.486 13:36 31.08.2019
2722 Clouds 21 1023 60 9000 5.1 200 13:18 31.08.2019
2723 Clouds 21 1023 60 9000 5.1 200 12:42 31.08.2019
2724 Clouds 21 1023 60 9000 5.1 200 12:21 31.08.2019
2725 Clouds 21 1024 60 10000 4.1 170 11:59 31.08.2019
2726 Clouds 21 1024 60 10000 4.1 170 11:40 31.08.2019
2727 Clouds 21 1024 60 10000 4.1 170 11:22 31.08.2019
2728 Rain 21 1013 63 0 1.01 214.904 10:54 31.08.2019
2729 Rain 21 1013 63 0 1.01 214.904 10:36 31.08.2019
2730 Rain 21 1013 63 0 1.01 214.904 10:18 31.08.2019
2731 Rain 20 1013 63 0 1.66 219.297 09:39 31.08.2019
2732 Clouds 16 1015 78 0 1.84 236.793 09:21 31.08.2019
2733 Clouds 16 1015 78 0 1.84 236.793 08:45 31.08.2019
2734 Clouds 16 1015 78 0 1.84 236.793 08:27 31.08.2019
2735 Clouds 16 1015 78 0 1.84 236.793 07:43 31.08.2019
2736 Clouds 16 1015 78 0 1.84 236.793 07:23 31.08.2019
2737 Clouds 16 1015 78 0 1.84 236.793 06:56 31.08.2019
2738 Clouds 12 1015 84 0 1.31 357.808 06:23 31.08.2019
2739 Clouds 12 1015 84 0 1.31 357.808 05:35 31.08.2019
2740 Clouds 12 1015 84 0 1.31 357.808 04:45 31.08.2019
2741 Clouds 12 1015 84 0 1.31 357.808 04:27 31.08.2019
2742 Clouds 12 1015 84 0 1.31 357.808 03:42 31.08.2019
2743 Clouds 12 1014 84 0 1.11 343.827 02:20 31.08.2019
2744 Clouds 12 1014 84 0 1.11 343.827 01:42 31.08.2019
2745 Clouds 12 1014 83 0 1.19 352.469 01:23 31.08.2019
2746 Clouds 12 1014 83 0 1.19 352.469 00:44 31.08.2019
2747 Clouds 12 1014 83 0 1.19 352.469 00:25 31.08.2019
2748 Clouds 13 1016 83 0 1.03 351.381 23:48 30.08.2019
2749 Clouds 13 1016 83 0 1.03 351.381 23:19 30.08.2019
2750 Clouds 13 1016 83 0 1.03 351.381 22:56 30.08.2019
2751 Clouds 13 1016 83 0 1.03 351.381 22:37 30.08.2019
2752 Clouds 13 1016 83 0 1.03 351.381 22:19 30.08.2019
2753 Clouds 13 1016 83 0 1.03 351.381 21:55 30.08.2019
2754 Clouds 14 1015 85 0 0.79 33.81 21:36 30.08.2019
2755 Rain 14 1014 84 0 1.1 23.178 21:18 30.08.2019
2756 Rain 14 1014 84 0 1.1 23.178 20:42 30.08.2019
2757 Clouds 16 1024 82 10000 3.1 330 20:22 30.08.2019
2758 Clouds 16 1024 82 10000 3.1 330 19:59 30.08.2019
2759 Clouds 16 1024 82 10000 3.1 330 19:40 30.08.2019
2760 Clouds 16 1024 82 10000 3.1 330 19:21 30.08.2019
2761 Rain 14 1014 84 0 1.1 23.178 18:58 30.08.2019
2762 Rain 14 1014 84 0 1.1 23.178 18:39 30.08.2019
2763 Rain 16 1012 85 0 0.71 95.551 18:18 30.08.2019
2764 Rain 16 1012 85 0 0.71 95.551 17:56 30.08.2019
2765 Rain 16 1012 85 0 0.71 95.551 17:56 30.08.2019
2766 Rain 16 1012 85 0 0.71 95.551 17:37 30.08.2019
2767 Rain 16 1012 85 0 0.71 95.551 17:37 30.08.2019
2768 Rain 16 1012 85 0 0.71 95.551 17:18 30.08.2019
2769 Rain 16 1012 85 0 0.71 95.551 16:43 30.08.2019
2770 Clouds 19 1023 63 0 1 180 16:25 30.08.2019
2771 Clouds 19 1023 63 0 1 180 15:45 30.08.2019
2772 Clouds 19 1023 63 0 1 180 15:25 30.08.2019
2773 Clouds 17 1026 72 10000 6.7 330 14:59 30.08.2019
2774 Clouds 17 1026 72 10000 6.7 330 14:41 30.08.2019
2775 Clouds 17 1026 72 10000 6.7 330 14:23 30.08.2019
2776 Clouds 17 1026 72 10000 6.7 330 14:23 30.08.2019
2777 Rain 19 1011 72 0 2.23 117.277 13:44 30.08.2019
2778 Thunderstorm 13 1027 87 7000 8.2 60 13:23 30.08.2019
2779 Thunderstorm 13 1027 87 7000 8.2 60 12:58 30.08.2019
2780 Thunderstorm 13 1027 87 7000 8.2 60 12:40 30.08.2019
2781 Thunderstorm 13 1027 87 7000 8.2 60 12:21 30.08.2019
2782 Clouds 20 1027 60 10000 4.1 200 11:42 30.08.2019
2783 Clouds 20 1027 60 10000 4.1 200 11:24 30.08.2019
2784 Rain 19 1014 72 0 2.39 168.257 10:42 30.08.2019
2785 Mist 18 1028 72 8000 3.1 150 10:23 30.08.2019
2786 Mist 18 1028 72 8000 3.1 150 09:58 30.08.2019
2787 Mist 18 1028 72 8000 3.1 150 09:40 30.08.2019
2788 Mist 18 1028 72 8000 3.1 150 09:19 30.08.2019
2789 Mist 16 1027 77 8000 2.1 210 08:54 30.08.2019
2790 Mist 16 1027 77 8000 2.1 210 08:54 30.08.2019
2791 Mist 16 1027 77 8000 2.1 210 08:36 30.08.2019
2792 Mist 16 1027 77 8000 2.1 210 08:36 30.08.2019
2793 Mist 16 1027 77 8000 2.1 210 08:18 30.08.2019
2794 Clouds 14 1027 93 10000 2.1 170 07:39 30.08.2019
2795 Clouds 14 1027 93 10000 2.1 170 07:21 30.08.2019
2796 Clouds 13 1027 93 10000 1 360 06:45 30.08.2019
2797 Rain 17 1017 77 0 1.12 221.263 06:27 30.08.2019
2798 Clear 11 1017 89 0 1.09 27.223 05:44 30.08.2019
2799 Mist 13 1025 93 0 1.5 10 03:59 30.08.2019
2800 Mist 13 1025 93 0 1.5 10 03:38 30.08.2019
2801 Mist 13 1025 93 0 0.5 320 02:56 30.08.2019
2802 Mist 13 1025 93 0 0.5 320 02:26 30.08.2019
2803 Mist 13 1026 93 0 3.1 290 01:28 30.08.2019
2804 Mist 13 1026 100 0 2.1 300 00:29 30.08.2019
2805 Mist 14 1027 100 0 1 300 23:59 29.08.2019
2806 Mist 14 1027 100 0 1 300 23:40 29.08.2019
2807 Mist 14 1027 100 0 1 300 23:20 29.08.2019
2808 Mist 14 1027 100 0 1 300 23:20 29.08.2019
2809 Mist 14 1027 100 0 2.1 210 22:43 29.08.2019
2810 Mist 14 1027 100 0 2.1 210 22:25 29.08.2019
2811 Mist 15 1027 93 0 2.1 160 21:56 29.08.2019
2812 Mist 15 1027 93 0 2.1 160 21:38 29.08.2019
2813 Mist 15 1027 93 0 2.1 160 21:20 29.08.2019
2814 Clouds 15 1026 93 10000 2.1 210 20:43 29.08.2019
2815 Clouds 15 1026 93 10000 2.1 210 20:21 29.08.2019
2816 Clouds 15 1026 93 10000 2.1 210 19:59 29.08.2019
2817 Rain 14 1017 91 0 1.47 79.172 19:40 29.08.2019
2818 Clouds 15 1025 82 10000 1 40 19:21 29.08.2019
2819 Clouds 15 1025 82 10000 1 40 18:44 29.08.2019
2820 Rain 15 1014 89 0 0.64 67.421 18:21 29.08.2019
2821 Rain 15 1014 89 0 0.64 67.421 18:21 29.08.2019
2822 Rain 15 1014 89 0 0.64 67.421 17:57 29.08.2019
2823 Rain 15 1014 89 0 0.64 67.421 17:39 29.08.2019
2824 Rain 15 1014 89 0 0.64 67.421 17:19 29.08.2019
2825 Rain 15 1014 89 0 0.64 67.421 17:19 29.08.2019
2826 Rain 15 1014 89 0 0.64 67.421 16:57 29.08.2019
2827 Rain 15 1014 89 0 0.64 67.421 16:39 29.08.2019
2828 Clouds 15 1025 82 10000 3.1 310 16:20 29.08.2019
2829 Clouds 15 1025 82 10000 3.1 310 15:39 29.08.2019
2830 Clouds 15 1025 82 10000 3.1 310 15:21 29.08.2019
2831 Rain 19 1012 76 0 3.03 132.509 14:50 29.08.2019
2832 Clouds 18 1025 77 10000 4.1 190 14:26 29.08.2019
2833 Clouds 18 1025 77 10000 4.1 190 13:59 29.08.2019
2834 Clouds 18 1025 77 10000 4.1 190 13:40 29.08.2019
2835 Clouds 18 1025 77 10000 4.1 190 13:21 29.08.2019
2836 Clouds 19 1026 216 10000 5.1 170 12:59 29.08.2019
2837 Clouds 19 1026 216 10000 5.1 170 12:40 29.08.2019
2838 Clouds 19 1026 216 10000 5.1 170 12:22 29.08.2019
2839 Clouds 17 1027 72 10000 4.1 170 11:59 29.08.2019
2840 Clouds 17 1027 72 10000 4.1 170 11:39 29.08.2019
2841 Clouds 17 1027 72 10000 4.1 170 11:20 29.08.2019
2842 Clouds 18 1028 68 10000 4.1 190 10:45 29.08.2019
2843 Clouds 18 1028 68 10000 4.1 190 10:25 29.08.2019
2844 Clouds 18 1028 68 10000 4.1 190 10:25 29.08.2019
2845 Rain 18 1015 72 0 2.37 161.32 09:56 29.08.2019
2846 Rain 19 1015 69 0 2.04 178.426 09:38 29.08.2019
2847 Clouds 15 1028 82 10000 2.1 220 09:18 29.08.2019
2848 Clouds 15 1028 82 10000 2.1 220 08:41 29.08.2019
2849 Clouds 15 1028 82 10000 2.1 220 08:23 29.08.2019
2850 Rain 16 1018 76 0 1.58 205.821 07:53 29.08.2019
2851 Rain 16 1018 76 0 1.58 205.821 07:30 29.08.2019
2852 Rain 16 1018 76 0 1.58 205.821 06:54 29.08.2019
2853 Rain 16 1018 76 0 1.58 205.821 06:54 29.08.2019
2854 Rain 13 1026 93 8000 3.1 310 06:33 29.08.2019
2855 Rain 13 1026 93 8000 3.1 310 05:48 29.08.2019
2856 Rain 13 1026 93 8000 3.6 10 04:51 29.08.2019
2857 Rain 13 1026 93 8000 3.6 10 04:30 29.08.2019
2858 Clouds 13 1026 87 0 5.1 60 03:54 29.08.2019
2859 Clouds 12 1016 81 0 1.15 333.144 01:53 29.08.2019
2860 Clouds 13 1016 81 0 0.83 316.273 01:34 29.08.2019
2861 Clouds 13 1016 81 0 0.83 316.273 01:34 29.08.2019
2862 Clouds 13 1016 81 0 0.83 316.273 00:46 29.08.2019
2863 Clouds 13 1017 80 0 0.6 307.311 00:21 29.08.2019
2864 Clouds 13 1017 80 0 0.6 307.311 23:56 28.08.2019
2865 Clouds 13 1017 80 0 0.6 307.311 23:38 28.08.2019
2866 Clouds 13 1017 80 0 0.6 307.311 23:19 28.08.2019
2867 Clouds 13 1017 80 0 0.6 307.311 22:39 28.08.2019
2868 Clouds 13 1017 80 0 0.6 307.311 22:19 28.08.2019
2869 Rain 14 1017 82 0 0.93 301.914 21:59 28.08.2019
2870 Rain 14 1017 82 0 0.93 301.914 21:41 28.08.2019
2871 Clouds 14 1026 87 10000 2.1 300 21:21 28.08.2019
2872 Clouds 14 1026 87 10000 2.1 300 20:56 28.08.2019
2873 Clouds 14 1026 87 10000 2.1 300 20:37 28.08.2019
2874 Clouds 14 1026 87 10000 2.1 300 20:19 28.08.2019
2875 Clouds 15 1025 77 10000 2.1 320 19:40 28.08.2019
2876 Clouds 15 1025 77 10000 2.1 320 19:21 28.08.2019
2877 Clouds 16 1025 82 9000 2.1 200 18:56 28.08.2019
2878 Clouds 16 1025 82 9000 2.1 200 18:37 28.08.2019
2879 Clouds 16 1025 82 9000 2.1 200 18:18 28.08.2019
2880 Rain 16 1013 84 0 0.52 29.268 17:37 28.08.2019
2881 Rain 16 1013 84 0 0.52 29.268 17:37 28.08.2019
2882 Rain 16 1013 84 0 0.52 29.268 17:19 28.08.2019
2883 Rain 16 1013 84 0 0.52 29.268 16:43 28.08.2019
2884 Clouds 18 1025 68 10000 3.1 210 16:21 28.08.2019
2885 Clouds 18 1025 68 10000 3.1 210 15:59 28.08.2019
2886 Clouds 18 1025 68 10000 3.1 210 15:37 28.08.2019
2887 Clouds 18 1025 68 10000 3.1 210 15:19 28.08.2019
2888 Clouds 18 1025 68 10000 3.1 210 14:56 28.08.2019
2889 Rain 17 1013 78 0 2.33 195.313 14:38 28.08.2019
2890 Rain 17 1013 78 0 2.33 195.313 14:19 28.08.2019
2891 Rain 17 1013 78 0 2.33 195.313 13:57 28.08.2019
2892 Rain 17 1013 78 0 2.33 195.313 13:37 28.08.2019
2893 Clouds 18 1027 63 10000 3.6 170 13:18 28.08.2019
2894 Clouds 18 1027 63 10000 3.6 170 12:41 28.08.2019
2895 Clouds 18 1027 63 10000 3.6 170 12:23 28.08.2019
2896 Clouds 18 1027 63 10000 3.6 170 12:23 28.08.2019
2897 Clouds 16 1028 77 10000 2.6 150 11:54 28.08.2019
2898 Clouds 16 1028 77 10000 2.6 150 11:36 28.08.2019
2899 Clouds 16 1028 77 10000 2.6 150 11:18 28.08.2019
2900 Clouds 16 1029 67 10000 1.5 270 10:41 28.08.2019
2901 Clouds 16 1029 67 10000 1.5 270 10:21 28.08.2019
2902 Rain 15 1018 86 0 2.4 222.14 09:58 28.08.2019
2903 Rain 15 1018 86 0 2.4 222.14 09:40 28.08.2019
2904 Rain 13 1029 93 8000 3.1 220 09:18 28.08.2019
2905 Rain 13 1020 92 0 0.38 155.382 08:39 28.08.2019
2906 Rain 13 1029 87 7000 2.6 260 08:20 28.08.2019
2907 Rain 13 1029 87 7000 2.6 260 07:41 28.08.2019
2908 Rain 13 1029 87 7000 2.6 260 07:22 28.08.2019
2909 Rain 12 1029 87 9000 2.1 60 06:51 28.08.2019
2910 Rain 12 1028 93 9000 2.1 40 06:32 28.08.2019
2911 Rain 12 1028 93 9000 2.1 40 05:32 28.08.2019
2912 Clouds 13 1027 93 10000 5.1 340 02:46 28.08.2019
2913 Clouds 13 1027 93 10000 4.1 280 01:32 28.08.2019
2914 Clouds 13 1027 93 10000 4.1 240 00:55 28.08.2019
2915 Clouds 13 1027 93 10000 4.1 240 00:35 28.08.2019
2916 Clouds 14 1028 82 10000 6.2 240 23:58 27.08.2019
2917 Clouds 14 1028 82 10000 6.2 240 23:38 27.08.2019
2918 Clouds 14 1028 82 10000 6.2 240 23:20 27.08.2019
2919 Clouds 14 1028 82 10000 4.1 280 22:42 27.08.2019
2920 Clouds 14 1028 82 10000 4.1 280 22:23 27.08.2019
2921 Clouds 13 1028 87 10000 4.1 250 21:57 27.08.2019
2922 Clouds 13 1028 87 10000 4.1 250 21:39 27.08.2019
2923 Clouds 13 1028 87 10000 4.1 250 21:20 27.08.2019
2924 Rain 13 1018 96 0 2.23 289.181 20:59 27.08.2019
2925 Rain 13 1018 96 0 2.23 289.181 20:40 27.08.2019
2926 Clouds 14 1027 82 10000 4.1 320 20:19 27.08.2019
2927 Clouds 14 1027 82 10000 4.1 320 19:46 27.08.2019
2928 Clouds 14 1027 82 10000 4.1 320 19:28 27.08.2019
2929 Clouds 14 1026 87 10000 4.1 300 18:59 27.08.2019
2930 Rain 13 1018 96 0 2.23 289.181 18:41 27.08.2019
2931 Rain 14 1015 93 0 2.16 208.619 18:18 27.08.2019
2932 Rain 14 1015 93 0 2.16 208.619 17:56 27.08.2019
2933 Rain 14 1015 93 0 2.16 208.619 17:56 27.08.2019
2934 Rain 14 1015 93 0 2.16 208.619 17:37 27.08.2019
2935 Rain 14 1015 93 0 2.16 208.619 17:18 27.08.2019
2936 Rain 14 1015 93 0 2.16 208.619 16:43 27.08.2019
2937 Rain 14 1015 93 0 2.16 208.619 16:43 27.08.2019
2938 Rain 14 1027 87 7000 4.1 30 16:24 27.08.2019
2939 Rain 14 1027 87 7000 4.1 30 15:57 27.08.2019
2940 Rain 14 1027 87 7000 4.1 30 15:57 27.08.2019
2941 Rain 14 1027 87 7000 4.1 30 15:38 27.08.2019
2942 Rain 14 1027 87 7000 4.1 30 15:19 27.08.2019
2943 Rain 15 1026 82 6000 2.1 170 14:43 27.08.2019
2944 Rain 15 1026 82 6000 2.1 170 14:24 27.08.2019
2945 Rain 17 1026 72 7000 6.7 310 13:43 27.08.2019
2946 Rain 17 1026 72 7000 6.7 310 13:25 27.08.2019
2947 Clouds 19 1027 68 10000 6.2 240 12:59 27.08.2019
2948 Rain 17 1014 79 0 2.08 174.836 12:39 27.08.2019
2949 Clouds 20 1028 52 10000 2.6 250 12:20 27.08.2019
2950 Clouds 20 1028 52 10000 2.6 250 11:47 27.08.2019
2951 Clouds 20 1028 52 10000 2.6 250 11:28 27.08.2019
2952 Clouds 19 1028 55 10000 4.1 300 10:56 27.08.2019
2953 Clouds 19 1028 55 10000 4.1 300 10:38 27.08.2019
2954 Clouds 19 1028 55 10000 4.1 300 10:18 27.08.2019
2955 Clouds 18 1029 59 10000 4.1 260 09:54 27.08.2019
2956 Clouds 18 1029 59 10000 4.1 260 09:36 27.08.2019
2957 Clouds 18 1029 59 10000 4.1 260 09:18 27.08.2019
2958 Clouds 15 1029 82 10000 4.6 350 08:41 27.08.2019
2959 Clouds 15 1029 82 10000 4.6 350 08:23 27.08.2019
2960 Clouds 15 1029 77 10000 4.1 330 07:41 27.08.2019
2961 Clouds 15 1029 77 10000 4.1 330 07:20 27.08.2019
2962 Mist 15 1028 82 8000 3.6 300 06:54 27.08.2019
2963 Mist 15 1028 82 8000 3.6 300 06:28 27.08.2019
2964 Rain 13 1018 89 0 0.94 206.565 05:52 27.08.2019
2965 Rain 13 1018 89 0 0.94 206.565 05:20 27.08.2019
2966 Rain 13 1018 89 0 0.94 206.565 03:40 27.08.2019
2967 Clouds 14 1026 93 10000 2.1 330 02:26 27.08.2019
2968 Rain 13 1016 89 0 1.02 214.535 01:44 27.08.2019
2969 Clouds 15 1027 87 10000 1 250 01:23 27.08.2019
2970 Clouds 15 1027 87 10000 1 250 00:45 27.08.2019
2971 Clouds 15 1027 87 10000 1 250 00:25 27.08.2019
2972 Clouds 15 1028 87 10000 2.1 160 23:40 26.08.2019
2973 Clouds 15 1028 87 10000 2.1 160 23:21 26.08.2019
2974 Clouds 15 1028 93 10000 2.1 290 22:54 26.08.2019
2975 Clouds 15 1028 93 10000 2.1 290 22:36 26.08.2019
2976 Clouds 15 1028 93 10000 2.1 290 22:36 26.08.2019
2977 Clouds 15 1028 93 10000 2.1 290 22:18 26.08.2019
2978 Clouds 15 1028 93 10000 2.1 290 22:18 26.08.2019
2979 Rain 14 1027 100 6000 1 90 21:38 26.08.2019
2980 Rain 15 1016 83 0 0.65 89.032 21:20 26.08.2019
2981 Rain 15 1016 83 0 0.65 89.032 20:57 26.08.2019
2982 Rain 15 1016 83 0 0.65 89.032 20:38 26.08.2019
2983 -273 0 0 0 0 0 20:19 26.08.2019
2984 Rain 15 1016 83 0 0.65 89.032 19:44 26.08.2019
2985 Rain 15 1016 83 0 0.65 89.032 19:20 26.08.2019
2986 Rain 15 1016 83 0 0.65 89.032 18:59 26.08.2019
2987 Rain 15 1016 83 0 0.65 89.032 18:38 26.08.2019
2988 Clouds 19 1024 72 10000 5.1 190 18:20 26.08.2019
2989 Clouds 19 1024 72 10000 5.1 190 17:55 26.08.2019
2990 Clouds 19 1024 72 10000 5.1 190 17:37 26.08.2019
2991 Clouds 19 1024 72 10000 5.1 190 17:18 26.08.2019
2992 Clouds 19 1024 72 10000 5.1 190 16:55 26.08.2019
2993 Rain 18 1013 83 0 0.98 130.373 16:37 26.08.2019
2994 Rain 18 1013 83 0 0.98 130.373 16:18 26.08.2019
2995 Rain 18 1013 83 0 0.98 130.373 15:41 26.08.2019
2996 Clouds 21 1024 60 10000 4.6 170 15:21 26.08.2019
2997 Clouds 21 1024 60 10000 4.6 170 14:45 26.08.2019
2998 Clouds 21 1024 60 10000 4.6 170 14:23 26.08.2019
2999 Clouds 21 1024 60 10000 4.6 170 13:59 26.08.2019
3000 Clouds 21 1025 68 10000 3.6 160 13:38 26.08.2019
3001 Clouds 20 1026 64 10000 4.1 180 13:19 26.08.2019
3002 Clouds 20 1026 64 10000 4.1 180 12:43 26.08.2019
3003 Clouds 20 1026 64 10000 4.1 180 12:24 26.08.2019
3004 Clouds 18 1027 72 10000 4.1 180 11:56 26.08.2019
3005 Clouds 18 1027 72 10000 4.1 180 11:36 26.08.2019
3006 Clouds 18 1029 68 10000 4.1 170 11:18 26.08.2019
3007 Clouds 18 1029 68 10000 4.1 170 10:42 26.08.2019
3008 Clouds 17 1029 72 10000 4.1 170 10:21 26.08.2019
3009 Clouds 17 1029 72 10000 4.1 170 09:57 26.08.2019
3010 Clouds 17 1029 72 10000 4.1 170 09:57 26.08.2019
3011 Clouds 17 1029 72 10000 4.1 170 09:37 26.08.2019
3012 Clouds 16 1029 77 10000 3.1 180 09:19 26.08.2019
3013 Rain 15 1018 80 0 1.61 192.057 08:42 26.08.2019
3014 Clouds 15 1028 82 10000 1.61 192.057 08:22 26.08.2019
3015 Clouds 15 1028 82 10000 1.61 192.057 07:59 26.08.2019
3016 Clouds 15 1028 82 10000 1.61 192.057 07:40 26.08.2019
3017 Rain 15 1018 80 0 1.61 192.057 07:21 26.08.2019
3018 Rain 15 1018 80 0 1.61 192.057 06:41 26.08.2019
3019 Clouds 13 1027 93 10000 1 180 06:21 26.08.2019
3020 Clouds 13 1027 93 10000 1 180 05:49 26.08.2019
3021 Clouds 13 1026 93 10000 2.1 280 04:28 26.08.2019
3022 Clouds 14 1026 93 10000 3.1 180 02:53 26.08.2019
3023 Clouds 16 1026 82 10000 2.1 30 01:35 26.08.2019
3024 Clouds 16 1026 82 10000 2.1 30 00:53 26.08.2019
3025 Clouds 16 1026 82 10000 2.1 30 00:28 26.08.2019
3026 Clouds 16 1026 82 10000 2.1 30 23:59 25.08.2019
3027 Rain 12 1017 83 0 0.8 62.764 23:40 25.08.2019
3028 Rain 12 1017 83 0 0.8 62.764 23:18 25.08.2019
3029 Rain 12 1017 83 0 0.8 62.764 22:55 25.08.2019
3030 Rain 12 1017 83 0 0.8 62.764 22:37 25.08.2019
3031 Rain 12 1017 83 0 0.8 62.764 22:18 25.08.2019
3032 Rain 12 1017 83 0 0.8 62.764 21:55 25.08.2019
3033 Clear 12 1017 84 0 0.79 58.412 21:37 25.08.2019
3034 Rain 13 1016 84 0 2.08 40.074 21:18 25.08.2019
3035 Rain 13 1016 84 0 2.08 40.074 20:39 25.08.2019
3036 Rain 13 1016 84 0 2.08 40.074 20:19 25.08.2019
3037 Rain 13 1016 84 0 2.08 40.074 19:56 25.08.2019
3038 Rain 13 1016 84 0 2.08 40.074 19:37 25.08.2019
3039 Rain 13 1016 84 0 2.08 40.074 19:18 25.08.2019
3040 Rain 13 1016 84 0 2.08 40.074 18:57 25.08.2019
3041 Rain 13 1016 84 0 2.08 40.074 18:39 25.08.2019
3042 Clouds 20 1025 64 10000 3.1 150 18:18 25.08.2019
3043 Clouds 20 1025 64 10000 3.1 150 17:42 25.08.2019
3044 Clouds 20 1025 64 10000 3.1 150 17:23 25.08.2019
3045 Clouds 22 1024 53 10000 4.1 160 16:45 25.08.2019
3046 Clouds 22 1024 53 10000 3.1 130 16:24 25.08.2019
3047 Clouds 22 1024 53 10000 3.1 130 15:59 25.08.2019
3048 Clouds 22 1024 53 10000 3.1 130 15:40 25.08.2019
3049 Clouds 22 1024 53 10000 3.1 130 15:40 25.08.2019
3050 Clouds 22 1024 53 10000 3.1 130 15:21 25.08.2019
3051 Clouds 21 1024 60 10000 4.1 160 14:42 25.08.2019
3052 Clouds 21 1024 60 10000 4.1 160 14:23 25.08.2019
3053 Rain 20 1012 65 0 2.43 126.003 13:55 25.08.2019
3054 Clouds 21 1025 60 10000 3.1 160 13:36 25.08.2019
3055 -273 0 0 0 0 0 13:36 25.08.2019
3056 Clouds 21 1025 60 10000 3.1 160 13:18 25.08.2019
3057 Rain 20 1012 66 0 2.58 127.67 12:41 25.08.2019
3058 Clouds 20 1027 60 10000 3.1 140 12:22 25.08.2019
3059 Clouds 20 1027 60 10000 3.1 140 11:57 25.08.2019
3060 Clouds 20 1027 60 10000 3.1 140 11:37 25.08.2019
3061 Clouds 20 1027 60 10000 3.1 140 11:19 25.08.2019
3062 Clouds 20 1027 60 10000 3.1 140 10:55 25.08.2019
3063 Clouds 19 1028 63 10000 4.1 190 10:37 25.08.2019
3064 Clouds 19 1028 63 10000 4.1 190 10:18 25.08.2019
3065 Rain 19 1016 70 0 2.61 194.127 09:42 25.08.2019
3066 Clouds 16 1018 73 0 0.91 215.67 09:23 25.08.2019
3067 Clouds 16 1018 73 0 0.91 215.67 08:47 25.08.2019
3068 Clouds 16 1018 73 0 0.91 215.67 08:28 25.08.2019
3069 Clouds 16 1018 73 0 0.91 215.67 07:54 25.08.2019
3070 Clouds 16 1018 73 0 0.91 215.67 07:32 25.08.2019
3071 Clouds 16 1018 73 0 0.91 215.67 06:38 25.08.2019
3072 Clouds 13 1027 93 10000 1.29 18.463 05:27 25.08.2019
3073 Clear 11 1019 84 0 1.29 18.463 03:43 25.08.2019
3074 Clear 11 1017 84 0 1.31 9.513 02:42 25.08.2019
3075 Mist 14 1027 87 8000 1.5 320 01:53 25.08.2019
3076 Mist 14 1027 87 8000 1 320 00:45 25.08.2019
3077 Mist 14 1028 87 7000 0.5 110 00:23 25.08.2019
3078 Mist 14 1028 87 7000 0.5 110 23:58 24.08.2019
3079 Mist 14 1028 87 7000 0.5 110 23:39 24.08.2019
3080 Mist 14 1028 87 7000 2.1 310 23:21 24.08.2019
3081 Mist 14 1028 87 7000 2.1 310 22:42 24.08.2019
3082 Clouds 14 1028 87 10000 3.6 310 22:19 24.08.2019
3083 Clouds 14 1028 87 10000 3.6 310 21:59 24.08.2019
3084 Clouds 14 1028 87 10000 3.6 310 21:39 24.08.2019
3085 Clouds 14 1028 87 10000 3.6 310 21:21 24.08.2019
3086 Rain 13 1018 89 0 0.37 314.125 20:57 24.08.2019
3087 Rain 13 1018 89 0 0.37 314.125 20:39 24.08.2019
3088 Rain 13 1018 89 0 0.37 314.125 20:19 24.08.2019
3089 Rain 13 1018 89 0 0.37 314.125 19:57 24.08.2019
3090 Rain 13 1018 89 0 0.37 314.125 19:38 24.08.2019
3091 Rain 13 1018 89 0 0.37 314.125 19:38 24.08.2019
3092 Rain 13 1018 89 0 0.37 314.125 19:20 24.08.2019
3093 Rain 13 1018 89 0 0.37 314.125 18:46 24.08.2019
3094 Clouds 17 1026 72 10000 2.1 280 18:24 24.08.2019
3095 Clouds 17 1026 72 10000 2.1 280 17:46 24.08.2019
3096 Clouds 17 1026 72 10000 2.1 280 17:27 24.08.2019
3097 Rain 15 1016 88 0 1.45 312.734 16:57 24.08.2019
3098 Rain 15 1016 88 0 1.45 312.734 16:38 24.08.2019
3099 Rain 15 1016 88 0 1.45 312.734 16:19 24.08.2019
3100 Rain 15 1016 88 0 1.45 312.734 15:44 24.08.2019
3101 Rain 15 1016 88 0 1.45 312.734 15:26 24.08.2019
3102 Rain 17 1014 77 0 1.98 269.421 14:57 24.08.2019
3103 Rain 17 1014 77 0 1.98 269.421 14:39 24.08.2019
3104 Rain 17 1014 77 0 1.98 269.421 14:18 24.08.2019
3105 Rain 17 1014 77 0 1.98 269.421 13:43 24.08.2019
3106 Rain 19 1014 71 0 1.64 214.243 13:23 24.08.2019
3107 Rain 19 1014 71 0 1.64 214.243 12:59 24.08.2019
3108 Rain 19 1014 71 0 1.64 214.243 12:40 24.08.2019
3109 Rain 19 1014 71 0 1.64 214.243 12:40 24.08.2019
3110 Rain 14 1030 82 0 1 350 12:22 24.08.2019
3111 Rain 14 1030 82 0 1 350 11:46 24.08.2019
3112 Rain 14 1030 82 0 1 350 11:26 24.08.2019
3113 Rain 13 1031 87 0 4.6 50 10:59 24.08.2019
3114 Rain 13 1031 87 0 4.6 50 10:38 24.08.2019
3115 Clouds 13 1031 82 0 3.6 110 10:19 24.08.2019
3116 Clouds 13 1031 82 0 3.6 110 09:41 24.08.2019
3117 Clouds 14 1031 82 10000 2.1 100 09:18 24.08.2019
3118 Clouds 14 1031 82 10000 2.1 100 09:18 24.08.2019
3119 Clouds 14 1031 82 10000 2.1 100 08:43 24.08.2019
3120 Clouds 14 1031 82 10000 2.1 100 08:23 24.08.2019
3121 Clouds 14 1030 82 10000 1.5 100 07:51 24.08.2019
3122 Clouds 14 1030 82 10000 1.5 100 07:29 24.08.2019
3123 Clouds 13 1028 87 10000 2.6 300 06:31 24.08.2019
3124 Clouds 13 1028 87 10000 2.6 300 05:59 24.08.2019
3125 Clouds 13 1028 87 10000 2.6 300 05:35 24.08.2019
3126 Rain 12 1018 94 0 0.35 198.071 03:40 24.08.2019
3127 Clouds 13 1026 87 10000 3.1 320 02:41 24.08.2019
3128 Clouds 13 1027 87 10000 5.1 300 01:53 24.08.2019
3129 Clouds 13 1027 87 10000 5.1 300 01:22 24.08.2019
3130 Rain 11 1017 92 0 0.95 270.421 00:45 24.08.2019
3131 Rain 14 1028 93 10000 3.1 90 00:21 24.08.2019
3132 Rain 14 1028 93 10000 3.1 90 23:44 23.08.2019
3133 Clouds 14 1028 93 10000 1 130 23:20 23.08.2019
3134 Clouds 14 1028 93 10000 1 130 22:44 23.08.2019
3135 Clouds 14 1028 93 10000 1 130 22:24 23.08.2019
3136 Clouds 15 1028 87 10000 1 340 21:55 23.08.2019
3137 Clouds 15 1028 87 10000 1 340 21:37 23.08.2019
3138 Mist 15 1027 87 8000 3.1 310 21:18 23.08.2019
3139 Mist 15 1027 87 8000 3.1 310 20:50 23.08.2019
3140 Mist 15 1027 87 8000 3.1 310 20:32 23.08.2019
3141 Rain 15 1016 87 0 0.57 172.194 19:46 23.08.2019
3142 Rain 15 1016 87 0 0.57 172.194 19:19 23.08.2019
3143 Rain 15 1016 87 0 0.57 172.194 18:55 23.08.2019
3144 Rain 15 1016 87 0 0.57 172.194 18:37 23.08.2019
3145 Clouds 15 1025 87 10000 3.1 40 18:18 23.08.2019
3146 Clouds 15 1025 87 10000 3.1 40 17:41 23.08.2019
3147 Clouds 16 1025 87 10000 3.1 270 17:23 23.08.2019
3148 Clouds 16 1025 87 10000 3.1 270 16:49 23.08.2019
3149 Clouds 16 1025 87 10000 3.1 270 16:30 23.08.2019
3150 Clouds 16 1025 87 10000 3.1 270 15:59 23.08.2019
3151 Rain 16 1013 89 0 1.01 264.284 15:40 23.08.2019
3152 Rain 14 1025 93 5000 3.1 70 15:21 23.08.2019
3153 Rain 14 1025 93 5000 3.1 70 14:56 23.08.2019
3154 Rain 14 1025 93 5000 3.1 70 14:38 23.08.2019
3155 Rain 16 1026 72 7000 4.1 10 14:19 23.08.2019
3156 Clouds 19 1026 68 9000 2.6 230 13:42 23.08.2019
3157 Clouds 19 1026 68 9000 2.6 230 13:23 23.08.2019
3158 Clouds 19 1026 68 9000 2.6 230 12:59 23.08.2019
3159 Haze 19 1026 72 9000 5.1 180 12:41 23.08.2019
3160 Haze 20 1027 68 8000 4.1 170 12:21 23.08.2019
3161 Haze 20 1027 68 8000 4.1 170 11:58 23.08.2019
3162 Haze 20 1027 68 8000 4.1 170 11:39 23.08.2019
3163 Haze 18 1028 77 8000 3.1 190 11:19 23.08.2019
3164 Haze 18 1028 77 8000 3.1 190 10:56 23.08.2019
3165 Haze 18 1028 77 8000 3.1 190 10:38 23.08.2019
3166 Mist 18 1028 77 8000 3.1 220 10:18 23.08.2019
3167 Mist 18 1028 77 8000 3.1 220 09:43 23.08.2019
3168 Mist 16 1028 87 8000 1.5 230 09:20 23.08.2019
3169 Mist 16 1028 87 8000 1.5 230 08:45 23.08.2019
3170 Mist 15 1028 93 9000 1 210 08:22 23.08.2019
3171 Mist 15 1028 93 9000 1 210 07:57 23.08.2019
3172 Mist 15 1028 93 9000 1 210 07:38 23.08.2019
3173 Clouds 15 1027 87 10000 1 80 07:20 23.08.2019
3174 Clouds 15 1027 87 10000 1 80 06:41 23.08.2019
3175 Clouds 15 1027 87 10000 1 80 06:22 23.08.2019
3176 Clouds 14 1026 93 10000 0.17 204.244 05:44 23.08.2019
3177 Clouds 14 1026 93 10000 0.17 204.244 05:24 23.08.2019
3178 Rain 12 1017 94 0 0.17 204.244 03:42 23.08.2019
3179 Clouds 15 1026 93 10000 1 140 02:38 23.08.2019
3180 Clouds 15 1026 87 10000 2.1 140 02:20 23.08.2019
3181 Clouds 15 1026 87 10000 2.1 140 02:20 23.08.2019
3182 Clouds 15 1026 87 10000 2.1 140 00:57 23.08.2019
3183 Clouds 16 1026 82 10000 2.1 140 00:37 23.08.2019
3184 Clouds 16 1026 82 10000 2.1 140 00:18 23.08.2019
3185 Rain 13 1017 87 0 0.8 29.941 23:40 22.08.2019
3186 Clouds 15 1027 93 10000 1 300 23:21 22.08.2019
3187 Rain 13 1017 87 0 0.8 29.941 22:42 22.08.2019
3188 Rain 13 1017 87 0 0.8 29.941 22:23 22.08.2019
3189 Rain 13 1017 87 0 0.8 29.941 21:58 22.08.2019
3190 Rain 13 1017 87 0 0.8 29.941 21:58 22.08.2019
3191 Rain 13 1017 85 0 0.45 359.241 21:40 22.08.2019
3192 Clouds 16 1026 87 10000 2.1 360 21:21 22.08.2019
3193 Clouds 16 1026 87 10000 2.1 360 20:58 22.08.2019
3194 Clouds 16 1026 87 10000 2.1 360 20:39 22.08.2019
3195 Rain 14 1015 83 0 1.85 41.072 20:20 22.08.2019
3196 Rain 14 1015 83 0 1.85 41.072 20:20 22.08.2019
3197 Rain 14 1015 83 0 1.85 41.072 19:56 22.08.2019
3198 Rain 14 1015 83 0 1.85 41.072 19:38 22.08.2019
3199 Rain 14 1015 83 0 1.85 41.072 19:20 22.08.2019
3200 Rain 14 1015 83 0 1.85 41.072 18:57 22.08.2019
3201 Rain 14 1015 83 0 1.85 41.072 18:39 22.08.2019
3202 Clouds 19 1024 72 9000 2.1 250 18:18 22.08.2019
3203 Clouds 19 1024 72 9000 2.1 250 17:43 22.08.2019
3204 Clouds 19 1024 72 9000 2.1 250 17:24 22.08.2019
3205 Rain 18 1012 83 0 1.86 110.498 16:59 22.08.2019
3206 Rain 18 1012 83 0 1.86 110.498 16:40 22.08.2019
3207 Clouds 20 1024 64 10000 2.1 300 16:21 22.08.2019
3208 Clouds 20 1024 64 10000 2.1 300 16:21 22.08.2019
3209 Clouds 20 1024 64 10000 2.1 300 16:21 22.08.2019
3210 Clouds 20 1024 64 10000 2.1 300 15:59 22.08.2019
3211 Clouds 20 1024 64 10000 2.1 300 15:59 22.08.2019
3212 Clouds 20 1024 64 10000 2.1 300 15:40 22.08.2019
3213 Rain 20 1011 71 0 1.6 129.36 15:21 22.08.2019
3214 Rain 20 1011 71 0 1.6 129.36 14:57 22.08.2019
3215 Rain 20 1011 71 0 1.6 129.36 14:38 22.08.2019
3216 Rain 20 1011 71 0 1.6 129.36 14:18 22.08.2019
3217 Rain 20 1011 71 0 1.6 129.36 13:56 22.08.2019
3218 Rain 20 1011 71 0 1.6 129.36 13:37 22.08.2019
3219 Mist 20 1025 68 8000 5.1 180 13:18 22.08.2019
3220 Mist 20 1025 68 8000 5.1 180 12:40 22.08.2019
3221 Mist 19 1026 72 8000 5.1 170 12:21 22.08.2019
3222 Mist 19 1026 72 8000 5.1 170 11:55 22.08.2019
3223 Mist 19 1026 72 8000 5.1 170 11:36 22.08.2019
3224 Mist 18 1027 72 8000 5.1 190 11:18 22.08.2019
3225 Mist 18 1027 72 8000 5.1 190 11:18 22.08.2019
3226 Mist 18 1027 72 8000 5.1 190 10:57 22.08.2019
3227 Mist 18 1027 72 8000 5.1 190 10:36 22.08.2019
3228 Mist 17 1028 77 7000 3.1 200 10:18 22.08.2019
3229 Mist 17 1028 77 7000 3.1 200 09:40 22.08.2019
3230 Mist 17 1028 77 7000 3.1 200 09:21 22.08.2019
3231 Mist 17 1028 77 7000 3.1 200 08:58 22.08.2019
3232 Mist 17 1028 77 7000 3.1 220 08:39 22.08.2019
3233 Mist 17 1028 77 7000 3.1 220 08:20 22.08.2019
3234 Mist 15 1028 87 7000 2.1 300 07:42 22.08.2019
3235 Rain 16 1017 81 0 1.72 200.432 07:23 22.08.2019
3236 Rain 16 1017 81 0 1.72 200.432 06:55 22.08.2019
3237 Mist 14 1027 93 7000 3.1 250 06:37 22.08.2019
3238 Mist 14 1027 93 7000 3.1 250 06:18 22.08.2019
3239 Clear 12 1017 88 0 0.62 359.628 04:42 22.08.2019
3240 Clouds 15 1026 87 10000 2.1 260 02:52 22.08.2019
3241 Clouds 15 1026 87 10000 2.1 260 02:34 22.08.2019
3242 Clouds 14 1026 93 10000 1 240 01:25 22.08.2019
3243 Clouds 14 1026 93 10000 1.5 250 00:45 22.08.2019
3244 Clouds 14 1026 93 10000 1.5 250 00:27 22.08.2019
3245 Clouds 15 1026 87 10000 1 220 23:55 21.08.2019
3246 Clouds 15 1026 87 10000 1 220 23:37 21.08.2019
3247 Clouds 15 1026 87 10000 1 220 23:18 21.08.2019
3248 Clouds 15 1026 87 10000 1 220 22:55 21.08.2019
3249 Clouds 15 1027 87 10000 1.5 350 22:37 21.08.2019
3250 Clouds 15 1027 87 10000 1.5 120 22:18 21.08.2019
3251 Clouds 15 1027 87 10000 1.5 120 21:55 21.08.2019
3252 Clouds 15 1027 87 10000 1.5 120 21:55 21.08.2019
3253 Clouds 15 1027 87 10000 1.5 120 21:36 21.08.2019
3254 Clouds 16 1026 82 10000 1.54 38.456 21:18 21.08.2019
3255 Clouds 16 1026 82 10000 1.54 38.456 20:42 21.08.2019
3256 Clouds 16 1026 82 10000 1.54 38.456 20:42 21.08.2019
3257 Clouds 16 1026 82 10000 1.54 38.456 20:23 21.08.2019
3258 Clouds 17 1025 77 10000 1.5 160 19:56 21.08.2019
3259 Clouds 17 1025 77 10000 1.5 160 19:38 21.08.2019
3260 Clouds 17 1025 77 10000 2.1 200 19:19 21.08.2019
3261 Clouds 17 1025 77 10000 2.1 200 18:43 21.08.2019
3262 Clouds 17 1025 77 10000 2.1 200 18:23 21.08.2019
3263 Clouds 17 1025 77 10000 2.1 200 17:56 21.08.2019
3264 Clouds 18 1025 77 10000 2.1 200 17:37 21.08.2019
3265 Rain 17 1013 84 0 1.82 128.113 17:19 21.08.2019
3266 Rain 17 1013 84 0 1.82 128.113 16:44 21.08.2019
3267 Rain 17 1013 84 0 1.82 128.113 16:44 21.08.2019
3268 Rain 17 1013 84 0 1.82 128.113 16:24 21.08.2019
3269 Rain 17 1013 84 0 1.82 128.113 15:59 21.08.2019
3270 Rain 17 1013 84 0 1.82 128.113 15:41 21.08.2019
3271 Mist 19 1025 72 8000 5.1 160 15:21 21.08.2019
3272 Mist 19 1025 72 8000 5.1 160 14:57 21.08.2019
3273 Mist 19 1025 72 8000 5.1 160 14:39 21.08.2019
3274 Rain 19 1012 71 0 2.7 110.021 14:20 21.08.2019
3275 Rain 19 1012 71 0 2.7 110.021 13:55 21.08.2019
3276 Rain 19 1012 71 0 2.7 110.021 13:37 21.08.2019
3277 Rain 19 1012 72 0 2.74 113.435 13:18 21.08.2019
3278 Rain 19 1012 72 0 2.74 113.435 12:41 21.08.2019
3279 Rain 19 1012 72 0 2.74 113.435 12:41 21.08.2019
3280 Rain 19 1016 70 0 2.21 139.036 12:22 21.08.2019
3281 Rain 19 1016 70 0 2.21 139.036 11:59 21.08.2019
3282 Rain 19 1016 70 0 2.21 139.036 11:40 21.08.2019
3283 Clouds 17 1028 77 1000 4.6 180 11:22 21.08.2019
3284 Clouds 17 1028 77 1000 4.6 180 10:56 21.08.2019
3285 Clouds 17 1028 77 1000 4.6 180 10:38 21.08.2019
3286 Rain 19 1016 70 0 2.21 139.036 10:19 21.08.2019
3287 Rain 19 1016 70 0 2.21 139.036 09:43 21.08.2019
3288 Mist 15 1028 82 9000 1 200 09:24 21.08.2019
3289 Mist 15 1028 82 9000 1 200 08:59 21.08.2019
3290 Mist 15 1028 82 9000 1 200 08:41 21.08.2019
3291 Mist 15 1028 82 9000 1 200 08:23 21.08.2019
3292 Mist 14 1028 87 8000 3.1 200 07:41 21.08.2019
3293 Clouds 17 1017 76 0 0.36 187.881 07:22 21.08.2019
3294 Clouds 17 1017 76 0 0.36 187.881 06:49 21.08.2019
3295 Mist 14 1026 93 8000 2.1 250 06:23 21.08.2019
3296 Mist 14 1026 93 8000 2.1 250 05:42 21.08.2019
3297 Mist 14 1026 82 8000 2.6 340 05:23 21.08.2019
3298 Clouds 13 1025 93 10000 2.1 300 03:39 21.08.2019
3299 Clouds 14 1026 87 10000 2.1 310 01:50 21.08.2019
3300 Clouds 12 1016 90 0 1.09 308.824 00:46 21.08.2019
3301 Rain 13 1017 89 0 1 36.824 00:24 21.08.2019
3302 Rain 13 1017 89 0 1 36.824 23:59 20.08.2019
3303 Rain 13 1017 89 0 1 36.824 23:41 20.08.2019
3304 Clouds 16 1027 87 10000 1 36.824 23:19 20.08.2019
3305 Clouds 16 1027 87 10000 1 36.824 22:56 20.08.2019
3306 Clouds 16 1027 87 10000 1 36.824 22:37 20.08.2019
3307 Clouds 16 1027 87 10000 1 36.824 22:19 20.08.2019
3308 Clouds 16 1027 87 10000 1 36.824 21:57 20.08.2019
3309 Rain 13 1017 87 0 1.01 28.801 21:37 20.08.2019
3310 Rain 14 1016 87 0 1.33 40.209 21:19 20.08.2019
3311 Rain 14 1016 87 0 1.33 40.209 20:43 20.08.2019
3312 Rain 14 1016 87 0 1.33 40.209 20:24 20.08.2019
3313 Rain 14 1016 87 0 1.33 40.209 19:58 20.08.2019
3314 Rain 14 1016 87 0 1.33 40.209 19:38 20.08.2019
3315 Rain 14 1016 87 0 1.33 40.209 19:20 20.08.2019
3316 Rain 14 1016 87 0 1.33 40.209 18:55 20.08.2019
3317 Rain 14 1016 87 0 1.33 40.209 18:37 20.08.2019
3318 Clouds 20 1024 72 10000 4.1 160 18:18 20.08.2019
3319 Clouds 20 1024 72 10000 4.1 160 17:39 20.08.2019
3320 Clouds 20 1024 72 10000 4.1 160 17:21 20.08.2019
3321 Rain 17 1013 84 0 1.62 136.249 16:58 20.08.2019
3322 Rain 17 1013 84 0 1.62 136.249 16:40 20.08.2019
3323 Rain 17 1013 84 0 1.62 136.249 16:22 20.08.2019
3324 Rain 17 1013 84 0 1.62 136.249 15:41 20.08.2019
3325 Rain 19 1012 74 0 3.03 110.514 15:18 20.08.2019
3326 Rain 19 1012 74 0 3.03 110.514 14:56 20.08.2019
3327 Rain 19 1012 74 0 3.03 110.514 14:38 20.08.2019
3328 Clouds 21 1024 68 10000 6.2 160 14:18 20.08.2019
3329 Clouds 21 1024 68 10000 6.2 160 13:54 20.08.2019
3330 Clouds 21 1024 68 10000 6.2 160 13:36 20.08.2019
3331 Clouds 21 1024 68 10000 6.2 160 13:36 20.08.2019
3332 Clouds 21 1024 68 10000 6.2 160 13:18 20.08.2019
3333 Clouds 19 1025 77 0 6.2 170 12:44 20.08.2019
3334 Clouds 19 1025 77 0 6.2 170 12:23 20.08.2019
3335 Clouds 18 1026 77 0 3.6 190 11:55 20.08.2019
3336 Clouds 18 1026 77 0 3.6 190 11:37 20.08.2019
3337 Clouds 18 1026 77 0 3.6 190 11:18 20.08.2019
3338 Clouds 17 1027 77 0 3.6 170 10:55 20.08.2019
3339 Clouds 17 1027 77 0 3.6 170 10:37 20.08.2019
3340 Clouds 17 1027 77 0 3.6 170 10:18 20.08.2019
3341 Rain 19 1015 72 0 2.15 90.775 09:40 20.08.2019
3342 Clouds 16 1028 72 0 1 120 09:22 20.08.2019
3343 Clouds 16 1028 72 0 1 120 08:42 20.08.2019
3344 Clouds 16 1028 72 0 1 120 08:24 20.08.2019
3345 Rain 14 1027 93 0 2.6 330 07:58 20.08.2019
3346 Rain 14 1027 93 0 2.6 330 07:39 20.08.2019
3347 Rain 14 1027 93 0 2.6 330 07:21 20.08.2019
3348 Rain 13 1027 93 7000 1.5 280 06:47 20.08.2019
3349 Rain 13 1027 93 7000 1.5 280 06:21 20.08.2019
3350 Rain 13 1027 100 5000 1.5 70 05:48 20.08.2019
3351 Rain 12 1017 91 0 0.51 212.654 04:42 20.08.2019
3352 Clouds 14 1025 93 10000 1 240 02:58 20.08.2019
3353 Clouds 14 1025 93 10000 1 240 02:18 20.08.2019
3354 Clouds 15 1025 87 10000 1 300 01:21 20.08.2019
3355 Clouds 15 1026 82 10000 2.1 280 00:45 20.08.2019
3356 Clouds 15 1026 82 10000 2.1 280 00:25 20.08.2019
3357 Rain 13 1017 88 0 1.59 46.61 23:50 19.08.2019
3358 Rain 13 1017 88 0 1.59 46.61 23:19 19.08.2019
3359 Rain 13 1017 88 0 1.59 46.61 22:59 19.08.2019
3360 Rain 13 1017 88 0 1.59 46.61 22:41 19.08.2019
3361 Rain 13 1017 88 0 1.59 46.61 22:21 19.08.2019
3362 Rain 13 1017 88 0 1.59 46.61 21:57 19.08.2019
3363 Rain 13 1017 88 0 1.59 46.61 21:57 19.08.2019
3364 Rain 13 1017 89 0 1.61 39.077 21:38 19.08.2019
3365 Rain 13 1017 89 0 1.61 39.077 21:38 19.08.2019
3366 Clouds 16 1026 82 9000 2.1 30 21:19 19.08.2019
3367 Clouds 16 1026 82 9000 2.1 30 20:56 19.08.2019
3368 Clouds 16 1026 82 9000 2.1 30 20:37 19.08.2019
3369 Clouds 16 1026 82 9000 2.1 30 20:19 19.08.2019
3370 Rain 14 1016 85 0 1.8 63.364 19:55 19.08.2019
3371 Clouds 17 1024 72 10000 1.5 60 19:36 19.08.2019
3372 Clouds 17 1024 72 10000 1.5 60 19:18 19.08.2019
3373 Clouds 17 1024 72 10000 1.5 60 18:41 19.08.2019
3374 Clouds 17 1024 72 10000 1.5 60 18:22 19.08.2019
3375 Rain 18 1013 83 0 2.5 119.075 17:57 19.08.2019
3376 Rain 18 1013 83 0 2.5 119.075 17:38 19.08.2019
3377 Clouds 20 1024 52 10000 4.6 120 17:19 19.08.2019
3378 Rain 18 1013 83 0 2.5 119.075 16:54 19.08.2019
3379 Rain 18 1013 83 0 2.5 119.075 16:36 19.08.2019
3380 Clouds 21 1023 64 10000 5.1 150 16:18 19.08.2019
3381 Clouds 21 1023 64 10000 5.1 150 15:44 19.08.2019
3382 Clouds 22 1024 64 10000 4.6 170 15:19 19.08.2019
3383 Clouds 22 1024 64 10000 4.6 170 14:44 19.08.2019
3384 -273 0 0 0 0 0 14:24 19.08.2019
3385 Clouds 21 1025 60 10000 4.6 170 13:59 19.08.2019
3386 Clouds 21 1025 60 10000 4.6 170 13:40 19.08.2019
3387 Clouds 20 1025 68 9000 2.6 120 13:21 19.08.2019
3388 Clouds 20 1025 68 9000 2.6 120 12:58 19.08.2019
3389 Clouds 20 1025 68 9000 2.6 120 12:40 19.08.2019
3390 Haze 19 1028 68 8000 2.1 190 12:20 19.08.2019
3391 Haze 19 1028 68 8000 2.1 190 11:42 19.08.2019
3392 Haze 19 1028 68 8000 2.1 190 11:24 19.08.2019
3393 Mist 18 1027 72 8000 3.6 190 10:59 19.08.2019
3394 Mist 18 1027 72 8000 3.6 190 10:39 19.08.2019
3395 Rain 19 1016 77 0 0.95 251.07 10:19 19.08.2019
3396 Mist 16 1028 82 7000 1 160 09:54 19.08.2019
3397 Mist 16 1028 82 7000 1 160 09:36 19.08.2019
3398 Mist 16 1028 82 7000 1 160 09:18 19.08.2019
3399 Mist 17 1028 77 7000 0.5 160 08:42 19.08.2019
3400 Mist 17 1028 77 7000 0.5 160 08:22 19.08.2019
3401 Mist 14 1027 93 4000 1 300 07:54 19.08.2019
3402 Mist 14 1027 93 4000 1 300 07:34 19.08.2019
3403 Haze 12 1027 100 4000 1 310 06:59 19.08.2019
3404 Haze 12 1027 100 4000 1 310 06:36 19.08.2019
3405 Rain 13 1017 97 0 0.99 250.835 05:27 19.08.2019
3406 Rain 13 1017 97 0 0.99 250.835 04:33 19.08.2019
3407 Rain 13 1017 97 0 0.99 250.835 03:26 19.08.2019
3408 Clouds 13 1025 93 10000 1 260 02:30 19.08.2019
3409 Clouds 13 1025 93 10000 1 260 01:37 19.08.2019
3410 Rain 13 1014 91 0 0.47 242.349 00:47 19.08.2019
3411 Clouds 14 1026 93 10000 1 350 00:24 19.08.2019
3412 Clouds 14 1026 93 10000 1 350 23:56 18.08.2019
3413 Clouds 14 1026 93 10000 1 350 23:36 18.08.2019
3414 Clouds 14 1026 93 10000 2.1 300 23:18 18.08.2019
3415 Clouds 14 1026 93 10000 2.1 300 22:40 18.08.2019
3416 Clouds 14 1026 93 10000 2.1 300 22:21 18.08.2019
3417 Rain 14 1026 93 9000 2.1 300 21:57 18.08.2019
3418 Rain 14 1026 93 9000 2.1 300 21:38 18.08.2019
3419 Rain 14 1026 93 9000 2.1 300 21:20 18.08.2019
3420 Clouds 14 1026 87 10000 4.1 150 20:45 18.08.2019
3421 Clouds 14 1026 87 10000 4.1 150 20:45 18.08.2019
3422 Clouds 14 1026 87 10000 4.1 150 20:45 18.08.2019
3423 Clouds 14 1026 87 10000 4.1 150 20:26 18.08.2019
3424 Rain 13 1025 93 9000 3.1 20 19:59 18.08.2019
3425 Rain 13 1025 93 9000 3.1 20 19:40 18.08.2019
3426 Rain 13 1025 93 9000 3.1 20 19:22 18.08.2019
3427 Rain 13 1025 93 9000 3.1 20 18:56 18.08.2019
3428 Clouds 18 1025 72 10000 4.1 300 18:38 18.08.2019
3429 Clouds 18 1025 72 10000 4.1 300 18:19 18.08.2019
3430 Rain 17 1011 84 0 1.69 169.937 17:43 18.08.2019
3431 Clouds 20 1023 60 10000 3.1 190 17:19 18.08.2019
3432 Clouds 20 1023 60 10000 3.1 190 17:19 18.08.2019
3433 Clouds 20 1023 60 10000 3.1 190 16:59 18.08.2019
3434 Clouds 20 1023 60 10000 3.1 190 16:41 18.08.2019
3435 Clouds 20 1023 60 10000 2.6 220 16:21 18.08.2019
3436 Clouds 20 1023 60 10000 2.6 220 15:58 18.08.2019
3437 Clouds 20 1023 60 10000 2.6 220 15:39 18.08.2019
3438 Clouds 19 1024 68 10000 3.6 190 15:20 18.08.2019
3439 Clouds 19 1024 68 10000 3.6 190 15:20 18.08.2019
3440 Clouds 19 1024 68 10000 3.6 190 14:56 18.08.2019
3441 Clouds 19 1024 68 10000 3.6 190 14:37 18.08.2019
3442 Clouds 19 1024 63 10000 3.6 170 14:18 18.08.2019
3443 Clouds 19 1024 63 10000 3.6 170 13:43 18.08.2019
3444 Clouds 19 1024 63 10000 3.6 170 13:24 18.08.2019
3445 Clouds 19 1024 63 10000 3.6 170 12:59 18.08.2019
3446 Clouds 19 1026 59 10000 4.1 190 12:40 18.08.2019
3447 Mist 17 1026 77 6000 2.1 200 12:21 18.08.2019
3448 Mist 17 1026 77 6000 2.1 200 12:21 18.08.2019
3449 Mist 17 1026 77 6000 2.1 200 11:44 18.08.2019
3450 Mist 17 1026 77 6000 2.1 200 11:23 18.08.2019
3451 Mist 16 1027 82 4000 2.6 220 10:59 18.08.2019
3452 Mist 16 1027 82 4000 2.6 220 10:40 18.08.2019
3453 Mist 16 1027 82 4000 2.6 220 10:40 18.08.2019
3454 Rain 14 1028 93 2000 3.1 90 10:19 18.08.2019
3455 Rain 14 1028 93 2000 3.1 90 09:45 18.08.2019
3456 Rain 13 1027 100 2000 2.6 60 09:21 18.08.2019
3457 Rain 13 1027 100 2000 2.6 60 08:45 18.08.2019
3458 Rain 13 1027 100 2000 2.6 60 08:25 18.08.2019
3459 Rain 13 1027 100 2000 2.6 60 07:59 18.08.2019
3460 Rain 13 1027 93 6000 1.5 280 07:41 18.08.2019
3461 Rain 13 1027 93 6000 1.5 280 07:22 18.08.2019
3462 Clouds 12 1016 94 0 0.29 317.806 05:46 18.08.2019
3463 Clouds 12 1016 94 0 0.29 317.806 04:51 18.08.2019
3464 Rain 12 1015 91 0 0.97 187.477 03:22 18.08.2019
3465 Rain 12 1015 91 0 0.97 187.477 02:45 18.08.2019
3466 Clouds 14 1025 87 10000 2.1 190 02:18 18.08.2019
3467 Clouds 14 1025 87 10000 2.1 190 01:29 18.08.2019
3468 Clouds 14 1025 87 10000 2.1 110 00:43 18.08.2019
3469 Clouds 14 1025 87 10000 2.1 110 00:24 18.08.2019
3470 Clouds 14 1025 87 10000 2.1 110 23:58 17.08.2019
3471 Clouds 14 1025 87 10000 2.1 110 23:58 17.08.2019
3472 Clouds 14 1025 93 10000 2.1 110 23:39 17.08.2019
3473 Clouds 14 1025 93 10000 2.1 110 23:21 17.08.2019
3474 Clouds 14 1025 93 10000 2.1 110 22:59 17.08.2019
3475 Clouds 14 1026 93 7000 2.1 360 22:41 17.08.2019
3476 Clouds 14 1026 93 7000 2.1 360 22:23 17.08.2019
3477 -273 0 0 0 0 0 21:55 17.08.2019
3478 Clouds 14 1026 93 5000 2.1 320 21:37 17.08.2019
3479 Rain 14 1014 86 0 0.82 49.064 21:19 17.08.2019
3480 Rain 14 1014 86 0 0.82 49.064 20:39 17.08.2019
3481 Clouds 14 1024 93 10000 2.1 330 20:20 17.08.2019
3482 Clouds 14 1024 93 10000 2.1 330 19:56 17.08.2019
3483 Clouds 14 1024 93 10000 2.1 330 19:38 17.08.2019
3484 Clouds 14 1024 93 10000 2.1 330 19:19 17.08.2019
3485 Clouds 15 1023 87 10000 2.1 260 18:39 17.08.2019
3486 Clouds 14 1023 93 10000 2.1 260 18:19 17.08.2019
3487 Clouds 14 1023 93 10000 2.1 260 18:19 17.08.2019
3488 Clouds 14 1023 93 10000 2.1 260 17:56 17.08.2019
3489 Clouds 14 1023 93 10000 2.1 260 17:37 17.08.2019
3490 Clouds 14 1023 93 10000 2.1 260 17:19 17.08.2019
3491 Rain 17 1011 86 0 1.29 178.396 16:43 17.08.2019
3492 Rain 17 1011 86 0 1.29 178.396 16:25 17.08.2019
3493 Rain 17 1011 86 0 1.29 178.396 15:58 17.08.2019
3494 Rain 17 1011 86 0 1.29 178.396 15:39 17.08.2019
3495 Rain 19 1011 70 0 1.36 184.395 15:20 17.08.2019
3496 Rain 19 1011 70 0 1.36 184.395 14:41 17.08.2019
3497 Rain 19 1011 70 0 1.36 184.395 14:22 17.08.2019
3498 Rain 19 1011 70 0 1.36 184.395 13:48 17.08.2019
3499 Clouds 18 1025 77 10000 5.1 180 13:23 17.08.2019
3500 Clouds 18 1025 77 10000 5.1 180 12:58 17.08.2019
3501 Clouds 18 1025 77 10000 5.1 180 12:58 17.08.2019
3502 Clouds 18 1025 77 10000 5.1 180 12:39 17.08.2019
3503 Clouds 18 1025 77 10000 5.1 180 12:19 17.08.2019
3504 Clouds 18 1026 77 10000 3.1 190 11:44 17.08.2019
3505 Clouds 18 1026 77 10000 3.1 190 11:21 17.08.2019
3506 Clouds 18 1026 77 10000 3.1 190 10:56 17.08.2019
3507 Clouds 17 1028 77 10000 3.1 180 10:38 17.08.2019
3508 Mist 15 1027 87 5000 3.1 200 10:18 17.08.2019
3509 Mist 15 1027 87 5000 3.1 200 09:44 17.08.2019
3510 Mist 15 1027 87 5000 3.1 200 09:26 17.08.2019
3511 Drizzle 14 1027 93 5000 2.1 190 08:54 17.08.2019
3512 Drizzle 14 1027 93 5000 2.1 190 08:25 17.08.2019
3513 Rain 13 1026 93 5000 1.5 190 07:46 17.08.2019
3514 Rain 13 1026 93 5000 1.5 190 07:21 17.08.2019
3515 Rain 13 1025 100 7000 1.5 190 06:42 17.08.2019
3516 Rain 13 1026 100 6000 1 130 05:32 17.08.2019
3517 Rain 13 1026 100 6000 3.1 290 04:29 17.08.2019
3518 Rain 14 1025 93 8000 3.1 290 03:20 17.08.2019
3519 Clouds 14 1025 93 10000 2.1 220 01:46 17.08.2019
3520 Clouds 14 1025 93 10000 2.1 220 01:27 17.08.2019
3521 Clouds 14 1025 93 10000 2.1 300 00:54 17.08.2019
3522 Clouds 14 1025 93 10000 2.1 300 00:28 17.08.2019
3523 Clouds 14 1026 93 10000 2.1 210 23:50 16.08.2019
3524 Clouds 14 1026 93 10000 2.1 210 23:27 16.08.2019
3525 Clouds 14 1026 93 10000 2.1 320 22:56 16.08.2019
3526 Clouds 14 1026 93 10000 2.1 320 22:37 16.08.2019
3527 Clouds 15 1026 87 10000 2.1 10 22:19 16.08.2019
3528 Clouds 15 1026 87 10000 2.1 10 21:40 16.08.2019
3529 Rain 14 1015 90 0 1.02 273.366 21:20 16.08.2019
3530 Rain 14 1015 90 0 1.02 273.366 21:20 16.08.2019
3531 Rain 14 1015 90 0 1.02 273.366 20:56 16.08.2019
3532 Rain 14 1015 90 0 1.02 273.366 20:37 16.08.2019
3533 Clouds 15 1025 87 10000 1.02 273.366 20:18 16.08.2019
3534 Clouds 15 1025 87 10000 1.02 273.366 19:42 16.08.2019
3535 Clouds 15 1025 87 10000 1.02 273.366 19:22 16.08.2019
3536 Rain 14 1015 90 0 1.02 273.366 18:44 16.08.2019
3537 Clouds 17 1024 82 10000 2.1 250 18:26 16.08.2019
3538 Clouds 17 1024 82 10000 2.1 250 17:57 16.08.2019
3539 Clouds 17 1024 82 10000 2.1 250 17:39 16.08.2019
3540 Clouds 17 1024 82 10000 2.1 250 17:20 16.08.2019
3541 Clouds 17 1024 82 10000 2.1 250 17:20 16.08.2019
3542 Rain 17 1024 82 8000 2.1 240 16:42 16.08.2019
3543 Rain 17 1024 82 8000 2.1 240 16:21 16.08.2019
3544 Rain 16 1024 87 7000 2.1 10 15:59 16.08.2019
3545 Rain 16 1024 87 7000 2.1 10 15:40 16.08.2019
3546 Rain 16 1024 87 7000 2.1 10 15:21 16.08.2019
3547 Rain 18 1024 77 7000 4.1 210 14:57 16.08.2019
3548 Rain 18 1024 77 7000 4.1 210 14:38 16.08.2019
3549 Clouds 20 1025 64 10000 3.6 170 14:19 16.08.2019
3550 Clouds 20 1025 64 10000 3.6 170 13:41 16.08.2019
3551 Clouds 20 1025 64 10000 3.6 170 13:41 16.08.2019
3552 Clouds 20 1025 64 10000 3.6 170 13:23 16.08.2019
3553 Rain 19 1012 67 0 1.68 214.486 12:56 16.08.2019
3554 Rain 19 1012 67 0 1.68 214.486 12:37 16.08.2019
3555 Clouds 19 1027 63 10000 3.1 160 12:19 16.08.2019
3556 Clouds 19 1027 63 10000 3.1 160 12:19 16.08.2019
3557 Clouds 19 1027 63 10000 3.1 160 11:42 16.08.2019
3558 Clouds 19 1027 63 10000 3.1 160 11:24 16.08.2019
3559 Clouds 19 1027 63 10000 3.1 160 11:24 16.08.2019
3560 Clouds 18 1028 63 10000 1 10 10:43 16.08.2019
3561 Clouds 18 1028 63 10000 1 10 10:25 16.08.2019
3562 Clouds 18 1028 63 10000 1 10 09:56 16.08.2019
3563 Rain 17 1016 80 0 1.97 160.717 09:37 16.08.2019
3564 Rain 17 1016 80 0 1.97 160.717 09:37 16.08.2019
3565 Rain 15 1019 80 0 1.22 220.214 09:18 16.08.2019
3566 Rain 15 1019 80 0 1.22 220.214 08:41 16.08.2019
3567 Rain 15 1019 80 0 1.22 220.214 08:21 16.08.2019
3568 Rain 15 1019 80 0 1.22 220.214 07:54 16.08.2019
3569 Clouds 13 1028 82 10000 4.1 40 07:33 16.08.2019
3570 Clouds 13 1028 82 10000 4.1 40 06:57 16.08.2019
3571 Clouds 13 1028 82 10000 4.1 40 06:31 16.08.2019
3572 Clouds 12 1027 93 10000 1.5 310 05:41 16.08.2019
3573 Thunderstorm 12 1028 93 6000 3.1 90 04:28 16.08.2019
3574 Clouds 15 1026 87 10000 3.1 240 02:40 16.08.2019
3575 Clouds 15 1026 93 10000 1.5 220 01:33 16.08.2019
3576 Clear 12 1016 87 0 0.52 301.287 00:59 16.08.2019
3577 Clear 12 1016 87 0 0.52 301.287 00:40 16.08.2019
3578 Clouds 16 1028 87 10000 1 160 00:20 16.08.2019
3579 Clouds 16 1028 87 10000 1 160 23:44 15.08.2019
3580 Clouds 16 1028 87 10000 1 160 23:21 15.08.2019
3581 Clouds 16 1028 87 10000 1 160 22:57 15.08.2019
3582 Clear 13 1018 83 0 0.73 28.917 22:39 15.08.2019
3583 Clear 13 1018 83 0 0.73 28.917 22:39 15.08.2019
3584 Clouds 16 1027 87 10000 4.1 180 22:20 15.08.2019
3585 Clouds 16 1027 87 10000 4.1 180 21:54 15.08.2019
3586 Clouds 16 1027 87 10000 4.1 180 21:36 15.08.2019
3587 Clouds 16 1027 87 10000 4.1 180 21:18 15.08.2019
3588 Rain 14 1016 86 0 0.83 68.121 20:42 15.08.2019
3589 Rain 14 1016 86 0 0.83 68.121 20:21 15.08.2019
3590 Rain 14 1016 86 0 0.83 68.121 20:21 15.08.2019
3591 Rain 14 1016 86 0 0.83 68.121 19:57 15.08.2019
3592 Rain 14 1016 86 0 0.83 68.121 19:38 15.08.2019
3593 Clouds 18 1025 77 10000 2.1 170 19:19 15.08.2019
3594 Clouds 18 1025 77 10000 2.1 170 18:46 15.08.2019
3595 Clouds 18 1025 77 10000 2.1 170 18:23 15.08.2019
3596 Rain 18 1013 83 0 2.35 160.046 17:57 15.08.2019
3597 Clouds 21 1024 56 10000 6.2 150 17:37 15.08.2019
3598 Clouds 21 1024 56 10000 6.2 150 17:19 15.08.2019
3599 Clouds 21 1024 56 10000 6.2 150 16:48 15.08.2019
3600 Clouds 21 1024 56 10000 6.2 150 16:27 15.08.2019
3601 Clouds 21 1024 56 10000 6.2 150 15:59 15.08.2019
3602 Rain 18 1013 83 0 2.35 160.046 15:38 15.08.2019
3603 Rain 21 1012 66 0 2.75 144.104 15:19 15.08.2019
3604 Rain 21 1012 66 0 2.75 144.104 14:43 15.08.2019
3605 Clouds 21 1025 60 10000 3.1 170 14:23 15.08.2019
3606 Clouds 21 1025 60 10000 3.1 170 13:58 15.08.2019
3607 Clouds 21 1025 60 10000 3.1 170 13:40 15.08.2019
3608 Clouds 21 1025 60 10000 3.1 170 13:21 15.08.2019
3609 Clouds 21 1025 60 10000 3.1 170 12:57 15.08.2019
3610 Clouds 20 1026 64 10000 3.6 180 12:39 15.08.2019
3611 Clouds 19 1027 72 10000 3.1 170 12:19 15.08.2019
3612 Clouds 19 1027 72 10000 3.1 170 11:57 15.08.2019
3613 Clouds 19 1027 72 10000 3.1 170 11:36 15.08.2019
3614 Clouds 19 1028 72 10000 2.6 170 11:18 15.08.2019
3615 Clouds 19 1028 72 10000 2.6 170 10:57 15.08.2019
3616 Clouds 19 1028 72 10000 2.6 170 10:36 15.08.2019
3617 Clouds 18 1028 77 10000 2.1 160 10:18 15.08.2019
3618 Clouds 18 1028 77 10000 2.1 160 09:41 15.08.2019
3619 Clouds 18 1028 77 10000 2.1 160 09:21 15.08.2019
3620 Clouds 16 1028 82 10000 2.1 140 08:38 15.08.2019
3621 Clouds 15 1028 82 10000 1 100 08:20 15.08.2019
3622 Clouds 15 1028 82 10000 1 100 07:54 15.08.2019
3623 Clouds 15 1028 82 10000 1 100 07:36 15.08.2019
3624 Rain 17 1018 77 0 0.74 250.44 07:18 15.08.2019
3625 Rain 17 1018 77 0 0.74 250.44 06:40 15.08.2019
3626 Clouds 14 1027 93 10000 1 350 06:21 15.08.2019
3627 Clouds 14 1027 93 10000 1 350 05:29 15.08.2019
3628 Clouds 13 1018 87 0 0.61 22.134 04:51 15.08.2019
3629 Clouds 14 1026 93 10000 0.61 22.134 03:49 15.08.2019
3630 Clouds 14 1026 93 10000 1 100 02:52 15.08.2019
3631 Clouds 14 1027 93 10000 0.38 326.183 02:18 15.08.2019
3632 Clouds 14 1027 93 10000 0.38 326.183 01:38 15.08.2019
3633 Clouds 14 1027 93 10000 1 10 00:42 15.08.2019
3634 Clouds 14 1027 93 10000 1 10 00:22 15.08.2019
3635 Clouds 14 1028 93 10000 1 10 23:59 14.08.2019
3636 Clouds 14 1028 93 10000 1 10 23:40 14.08.2019
3637 Clouds 14 1028 93 10000 1 30 23:20 14.08.2019
3638 Clouds 14 1028 93 10000 1 30 22:59 14.08.2019
3639 Clouds 14 1028 93 10000 1 30 22:40 14.08.2019
3640 Clouds 14 1028 93 10000 1 30 22:21 14.08.2019
3641 Clouds 14 1028 93 10000 1 30 21:57 14.08.2019
3642 Clouds 15 1027 87 10000 1 60 21:38 14.08.2019
3643 Clouds 15 1027 87 10000 1 60 21:19 14.08.2019
3644 Clouds 15 1027 87 10000 2.1 200 20:42 14.08.2019
3645 Clouds 16 1026 82 10000 1 230 20:23 14.08.2019
3646 Clouds 16 1026 82 10000 1 230 19:59 14.08.2019
3647 Rain 15 1016 92 0 1.71 158.962 19:39 14.08.2019
3648 Clouds 17 1025 72 10000 1 280 19:21 14.08.2019
3649 -273 0 0 0 0 0 18:57 14.08.2019
3650 Clouds 17 1025 72 10000 1 280 18:38 14.08.2019
3651 Rain 17 1013 85 0 0.57 209.006 18:20 14.08.2019
3652 Rain 17 1013 85 0 0.57 209.006 17:56 14.08.2019
3653 Rain 17 1013 85 0 0.57 209.006 17:37 14.08.2019
3654 Clouds 18 1025 77 10000 4.1 190 17:19 14.08.2019
3655 Rain 17 1013 85 0 0.57 209.006 16:43 14.08.2019
3656 Clouds 19 1025 63 10000 2.6 200 16:21 14.08.2019
3657 Clouds 19 1025 63 10000 2.6 200 15:59 14.08.2019
3658 Clouds 19 1025 63 10000 2.6 200 15:40 14.08.2019
3659 Rain 18 1013 77 0 2.11 173.528 15:18 14.08.2019
3660 Rain 18 1013 77 0 2.11 173.528 14:41 14.08.2019
3661 Rain 15 1027 93 7000 2.1 170 14:19 14.08.2019
3662 Rain 15 1027 93 7000 2.1 170 13:59 14.08.2019
3663 Rain 15 1027 93 7000 2.1 170 13:41 14.08.2019
3664 Rain 15 1027 93 7000 2.1 170 13:22 14.08.2019
3665 Rain 15 1027 93 7000 2.1 170 13:22 14.08.2019
3666 Rain 15 1027 93 7000 2.1 170 13:22 14.08.2019
3667 Rain 15 1027 93 7000 2.1 170 12:56 14.08.2019
3668 Mist 16 1027 82 7000 1.5 50 12:38 14.08.2019
3669 Mist 16 1028 82 7000 2.6 20 12:20 14.08.2019
3670 Mist 16 1028 82 7000 2.6 20 11:47 14.08.2019
3671 Mist 16 1028 82 7000 2.6 20 11:23 14.08.2019
3672 Mist 15 1029 87 7000 1 220 10:59 14.08.2019
3673 Mist 15 1029 87 7000 1 220 10:39 14.08.2019
3674 Mist 15 1029 87 7000 1 220 10:39 14.08.2019
3675 Mist 15 1029 87 7000 1 220 10:21 14.08.2019
3676 Rain 15 1029 87 7000 2.1 210 09:45 14.08.2019
3677 Rain 15 1029 87 7000 2.1 210 09:22 14.08.2019
3678 Rain 14 1029 93 8000 2.6 210 08:49 14.08.2019
3679 Rain 14 1029 93 8000 2.6 210 08:30 14.08.2019
3680 Rain 14 1029 93 8000 2.1 240 07:57 14.08.2019
3681 Rain 14 1029 93 8000 2.1 240 07:39 14.08.2019
3682 Rain 14 1019 93 0 1.61 219.719 07:20 14.08.2019
3683 Rain 14 1019 93 0 1.61 219.719 06:43 14.08.2019
3684 Rain 13 1018 97 0 1.1 158.46 05:47 14.08.2019
3685 Rain 13 1018 97 0 1.1 158.46 04:45 14.08.2019
3686 Rain 13 1017 96 0 0.82 312.934 02:47 14.08.2019
3687 Clouds 13 1027 93 10000 2.1 260 02:25 14.08.2019
3688 Clouds 13 1027 93 10000 2.1 260 01:34 14.08.2019
3689 Rain 13 1017 97 0 0.36 58.266 00:48 14.08.2019
3690 Rain 14 1019 92 0 1.36 143.172 23:47 13.08.2019
3691 Rain 14 1019 92 0 1.36 143.172 23:21 13.08.2019
3692 Rain 14 1019 92 0 1.36 143.172 22:57 13.08.2019
3693 Rain 14 1019 92 0 1.36 143.172 22:39 13.08.2019
3694 Rain 14 1019 92 0 1.36 143.172 22:20 13.08.2019
3695 Rain 14 1019 92 0 1.36 143.172 21:56 13.08.2019
3696 Clouds 14 1028 87 10000 3.1 290 21:37 13.08.2019
3697 Clouds 14 1028 87 10000 3.1 290 21:18 13.08.2019
3698 Clouds 14 1028 87 10000 3.1 290 20:44 13.08.2019
3699 Clouds 14 1027 87 10000 3.1 300 20:20 13.08.2019
3700 Clouds 14 1027 87 10000 3.1 300 19:58 13.08.2019
3701 Clouds 14 1027 87 10000 3.1 300 19:40 13.08.2019
3702 Clouds 14 1027 87 10000 3.1 300 19:21 13.08.2019
3703 Rain 14 1026 93 8000 2.1 270 18:42 13.08.2019
3704 Rain 14 1026 93 8000 2.1 270 18:23 13.08.2019
3705 Rain 14 1026 93 8000 2.1 270 17:58 13.08.2019
3706 Clouds 15 1026 87 9000 3.1 230 17:39 13.08.2019
3707 Clouds 15 1026 87 9000 3.1 230 17:19 13.08.2019
3708 Clouds 15 1026 87 9000 3.1 230 16:56 13.08.2019
3709 Rain 15 1025 87 8000 2.1 220 16:37 13.08.2019
3710 Rain 15 1025 87 8000 2.1 220 16:19 13.08.2019
3711 Rain 15 1026 87 7000 1.5 160 15:39 13.08.2019
3712 Rain 15 1026 87 7000 1.5 160 15:20 13.08.2019
3713 Rain 15 1026 87 7000 1.5 160 15:20 13.08.2019
3714 Rain 15 1026 87 7000 1.5 160 14:57 13.08.2019
3715 Rain 15 1026 87 7000 1.5 160 14:57 13.08.2019
3716 Rain 15 1026 82 8000 1 190 14:38 13.08.2019
3717 Rain 14 1027 87 7000 3.1 300 14:18 13.08.2019
3718 Rain 14 1027 87 7000 3.1 300 13:41 13.08.2019
3719 Rain 14 1027 87 7000 3.1 300 13:21 13.08.2019
3720 Rain 14 1027 87 7000 3.1 300 12:58 13.08.2019
3721 Rain 14 1027 82 6000 6.2 300 12:40 13.08.2019
3722 Drizzle 16 1027 87 5000 7.2 250 12:21 13.08.2019
3723 Drizzle 16 1027 87 5000 7.2 250 11:57 13.08.2019
3724 Drizzle 16 1027 87 5000 7.2 250 11:37 13.08.2019
3725 Clouds 17 1028 77 10000 4.1 230 11:18 13.08.2019
3726 Clouds 17 1028 77 10000 4.1 230 10:55 13.08.2019
3727 Clouds 17 1028 77 10000 4.1 230 10:36 13.08.2019
3728 Clouds 18 1028 72 10000 4.1 230 10:18 13.08.2019
3729 Clouds 18 1028 72 10000 4.1 230 09:41 13.08.2019
3730 Clouds 18 1028 72 10000 4.1 230 09:22 13.08.2019
3731 Clouds 16 1028 87 10000 4.1 200 08:42 13.08.2019
3732 Clouds 14 1027 93 10000 4.1 230 08:22 13.08.2019
3733 Clouds 14 1027 93 10000 4.1 230 07:56 13.08.2019
3734 Clouds 14 1027 93 10000 4.1 230 07:32 13.08.2019
3735 Clouds 16 1019 80 0 1.11 260.385 06:46 13.08.2019
3736 Clouds 13 1027 93 7000 3.1 270 06:23 13.08.2019
3737 Clouds 13 1027 93 7000 3.1 270 05:34 13.08.2019
3738 Clouds 14 1026 87 10000 2.1 270 02:38 13.08.2019
3739 Clouds 12 1017 87 0 1.16 287.795 01:58 13.08.2019
3740 Clouds 12 1016 86 0 0.87 313.332 00:55 13.08.2019
3741 Clouds 12 1016 86 0 0.87 313.332 00:36 13.08.2019
3742 Rain 14 1027 93 10000 5.1 240 23:49 12.08.2019
3743 Rain 14 1027 93 10000 5.1 240 23:24 12.08.2019
3744 Rain 14 1027 93 10000 5.1 240 22:57 12.08.2019
3745 Clouds 12 1018 86 0 1.5 347.812 22:38 12.08.2019
3746 Clouds 15 1027 82 10000 2.6 300 22:19 12.08.2019
3747 Clouds 15 1027 82 10000 2.6 300 21:55 12.08.2019
3748 Clouds 15 1027 82 10000 2.6 300 21:36 12.08.2019
3749 Clouds 15 1027 82 10000 2.6 300 21:18 12.08.2019
3750 Rain 13 1017 89 0 1.58 2.501 20:55 12.08.2019
3751 Clouds 16 1025 72 10000 4.1 320 20:36 12.08.2019
3752 Clouds 16 1025 72 10000 4.1 320 20:18 12.08.2019
3753 Clouds 16 1025 72 10000 4.1 320 19:54 12.08.2019
3754 Clouds 16 1025 72 10000 4.1 320 19:36 12.08.2019
3755 Clouds 16 1025 72 10000 4.1 320 19:18 12.08.2019
3756 Clouds 16 1025 72 10000 3.1 280 18:41 12.08.2019
3757 Clouds 17 1024 67 10000 4.1 300 18:21 12.08.2019
3758 Clouds 17 1024 67 10000 4.1 300 17:56 12.08.2019
3759 Clouds 17 1024 67 10000 4.1 300 17:38 12.08.2019
3760 Clouds 19 1024 59 10000 4.1 340 17:20 12.08.2019
3761 Clouds 19 1024 59 10000 4.1 340 16:55 12.08.2019
3762 Clouds 19 1024 59 10000 4.1 340 16:37 12.08.2019
3763 Clouds 18 1024 68 10000 3.1 220 16:18 12.08.2019
3764 Clouds 18 1024 68 10000 3.1 220 15:42 12.08.2019
3765 Clouds 18 1024 68 10000 3.1 220 15:41 12.08.2019
3766 Clouds 18 1024 68 10000 3.1 220 15:41 12.08.2019
3767 Clouds 18 1025 68 10000 3.1 320 15:21 12.08.2019
3768 Clouds 18 1025 68 10000 3.1 320 14:57 12.08.2019
3769 Clouds 18 1025 68 10000 3.1 320 14:39 12.08.2019
3770 Clouds 17 1026 67 10000 3.6 320 14:20 12.08.2019
3771 Clouds 17 1026 67 10000 3.6 320 13:47 12.08.2019
3772 Clouds 17 1026 67 10000 3.6 320 13:24 12.08.2019
3773 Rain 14 1015 92 0 1.83 301.297 12:59 12.08.2019
3774 Rain 14 1015 92 0 1.83 301.297 12:41 12.08.2019
3775 Clouds 17 1027 67 10000 7.2 290 12:19 12.08.2019
3776 -273 0 0 0 0 0 11:43 12.08.2019
3777 -273 0 0 0 0 0 11:43 12.08.2019
3778 Clouds 17 1027 67 10000 7.2 290 11:25 12.08.2019
3779 Clouds 16 1028 82 10000 5.1 280 10:43 12.08.2019
3780 Clouds 16 1028 82 10000 5.1 280 10:24 12.08.2019
3781 Rain 15 1028 87 9000 3.1 220 09:57 12.08.2019
3782 Rain 15 1028 87 9000 3.1 220 09:38 12.08.2019
3783 Rain 14 1018 89 0 1.07 171.339 09:20 12.08.2019
3784 Rain 14 1018 89 0 1.07 171.339 08:58 12.08.2019
3785 Rain 14 1018 89 0 1.07 171.339 08:39 12.08.2019
3786 Rain 14 1018 89 0 1.07 171.339 08:21 12.08.2019
3787 Rain 14 1018 89 0 1.07 171.339 07:53 12.08.2019
3788 Clouds 14 1027 87 9000 3.1 240 07:33 12.08.2019
3789 Clouds 14 1027 87 9000 3.1 240 06:52 12.08.2019
3790 Rain 13 1017 97 0 0.46 115.002 05:41 12.08.2019
3791 Clouds 14 1026 93 10000 3.1 220 02:45 12.08.2019
3792 Rain 14 1016 93 0 0.69 189.503 01:55 12.08.2019
3793 Clouds 15 1026 82 10000 3.1 240 01:22 12.08.2019
3794 Clouds 15 1026 82 10000 3.1 240 00:58 12.08.2019
3795 Clouds 15 1026 82 10000 3.1 240 00:39 12.08.2019
3796 Clouds 15 1026 82 10000 3.1 240 00:20 12.08.2019
3797 Clouds 15 1026 82 10000 3.1 240 23:56 11.08.2019
3798 Clouds 16 1027 82 10000 3.1 220 23:37 11.08.2019
3799 Clouds 16 1027 82 10000 3.1 220 23:18 11.08.2019
3800 Rain 14 1017 88 0 0.12 197.65 22:40 11.08.2019
3801 Clouds 15 1027 87 10000 2.1 160 22:20 11.08.2019
3802 Clouds 15 1027 87 10000 2.1 160 21:59 11.08.2019
3803 Clouds 15 1027 87 10000 2.1 160 21:41 11.08.2019
3804 Clouds 15 1027 87 10000 2.1 160 21:22 11.08.2019
3805 Rain 15 1016 87 0 1.36 11.326 20:58 11.08.2019
3806 Rain 15 1016 87 0 1.36 11.326 20:40 11.08.2019
3807 Clouds 16 1026 77 10000 3.1 250 20:22 11.08.2019
3808 Clouds 16 1026 77 10000 3.1 250 19:45 11.08.2019
3809 Clouds 16 1026 77 10000 3.1 250 19:20 11.08.2019
3810 Clouds 16 1026 77 10000 3.1 250 18:54 11.08.2019
3811 Rain 15 1016 87 0 1.36 11.326 18:36 11.08.2019
3812 Rain 17 1013 86 0 0.9 229.958 18:18 11.08.2019
3813 Rain 17 1013 86 0 0.9 229.958 17:41 11.08.2019
3814 Rain 17 1013 86 0 0.9 229.958 17:20 11.08.2019
3815 Clouds 17 1024 72 10000 2.6 220 16:57 11.08.2019
3816 Clouds 17 1024 72 10000 2.6 220 16:38 11.08.2019
3817 Clouds 17 1024 72 10000 2.6 220 16:20 11.08.2019
3818 Clouds 17 1024 72 10000 5.1 230 15:44 11.08.2019
3819 Clouds 17 1024 72 10000 5.1 230 15:25 11.08.2019
3820 Rain 18 1012 75 0 2.85 226.009 14:59 11.08.2019
3821 Rain 18 1012 75 0 2.85 226.009 14:39 11.08.2019
3822 Rain 18 1012 75 0 2.85 226.009 14:21 11.08.2019
3823 Rain 18 1012 75 0 2.85 226.009 13:45 11.08.2019
3824 Rain 19 1011 72 0 2.73 228.192 13:26 11.08.2019
3825 Rain 19 1011 72 0 2.73 228.192 12:57 11.08.2019
3826 Rain 19 1011 72 0 2.73 228.192 12:37 11.08.2019
3827 Rain 18 1015 75 0 3.19 231.368 12:19 11.08.2019
3828 Rain 18 1015 75 0 3.19 231.368 11:40 11.08.2019
3829 Rain 18 1027 63 10000 3.6 230 11:22 11.08.2019
3830 -273 0 0 0 0 0 10:56 11.08.2019
3831 Rain 18 1027 63 10000 3.6 230 10:37 11.08.2019
3832 Rain 18 1027 63 10000 3.6 230 10:19 11.08.2019
3833 Clouds 17 1028 77 10000 3.6 220 09:43 11.08.2019
3834 Clouds 17 1028 77 10000 3.6 220 09:24 11.08.2019
3835 Clouds 15 1028 82 10000 3.1 220 08:49 11.08.2019
3836 Clouds 15 1028 82 10000 3.1 220 08:30 11.08.2019
3837 Clouds 15 1028 82 10000 3.1 220 07:59 11.08.2019
3838 Clouds 15 1028 82 10000 4.1 240 07:31 11.08.2019
3839 Clouds 13 1027 93 10000 3.1 270 06:46 11.08.2019
3840 Clouds 13 1027 93 10000 3.1 270 06:28 11.08.2019
3841 Rain 12 1018 98 0 0.62 247.252 04:44 11.08.2019
3842 Clouds 13 1026 93 10000 4.1 230 02:50 11.08.2019
3843 Rain 13 1017 94 0 0.97 263.627 01:57 11.08.2019
3844 Clouds 14 1026 82 10000 4.6 300 01:31 11.08.2019
3845 Clouds 14 1026 82 10000 4.6 300 00:56 11.08.2019
3846 Clouds 14 1026 82 10000 4.6 300 00:35 11.08.2019
3847 Clouds 14 1027 82 10000 3.1 300 23:50 10.08.2019
3848 Clouds 14 1027 82 10000 3.1 300 23:50 10.08.2019
3849 Clouds 14 1027 82 10000 3.1 300 23:30 10.08.2019
3850 Mist 13 1028 100 8000 2.6 310 22:56 10.08.2019
3851 Mist 13 1028 100 8000 2.6 310 22:36 10.08.2019
3852 Rain 13 1019 95 0 0.84 350.346 22:18 10.08.2019
3853 Rain 13 1019 95 0 0.84 350.346 21:40 10.08.2019
3854 Rain 13 1018 95 0 0.68 268.736 21:21 10.08.2019
3855 Rain 13 1018 95 0 0.68 268.736 21:21 10.08.2019
3856 Rain 13 1018 95 0 0.68 268.736 20:57 10.08.2019
3857 Rain 13 1018 95 0 0.68 268.736 20:39 10.08.2019
3858 Mist 14 1028 93 5000 2.6 200 20:19 10.08.2019
3859 Mist 14 1028 93 5000 2.6 200 19:44 10.08.2019
3860 Mist 14 1028 93 5000 2.6 200 19:25 10.08.2019
3861 Mist 14 1027 93 5000 3.1 190 18:43 10.08.2019
3862 Mist 14 1027 93 5000 3.1 190 18:25 10.08.2019
3863 Rain 14 1027 93 5000 4.1 260 17:57 10.08.2019
3864 Rain 14 1027 93 5000 4.1 260 17:38 10.08.2019
3865 Rain 14 1027 93 5000 4.1 260 17:19 10.08.2019
3866 Rain 14 1016 93 0 0.82 169.952 16:43 10.08.2019
3867 Rain 15 1027 82 7000 2.1 280 16:24 10.08.2019
3868 Rain 15 1027 82 7000 2.1 280 15:48 10.08.2019
3869 Rain 15 1027 82 7000 2.1 280 15:22 10.08.2019
3870 Rain 16 1027 72 7000 2.1 240 14:44 10.08.2019
3871 Rain 16 1027 72 7000 2.1 240 14:21 10.08.2019
3872 Mist 16 1027 72 6000 5.1 270 13:41 10.08.2019
3873 Clouds 16 1028 72 6000 5.1 280 13:20 10.08.2019
3874 Clouds 16 1028 72 6000 5.1 280 12:55 10.08.2019
3875 Clouds 16 1028 72 6000 5.1 280 12:37 10.08.2019
3876 Rain 16 1029 77 6000 3.1 260 12:18 10.08.2019
3877 Rain 16 1029 77 6000 3.1 260 11:42 10.08.2019
3878 Rain 16 1029 77 6000 3.1 260 11:22 10.08.2019
3879 Mist 15 1030 82 7000 3.6 270 10:56 10.08.2019
3880 Mist 15 1030 82 7000 3.6 270 10:37 10.08.2019
3881 Mist 15 1030 87 7000 5.1 280 10:19 10.08.2019
3882 Mist 15 1030 87 7000 5.1 280 09:42 10.08.2019
3883 Mist 15 1030 87 7000 5.1 280 09:23 10.08.2019
3884 Mist 14 1029 87 0 6.2 290 08:42 10.08.2019
3885 Mist 14 1029 87 9000 4.6 280 08:22 10.08.2019
3886 Mist 14 1029 87 9000 4.6 280 07:54 10.08.2019
3887 Mist 14 1029 87 9000 4.6 280 07:29 10.08.2019
3888 Rain 13 1028 93 9000 4.1 260 06:49 10.08.2019
3889 Rain 13 1028 93 9000 4.1 260 06:49 10.08.2019
3890 Rain 13 1028 93 9000 4.1 260 06:29 10.08.2019
3891 Rain 13 1018 97 0 1.49 237.623 05:28 10.08.2019
3892 Rain 13 1018 97 0 1.49 237.623 04:53 10.08.2019
3893 Rain 14 1027 93 9000 4.1 250 03:26 10.08.2019
3894 Rain 14 1027 93 9000 4.1 250 02:28 10.08.2019
3895 Rain 14 1027 93 10000 4.1 240 01:43 10.08.2019
3896 Rain 14 1027 93 10000 4.1 240 01:23 10.08.2019
3897 Clouds 14 1027 93 10000 5.1 250 00:53 10.08.2019
3898 Clouds 14 1027 93 10000 5.1 250 00:27 10.08.2019
3899 Clouds 14 1027 93 10000 5.1 250 23:59 09.08.2019
3900 Clouds 15 1028 87 10000 3.1 200 23:38 09.08.2019
3901 Clouds 15 1028 87 10000 3.1 200 23:19 09.08.2019
3902 Clouds 15 1028 87 10000 2.1 210 22:40 09.08.2019
3903 Clouds 15 1028 87 10000 2.1 210 22:22 09.08.2019
3904 Rain 13 1018 96 0 1.48 232.843 21:59 09.08.2019
3905 Rain 13 1018 96 0 1.48 232.843 21:39 09.08.2019
3906 Clouds 15 1028 93 10000 2.1 200 21:21 09.08.2019
3907 Clouds 15 1028 93 10000 2.1 200 21:21 09.08.2019
3908 Clouds 15 1028 93 10000 2.1 200 20:56 09.08.2019
3909 Clouds 15 1028 93 10000 2.1 200 20:38 09.08.2019
3910 Rain 15 1017 92 0 1.36 234.939 20:18 09.08.2019
3911 Rain 15 1017 92 0 1.36 234.939 19:41 09.08.2019
3912 Clouds 16 1026 93 10000 4.1 190 19:22 09.08.2019
3913 Clouds 16 1026 93 10000 4.1 190 18:42 09.08.2019
3914 Clouds 16 1026 93 10000 4.1 190 18:23 09.08.2019
3915 Clouds 17 1026 82 10000 5.1 190 17:59 09.08.2019
3916 Clouds 17 1026 82 10000 5.1 190 17:41 09.08.2019
3917 Rain 16 1013 85 0 1.71 226.584 17:23 09.08.2019
3918 -273 0 0 0 0 0 16:54 09.08.2019
3919 Clouds 20 1025 60 10000 6.2 230 16:36 09.08.2019
3920 Clouds 20 1025 60 10000 6.2 230 16:18 09.08.2019
3921 Rain 16 1013 85 0 1.71 226.584 15:41 09.08.2019
3922 Rain 19 1013 71 0 1.52 211.112 15:21 09.08.2019
3923 -273 0 0 0 0 0 14:57 09.08.2019
3924 Rain 19 1013 71 0 1.52 211.112 14:56 09.08.2019
3925 Rain 19 1013 71 0 1.52 211.112 14:56 09.08.2019
3926 Rain 19 1013 71 0 1.52 211.112 14:37 09.08.2019
3927 Rain 19 1013 71 0 1.52 211.112 14:19 09.08.2019
3928 Rain 19 1013 71 0 1.52 211.112 13:43 09.08.2019
3929 Rain 18 1013 74 0 0.6 199.125 13:20 09.08.2019
3930 Rain 18 1013 74 0 0.6 199.125 12:47 09.08.2019
3931 Rain 15 1017 89 0 0.04 21.251 12:24 09.08.2019
3932 Rain 15 1017 89 0 0.04 21.251 11:59 09.08.2019
3933 Rain 15 1017 89 0 0.04 21.251 11:37 09.08.2019
3934 Clouds 15 1030 87 10000 4.6 260 11:19 09.08.2019
3935 Clouds 15 1030 87 10000 4.6 260 10:41 09.08.2019
3936 Rain 15 1017 89 0 0.04 21.251 10:22 09.08.2019
3937 Rain 15 1017 89 0 0.04 21.251 09:46 09.08.2019
3938 Clouds 14 1030 93 10000 2.1 230 09:20 09.08.2019
3939 Clouds 14 1030 93 10000 2.1 230 08:59 09.08.2019
3940 Clouds 14 1030 93 10000 2.1 230 08:41 09.08.2019
3941 Clouds 14 1030 93 10000 2.1 230 08:21 09.08.2019
3942 Clouds 14 1029 93 10000 2.1 160 07:53 09.08.2019
3943 Clouds 14 1029 93 10000 2.1 160 07:24 09.08.2019
3944 Rain 14 1020 96 0 2.11 177.962 06:56 09.08.2019
3945 Rain 14 1020 96 0 2.11 177.962 06:36 09.08.2019
3946 Clouds 14 1027 100 10000 2.1 160 05:58 09.08.2019
3947 Clouds 15 1026 93 10000 2.6 190 04:25 09.08.2019
3948 Clouds 15 1026 87 10000 2.6 250 02:23 09.08.2019
3949 Clouds 15 1026 87 10000 2.6 250 00:56 09.08.2019
3950 Clouds 15 1027 87 10000 2.6 270 00:38 09.08.2019
3951 Clouds 15 1027 93 10000 2.1 240 00:20 09.08.2019
3952 Clouds 15 1027 93 10000 2.1 240 23:38 08.08.2019
3953 Clouds 15 1027 93 10000 2.1 240 23:20 08.08.2019
3954 Clouds 15 1027 93 10000 2.1 240 22:59 08.08.2019
3955 Clouds 16 1027 87 10000 1.5 210 22:37 08.08.2019
3956 Clouds 16 1027 87 10000 1.5 210 22:19 08.08.2019
3957 Clouds 16 1027 87 10000 1.5 210 21:59 08.08.2019
3958 Clouds 17 1027 77 10000 4.1 300 21:40 08.08.2019
3959 Clouds 17 1027 77 10000 4.1 300 21:21 08.08.2019
3960 Clouds 17 1027 77 10000 4.1 300 20:56 08.08.2019
3961 Rain 15 1016 87 0 1.82 282.183 20:38 08.08.2019
3962 Clouds 17 1026 82 10000 1.5 30 20:19 08.08.2019
3963 Clouds 17 1026 82 10000 1.5 30 19:43 08.08.2019
3964 Clouds 17 1026 82 10000 1.5 30 19:22 08.08.2019
3965 Clouds 18 1025 72 10000 2.1 90 18:43 08.08.2019
3966 Clouds 18 1025 72 10000 2.1 90 18:24 08.08.2019
3967 Clouds 18 1025 72 10000 2.1 90 17:58 08.08.2019
3968 Clouds 18 1025 68 10000 3.1 310 17:40 08.08.2019
3969 Clouds 18 1025 68 10000 3.1 310 17:21 08.08.2019
3970 Clouds 18 1024 68 10000 2.1 300 16:43 08.08.2019
3971 Clouds 18 1024 68 10000 2.1 300 16:43 08.08.2019
3972 Clouds 18 1024 68 10000 2.1 300 16:25 08.08.2019
3973 Clouds 18 1024 68 10000 2.1 300 15:59 08.08.2019
3974 Rain 18 1012 84 0 1.65 206.456 15:41 08.08.2019
3975 Rain 20 1011 71 0 3.4 214.32 15:23 08.08.2019
3976 Rain 20 1011 71 0 3.4 214.32 14:55 08.08.2019
3977 Clouds 21 1024 60 10000 5.1 220 14:36 08.08.2019
3978 Clouds 21 1024 60 10000 5.1 220 14:18 08.08.2019
3979 Clouds 21 1024 60 10000 5.1 220 13:39 08.08.2019
3980 Clouds 21 1024 60 10000 5.1 220 13:18 08.08.2019
3981 Clouds 21 1024 60 10000 5.1 220 13:18 08.08.2019
3982 Clouds 20 1025 64 10000 3.6 190 12:40 08.08.2019
3983 Clouds 20 1027 64 10000 4.1 240 12:20 08.08.2019
3984 Clouds 20 1027 64 10000 4.1 240 11:56 08.08.2019
3985 Clouds 20 1027 64 10000 4.1 240 11:37 08.08.2019
3986 Rain 19 1014 69 0 3.16 216.826 11:19 08.08.2019
3987 Rain 19 1014 69 0 3.16 216.826 10:41 08.08.2019
3988 Rain 19 1014 69 0 3.16 216.826 10:41 08.08.2019
3989 Clouds 18 1028 77 10000 2.6 170 10:21 08.08.2019
3990 Clouds 18 1028 77 10000 2.6 170 09:49 08.08.2019
3991 Clouds 18 1028 77 10000 2.6 170 09:30 08.08.2019
3992 Mist 17 1028 77 5000 3.6 160 08:57 08.08.2019
3993 Mist 17 1028 77 5000 3.6 160 08:37 08.08.2019
3994 Clouds 16 1028 82 10000 2.1 270 08:18 08.08.2019
3995 Clouds 16 1028 82 10000 2.1 270 07:40 08.08.2019
3996 Clouds 14 1027 87 10000 1 280 07:19 08.08.2019
3997 Clouds 14 1027 87 10000 1 280 06:47 08.08.2019
3998 Clouds 14 1027 87 10000 1 280 06:26 08.08.2019
3999 Clouds 12 1017 91 0 0.51 321.375 05:52 08.08.2019
4000 Clouds 15 1026 82 10000 1 280 04:53 08.08.2019
4001 Clouds 14 1026 87 10000 2.1 320 03:52 08.08.2019
4002 Clouds 13 1016 91 0 0.45 222.36 02:21 08.08.2019
4003 Rain 13 1016 91 0 0.81 201.485 01:35 08.08.2019
4004 Clouds 13 1018 90 0 0.3 109.95 00:26 08.08.2019
4005 Clouds 13 1018 90 0 0.3 109.95 23:46 07.08.2019
4006 Clouds 13 1018 90 0 0.3 109.95 23:19 07.08.2019
4007 Clouds 13 1018 90 0 0.3 109.95 22:56 07.08.2019
4008 Clouds 13 1018 90 0 0.3 109.95 22:38 07.08.2019
4009 Clouds 15 1028 82 10000 2.1 310 22:19 07.08.2019
4010 Clouds 15 1028 82 10000 2.1 310 21:55 07.08.2019
4011 Clouds 13 1018 90 0 0.3 109.95 21:36 07.08.2019
4012 Clouds 15 1027 82 10000 2.1 290 21:18 07.08.2019
4013 Clouds 15 1027 82 10000 2.1 290 20:42 07.08.2019
4014 Clouds 15 1027 82 10000 2.1 290 20:23 07.08.2019
4015 Clouds 15 1027 82 10000 2.1 290 19:57 07.08.2019
4016 Clouds 16 1026 77 10000 3.1 310 19:38 07.08.2019
4017 Clouds 16 1026 77 10000 3.1 310 19:20 07.08.2019
4018 Clouds 17 1025 72 10000 2.1 340 18:43 07.08.2019
4019 Clouds 17 1025 72 10000 2.1 340 18:21 07.08.2019
4020 Clouds 17 1025 72 10000 2.1 340 17:58 07.08.2019
4021 Clouds 17 1025 77 10000 4.1 210 17:39 07.08.2019
4022 Clouds 17 1025 77 10000 4.1 210 17:21 07.08.2019
4023 Clouds 17 1025 77 10000 4.1 210 17:21 07.08.2019
4024 Clouds 17 1025 77 10000 4.1 210 16:57 07.08.2019
4025 Clouds 19 1025 63 10000 2.2 213.835 16:39 07.08.2019
4026 Clouds 18 1025 68 10000 2.1 180 16:20 07.08.2019
4027 Clouds 18 1025 68 10000 2.1 180 15:56 07.08.2019
4028 Clouds 18 1025 68 10000 2.1 180 15:37 07.08.2019
4029 Clouds 18 1025 68 10000 2.1 180 15:19 07.08.2019
4030 Rain 19 1012 68 0 3.83 213.52 14:46 07.08.2019
4031 Rain 19 1012 68 0 3.83 213.52 14:27 07.08.2019
4032 Rain 19 1012 68 0 3.83 213.52 13:54 07.08.2019
4033 Clouds 18 1026 72 10000 2.6 170 13:36 07.08.2019
4034 Clouds 18 1026 72 10000 2.6 170 13:18 07.08.2019
4035 Clouds 18 1026 72 10000 2.6 170 12:55 07.08.2019
4036 Clouds 19 1027 63 10000 3.6 200 12:36 07.08.2019
4037 Clouds 19 1027 63 10000 3.6 200 12:18 07.08.2019
4038 Rain 18 1016 71 0 3.52 213.957 11:41 07.08.2019
4039 Clouds 18 1028 72 10000 3.6 180 11:20 07.08.2019
4040 Clouds 18 1028 72 10000 3.6 180 10:56 07.08.2019
4041 Clouds 18 1028 72 10000 3.6 180 10:38 07.08.2019
4042 Clouds 18 1028 68 10000 3.6 180 10:18 07.08.2019
4043 Clouds 18 1028 68 10000 3.6 180 09:44 07.08.2019
4044 Clouds 18 1028 68 10000 3.6 180 09:22 07.08.2019
4045 Clouds 18 1028 68 10000 3.6 180 08:55 07.08.2019
4046 Clouds 17 1028 72 10000 2.1 200 08:37 07.08.2019
4047 Clouds 15 1028 77 10000 1 250 08:19 07.08.2019
4048 Clouds 15 1028 77 10000 1 250 07:39 07.08.2019
4049 Clouds 15 1028 77 10000 1 250 07:20 07.08.2019
4050 Clouds 12 1028 93 10000 0.5 330 06:29 07.08.2019
4051 Clouds 12 1027 93 10000 1 340 05:49 07.08.2019
4052 Clouds 13 1026 87 10000 1 10 04:53 07.08.2019
4053 Clouds 13 1026 87 10000 1 320 03:21 07.08.2019
4054 Clouds 13 1026 87 10000 1 320 02:46 07.08.2019
4055 Mist 13 1027 87 7000 3.1 350 01:58 07.08.2019
4056 Mist 13 1027 87 7000 3.1 350 01:38 07.08.2019
4057 Mist 13 1027 87 8000 2.1 310 00:39 07.08.2019
4058 Clouds 14 1028 82 9000 2.1 330 00:20 07.08.2019
4059 Clouds 14 1028 82 9000 2.1 330 23:41 06.08.2019
4060 Clouds 14 1028 82 9000 2.1 330 23:21 06.08.2019
4061 Clouds 14 1028 82 8000 3.1 290 22:56 06.08.2019
4062 Clouds 14 1028 82 8000 3.1 290 22:37 06.08.2019
4063 Clouds 14 1028 82 8000 3.1 290 22:18 06.08.2019
4064 Clouds 15 1027 77 8000 3.6 280 21:41 06.08.2019
4065 Clouds 16 1027 77 8000 3.6 280 21:21 06.08.2019
4066 Clouds 16 1027 77 8000 3.6 280 20:54 06.08.2019
4067 Clouds 16 1027 77 8000 3.6 280 20:36 06.08.2019
4068 Clouds 17 1027 72 10000 3.1 300 20:18 06.08.2019
4069 Clouds 17 1027 72 10000 3.1 300 19:41 06.08.2019
4070 Clouds 17 1027 72 10000 3.1 300 19:23 06.08.2019
4071 Clouds 17 1027 72 10000 3.1 290 18:45 06.08.2019
4072 Clouds 17 1027 72 10000 3.1 290 18:26 06.08.2019
4073 Clouds 18 1026 72 10000 6.2 240 17:58 06.08.2019
4074 Clouds 18 1026 72 10000 6.2 240 17:38 06.08.2019
4075 Clouds 20 1026 64 10000 7.2 260 17:20 06.08.2019
4076 Clouds 20 1026 64 10000 7.2 260 16:55 06.08.2019
4077 Clouds 20 1026 64 10000 7.2 260 16:37 06.08.2019
4078 Clouds 20 1026 60 10000 4.1 290 16:19 06.08.2019
4079 Clouds 20 1026 60 10000 4.1 290 15:56 06.08.2019
4080 Clouds 20 1026 60 10000 4.1 290 15:38 06.08.2019
4081 Clouds 20 1026 56 10000 7.2 310 15:18 06.08.2019
4082 Clouds 20 1026 56 10000 7.2 310 14:41 06.08.2019
4083 Clouds 20 1026 56 10000 7.2 310 14:41 06.08.2019
4084 Clouds 20 1026 56 10000 7.2 310 14:22 06.08.2019
4085 Clouds 19 1028 59 10000 3.1 290 13:57 06.08.2019
4086 Clouds 19 1028 59 10000 3.1 290 13:38 06.08.2019
4087 Clouds 19 1028 59 10000 3.1 290 13:19 06.08.2019
4088 Clouds 19 1028 59 10000 3.1 290 12:55 06.08.2019
4089 Clouds 19 1028 63 10000 3.1 320 12:36 06.08.2019
4090 Clouds 17 1029 72 10000 3.1 230 12:18 06.08.2019
4091 Clouds 17 1029 72 10000 3.1 230 11:40 06.08.2019
4092 Clouds 17 1029 72 10000 3.1 230 11:40 06.08.2019
4093 Clouds 17 1029 72 10000 3.1 230 11:40 06.08.2019
4094 Clouds 17 1029 72 10000 3.1 230 11:18 06.08.2019
4095 Clouds 16 1030 77 10000 2.1 190 10:41 06.08.2019
4096 Rain 17 1020 72 0 2.33 314.965 10:22 06.08.2019
4097 Rain 17 1020 72 0 2.33 314.965 09:48 06.08.2019
4098 Clouds 14 1030 93 10000 1 30 09:24 06.08.2019
4099 Clouds 14 1030 93 10000 1 30 08:57 06.08.2019
4100 Clouds 14 1030 93 10000 1 30 08:37 06.08.2019
4101 Rain 13 1030 93 6000 3.1 250 08:19 06.08.2019
4102 Rain 13 1030 93 6000 3.1 250 07:35 06.08.2019
4103 Clouds 14 1029 87 10000 3.6 260 06:51 06.08.2019
4104 Clouds 14 1029 87 10000 3.6 260 06:26 06.08.2019
4105 Clouds 13 1028 93 10000 3.1 290 05:47 06.08.2019
4106 Clouds 13 1028 93 10000 3.1 230 02:59 06.08.2019
4107 Rain 13 1018 92 0 1.36 283.137 01:46 06.08.2019
4108 Rain 12 1018 94 0 1 281.007 01:22 06.08.2019
4109 Rain 12 1018 94 0 1 281.007 00:29 06.08.2019
4110 Rain 13 1020 92 0 1.75 310.886 23:40 05.08.2019
4111 Rain 13 1020 92 0 1.75 310.886 23:18 05.08.2019
4112 Rain 13 1020 92 0 1.75 310.886 22:40 05.08.2019
4113 Rain 13 1020 92 0 1.75 310.886 22:22 05.08.2019
4114 Rain 13 1020 92 0 1.75 310.886 21:44 05.08.2019
4115 Clouds 15 1028 82 10000 5.1 260 21:21 05.08.2019
4116 Clouds 15 1028 82 10000 5.1 260 20:59 05.08.2019
4117 Clouds 15 1028 82 10000 5.1 260 20:40 05.08.2019
4118 Clouds 14 1027 87 10000 4.1 250 20:22 05.08.2019
4119 Clouds 14 1027 87 10000 4.1 250 19:59 05.08.2019
4120 Clouds 14 1027 87 10000 4.1 250 19:39 05.08.2019
4121 Clouds 14 1027 87 10000 4.1 250 19:20 05.08.2019
4122 Clouds 14 1027 87 10000 5.1 240 18:43 05.08.2019
4123 Clouds 14 1027 87 10000 5.1 240 18:22 05.08.2019
4124 Clouds 14 1027 87 10000 5.1 240 17:57 05.08.2019
4125 Rain 15 1016 84 0 1.53 280.686 17:39 05.08.2019
4126 Rain 15 1016 84 0 1.53 280.686 17:20 05.08.2019
4127 Rain 15 1016 84 0 1.53 280.686 16:43 05.08.2019
4128 Rain 15 1016 84 0 1.53 280.686 16:23 05.08.2019
4129 Rain 15 1016 84 0 1.53 280.686 15:43 05.08.2019
4130 Clouds 17 1027 67 10000 6.2 240 15:21 05.08.2019
4131 -273 0 0 0 0 0 14:43 05.08.2019
4132 Clouds 17 1027 67 10000 6.2 240 14:23 05.08.2019
4133 Clouds 17 1027 67 10000 6.2 240 13:57 05.08.2019
4134 Rain 14 1016 91 0 1.27 228.056 13:39 05.08.2019
4135 Clouds 18 1028 68 10000 5.7 230 13:18 05.08.2019
4136 Clouds 18 1028 68 10000 5.7 230 12:42 05.08.2019
4137 Clouds 18 1028 68 10000 5.7 230 12:19 05.08.2019
4138 Clouds 17 1029 72 10000 6.2 230 11:44 05.08.2019
4139 Clouds 17 1029 72 10000 6.2 230 11:25 05.08.2019
4140 Clouds 17 1029 72 10000 6.2 250 10:49 05.08.2019
4141 Clouds 17 1029 72 10000 6.2 250 10:31 05.08.2019
4142 Clouds 17 1029 72 10000 6.2 250 09:57 05.08.2019
4143 Clouds 15 1030 82 10000 4.1 190 09:37 05.08.2019
4144 Rain 13 1020 92 0 2.1 186.045 09:19 05.08.2019
4145 Rain 13 1019 91 0 2.1 194.512 08:44 05.08.2019
4146 Rain 13 1019 91 0 2.1 194.512 08:24 05.08.2019
4147 Rain 13 1019 91 0 2.1 194.512 07:48 05.08.2019
4148 Rain 13 1019 91 0 2.1 194.512 07:28 05.08.2019
4149 Rain 13 1019 91 0 2.1 194.512 06:56 05.08.2019
4150 Rain 13 1018 92 0 1.4 219.534 06:21 05.08.2019
4151 Clouds 15 1027 67 10000 4.1 260 05:31 05.08.2019
4152 Clouds 15 1027 67 10000 4.1 260 04:50 05.08.2019
4153 Clouds 14 1027 82 10000 1.4 219.534 03:50 05.08.2019
4154 Rain 13 1017 95 0 1.14 210.524 02:38 05.08.2019
4155 Rain 13 1017 95 0 1.14 210.524 01:47 05.08.2019
4156 Rain 13 1017 93 0 1.21 227.904 01:19 05.08.2019
4157 Rain 13 1017 93 0 1.21 227.904 00:39 05.08.2019
4158 Rain 14 1018 93 0 1.23 210.079 00:19 05.08.2019
4159 Rain 14 1018 93 0 1.23 210.079 23:43 04.08.2019
4160 Rain 14 1018 93 0 1.23 210.079 23:23 04.08.2019
4161 Rain 14 1018 93 0 1.23 210.079 22:57 04.08.2019
4162 Rain 14 1018 93 0 1.23 210.079 22:38 04.08.2019
4163 Rain 14 1018 93 0 1.23 210.079 22:19 04.08.2019
4164 Rain 14 1018 93 0 1.23 210.079 22:19 04.08.2019
4165 Rain 14 1018 93 0 1.23 210.079 22:19 04.08.2019
4166 Rain 14 1018 93 0 1.23 210.079 21:45 04.08.2019
4167 Clouds 15 1027 77 10000 2.1 150 21:24 04.08.2019
4168 Clouds 15 1027 77 10000 2.1 150 20:58 04.08.2019
4169 Clouds 15 1027 77 10000 2.1 150 20:40 04.08.2019
4170 Clouds 15 1027 77 10000 2.1 150 20:18 04.08.2019
4171 Rain 14 1017 90 0 0.19 67.636 19:48 04.08.2019
4172 Rain 14 1017 90 0 0.19 67.636 19:27 04.08.2019
4173 Rain 14 1017 90 0 0.19 67.636 18:57 04.08.2019
4174 Rain 14 1017 90 0 0.19 67.636 18:39 04.08.2019
4175 Clouds 17 1025 77 10000 6.2 200 18:19 04.08.2019
4176 Clouds 17 1025 77 10000 6.2 200 17:41 04.08.2019
4177 Clouds 17 1025 77 10000 6.2 200 17:21 04.08.2019
4178 Rain 16 1013 89 0 0.87 263.587 16:44 04.08.2019
4179 Clouds 19 1024 68 10000 5.7 190 16:26 04.08.2019
4180 Clouds 19 1024 68 10000 5.7 190 15:55 04.08.2019
4181 Clouds 19 1024 68 10000 5.7 190 15:37 04.08.2019
4182 Clouds 19 1024 68 10000 5.7 190 15:37 04.08.2019
4183 Clouds 19 1025 72 10000 4.1 200 15:18 04.08.2019
4184 Clouds 19 1025 72 10000 4.1 200 14:42 04.08.2019
4185 Clouds 19 1025 72 10000 3.6 170 14:20 04.08.2019
4186 Clouds 19 1025 72 10000 3.6 170 13:43 04.08.2019
4187 Clouds 19 1025 72 10000 3.6 170 13:23 04.08.2019
4188 Clouds 18 1027 77 10000 4.6 180 12:47 04.08.2019
4189 Clouds 18 1027 77 10000 4.6 180 12:28 04.08.2019
4190 Clouds 18 1027 77 10000 4.6 180 11:58 04.08.2019
4191 Clouds 18 1027 77 10000 5.1 170 11:39 04.08.2019
4192 Clouds 18 1028 77 10000 3.1 170 11:21 04.08.2019
4193 Clouds 18 1028 77 10000 3.1 170 10:41 04.08.2019
4194 Clouds 18 1028 77 10000 3.1 170 10:21 04.08.2019
4195 Clouds 15 1028 87 10000 2.1 180 09:45 04.08.2019
4196 Clouds 15 1028 87 10000 2.1 180 09:25 04.08.2019
4197 Clouds 15 1028 93 10000 2.1 140 08:53 04.08.2019
4198 Clouds 15 1028 93 10000 2.1 140 08:32 04.08.2019
4199 Clouds 14 1028 93 10000 2.1 110 07:53 04.08.2019
4200 Clouds 14 1028 93 10000 2.1 110 07:22 04.08.2019
4201 Mist 14 1027 93 8000 1 140 06:28 04.08.2019
4202 Clouds 14 1026 93 8000 1.5 20 04:43 04.08.2019
4203 Rain 14 1015 93 0 1.48 200.351 02:47 04.08.2019
4204 Clouds 14 1026 93 10000 1 70 01:44 04.08.2019
4205 Clouds 14 1026 93 10000 1 70 01:25 04.08.2019
4206 Clouds 14 1026 93 10000 2.1 340 00:41 04.08.2019
4207 Rain 14 1016 93 0 0.97 207.989 00:21 04.08.2019
4208 Rain 14 1016 93 0 0.97 207.989 23:41 03.08.2019
4209 Clouds 15 1027 87 10000 1 360 23:19 03.08.2019
4210 Clouds 15 1027 87 10000 1 360 22:55 03.08.2019
4211 Clouds 15 1027 87 10000 1 360 22:37 03.08.2019
4212 Clouds 15 1027 87 10000 1 360 22:18 03.08.2019
4213 Clouds 16 1027 82 10000 2.1 320 21:37 03.08.2019
4214 Clouds 16 1027 82 10000 2.1 320 21:19 03.08.2019
4215 Clouds 14 1026 87 10000 2.1 300 20:42 03.08.2019
4216 Clouds 14 1026 87 10000 2.1 300 20:22 03.08.2019
4217 Rain 14 1026 87 7000 0.5 340 19:43 03.08.2019
4218 Rain 14 1026 87 7000 0.5 340 19:24 03.08.2019
4219 Thunderstorm 14 1025 93 8000 3.1 90 18:56 03.08.2019
4220 Thunderstorm 14 1025 93 8000 3.1 90 18:27 03.08.2019
4221 Clouds 19 1024 72 10000 3.6 230 17:50 03.08.2019
4222 Clouds 19 1024 72 10000 3.6 230 17:22 03.08.2019
4223 Clouds 20 1024 64 10000 1 190 16:57 03.08.2019
4224 Clouds 20 1024 64 10000 1 190 16:37 03.08.2019
4225 Rain 17 1013 86 0 1.87 111.476 16:19 03.08.2019
4226 Rain 17 1013 86 0 1.87 111.476 15:43 03.08.2019
4227 Clouds 19 1025 72 9000 2.6 150 15:23 03.08.2019
4228 Clouds 19 1025 72 9000 2.6 150 14:42 03.08.2019
4229 Clouds 19 1025 72 9000 2.6 150 14:21 03.08.2019
4230 Clouds 19 1025 68 10000 3.6 160 13:52 03.08.2019
4231 Clouds 20 1026 64 10000 3.6 170 13:25 03.08.2019
4232 Clouds 20 1026 64 10000 3.6 170 12:58 03.08.2019
4233 Clouds 20 1026 64 10000 3.6 170 12:39 03.08.2019
4234 Clouds 19 1027 68 10000 4.1 190 12:21 03.08.2019
4235 Clouds 19 1027 68 10000 4.1 190 11:49 03.08.2019
4236 Clouds 19 1027 68 10000 4.1 190 11:27 03.08.2019
4237 Clouds 19 1027 72 10000 4.1 180 10:42 03.08.2019
4238 Clouds 19 1027 72 10000 4.1 180 10:22 03.08.2019
4239 Clouds 18 1028 68 10000 2.6 160 09:42 03.08.2019
4240 Clouds 18 1028 68 10000 2.6 160 09:22 03.08.2019
4241 Clouds 17 1027 72 10000 0.5 310 08:52 03.08.2019
4242 Rain 13 1019 95 0 1.18 144.241 07:55 03.08.2019
4243 Rain 13 1019 95 0 1.18 144.241 07:32 03.08.2019
4244 Rain 13 1019 95 0 1.18 144.241 06:36 03.08.2019
4245 Clouds 14 1026 87 10000 0.56 114.256 04:41 03.08.2019
4246 Clouds 14 1026 87 10000 0.8 171.515 02:38 03.08.2019
4247 Clouds 14 1026 87 10000 2.1 340 01:42 03.08.2019
4248 Rain 13 1016 96 0 0.74 196.39 00:49 03.08.2019
4249 Rain 13 1028 93 7000 4.1 320 23:59 02.08.2019
4250 Rain 13 1028 93 7000 4.1 320 23:40 02.08.2019
4251 Rain 13 1028 93 7000 4.1 320 23:19 02.08.2019
4252 Rain 13 1028 93 7000 4.1 320 22:57 02.08.2019
4253 Clouds 14 1028 93 10000 3.1 310 22:38 02.08.2019
4254 Clouds 14 1028 93 10000 3.1 310 22:19 02.08.2019
4255 Clouds 15 1028 87 10000 2.6 150 21:43 02.08.2019
4256 Clouds 15 1028 87 10000 2.6 150 21:24 02.08.2019
4257 Clouds 15 1028 87 10000 2.6 150 20:57 02.08.2019
4258 Rain 15 1017 88 0 1.34 219.274 20:39 02.08.2019
4259 Clouds 15 1026 87 10000 1.34 219.274 20:20 02.08.2019
4260 Clouds 15 1026 87 10000 1.34 219.274 19:45 02.08.2019
4261 Clouds 15 1026 87 10000 1.34 219.274 19:25 02.08.2019
4262 Rain 15 1017 88 0 1.34 219.274 18:44 02.08.2019
4263 Thunderstorm 16 1026 87 8000 3.1 20 18:25 02.08.2019
4264 Rain 17 1014 84 0 1.7 211.709 17:48 02.08.2019
4265 Thunderstorm 20 1025 68 9000 4.1 190 17:25 02.08.2019
4266 Thunderstorm 20 1025 68 9000 4.1 190 16:58 02.08.2019
4267 Thunderstorm 20 1025 68 9000 4.1 190 16:38 02.08.2019
4268 Rain 17 1014 84 0 1.7 211.709 16:18 02.08.2019
4269 Rain 17 1014 84 0 1.7 211.709 15:39 02.08.2019
4270 Rain 20 1012 66 0 3 230.358 15:19 02.08.2019
4271 Rain 20 1012 66 0 3 230.358 14:46 02.08.2019
4272 Clouds 19 1027 59 10000 2.1 210 14:18 02.08.2019
4273 Clouds 19 1027 59 10000 2.1 210 14:18 02.08.2019
4274 Clouds 19 1027 59 10000 2.1 210 13:48 02.08.2019
4275 Clouds 19 1027 59 10000 2.1 210 13:26 02.08.2019
4276 Clouds 19 1027 63 10000 3.1 234.884 12:45 02.08.2019
4277 Clouds 19 1028 63 10000 4.1 210 12:22 02.08.2019
4278 Clouds 19 1028 63 10000 4.1 210 11:53 02.08.2019
4279 Clouds 19 1028 63 10000 4.1 210 11:34 02.08.2019
4280 Clouds 19 1028 63 10000 4.1 210 10:57 02.08.2019
4281 Clouds 18 1028 72 10000 4.1 200 10:39 02.08.2019
4282 Clouds 19 1029 68 10000 3.1 180 10:20 02.08.2019
4283 Clouds 19 1029 68 10000 3.1 180 09:52 02.08.2019
4284 Clouds 19 1029 68 10000 3.1 180 09:25 02.08.2019
4285 Clouds 16 1029 82 10000 3.1 140 08:49 02.08.2019
4286 Clouds 16 1029 82 10000 3.1 140 08:49 02.08.2019
4287 Clouds 15 1028 82 10000 2.1 270 08:22 02.08.2019
4288 Clouds 15 1028 82 10000 2.1 270 07:50 02.08.2019
4289 Clouds 15 1028 82 10000 2.1 270 07:31 02.08.2019
4290 Rain 16 1018 78 0 1.8 247.744 06:46 02.08.2019
4291 Clouds 12 1027 93 10000 3.1 300 05:52 02.08.2019
4292 Clouds 12 1027 93 10000 3.1 300 05:25 02.08.2019
4293 Clouds 12 1026 93 10000 3.6 360 03:28 02.08.2019
4294 Clouds 13 1027 93 10000 2.1 340 02:33 02.08.2019
4295 Rain 12 1016 92 0 0.47 191.191 00:40 02.08.2019
4296 Clouds 13 1027 93 10000 2.1 360 23:47 01.08.2019
4297 Clouds 13 1027 93 10000 2.1 360 23:28 01.08.2019
4298 Clouds 13 1027 93 10000 2.1 360 22:59 01.08.2019
4299 Clouds 13 1027 93 10000 1 60 22:39 01.08.2019
4300 Clouds 13 1027 93 10000 1 60 22:20 01.08.2019
4301 Clouds 14 1028 93 10000 1 340 21:43 01.08.2019
4302 Clouds 14 1028 93 10000 1 340 21:24 01.08.2019
4303 Clouds 14 1028 93 10000 1 340 20:59 01.08.2019
4304 Clouds 15 1027 87 10000 2.1 240 20:40 01.08.2019
4305 Clouds 15 1027 87 10000 2.1 240 20:21 01.08.2019
4306 Rain 14 1016 86 0 0.44 0.392 19:42 01.08.2019
4307 Clouds 17 1025 77 10000 2.1 130 19:20 01.08.2019
4308 Clouds 17 1025 77 10000 2.1 130 18:44 01.08.2019
4309 Clouds 17 1025 77 10000 2.1 130 18:24 01.08.2019
4310 Clouds 17 1025 77 10000 2.1 130 17:55 01.08.2019
4311 Clouds 17 1025 77 10000 2.6 160 17:36 01.08.2019
4312 Clouds 17 1025 77 10000 3.1 320 17:18 01.08.2019
4313 Clouds 17 1025 77 10000 3.1 320 16:44 01.08.2019
4314 Thunderstorm 19 1026 63 7000 8.7 30 16:21 01.08.2019
4315 Thunderstorm 19 1026 63 7000 8.7 30 15:41 01.08.2019
4316 Clouds 19 1026 63 10000 5.1 320 15:20 01.08.2019
4317 Clouds 19 1026 63 10000 5.1 320 14:43 01.08.2019
4318 Clouds 19 1026 63 10000 5.1 320 14:20 01.08.2019
4319 Clouds 19 1026 63 10000 5.1 320 13:58 01.08.2019
4320 Clouds 21 1026 52 10000 5.1 190 13:40 01.08.2019
4321 Clouds 21 1026 52 10000 5.1 190 13:21 01.08.2019
4322 Clouds 19 1027 68 10000 2.1 190 12:48 01.08.2019
4323 Clouds 19 1027 68 10000 2.1 190 12:27 01.08.2019
4324 Clouds 19 1028 68 10000 4.1 180 11:44 01.08.2019
4325 Clouds 19 1028 68 10000 4.1 180 11:25 01.08.2019
4326 Clouds 18 1028 68 10000 4.1 230 10:57 01.08.2019
4327 Clouds 18 1028 68 10000 4.1 230 10:39 01.08.2019
4328 Clouds 18 1028 68 10000 4.1 230 10:21 01.08.2019
4329 Clouds 18 1028 68 10000 3.1 230 09:45 01.08.2019
4330 Clouds 18 1028 68 10000 3.1 230 09:23 01.08.2019
4331 Clouds 16 1029 82 10000 2.04 222.262 08:48 01.08.2019
4332 Clouds 15 1028 82 10000 2.1 300 08:21 01.08.2019
4333 Clouds 15 1028 82 10000 2.1 300 07:52 01.08.2019
4334 Clouds 15 1028 82 10000 2.1 300 07:29 01.08.2019
4335 Rain 15 1018 86 0 2.04 222.262 06:49 01.08.2019
4336 Clouds 12 1027 100 10000 1.5 160 06:29 01.08.2019
4337 Clouds 12 1027 100 10000 1.5 160 05:31 01.08.2019
4338 Clouds 13 1026 100 10000 2.1 280 02:35 01.08.2019
4339 Mist 14 1027 93 8000 1 220 00:55 01.08.2019
4340 Mist 14 1027 93 8000 1 220 00:26 01.08.2019
4341 Mist 14 1027 100 6000 0.39 176.488 23:57 31.07.2019
4342 Mist 14 1027 100 6000 0.39 176.488 23:39 31.07.2019
4343 Mist 14 1027 93 6000 0.39 176.488 23:19 31.07.2019
4344 Mist 14 1027 93 6000 0.39 176.488 22:44 31.07.2019
4345 Mist 14 1027 93 6000 0.39 176.488 22:24 31.07.2019
4346 Rain 14 1017 85 0 0.39 176.488 21:40 31.07.2019
4347 Rain 14 1016 85 0 0.82 42.269 21:22 31.07.2019
4348 Rain 14 1016 85 0 0.82 42.269 20:49 31.07.2019
4349 Rain 14 1016 85 0 0.82 42.269 20:49 31.07.2019
4350 Rain 14 1016 85 0 0.82 42.269 20:23 31.07.2019
4351 Rain 14 1016 85 0 0.82 42.269 19:48 31.07.2019
4352 Rain 14 1016 85 0 0.82 42.269 19:29 31.07.2019
4353 Rain 14 1016 85 0 0.82 42.269 18:55 31.07.2019
4354 Clouds 15 1023 87 9000 3.1 30 18:37 31.07.2019
4355 Clouds 15 1023 87 9000 3.1 30 18:18 31.07.2019
4356 Clouds 15 1023 87 9000 3.1 30 17:43 31.07.2019
4357 Rain 14 1023 93 4000 2.6 130 17:20 31.07.2019
4358 Rain 14 1023 93 4000 2.6 130 16:48 31.07.2019
4359 Rain 14 1023 87 4000 6.2 350 16:21 31.07.2019
4360 Rain 14 1023 87 4000 6.2 350 15:54 31.07.2019
4361 Rain 14 1023 87 4000 6.2 350 15:36 31.07.2019
4362 Clouds 18 1023 68 10000 5.1 10 15:18 31.07.2019
4363 Clouds 18 1023 68 10000 5.1 10 14:42 31.07.2019
4364 Clouds 18 1023 68 10000 5.1 10 14:42 31.07.2019
4365 Clouds 20 1023 64 10000 2.1 140 14:19 31.07.2019
4366 Rain 19 1012 71 0 2.16 217.39 13:45 31.07.2019
4367 Rain 19 1012 67 0 1.72 200.968 13:27 31.07.2019
4368 Rain 19 1012 67 0 1.72 200.968 12:58 31.07.2019
4369 Rain 19 1012 67 0 1.72 200.968 12:40 31.07.2019
4370 Clouds 19 1026 68 10000 3.1 150 12:21 31.07.2019
4371 Rain 17 1015 78 0 3.07 234.985 11:39 31.07.2019
4372 Rain 17 1015 78 0 3.07 234.985 11:20 31.07.2019
4373 Rain 17 1015 78 0 3.07 234.985 10:45 31.07.2019
4374 Rain 17 1015 78 0 3.07 234.985 10:21 31.07.2019
4375 Rain 17 1015 78 0 3.07 234.985 09:58 31.07.2019
4376 Rain 17 1015 78 0 3.07 234.985 09:39 31.07.2019
4377 Rain 13 1017 94 0 0.45 261.263 09:21 31.07.2019
4378 Rain 13 1017 89 0 0.35 237.629 08:42 31.07.2019
4379 Mist 14 1026 87 9000 2.1 60 08:22 31.07.2019
4380 Mist 14 1026 87 9000 2.1 60 07:40 31.07.2019
4381 Mist 14 1026 87 9000 2.1 60 07:22 31.07.2019
4382 Rain 13 1016 93 0 1.26 142.376 04:56 31.07.2019
4383 Clouds 14 1024 87 10000 5.1 310 03:29 31.07.2019
4384 Rain 13 1014 91 0 0.1 267.709 00:30 31.07.2019
4385 Rain 13 1016 89 0 0.46 223.152 23:42 30.07.2019
4386 Rain 13 1016 89 0 0.46 223.152 23:20 30.07.2019
4387 Rain 13 1016 89 0 0.46 223.152 22:46 30.07.2019
4388 Clouds 16 1025 82 10000 0.46 223.152 22:25 30.07.2019
4389 Clouds 16 1025 82 10000 0.46 223.152 21:57 30.07.2019
4390 Clouds 16 1025 82 10000 0.46 223.152 21:37 30.07.2019
4391 Clouds 16 1025 82 10000 1.24 293.775 21:18 30.07.2019
4392 Rain 15 1014 86 0 1.09 324.462 20:43 30.07.2019
4393 Rain 15 1014 86 0 1.09 324.462 20:24 30.07.2019
4394 Rain 15 1014 86 0 1.09 324.462 19:59 30.07.2019
4395 Rain 15 1014 86 0 1.09 324.462 19:40 30.07.2019
4396 Clouds 18 1023 68 10000 2.1 220 19:18 30.07.2019
4397 Clouds 18 1023 68 10000 2.1 220 18:43 30.07.2019
4398 Clouds 18 1023 68 10000 2.1 220 18:19 30.07.2019
4399 Rain 17 1011 81 0 0.53 221.714 17:42 30.07.2019
4400 Rain 17 1011 81 0 0.53 221.714 17:20 30.07.2019
4401 Rain 17 1011 81 0 0.53 221.714 16:53 30.07.2019
4402 Clouds 20 1022 64 10000 4.1 180 16:22 30.07.2019
4403 Clouds 20 1022 64 10000 4.1 180 15:58 30.07.2019
4404 Clouds 20 1022 64 10000 4.1 180 15:38 30.07.2019
4405 Clouds 20 1022 64 10000 4.1 180 15:19 30.07.2019
4406 Rain 19 1011 71 0 1.55 211.153 14:42 30.07.2019
4407 Rain 19 1011 71 0 1.55 211.153 14:21 30.07.2019
4408 Clouds 19 1024 59 10000 4.1 180 13:48 30.07.2019
4409 Clouds 19 1024 59 10000 4.1 180 13:29 30.07.2019
4410 Clouds 18 1025 59 10000 2.1 190 12:59 30.07.2019
4411 Clouds 18 1025 59 10000 2.1 190 12:40 30.07.2019
4412 Clouds 18 1025 59 10000 2.1 190 12:22 30.07.2019
4413 -273 0 0 0 0 0 11:44 30.07.2019
4414 Clouds 18 1026 59 10000 1 210 11:21 30.07.2019
4415 Clouds 18 1026 59 10000 1 210 10:55 30.07.2019
4416 Clouds 17 1027 67 10000 2.1 260 10:37 30.07.2019
4417 Clouds 17 1027 67 10000 2.1 260 10:18 30.07.2019
4418 Rain 19 1014 69 0 2.34 222.571 09:44 30.07.2019
4419 Rain 13 1028 87 8000 1.63 231.637 09:24 30.07.2019
4420 Rain 13 1028 87 8000 1.63 231.637 09:24 30.07.2019
4421 Rain 13 1028 87 8000 1.63 231.637 08:32 30.07.2019
4422 Rain 13 1028 87 9000 2.6 40 07:52 30.07.2019
4423 Rain 13 1028 87 9000 2.6 40 07:34 30.07.2019
4424 Rain 13 1027 82 6000 5.1 40 06:50 30.07.2019
4425 Rain 13 1027 82 6000 5.1 40 06:31 30.07.2019
4426 Rain 13 1026 93 7000 5.1 100 05:34 30.07.2019
4427 Rain 13 1024 93 7000 1 160 03:29 30.07.2019
4428 Clouds 14 1025 87 10000 2.6 230 01:22 30.07.2019
4429 Clouds 14 1025 87 10000 2.6 230 00:26 30.07.2019
4430 Clouds 14 1025 87 10000 2.6 230 23:57 29.07.2019
4431 Rain 14 1015 89 0 0.91 224.329 23:38 29.07.2019
4432 Rain 14 1015 89 0 0.91 224.329 23:19 29.07.2019
4433 Rain 14 1015 89 0 0.91 224.329 22:54 29.07.2019
4434 Rain 14 1015 89 0 0.91 224.329 22:36 29.07.2019
4435 Clouds 15 1025 93 10000 1 310 22:36 29.07.2019
4436 Clouds 15 1025 93 10000 1 310 22:18 29.07.2019
4437 Clouds 15 1025 93 10000 1 310 21:41 29.07.2019
4438 Rain 14 1014 87 0 0.72 322.09 21:23 29.07.2019
4439 Rain 14 1014 87 0 0.72 322.09 20:55 29.07.2019
4440 Rain 14 1014 87 0 0.72 322.09 20:37 29.07.2019
4441 Clouds 16 1025 93 10000 2.1 180 20:19 29.07.2019
4442 Clouds 16 1025 93 10000 2.1 180 19:42 29.07.2019
4443 Clouds 16 1025 93 10000 2.1 180 19:21 29.07.2019
4444 Rain 14 1014 87 0 0.72 322.09 18:43 29.07.2019
4445 Rain 17 1023 77 10000 3.1 230 18:23 29.07.2019
4446 Rain 17 1023 77 10000 3.1 230 17:57 29.07.2019
4447 Rain 17 1023 77 10000 3.1 230 17:39 29.07.2019
4448 Rain 17 1012 84 0 1.97 231.381 17:20 29.07.2019
4449 Rain 17 1012 84 0 1.97 231.381 16:43 29.07.2019
4450 Clouds 19 1024 63 10000 4.6 190 16:23 29.07.2019
4451 Clouds 19 1024 63 10000 4.6 190 15:53 29.07.2019
4452 Clouds 19 1024 63 10000 4.6 190 15:35 29.07.2019
4453 Rain 18 1011 77 0 2.4 206.17 14:57 29.07.2019
4454 Rain 18 1011 77 0 2.4 206.17 14:38 29.07.2019
4455 Rain 18 1011 77 0 2.4 206.17 14:20 29.07.2019
4456 Rain 18 1011 77 0 2.4 206.17 13:43 29.07.2019
4457 Rain 19 1011 74 0 2.08 209.172 13:23 29.07.2019
4458 Rain 19 1011 74 0 2.08 209.172 12:43 29.07.2019
4459 Rain 18 1014 78 0 2.41 206.183 12:24 29.07.2019
4460 Clouds 15 1028 87 10000 2.1 190 11:44 29.07.2019
4461 Clouds 15 1028 87 10000 2.1 190 11:23 29.07.2019
4462 Clouds 15 1028 87 10000 2.1 190 10:57 29.07.2019
4463 Clouds 15 1028 87 10000 2.1 190 10:56 29.07.2019
4464 Clouds 15 1028 87 10000 2.1 190 10:38 29.07.2019
4465 Rain 15 1028 82 6000 2.1 150 10:19 29.07.2019
4466 Rain 15 1028 82 6000 2.1 150 09:38 29.07.2019
4467 Rain 14 1028 87 5000 2.1 100 09:19 29.07.2019
4468 Rain 14 1028 87 5000 2.1 100 08:36 29.07.2019
4469 Rain 14 1028 87 5000 2.1 100 08:18 29.07.2019
4470 Rain 15 1016 90 0 1.28 210.933 07:41 29.07.2019
4471 Clouds 14 1026 93 6000 1.5 80 07:20 29.07.2019
4472 Clouds 14 1025 87 10000 3.1 90 05:47 29.07.2019
4473 Clouds 14 1025 87 10000 3.1 90 04:53 29.07.2019
4474 Clouds 14 1023 87 10000 4.1 290 02:26 29.07.2019
4475 Clouds 14 1023 87 4000 3.1 280 01:43 29.07.2019
4476 Clouds 14 1023 87 4000 3.1 280 01:22 29.07.2019
4477 Rain 13 1014 95 0 0.67 210.17 00:43 29.07.2019
4478 Rain 14 1025 93 4000 2.1 230 00:20 29.07.2019
4479 Rain 14 1025 93 4000 2.1 230 23:41 28.07.2019
4480 Rain 14 1025 93 4000 2.1 230 23:18 28.07.2019
4481 Rain 15 1025 93 4000 3.1 280 22:40 28.07.2019
4482 Rain 15 1025 93 4000 3.1 280 22:22 28.07.2019
4483 Clouds 15 1025 87 6000 1 20 21:48 28.07.2019
4484 Clouds 15 1024 93 6000 1 280 21:19 28.07.2019
4485 Clouds 15 1024 93 6000 1 280 20:48 28.07.2019
4486 Clouds 15 1024 93 6000 1 280 20:29 28.07.2019
4487 Rain 15 1014 91 0 1.85 288.915 19:54 28.07.2019
4488 Rain 15 1014 91 0 1.85 288.915 19:36 28.07.2019
4489 Rain 15 1014 91 0 1.85 288.915 19:18 28.07.2019
4490 Rain 15 1014 91 0 1.85 288.915 18:42 28.07.2019
4491 Clouds 15 1022 87 4000 5.1 320 18:19 28.07.2019
4492 Clouds 15 1022 87 4000 5.1 320 17:42 28.07.2019
4493 Rain 16 1010 89 0 1.6 287.459 17:22 28.07.2019
4494 Rain 16 1010 89 0 1.6 287.459 16:57 28.07.2019
4495 Rain 16 1010 89 0 1.6 287.459 16:39 28.07.2019
4496 Rain 13 1021 100 3000 8.2 320 16:20 28.07.2019
4497 Rain 13 1021 100 3000 8.2 320 15:43 28.07.2019
4498 Rain 13 1021 100 3000 8.2 320 15:21 28.07.2019
4499 Rain 20 1022 68 5000 3.6 210 14:37 28.07.2019
4500 Rain 20 1022 68 5000 3.6 210 14:37 28.07.2019
4501 Rain 20 1022 68 5000 3.6 210 14:37 28.07.2019
4502 Rain 20 1022 68 5000 3.6 210 14:37 28.07.2019
4503 Rain 19 1009 71 0 1.8 153.264 14:19 28.07.2019
4504 Rain 19 1009 71 0 1.8 153.264 13:45 28.07.2019
4505 Clouds 20 1024 68 10000 4.1 180 13:25 28.07.2019
4506 Clouds 20 1024 68 10000 4.1 180 12:59 28.07.2019
4507 Clouds 20 1024 68 10000 4.1 180 12:40 28.07.2019
4508 Clouds 20 1024 68 10000 4.1 180 12:22 28.07.2019
4509 Clouds 19 1025 72 10000 4.1 180 11:47 28.07.2019
4510 Clouds 19 1025 72 10000 4.1 180 11:27 28.07.2019
4511 Clouds 18 1025 77 10000 4.1 170 10:41 28.07.2019
4512 Clouds 18 1025 77 10000 4.1 170 10:22 28.07.2019
4513 Clouds 17 1026 82 10000 3.1 170 09:45 28.07.2019
4514 Clouds 17 1026 82 10000 3.1 170 09:27 28.07.2019
4515 Clouds 16 1026 82 10000 4.1 240 08:52 28.07.2019
4516 Clouds 16 1026 82 10000 4.1 240 08:29 28.07.2019
4517 Clouds 14 1025 93 10000 4.1 250 07:57 28.07.2019
4518 Clouds 14 1025 93 10000 4.1 250 07:37 28.07.2019
4519 Rain 16 1015 80 0 1.21 136.707 06:42 28.07.2019
4520 Clouds 14 1024 93 10000 1 150 05:27 28.07.2019
4521 Clouds 14 1023 93 10000 1 340 03:30 28.07.2019
4522 Clouds 14 1013 84 0 1.66 347.299 02:23 28.07.2019
4523 Clouds 15 1024 87 10000 3.1 280 01:19 28.07.2019
4524 Clouds 15 1024 87 10000 3.1 280 00:45 28.07.2019
4525 Clouds 14 1024 100 10000 2.1 350 00:18 28.07.2019
4526 Clouds 15 1014 83 0 1.6 341.928 23:46 27.07.2019
4527 Clouds 14 1024 100 10000 2.1 260 23:20 27.07.2019
4528 Clouds 14 1024 100 10000 2.1 260 22:41 27.07.2019
4529 Clouds 15 1024 93 10000 3.1 290 22:20 27.07.2019
4530 Clouds 15 1024 93 10000 3.1 290 21:41 27.07.2019
4531 Rain 14 1014 83 0 1.87 27.769 21:20 27.07.2019
4532 Rain 14 1014 84 0 1.66 15.183 20:51 27.07.2019
4533 Rain 14 1014 84 0 1.66 15.183 20:25 27.07.2019
4534 Rain 14 1014 84 0 1.66 15.183 19:46 27.07.2019
4535 Clouds 16 1023 82 10000 2.1 270 19:27 27.07.2019
4536 Clouds 16 1023 82 10000 2.1 270 18:55 27.07.2019
4537 Clouds 16 1023 82 10000 2.1 270 18:36 27.07.2019
4538 Clouds 16 1023 82 10000 2.1 100 17:57 27.07.2019
4539 Clouds 16 1023 82 10000 2.1 100 17:57 27.07.2019
4540 Clouds 16 1023 82 10000 2.1 100 17:36 27.07.2019
4541 Clouds 16 1023 82 10000 2.1 100 17:18 27.07.2019
4542 Rain 16 1011 81 0 2.13 48.606 16:46 27.07.2019
4543 Clouds 17 1023 72 9000 4.1 60 16:28 27.07.2019
4544 Clouds 17 1023 72 9000 4.1 60 15:53 27.07.2019
4545 Clouds 17 1023 72 9000 4.1 60 15:22 27.07.2019
4546 Rain 19 1011 69 0 4.12 35.699 14:51 27.07.2019
4547 Clouds 18 1024 72 9000 3.1 140 14:32 27.07.2019
4548 Clouds 18 1024 72 9000 3.1 140 13:56 27.07.2019
4549 Clouds 18 1024 72 9000 3.1 140 13:38 27.07.2019
4550 Clouds 18 1025 72 10000 2.1 200 13:19 27.07.2019
4551 Clouds 18 1025 72 10000 2.1 200 12:41 27.07.2019
4552 Clouds 18 1025 72 10000 2.1 200 12:21 27.07.2019
4553 Clouds 17 1025 77 10000 3.1 220 11:42 27.07.2019
4554 Clouds 17 1025 77 10000 3.1 220 11:24 27.07.2019
4555 Rain 17 1014 79 0 1.97 278.921 10:42 27.07.2019
4556 Rain 17 1014 79 0 1.97 278.921 10:23 27.07.2019
4557 Rain 17 1014 79 0 1.97 278.921 09:45 27.07.2019
4558 Clouds 15 1026 82 10000 3.1 260 09:26 27.07.2019
4559 Clouds 15 1026 82 10000 3.1 260 08:58 27.07.2019
4560 Clouds 15 1026 82 10000 3.1 260 08:40 27.07.2019
4561 Clouds 15 1026 82 10000 3.1 260 08:20 27.07.2019
4562 Clouds 15 1016 88 0 1.56 248.021 07:41 27.07.2019
4563 Clouds 15 1016 88 0 1.56 248.021 07:20 27.07.2019
4564 Clouds 15 1016 88 0 1.56 248.021 06:50 27.07.2019
4565 Clouds 13 1014 94 0 0.6 252.771 06:22 27.07.2019
4566 Clouds 13 1014 94 0 0.6 252.771 05:35 27.07.2019
4567 Clouds 13 1014 94 0 0.6 252.771 04:46 27.07.2019
4568 Clouds 14 1023 87 10000 2.1 300 03:46 27.07.2019
4569 Clouds 14 1023 82 10000 3.1 280 02:43 27.07.2019
4570 Clouds 14 1023 87 10000 2.6 280 01:57 27.07.2019
4571 Clouds 14 1023 87 10000 2.6 280 01:57 27.07.2019
4572 Clouds 14 1023 87 10000 2.6 280 01:32 27.07.2019
4573 Clouds 13 1014 95 0 1.19 294.866 00:38 27.07.2019
4574 Rain 13 1015 95 0 1.42 299.71 00:19 27.07.2019
4575 Rain 13 1015 95 0 1.42 299.71 23:42 26.07.2019
4576 Clouds 14 1025 93 10000 3.6 280 23:23 26.07.2019
4577 Clouds 14 1025 93 10000 3.6 280 22:43 26.07.2019
4578 Clouds 14 1025 93 10000 3.6 280 22:25 26.07.2019
4579 Clouds 14 1025 87 10000 3.6 260 21:52 26.07.2019
4580 Clouds 14 1024 93 10000 3.1 230 21:20 26.07.2019
4581 Clouds 14 1024 93 10000 3.1 230 20:52 26.07.2019
4582 Clouds 14 1024 93 10000 3.1 230 20:33 26.07.2019
4583 Clouds 14 1024 93 10000 3.1 230 19:55 26.07.2019
4584 Clouds 14 1024 87 10000 4.1 250 19:36 26.07.2019
4585 Clouds 14 1024 87 10000 4.1 250 19:18 26.07.2019
4586 Clouds 14 1024 87 10000 4.1 250 18:41 26.07.2019
4587 Clouds 14 1024 87 10000 4.1 250 18:21 26.07.2019
4588 Clouds 14 1024 87 10000 4.1 250 17:56 26.07.2019
4589 Clouds 14 1024 93 10000 4.1 240 17:37 26.07.2019
4590 Clouds 14 1024 93 10000 4.1 240 17:18 26.07.2019
4591 Clouds 14 1024 93 10000 4.1 240 16:54 26.07.2019
4592 Rain 15 1013 92 0 0.41 104.708 16:36 26.07.2019
4593 Rain 15 1013 92 0 0.41 104.708 16:18 26.07.2019
4594 Rain 15 1013 92 0 0.41 104.708 15:44 26.07.2019
4595 Rain 14 1025 100 6000 5.1 240 15:21 26.07.2019
4596 Rain 14 1025 100 6000 5.1 240 14:45 26.07.2019
4597 Rain 14 1026 93 6000 3.1 210 14:25 26.07.2019
4598 Rain 14 1026 93 6000 3.1 210 13:48 26.07.2019
4599 Rain 14 1026 93 6000 3.1 210 13:29 26.07.2019
4600 Rain 14 1026 93 1000 2.6 230 12:55 26.07.2019
4601 Rain 14 1026 93 9000 2.39 261.15 12:36 26.07.2019
4602 Rain 14 1027 93 9000 3.1 220 12:18 26.07.2019
4603 Rain 14 1027 93 9000 3.1 220 11:38 26.07.2019
4604 Rain 14 1027 87 9000 2.1 210 11:18 26.07.2019
4605 Rain 14 1027 87 9000 2.1 210 10:47 26.07.2019
4606 Rain 14 1027 87 9000 2.1 210 10:28 26.07.2019
4607 Rain 14 1027 87 9000 2.1 210 09:53 26.07.2019
4608 Rain 15 1015 90 0 1.83 192.071 09:34 26.07.2019
4609 Rain 14 1017 93 0 0.87 226.901 08:42 26.07.2019
4610 Rain 14 1026 93 5000 3.1 260 08:21 26.07.2019
4611 Rain 14 1026 93 5000 3.1 260 07:54 26.07.2019
4612 Rain 14 1026 93 5000 3.1 260 07:27 26.07.2019
4613 Rain 14 1017 93 0 0.87 226.901 06:41 26.07.2019
4614 Clouds 15 1024 93 10000 4.1 250 04:50 26.07.2019
4615 Clouds 15 1024 93 10000 4.1 250 04:21 26.07.2019
4616 Rain 15 1024 93 10000 3.1 250 02:25 26.07.2019
4617 Clouds 16 1024 87 6000 4.1 280 01:31 26.07.2019
4618 Clouds 16 1024 87 6000 4.1 280 00:33 26.07.2019
4619 Rain 15 1025 87 6000 4.1 270 23:55 25.07.2019
4620 Rain 15 1025 87 6000 4.1 270 23:23 25.07.2019
4621 Rain 14 1014 85 0 0.99 26.073 22:42 25.07.2019
4622 Clouds 16 1025 82 6000 3.1 290 22:24 25.07.2019
4623 Clouds 16 1025 82 6000 3.1 290 21:58 25.07.2019
4624 Clouds 16 1025 82 6000 3.1 290 21:58 25.07.2019
4625 Clouds 16 1025 82 6000 3.1 290 21:40 25.07.2019
4626 Clouds 16 1024 87 6000 2.1 290 21:20 25.07.2019
4627 Clouds 16 1024 87 6000 2.1 290 21:20 25.07.2019
4628 Clouds 16 1024 87 6000 2.1 290 20:41 25.07.2019
4629 Clouds 16 1024 87 6000 2.1 290 20:21 25.07.2019
4630 Clouds 16 1024 87 6000 2.6 290 19:42 25.07.2019
4631 Clouds 16 1024 87 6000 2.6 290 19:23 25.07.2019
4632 Rain 15 1013 86 0 1.65 13.133 18:45 25.07.2019
4633 Rain 15 1013 86 0 1.65 13.133 18:27 25.07.2019
4634 Rain 18 1010 82 0 0.55 240.41 17:57 25.07.2019
4635 Rain 18 1010 82 0 0.55 240.41 17:38 25.07.2019
4636 Rain 18 1010 82 0 0.55 240.41 17:38 25.07.2019
4637 Rain 18 1010 82 0 0.55 240.41 17:20 25.07.2019
4638 Rain 18 1010 82 0 0.55 240.41 16:42 25.07.2019
4639 Rain 18 1010 82 0 0.55 240.41 16:22 25.07.2019
4640 Rain 18 1010 82 0 0.55 240.41 15:51 25.07.2019
4641 Rain 21 1010 66 0 0.09 215.611 15:21 25.07.2019
4642 Rain 21 1010 66 0 0.09 215.611 14:44 25.07.2019
4643 Rain 21 1010 66 0 0.09 215.611 14:25 25.07.2019
4644 Rain 21 1010 66 0 0.09 215.611 13:59 25.07.2019
4645 Clouds 20 1024 72 10000 4.6 200 13:37 25.07.2019
4646 Clouds 20 1024 72 10000 4.6 200 13:19 25.07.2019
4647 Clouds 20 1024 72 10000 4.6 200 12:35 25.07.2019
4648 Clouds 20 1024 72 10000 4.6 200 11:59 25.07.2019
4649 Clouds 19 1025 72 10000 3.6 180 11:40 25.07.2019
4650 Clouds 19 1025 72 10000 3.6 180 11:40 25.07.2019
4651 Clouds 19 1025 72 10000 3.6 180 11:22 25.07.2019
4652 Rain 19 1013 73 0 2.43 243.424 10:45 25.07.2019
4653 Clouds 18 1026 77 10000 3.1 190 10:24 25.07.2019
4654 Clouds 18 1026 77 10000 3.1 190 09:46 25.07.2019
4655 Clouds 18 1026 77 10000 3.1 190 09:27 25.07.2019
4656 Clouds 17 1026 82 10000 3.1 230 08:49 25.07.2019
4657 Clouds 17 1026 82 10000 3.1 230 08:29 25.07.2019
4658 Clouds 16 1026 87 10000 3.1 240 07:40 25.07.2019
4659 Clouds 13 1025 100 10000 1.84 236.129 06:46 25.07.2019
4660 Clouds 13 1025 100 10000 0.55 51.422 06:19 25.07.2019
4661 Clouds 14 1024 93 10000 2.6 260 05:34 25.07.2019
4662 Clouds 12 1015 91 0 0.55 51.422 04:45 25.07.2019
4663 Clouds 15 1024 87 10000 2.1 280 02:26 25.07.2019
4664 Clouds 15 1024 87 10000 2.1 280 01:21 25.07.2019
4665 Clouds 15 1025 87 10000 2.1 250 00:31 25.07.2019
4666 Clouds 15 1025 87 10000 2.1 250 23:56 24.07.2019
4667 Clouds 15 1025 87 10000 2.1 250 23:38 24.07.2019
4668 Clouds 15 1025 87 10000 2.1 250 23:19 24.07.2019
4669 Clouds 15 1025 87 10000 2.1 20 22:44 24.07.2019
4670 Clouds 15 1025 87 10000 0.39 332.84 22:22 24.07.2019
4671 Clouds 15 1025 87 10000 0.39 332.84 21:55 24.07.2019
4672 Rain 14 1015 82 0 0.39 332.84 21:37 24.07.2019
4673 Clouds 15 1024 87 10000 2.1 220 21:18 24.07.2019
4674 Rain 14 1013 84 0 1.23 357.014 20:40 24.07.2019
4675 Rain 14 1013 84 0 1.23 357.014 20:22 24.07.2019
4676 Rain 14 1013 84 0 1.23 357.014 19:57 24.07.2019
4677 Rain 14 1013 84 0 1.23 357.014 19:39 24.07.2019
4678 Rain 14 1013 84 0 1.23 357.014 19:19 24.07.2019
4679 Rain 14 1013 84 0 1.23 357.014 18:42 24.07.2019
4680 Clouds 18 1023 77 10000 3.1 150 18:23 24.07.2019
4681 Clouds 18 1023 77 10000 3.1 150 17:46 24.07.2019
4682 Clouds 18 1023 77 10000 3.1 150 17:20 24.07.2019
4683 Rain 18 1010 81 0 0.12 342.824 16:43 24.07.2019
4684 Clouds 17 1022 82 10000 3.1 220 16:23 24.07.2019
4685 Clouds 17 1022 82 10000 3.1 220 15:58 24.07.2019
4686 Clouds 17 1022 82 10000 3.1 220 15:36 24.07.2019
4687 Clouds 17 1022 82 10000 3.1 220 15:18 24.07.2019
4688 Clouds 17 1023 82 10000 3.1 250 14:43 24.07.2019
4689 Clouds 17 1023 82 10000 3.1 250 14:19 24.07.2019
4690 Clouds 15 1025 87 10000 2.1 200 13:38 24.07.2019
4691 Rain 19 1011 71 0 1.31 228.279 13:19 24.07.2019
4692 Rain 19 1011 71 0 1.31 228.279 12:51 24.07.2019
4693 Rain 14 1026 93 8000 2.1 200 12:33 24.07.2019
4694 Rain 14 1026 93 8000 2.1 200 11:40 24.07.2019
4695 Rain 14 1026 93 8000 2.1 200 11:21 24.07.2019
4696 Rain 14 1026 93 8000 4.1 220 10:46 24.07.2019
4697 Rain 14 1026 93 8000 4.1 220 10:26 24.07.2019
4698 Rain 14 1027 93 9000 3.1 120 09:52 24.07.2019
4699 Rain 14 1027 93 9000 3.1 120 09:26 24.07.2019
4700 Rain 14 1027 93 9000 3.1 120 08:58 24.07.2019
4701 Rain 14 1025 93 8000 3.1 210 08:32 24.07.2019
4702 Rain 14 1025 93 8000 3.1 210 07:52 24.07.2019
4703 Rain 14 1025 93 8000 3.1 210 07:31 24.07.2019
4704 Rain 14 1017 88 0 1.03 3.242 06:36 24.07.2019
4705 Rain 14 1017 88 0 1.03 3.242 06:36 24.07.2019
4706 Rain 16 1024 72 0 3.1 330 05:56 24.07.2019
4707 Clouds 15 1023 82 10000 5.1 270 02:56 24.07.2019
4708 Clouds 15 1023 82 10000 6.2 290 01:44 24.07.2019
4709 Clouds 12 1013 91 0 1.32 300.635 00:57 24.07.2019
4710 Clouds 13 1015 88 0 1.07 319.016 00:24 24.07.2019
4711 Clouds 14 1025 93 10000 4.1 300 23:46 23.07.2019
4712 Clouds 14 1025 93 10000 4.1 300 23:25 23.07.2019
4713 Clouds 14 1025 93 10000 4.1 300 22:56 23.07.2019
4714 Clouds 14 1025 93 10000 4.1 290 22:36 23.07.2019
4715 Clouds 13 1015 88 0 1.07 319.016 22:18 23.07.2019
4716 Clouds 13 1015 88 0 1.07 319.016 22:18 23.07.2019
4717 Clouds 13 1015 88 0 1.07 319.016 21:43 23.07.2019
4718 Rain 14 1014 87 0 2.43 354.191 21:25 23.07.2019
4719 Rain 15 1014 86 0 1.36 35.978 20:48 23.07.2019
4720 Rain 15 1014 86 0 1.36 35.978 20:29 23.07.2019
4721 Rain 15 1014 86 0 1.36 35.978 19:43 23.07.2019
4722 Rain 17 1023 72 5000 2.6 310 19:24 23.07.2019
4723 Rain 17 1023 72 5000 2.6 310 18:55 23.07.2019
4724 Rain 17 1023 72 5000 2.6 310 18:37 23.07.2019
4725 Rain 18 1010 78 0 0.21 326.233 18:19 23.07.2019
4726 Rain 18 1010 78 0 0.21 326.233 17:41 23.07.2019
4727 Rain 18 1023 63 6000 4.1 40 17:20 23.07.2019
4728 Rain 18 1023 63 6000 4.1 40 16:42 23.07.2019
4729 Haze 21 1022 60 6000 4.1 120 16:24 23.07.2019
4730 Haze 21 1022 60 6000 4.1 120 15:48 23.07.2019
4731 Haze 21 1022 60 6000 4.1 120 15:29 23.07.2019
4732 Haze 20 1023 64 6000 3.1 140 14:41 23.07.2019
4733 Haze 20 1023 64 6000 3.1 140 14:23 23.07.2019
4734 Haze 20 1023 64 6000 3.1 140 14:00 23.07.2019
4735 Clouds 20 1023 64 10000 4.1 200 13:41 23.07.2019
4736 Clouds 20 1023 64 10000 4.1 200 13:23 23.07.2019
4737 Clouds 19 1024 59 10000 5.1 210 12:49 23.07.2019
4738 Clouds 19 1024 59 10000 5.1 210 12:28 23.07.2019
4739 Clouds 19 1025 59 0 5.7 250 11:59 23.07.2019
4740 Clouds 19 1025 59 0 5.7 250 11:40 23.07.2019
4741 Clouds 18 1026 59 8000 5.1 270 11:20 23.07.2019
4742 Clouds 18 1026 59 8000 5.1 270 10:42 23.07.2019
4743 Clouds 18 1026 59 8000 5.1 270 10:22 23.07.2019
4744 Mist 16 1026 72 8000 4.1 270 09:42 23.07.2019
4745 Clouds 14 1017 86 0 1.91 262.074 09:20 23.07.2019
4746 Rain 13 1017 91 0 2.04 268.679 08:44 23.07.2019
4747 Rain 13 1017 91 0 2.04 268.679 08:20 23.07.2019
4748 Rain 13 1017 91 0 2.04 268.679 07:56 23.07.2019
4749 Rain 13 1017 91 0 2.04 268.679 07:36 23.07.2019
4750 Rain 13 1017 91 0 2.04 268.679 06:50 23.07.2019
4751 Clouds 13 1026 87 9000 3.1 260 06:30 23.07.2019
4752 Clouds 12 1016 95 0 0.42 277.649 03:55 23.07.2019
4753 Clouds 13 1025 87 10000 6.2 250 01:35 23.07.2019
4754 Clouds 13 1025 87 10000 6.2 250 00:31 23.07.2019
4755 Clouds 13 1025 87 10000 3.1 250 23:56 22.07.2019
4756 Clouds 13 1025 87 10000 3.1 250 23:38 22.07.2019
4757 Clouds 14 1026 82 10000 5.1 250 23:18 22.07.2019
4758 Clouds 14 1026 82 10000 5.1 250 22:44 22.07.2019
4759 Clouds 14 1026 82 10000 5.1 250 22:22 22.07.2019
4760 Clouds 14 1026 87 10000 5.1 240 21:43 22.07.2019
4761 Clouds 14 1026 87 10000 5.1 240 21:23 22.07.2019
4762 Clouds 15 1025 93 10000 2.1 210 20:53 22.07.2019
4763 Clouds 15 1025 93 10000 2.1 210 20:33 22.07.2019
4764 Clouds 15 1025 93 10000 2.1 210 19:58 22.07.2019
4765 Clouds 15 1025 93 10000 2.1 210 19:40 22.07.2019
4766 Clouds 15 1025 93 10000 2.1 210 19:20 22.07.2019
4767 Clouds 15 1024 93 10000 2.1 210 18:47 22.07.2019
4768 Clouds 15 1024 93 10000 2.1 210 18:28 22.07.2019
4769 Clouds 17 1024 82 10000 3.1 210 17:57 22.07.2019
4770 Clouds 17 1024 82 10000 3.1 210 17:38 22.07.2019
4771 Clouds 17 1024 82 10000 4.1 200 17:19 22.07.2019
4772 Clouds 17 1024 82 10000 4.1 200 16:40 22.07.2019
4773 Clouds 17 1024 77 10000 4.1 190 16:21 22.07.2019
4774 Clouds 17 1024 77 10000 4.1 190 15:44 22.07.2019
4775 Clouds 17 1024 77 10000 4.1 190 15:20 22.07.2019
4776 Clouds 17 1025 72 10000 4.1 190 14:44 22.07.2019
4777 Clouds 17 1025 72 10000 4.1 190 14:25 22.07.2019
4778 Rain 19 1012 68 0 1.83 213.343 13:52 22.07.2019
4779 Rain 19 1012 68 0 1.83 213.343 13:32 22.07.2019
4780 Rain 19 1012 68 0 1.83 213.343 12:55 22.07.2019
4781 Rain 19 1012 68 0 1.83 213.343 12:32 22.07.2019
4782 Rain 18 1013 70 0 1.58 213.559 11:57 22.07.2019
4783 Rain 18 1013 70 0 1.58 213.559 11:39 22.07.2019
4784 Clouds 16 1027 82 10000 4.1 180 11:20 22.07.2019
4785 Clouds 16 1027 82 10000 4.1 180 10:38 22.07.2019
4786 Rain 18 1013 70 0 1.58 213.559 10:20 22.07.2019
4787 Rain 18 1013 70 0 1.58 213.559 09:40 22.07.2019
4788 Clouds 14 1028 87 10000 1 160 09:21 22.07.2019
4789 Clouds 14 1028 87 10000 1 160 08:40 22.07.2019
4790 Clouds 13 1027 93 10000 1 140 08:22 22.07.2019
4791 Clouds 13 1027 93 10000 1 140 07:53 22.07.2019
4792 Clouds 13 1027 93 10000 1 140 07:31 22.07.2019
4793 Rain 12 1015 88 0 0.12 302.005 05:51 22.07.2019
4794 Rain 12 1015 88 0 0.12 302.005 03:46 22.07.2019
4795 Clouds 14 1025 82 10000 4.1 280 01:49 22.07.2019
4796 Clouds 14 1025 82 10000 5.1 270 00:50 22.07.2019
4797 Clouds 14 1025 82 10000 5.1 270 00:50 22.07.2019
4798 Clouds 14 1025 82 10000 5.1 270 00:22 22.07.2019
4799 Clouds 15 1025 77 10000 2.1 320 23:51 21.07.2019
4800 Rain 14 1016 92 0 0.64 205.044 23:23 21.07.2019
4801 Clouds 15 1025 77 10000 2.1 320 22:41 21.07.2019
4802 Clouds 15 1025 77 10000 2.1 320 22:21 21.07.2019
4803 Clouds 15 1025 77 10000 2.1 320 21:55 21.07.2019
4804 Clouds 15 1025 77 10000 4.1 280 21:36 21.07.2019
4805 Rain 15 1015 90 0 1.37 266.033 21:18 21.07.2019
4806 Rain 14 1015 89 0 1.9 218.946 20:41 21.07.2019
4807 Clouds 16 1024 72 10000 4.1 280 20:23 21.07.2019
4808 Clouds 16 1024 72 10000 4.1 280 19:53 21.07.2019
4809 Clouds 16 1024 72 10000 4.1 280 19:29 21.07.2019
4810 Clouds 16 1024 77 10000 1.9 218.946 18:56 21.07.2019
4811 Clouds 16 1024 77 10000 1.9 218.946 18:37 21.07.2019
4812 Clouds 16 1024 77 10000 1.9 218.946 18:37 21.07.2019
4813 Clouds 16 1023 77 10000 3.1 180 18:19 21.07.2019
4814 Clouds 16 1023 77 10000 3.1 180 17:40 21.07.2019
4815 Clouds 18 1022 88 10000 3.6 320 17:19 21.07.2019
4816 Clouds 18 1022 88 10000 3.6 320 16:42 21.07.2019
4817 Clouds 18 1022 88 10000 3.6 320 16:24 21.07.2019
4818 Rain 16 1023 72 8000 5.1 350 15:45 21.07.2019
4819 Rain 16 1023 72 8000 5.1 350 15:24 21.07.2019
4820 Rain 15 1024 87 5000 4.6 350 14:54 21.07.2019
4821 Rain 15 1024 87 5000 4.6 350 14:26 21.07.2019
4822 Clouds 18 1024 77 8000 4.1 240 13:59 21.07.2019
4823 Clouds 18 1024 77 8000 4.1 240 13:40 21.07.2019
4824 Clouds 18 1024 77 8000 4.1 240 13:20 21.07.2019
4825 Clouds 20 1024 64 8000 4.1 260 12:41 21.07.2019
4826 Clouds 20 1024 64 8000 4.1 260 12:22 21.07.2019
4827 Clouds 20 1025 64 8000 4.1 170 11:46 21.07.2019
4828 Clouds 20 1025 64 8000 4.1 170 11:28 21.07.2019
4829 Clouds 18 1026 77 8000 3.1 170 10:47 21.07.2019
4830 Clouds 18 1026 77 8000 3.1 170 10:26 21.07.2019
4831 Clouds 18 1026 72 8000 3.6 250 09:56 21.07.2019
4832 Clouds 18 1026 72 8000 3.6 250 09:36 21.07.2019
4833 Clouds 18 1026 72 8000 3.6 250 09:36 21.07.2019
4834 Clouds 17 1027 77 8000 3.6 240 08:50 21.07.2019
4835 Clouds 17 1027 77 8000 3.6 240 08:32 21.07.2019
4836 Clouds 16 1027 77 8000 4.1 260 07:58 21.07.2019
4837 Clouds 14 1026 87 8000 3.6 280 07:19 21.07.2019
4838 Clouds 14 1026 87 8000 3.6 280 06:38 21.07.2019
4839 Clouds 13 1025 87 10000 0.93 189.755 04:21 21.07.2019
4840 Clouds 13 1025 87 10000 3.1 240 01:57 21.07.2019
4841 Clouds 13 1025 87 10000 1 330 00:48 21.07.2019
4842 Clouds 13 1025 87 10000 1 330 00:22 21.07.2019
4843 Clouds 13 1025 87 10000 2.1 310 23:48 20.07.2019
4844 Clouds 13 1025 87 10000 2.1 310 23:27 20.07.2019
4845 Clouds 14 1025 82 10000 3.1 310 22:58 20.07.2019
4846 Clouds 14 1025 82 10000 3.1 310 22:40 20.07.2019
4847 Clouds 14 1025 87 10000 2.1 330 22:19 20.07.2019
4848 Clouds 14 1025 87 10000 2.1 330 21:43 20.07.2019
4849 Clouds 14 1025 87 10000 2.1 330 21:24 20.07.2019
4850 Clouds 15 1025 82 10000 2.1 340 20:43 20.07.2019
4851 Rain 13 1014 91 0 0.98 234.339 20:23 20.07.2019
4852 Rain 13 1014 91 0 0.98 234.339 19:52 20.07.2019
4853 Clouds 15 1023 77 10000 3.1 320 19:33 20.07.2019
4854 Clouds 15 1023 77 10000 3.1 320 18:57 20.07.2019
4855 Clouds 15 1023 77 10000 3.1 320 18:38 20.07.2019
4856 Clouds 15 1023 77 10000 3.1 320 18:19 20.07.2019
4857 Clouds 14 1024 87 9000 3.1 340 17:46 20.07.2019
4858 Clouds 18 1023 77 9000 5.1 320 17:20 20.07.2019
4859 Clouds 18 1023 77 9000 5.1 320 16:42 20.07.2019
4860 Clouds 18 1023 77 9000 5.1 320 16:23 20.07.2019
4861 Clouds 20 1023 68 10000 3.1 250 15:43 20.07.2019
4862 Clouds 21 1023 60 10000 3.1 200 15:21 20.07.2019
4863 Clouds 21 1023 60 10000 3.1 200 14:54 20.07.2019
4864 Rain 18 1011 77 0 1.21 145.706 14:36 20.07.2019
4865 Clouds 20 1024 68 10000 3.1 200 14:18 20.07.2019
4866 Rain 18 1011 77 0 1.21 145.706 13:38 20.07.2019
4867 Clouds 19 1025 63 10000 3.1 180 13:19 20.07.2019
4868 Clouds 19 1025 63 10000 3.1 180 13:19 20.07.2019
4869 Clouds 19 1025 63 10000 3.1 180 12:49 20.07.2019
4870 Clouds 18 1026 63 10000 2.1 160 12:20 20.07.2019
4871 Clouds 18 1026 63 10000 2.1 160 11:49 20.07.2019
4872 Clouds 16 1027 77 10000 2.1 170 11:22 20.07.2019
4873 Clouds 16 1027 77 10000 2.1 170 10:45 20.07.2019
4874 Clouds 16 1027 77 10000 2.1 170 10:25 20.07.2019
4875 Clouds 16 1027 77 10000 2.1 200 09:52 20.07.2019
4876 Clouds 16 1027 77 10000 2.1 200 09:27 20.07.2019
4877 Clouds 16 1017 80 0 1.95 217.017 08:54 20.07.2019
4878 Rain 16 1017 80 0 1.77 211.824 08:24 20.07.2019
4879 Rain 16 1017 80 0 1.77 211.824 07:43 20.07.2019
4880 Rain 13 1027 87 9000 2.1 300 06:46 20.07.2019
4881 Clouds 13 1026 87 6000 3.6 60 05:49 20.07.2019
4882 Clouds 12 1025 93 6000 3.1 30 04:31 20.07.2019
4883 Rain 13 1015 86 0 1.04 315.311 01:59 20.07.2019
4884 Clouds 12 1025 93 10000 2.1 350 00:59 20.07.2019
4885 Clouds 12 1025 93 10000 2.1 350 00:37 20.07.2019
4886 Clouds 12 1025 93 10000 2.1 350 00:18 20.07.2019
4887 Clouds 13 1026 87 10000 1 290 23:39 19.07.2019
4888 Clouds 13 1026 87 10000 1 290 23:21 19.07.2019
4889 Rain 12 1017 95 0 0.77 331.543 22:43 19.07.2019
4890 Rain 12 1017 95 0 0.77 331.543 22:22 19.07.2019
4891 Rain 12 1017 95 0 0.77 331.543 21:45 19.07.2019
4892 Rain 15 1015 88 0 1.24 351.72 21:26 19.07.2019
4893 Rain 15 1015 88 0 1.24 351.72 20:49 19.07.2019
4894 Rain 15 1015 88 0 1.24 351.72 20:31 19.07.2019
4895 Rain 15 1015 88 0 1.24 351.72 19:48 19.07.2019
4896 Rain 15 1015 88 0 1.24 351.72 19:27 19.07.2019
4897 Rain 15 1015 88 0 1.24 351.72 18:42 19.07.2019
4898 Rain 17 1012 81 0 1.18 103.552 18:21 19.07.2019
4899 Rain 17 1012 81 0 1.18 103.552 17:54 19.07.2019
4900 Rain 17 1012 81 0 1.18 103.552 17:27 19.07.2019
4901 Rain 17 1012 81 0 1.18 103.552 16:49 19.07.2019
4902 Rain 17 1012 81 0 1.18 103.552 16:26 19.07.2019
4903 Rain 17 1012 81 0 1.18 103.552 15:52 19.07.2019
4904 Rain 17 1012 81 0 1.18 103.552 15:31 19.07.2019
4905 Rain 20 1011 65 0 2.19 66.064 14:57 19.07.2019
4906 Rain 20 1011 65 0 2.19 66.064 14:39 19.07.2019
4907 Rain 20 1011 65 0 2.19 66.064 14:21 19.07.2019
4908 Rain 20 1011 65 0 2.19 66.064 13:44 19.07.2019
4909 Rain 20 1011 65 0 2.19 66.064 13:44 19.07.2019
4910 Rain 20 1011 65 0 2.19 66.064 13:44 19.07.2019
4911 Rain 20 1011 65 0 2.19 66.064 13:44 19.07.2019
4912 Rain 20 1011 65 0 2.19 66.064 13:44 19.07.2019
4913 Clouds 20 1026 64 10000 3.1 200 13:25 19.07.2019
4914 Clouds 20 1026 64 10000 3.1 200 12:55 19.07.2019
4915 Clouds 20 1026 64 10000 3.1 200 12:31 19.07.2019
4916 Clouds 19 1027 68 10000 3.6 160 11:59 19.07.2019
4917 Clouds 19 1027 68 10000 3.6 160 11:41 19.07.2019
4918 Clouds 18 1027 72 10000 3.1 180 11:18 19.07.2019
4919 Clouds 18 1027 72 10000 3.1 180 10:42 19.07.2019
4920 Clouds 17 1027 77 10000 2.1 170 10:22 19.07.2019
4921 Clouds 17 1027 77 10000 2.1 170 09:57 19.07.2019
4922 Clouds 17 1027 77 10000 2.1 170 09:39 19.07.2019
4923 Clouds 17 1027 77 10000 2.1 170 09:20 19.07.2019
4924 Clouds 15 1027 82 10000 2.1 180 08:42 19.07.2019
4925 Clouds 14 1027 87 10000 1 100 07:53 19.07.2019
4926 Clouds 14 1027 87 10000 1 100 07:28 19.07.2019
4927 Clouds 11 1018 87 0 0.53 338.059 05:55 19.07.2019
4928 Clouds 12 1016 86 0 0.76 274.976 02:23 19.07.2019
4929 Clouds 12 1016 85 0 0.59 312.169 01:18 19.07.2019
4930 Clouds 14 1027 82 10000 0.59 312.169 00:35 19.07.2019
4931 Clouds 14 1027 82 10000 0.39 334.619 23:44 18.07.2019
4932 Clouds 14 1027 82 10000 0.39 334.619 23:24 18.07.2019
4933 Clouds 14 1027 82 10000 0.39 334.619 22:59 18.07.2019
4934 Clouds 12 1017 86 0 0.39 334.619 22:40 18.07.2019
4935 Clouds 12 1017 86 0 0.39 334.619 22:19 18.07.2019
4936 Clouds 12 1017 86 0 0.39 334.619 21:44 18.07.2019
4937 Rain 13 1016 86 0 0.49 322.573 21:26 18.07.2019
4938 Rain 13 1017 86 0 0.86 327.796 20:51 18.07.2019
4939 Rain 13 1017 86 0 0.86 327.796 20:29 18.07.2019
4940 Rain 13 1017 86 0 0.86 327.796 19:54 18.07.2019
4941 Clouds 16 1025 82 10000 2.1 170 19:32 18.07.2019
4942 Clouds 16 1025 82 10000 2.1 170 18:58 18.07.2019
4943 Clouds 16 1025 82 10000 2.1 170 18:40 18.07.2019
4944 Clouds 16 1025 82 10000 2.1 170 18:20 18.07.2019
4945 Rain 16 1014 82 0 1.07 241.467 17:42 18.07.2019
4946 Rain 16 1014 82 0 1.07 241.467 17:24 18.07.2019
4947 -273 0 0 0 0 0 16:56 18.07.2019
4948 Clouds 17 1025 77 10000 4.1 180 16:30 18.07.2019
4949 Clouds 17 1025 77 10000 4.1 180 15:59 18.07.2019
4950 Clouds 17 1025 77 10000 4.1 180 15:39 18.07.2019
4951 Rain 16 1015 81 0 3.35 226.028 15:21 18.07.2019
4952 Rain 16 1015 81 0 3.35 226.028 14:43 18.07.2019
4953 Clouds 18 1027 68 10000 2.1 200 14:25 18.07.2019
4954 Clouds 18 1027 68 10000 2.1 200 13:48 18.07.2019
4955 Clouds 17 1028 72 10000 1 190 13:23 18.07.2019
4956 Clouds 17 1028 72 10000 1 190 12:50 18.07.2019
4957 Rain 15 1018 78 0 0.85 290.659 12:21 18.07.2019
4958 Rain 15 1018 78 0 0.85 290.659 11:57 18.07.2019
4959 Rain 15 1018 78 0 0.85 290.659 11:39 18.07.2019
4960 Rain 15 1018 78 0 0.85 290.659 11:20 18.07.2019
4961 Rain 15 1018 78 0 0.85 290.659 10:41 18.07.2019
4962 Rain 12 1030 93 5000 2.1 350 09:50 18.07.2019
4963 Rain 12 1030 93 5000 2.1 350 09:26 18.07.2019
4964 Rain 12 1029 87 5000 4.1 60 08:51 18.07.2019
4965 Rain 13 1029 100 7000 5.1 90 08:23 18.07.2019
4966 Rain 13 1029 100 7000 5.1 90 07:55 18.07.2019
4967 Rain 13 1029 100 7000 5.1 90 07:34 18.07.2019
4968 Rain 13 1020 91 0 2.05 7.785 06:46 18.07.2019
4969 Rain 12 1018 96 0 0.83 127.049 05:58 18.07.2019
4970 Rain 13 1016 94 0 1.08 170.362 03:25 18.07.2019
4971 Rain 13 1016 93 0 1.57 198.597 01:52 18.07.2019
4972 Clouds 15 1026 82 10000 4.1 270 01:33 18.07.2019
4973 Clouds 15 1026 82 10000 4.1 270 23:57 17.07.2019
4974 Rain 13 1017 90 0 1.57 198.47 23:21 17.07.2019
4975 Rain 13 1017 90 0 1.57 198.47 22:58 17.07.2019
4976 Rain 13 1017 90 0 1.57 198.47 22:40 17.07.2019
4977 Clouds 14 1028 87 10000 1.57 198.47 22:21 17.07.2019
4978 Clouds 14 1028 87 10000 1.57 198.47 21:56 17.07.2019
4979 Clouds 14 1028 87 10000 1.57 198.47 21:36 17.07.2019
4980 Clouds 14 1028 87 10000 1.49 165.113 21:18 17.07.2019
4981 Clouds 15 1027 77 10000 2.1 300 20:41 17.07.2019
4982 Clouds 15 1027 77 10000 2.1 300 20:21 17.07.2019
4983 Clouds 15 1027 77 10000 2.1 300 19:59 17.07.2019
4984 Rain 14 1016 90 0 1.27 174.325 19:39 17.07.2019
4985 Clouds 17 1025 82 0 1 240 19:18 17.07.2019
4986 Clouds 17 1025 82 0 1 240 18:42 17.07.2019
4987 Rain 17 1013 81 0 1.32 201.327 18:20 17.07.2019
4988 Rain 17 1013 81 0 1.32 201.327 17:51 17.07.2019
4989 Rain 17 1013 81 0 1.32 201.327 17:27 17.07.2019
4990 Rain 17 1013 81 0 1.32 201.327 16:58 17.07.2019
4991 Rain 17 1013 81 0 1.32 201.327 16:38 17.07.2019
4992 Clouds 20 1025 56 10000 1.5 250 16:18 17.07.2019
4993 Clouds 20 1025 56 10000 1.5 250 15:51 17.07.2019
4994 Clouds 20 1025 56 10000 1.5 250 15:29 17.07.2019
4995 Clouds 20 1025 56 10000 1.5 250 15:29 17.07.2019
4996 Clouds 20 1026 56 10000 1.5 150 14:55 17.07.2019
4997 Clouds 20 1026 56 10000 1.5 150 14:37 17.07.2019
4998 Clouds 20 1026 56 10000 1.5 150 14:18 17.07.2019
4999 Rain 19 1012 73 0 2.57 183.127 13:42 17.07.2019
5000 Rain 15 1028 82 0 3.1 340 13:24 17.07.2019
5001 Rain 15 1028 82 0 3.1 340 12:41 17.07.2019
5002 Rain 15 1028 82 0 3.1 340 12:21 17.07.2019
5003 Clouds 17 1028 77 0 4.1 160 11:45 17.07.2019
5004 Clouds 17 1028 77 0 4.1 160 11:22 17.07.2019
5005 Clouds 17 1028 77 10000 4.1 180 10:55 17.07.2019
5006 Clouds 17 1028 77 10000 4.1 180 10:37 17.07.2019
5007 Clouds 17 1028 77 10000 4.1 180 10:18 17.07.2019
5008 Clouds 16 1029 82 10000 4.1 160 09:44 17.07.2019
5009 Clouds 16 1029 82 10000 4.1 160 09:24 17.07.2019
5010 Clouds 15 1028 87 10000 2.1 180 08:43 17.07.2019
5011 Clouds 15 1028 87 10000 2.1 180 08:22 17.07.2019
5012 Clouds 14 1028 87 10000 1 190 07:50 17.07.2019
5013 Clouds 14 1028 87 10000 1 190 07:24 17.07.2019
5014 Clouds 14 1028 87 10000 1 40 06:57 17.07.2019
5015 Clouds 14 1028 87 10000 1 40 06:30 17.07.2019
5016 Clouds 13 1027 93 10000 0.83 233.255 05:50 17.07.2019
5017 Clouds 13 1027 93 10000 0.83 233.255 05:30 17.07.2019
5018 Clouds 13 1026 93 10000 1.5 350 04:45 17.07.2019
5019 Clouds 13 1026 87 5000 2.1 310 03:29 17.07.2019
5020 Rain 14 1026 87 5000 2.1 230 02:19 17.07.2019
5021 Clouds 15 1026 87 7000 2.6 290 01:26 17.07.2019
5022 Rain 15 1027 87 7000 4.1 270 00:59 17.07.2019
5023 Rain 15 1027 87 7000 4.1 270 00:37 17.07.2019
5024 Rain 15 1027 87 7000 4.1 270 00:19 17.07.2019
5025 Rain 15 1027 87 7000 3.1 290 23:38 16.07.2019
5026 Rain 15 1027 87 7000 3.1 290 23:18 16.07.2019
5027 Rain 15 1027 87 7000 1.5 260 22:42 16.07.2019
5028 Rain 15 1027 87 7000 1.5 260 22:24 16.07.2019
5029 Rain 15 1017 85 0 1.3 152.629 21:47 16.07.2019
5030 Rain 16 1026 82 10000 0.5 320 21:22 16.07.2019
5031 Rain 15 1016 84 0 1.19 64.966 20:58 16.07.2019
5032 Rain 15 1016 84 0 1.19 64.966 20:39 16.07.2019
5033 Rain 17 1026 77 10000 2.1 310 20:21 16.07.2019
5034 Rain 17 1026 77 10000 2.1 310 19:52 16.07.2019
5035 Rain 17 1026 77 10000 2.1 310 19:29 16.07.2019
5036 Rain 18 1024 72 10000 1.5 240 18:58 16.07.2019
5037 Rain 15 1016 84 0 1.19 64.966 18:39 16.07.2019
5038 Rain 18 1012 79 0 1.97 112.126 18:20 16.07.2019
5039 Rain 18 1012 79 0 1.97 112.126 17:44 16.07.2019
5040 Rain 20 1024 52 10000 1 90 17:23 16.07.2019
5041 Rain 20 1024 52 10000 1 90 16:48 16.07.2019
5042 Rain 20 1024 52 10000 1 90 16:25 16.07.2019
5043 Clouds 20 1025 56 10000 1 60 15:56 16.07.2019
5044 Clouds 20 1025 56 10000 1 60 15:37 16.07.2019
5045 Clouds 20 1025 56 10000 1 60 15:18 16.07.2019
5046 Clouds 19 1026 59 10000 2.1 180 14:45 16.07.2019
5047 Clouds 19 1026 59 10000 2.1 180 14:27 16.07.2019
5048 Clouds 18 1026 63 10000 1.5 110 13:47 16.07.2019
5049 Clouds 18 1026 63 10000 1.5 110 13:27 16.07.2019
5050 Rain 20 1012 67 0 1.94 118.347 12:57 16.07.2019
5051 Rain 20 1012 67 0 1.94 118.347 12:39 16.07.2019
5052 Rain 20 1012 67 0 1.94 118.347 12:38 16.07.2019
5053 Rain 19 1015 71 0 2.63 183.533 12:19 16.07.2019
5054 Rain 19 1015 71 0 2.63 183.533 11:44 16.07.2019
5055 Clouds 16 1029 67 10000 2.1 80 11:24 16.07.2019
5056 Clouds 16 1029 67 10000 2.1 80 10:57 16.07.2019
5057 Clouds 16 1029 67 10000 2.1 80 10:39 16.07.2019
5058 Clouds 16 1029 67 10000 2.1 80 10:18 16.07.2019
5059 Rain 19 1015 71 0 2.63 183.533 09:43 16.07.2019
5060 Clouds 13 1029 82 10000 3.1 310 09:20 16.07.2019
5061 Clouds 13 1029 82 10000 3.1 310 08:46 16.07.2019
5062 Clouds 13 1029 82 10000 3.1 310 08:24 16.07.2019
5063 Rain 17 1018 74 0 1.56 177.728 07:51 16.07.2019
5064 Clouds 13 1027 76 10000 5.1 330 07:32 16.07.2019
5065 Clouds 13 1027 76 10000 5.1 330 06:58 16.07.2019
5066 Clouds 13 1027 76 10000 5.1 330 06:35 16.07.2019
5067 Clouds 12 1026 81 10000 3.6 300 05:48 16.07.2019
5068 Clouds 12 1026 81 10000 3.6 300 05:25 16.07.2019
5069 Clouds 11 1026 93 10000 2.1 340 04:27 16.07.2019
5070 Clouds 12 1025 87 10000 2.1 300 03:34 16.07.2019
5071 Rain 14 1015 86 0 0.67 264.968 02:42 16.07.2019
5072 Clouds 13 1026 93 10000 2.1 260 02:19 16.07.2019
5073 Clouds 13 1026 93 10000 2.1 260 01:23 16.07.2019
5074 Clouds 13 1027 87 10000 3.1 40 00:22 16.07.2019
5075 Rain 14 1016 86 0 0.16 133.466 23:58 15.07.2019
5076 Rain 14 1016 86 0 0.16 133.466 23:37 15.07.2019
5077 Rain 14 1016 86 0 0.16 133.466 23:18 15.07.2019
5078 Rain 14 1016 86 0 0.16 133.466 22:43 15.07.2019
5079 Rain 14 1016 86 0 0.16 133.466 22:19 15.07.2019
5080 Rain 14 1016 86 0 0.16 133.466 21:57 15.07.2019
5081 Rain 14 1016 86 0 0.16 133.466 21:38 15.07.2019
5082 Rain 15 1015 80 0 1.3 67.675 21:19 15.07.2019
5083 Rain 15 1015 80 0 1.3 67.675 20:42 15.07.2019
5084 Rain 15 1015 80 0 1.3 67.675 20:22 15.07.2019
5085 Rain 15 1015 80 0 1.3 67.675 19:56 15.07.2019
5086 Rain 15 1015 80 0 1.3 67.675 19:38 15.07.2019
5087 Rain 15 1015 80 0 1.3 67.675 19:18 15.07.2019
5088 Rain 15 1015 80 0 1.3 67.675 18:43 15.07.2019
5089 Rain 19 1012 72 0 2.89 108.215 18:20 15.07.2019
5090 Rain 19 1012 72 0 2.89 108.215 17:55 15.07.2019
5091 Rain 19 1012 72 0 2.89 108.215 17:37 15.07.2019
5092 Rain 19 1012 72 0 2.89 108.215 17:19 15.07.2019
5093 Rain 19 1012 72 0 2.89 108.215 16:39 15.07.2019
5094 Rain 19 1012 72 0 2.89 108.215 16:21 15.07.2019
5095 Rain 19 1012 72 0 2.89 108.215 15:59 15.07.2019
5096 Rain 19 1012 72 0 2.89 108.215 15:38 15.07.2019
5097 Rain 21 1011 57 0 2.48 108.179 15:20 15.07.2019
5098 Rain 21 1011 57 0 2.48 108.179 14:45 15.07.2019
5099 Rain 21 1011 57 0 2.48 108.179 14:27 15.07.2019
5100 Rain 21 1011 57 0 2.48 108.179 13:57 15.07.2019
5101 Rain 21 1011 57 0 2.48 108.179 13:36 15.07.2019
5102 Rain 21 1011 58 0 2.22 95.288 13:18 15.07.2019
5103 Rain 21 1011 58 0 2.22 95.288 12:42 15.07.2019
5104 Rain 20 1015 63 0 1.87 151.265 12:22 15.07.2019
5105 Rain 20 1015 63 0 1.87 151.265 11:44 15.07.2019
5106 Rain 20 1015 63 0 1.87 151.265 11:25 15.07.2019
5107 Rain 20 1015 63 0 1.87 151.265 10:48 15.07.2019
5108 Rain 20 1015 63 0 1.87 151.265 10:30 15.07.2019
5109 Rain 20 1015 63 0 1.87 151.265 09:57 15.07.2019
5110 Rain 20 1015 63 0 1.87 151.265 09:39 15.07.2019
5111 Clouds 18 1028 68 10000 1 190 09:18 15.07.2019
5112 Clouds 18 1028 68 10000 1 190 08:41 15.07.2019
5113 Clouds 18 1028 68 10000 1 190 08:23 15.07.2019
5114 Clouds 12 1027 93 10000 1.64 194.68 07:41 15.07.2019
5115 Clouds 12 1027 93 10000 1.64 194.68 07:20 15.07.2019
5116 Rain 15 1017 79 0 1.64 194.68 06:39 15.07.2019
5117 Clouds 12 1026 93 10000 1 310 05:50 15.07.2019
5118 Clouds 12 1026 93 10000 1 310 05:30 15.07.2019
5119 Clouds 12 1026 93 10000 1 330 04:43 15.07.2019
5120 Clouds 12 1026 93 10000 1 190 03:51 15.07.2019
5121 Rain 14 1015 89 0 0.35 168.495 02:47 15.07.2019
5122 Rain 14 1015 89 0 0.35 168.495 01:53 15.07.2019
5123 Clouds 14 1027 93 10000 1 340 01:28 15.07.2019
5124 Clouds 14 1027 93 10000 1 340 00:53 15.07.2019
5125 Clouds 14 1027 93 10000 1 340 00:23 15.07.2019
5126 Clouds 14 1027 93 10000 1 340 23:57 14.07.2019
5127 Clouds 14 1027 93 10000 1 330 23:37 14.07.2019
5128 Clouds 14 1027 93 10000 1 330 23:18 14.07.2019
5129 Rain 14 1017 86 0 0.55 97.449 22:55 14.07.2019
5130 Rain 14 1017 86 0 0.55 97.449 22:37 14.07.2019
5131 Clouds 15 1028 93 10000 2.1 190 22:18 14.07.2019
5132 Clouds 15 1028 93 10000 2.1 190 21:42 14.07.2019
5133 Clouds 15 1028 93 10000 2.1 190 21:18 14.07.2019
5134 Clouds 15 1027 87 10000 2.1 180 20:57 14.07.2019
5135 Clouds 15 1027 87 10000 2.1 180 20:37 14.07.2019
5136 Clouds 15 1027 87 10000 2.1 180 20:19 14.07.2019
5137 Rain 14 1015 85 0 1.53 70.346 19:44 14.07.2019
5138 Clouds 17 1025 77 10000 4.1 190 19:25 14.07.2019
5139 Clouds 17 1025 77 10000 4.1 190 18:57 14.07.2019
5140 Clouds 17 1025 77 10000 4.1 190 18:38 14.07.2019
5141 Clouds 17 1025 77 10000 4.1 190 18:20 14.07.2019
5142 Clouds 18 1025 68 10000 3.1 190 17:47 14.07.2019
5143 Clouds 18 1025 68 10000 3.1 190 17:21 14.07.2019
5144 Clouds 19 1025 68 10000 5.1 210 16:47 14.07.2019
5145 Clouds 19 1025 68 10000 5.1 210 16:24 14.07.2019
5146 Clouds 19 1025 59 10000 3.1 220 15:54 14.07.2019
5147 Clouds 19 1025 59 10000 3.1 220 15:29 14.07.2019
5148 Clouds 18 1026 63 10000 4.1 210 14:50 14.07.2019
5149 Clouds 18 1026 63 10000 4.1 210 14:22 14.07.2019
5150 Rain 19 1012 67 0 1.58 148.407 13:57 14.07.2019
5151 Rain 19 1012 67 0 1.58 148.407 13:37 14.07.2019
5152 Clouds 18 1027 68 10000 3.1 170 13:19 14.07.2019
5153 Clouds 18 1027 68 10000 3.1 170 12:42 14.07.2019
5154 Clouds 18 1027 68 10000 3.1 170 12:22 14.07.2019
5155 Clouds 18 1027 59 10000 2.1 150 11:53 14.07.2019
5156 Clouds 18 1027 59 10000 2.1 150 11:27 14.07.2019
5157 Clouds 18 1028 55 10000 1 210 10:58 14.07.2019
5158 Clouds 18 1028 55 10000 1 210 10:40 14.07.2019
5159 Clouds 18 1028 55 10000 1 210 10:19 14.07.2019
5160 Rain 18 1015 70 0 2.35 171.035 09:42 14.07.2019
5161 Rain 14 1018 88 0 1.7 217.863 09:23 14.07.2019
5162 Rain 14 1018 90 0 1.91 251.185 08:41 14.07.2019
5163 Rain 14 1018 90 0 1.91 251.185 07:57 14.07.2019
5164 Rain 12 1028 87 8000 3.1 70 07:35 14.07.2019
5165 Rain 12 1028 87 8000 3.1 70 06:55 14.07.2019
5166 Rain 12 1027 81 8000 3.1 80 05:44 14.07.2019
5167 Clouds 13 1026 93 10000 3.1 310 03:47 14.07.2019
5168 Clouds 13 1026 93 10000 3.1 310 03:29 14.07.2019
5169 Rain 13 1026 93 8000 3.1 320 02:41 14.07.2019
5170 Rain 13 1026 93 8000 3.1 320 02:21 14.07.2019
5171 Clouds 13 1026 93 10000 3.1 320 01:32 14.07.2019
5172 Rain 12 1016 92 0 1.48 138.971 00:56 14.07.2019
5173 Rain 12 1016 92 0 1.48 138.971 00:37 14.07.2019
5174 Rain 13 1017 87 0 0.38 116.292 00:19 14.07.2019
5175 Rain 13 1017 87 0 0.38 116.292 23:43 13.07.2019
5176 Rain 13 1017 87 0 0.38 116.292 23:23 13.07.2019
5177 Rain 13 1017 87 0 0.38 116.292 22:47 13.07.2019
5178 Rain 13 1017 87 0 0.38 116.292 22:23 13.07.2019
5179 Rain 13 1017 87 0 0.38 116.292 21:55 13.07.2019
5180 Clouds 15 1026 87 10000 3.1 180 21:24 13.07.2019
5181 Clouds 15 1026 87 10000 3.1 180 20:59 13.07.2019
5182 Clouds 15 1026 87 10000 3.1 180 20:40 13.07.2019
5183 Clouds 15 1026 87 10000 3.1 180 20:21 13.07.2019
5184 Clouds 15 1026 87 10000 1 280 19:43 13.07.2019
5185 Clouds 15 1026 87 10000 1 280 19:23 13.07.2019
5186 Rain 15 1016 87 0 1.18 152.481 18:41 13.07.2019
5187 Rain 16 1014 83 0 1.28 205.223 18:20 13.07.2019
5188 Rain 16 1014 83 0 1.28 205.223 17:38 13.07.2019
5189 Rain 16 1014 83 0 1.28 205.223 17:38 13.07.2019
5190 Rain 16 1014 83 0 1.28 205.223 17:19 13.07.2019
5191 Rain 16 1014 83 0 1.28 205.223 16:45 13.07.2019
5192 Rain 16 1014 83 0 1.28 205.223 16:26 13.07.2019
5193 Rain 16 1014 83 0 1.28 205.223 16:26 13.07.2019
5194 Rain 16 1014 83 0 1.28 205.223 15:50 13.07.2019
5195 Rain 16 1014 83 0 1.28 205.223 15:50 13.07.2019
5196 Rain 17 1013 76 0 1.74 183.726 15:25 13.07.2019
5197 Rain 17 1013 76 0 1.74 183.726 14:59 13.07.2019
5198 Rain 17 1013 76 0 1.74 183.726 14:41 13.07.2019
5199 Clouds 18 1026 72 10000 5.1 180 14:20 13.07.2019
5200 Clouds 18 1026 72 10000 5.1 180 13:44 13.07.2019
5201 Clouds 18 1026 72 10000 5.1 180 13:19 13.07.2019
5202 Clouds 19 1026 68 10000 6.2 190 12:42 13.07.2019
5203 Clouds 19 1026 68 10000 6.2 190 12:23 13.07.2019
5204 Clouds 18 1027 72 10000 4.1 200 11:57 13.07.2019
5205 Clouds 18 1027 72 10000 4.1 200 11:37 13.07.2019
5206 Clouds 18 1027 72 10000 4.1 200 11:18 13.07.2019
5207 Clouds 13 1029 100 10000 3.1 280 10:40 13.07.2019
5208 Clouds 13 1029 100 10000 3.1 280 10:22 13.07.2019
5209 Rain 16 1017 81 0 2.33 218.848 09:42 13.07.2019
5210 Rain 13 1029 100 5000 3.1 200 09:24 13.07.2019
5211 Rain 13 1029 100 5000 3.1 200 08:55 13.07.2019
5212 Rain 13 1029 100 5000 3.1 200 08:27 13.07.2019
5213 Rain 14 1019 88 0 0.64 73.944 07:53 13.07.2019
5214 Clouds 14 1028 87 10000 2.1 290 07:25 13.07.2019
5215 Clouds 14 1028 87 10000 2.1 290 06:31 13.07.2019
5216 Rain 13 1018 94 0 0.54 280.626 05:47 13.07.2019
5217 Mist 14 1027 93 5000 2.1 270 04:40 13.07.2019
5218 Mist 14 1027 93 5000 2.1 270 04:20 13.07.2019
5219 Rain 13 1018 94 0 0.54 280.626 03:41 13.07.2019
5220 Rain 13 1027 100 5000 2.1 190 02:54 13.07.2019
5221 Rain 14 1016 90 0 1.71 216.897 01:53 13.07.2019
5222 Clouds 14 1027 87 10000 2.1 210 01:21 13.07.2019
5223 Clouds 14 1027 87 10000 2.1 210 00:58 13.07.2019
5224 Clouds 14 1027 87 10000 2.1 210 00:21 13.07.2019
5225 Rain 14 1017 88 0 0.91 252.725 23:50 12.07.2019
5226 Rain 14 1028 87 9000 4.1 350 23:30 12.07.2019
5227 Rain 14 1028 87 9000 4.1 350 22:58 12.07.2019
5228 Rain 14 1028 87 9000 4.1 350 22:40 12.07.2019
5229 Rain 14 1028 87 9000 4.1 350 22:21 12.07.2019
5230 Rain 14 1017 88 0 0.91 252.725 21:42 12.07.2019
5231 Clouds 15 1027 82 10000 4.1 330 21:19 12.07.2019
5232 Clouds 15 1027 82 10000 4.1 330 20:46 12.07.2019
5233 Clouds 15 1027 82 10000 4.1 330 20:23 12.07.2019
5234 Thunderstorm 15 1027 87 9000 2.1 360 19:44 12.07.2019
5235 Thunderstorm 15 1027 87 9000 2.1 360 19:26 12.07.2019
5236 Rain 15 1017 80 0 1.13 7.966 18:57 12.07.2019
5237 Rain 15 1017 80 0 1.13 7.966 18:36 12.07.2019
5238 Rain 18 1014 78 0 1.34 16.92 18:18 12.07.2019
5239 Rain 18 1014 78 0 1.34 16.92 17:43 12.07.2019
5240 Rain 18 1014 78 0 1.34 16.92 17:23 12.07.2019
5241 Rain 18 1014 78 0 1.34 16.92 16:37 12.07.2019
5242 Rain 18 1014 78 0 1.34 16.92 16:19 12.07.2019
5243 Rain 18 1014 78 0 1.34 16.92 15:40 12.07.2019
5244 Rain 20 1013 63 0 0.22 76.584 15:20 12.07.2019
5245 Rain 20 1013 63 0 0.22 76.584 14:46 12.07.2019
5246 Rain 20 1013 63 0 0.22 76.584 14:46 12.07.2019
5247 Clouds 21 1026 52 10000 3.1 260 14:21 12.07.2019
5248 Clouds 21 1026 52 10000 3.1 260 14:21 12.07.2019
5249 Clouds 21 1026 52 10000 3.1 260 13:54 12.07.2019
5250 Clouds 21 1026 52 10000 3.1 260 13:34 12.07.2019
5251 Rain 21 1013 60 0 0.7 89.753 12:44 12.07.2019
5252 Rain 20 1015 61 0 1.56 253.318 12:24 12.07.2019
5253 Rain 20 1015 61 0 1.56 253.318 11:59 12.07.2019
5254 Rain 20 1015 61 0 1.56 253.318 11:40 12.07.2019
5255 Rain 20 1015 61 0 1.56 253.318 11:19 12.07.2019
5256 Rain 20 1015 61 0 1.56 253.318 10:42 12.07.2019
5257 Rain 20 1015 61 0 1.56 253.318 10:23 12.07.2019
5258 Rain 20 1015 61 0 1.56 253.318 09:53 12.07.2019
5259 Rain 20 1015 61 0 1.56 253.318 09:29 12.07.2019
5260 Rain 16 1018 77 0 1.54 220.14 08:56 12.07.2019
5261 Rain 16 1018 77 0 1.54 220.14 08:26 12.07.2019
5262 Rain 16 1018 77 0 1.54 220.14 07:55 12.07.2019
5263 Rain 16 1018 77 0 1.54 220.14 07:32 12.07.2019
5264 Rain 16 1018 77 0 1.54 220.14 06:51 12.07.2019
5265 Rain 13 1018 86 0 0.67 223.071 06:26 12.07.2019
5266 Clouds 12 1026 93 10000 1 20 05:24 12.07.2019
5267 Clouds 13 1026 87 10000 2.1 10 03:20 12.07.2019
5268 Thunderstorm 13 1027 87 0 5.1 20 01:38 12.07.2019
5269 Rain 13 1027 87 0 8.2 50 00:49 12.07.2019
5270 Rain 13 1027 87 0 8.2 50 00:20 12.07.2019
5271 Clouds 16 1027 87 10000 1 70 23:43 11.07.2019
5272 Clouds 16 1027 87 10000 1 70 23:24 11.07.2019
5273 Rain 14 1017 85 0 0.33 165.75 22:52 11.07.2019
5274 Clouds 16 1026 87 10000 1 110 22:26 11.07.2019
5275 Clouds 16 1026 87 10000 1 110 21:57 11.07.2019
5276 Clouds 16 1026 87 10000 1 110 21:38 11.07.2019
5277 Clouds 16 1026 87 10000 1 110 21:18 11.07.2019
5278 Clouds 17 1026 82 10000 3.1 180 20:42 11.07.2019
5279 Clouds 17 1026 82 10000 3.1 180 20:23 11.07.2019
5280 Rain 15 1015 81 0 1.07 90 19:57 11.07.2019
5281 Rain 15 1015 81 0 1.07 90 19:39 11.07.2019
5282 Clouds 19 1025 72 10000 4.1 160 19:20 11.07.2019
5283 Clouds 19 1025 72 10000 4.1 160 18:42 11.07.2019
5284 Clouds 19 1025 72 10000 4.1 160 18:24 11.07.2019
5285 Clouds 21 1024 56 10000 4.1 190 17:49 11.07.2019
5286 Clouds 21 1024 56 10000 4.1 190 17:31 11.07.2019
5287 Clouds 22 1023 49 10000 3.1 190 16:55 11.07.2019
5288 Clouds 22 1023 49 10000 3.1 190 16:37 11.07.2019
5289 Clouds 22 1023 49 10000 3.1 190 16:18 11.07.2019
5290 Rain 19 1012 68 0 3.57 140.347 15:40 11.07.2019
5291 Clouds 22 1024 46 10000 3.1 170 15:20 11.07.2019
5292 Clouds 22 1024 46 10000 3.1 170 14:45 11.07.2019
5293 Clouds 22 1024 46 10000 3.1 170 14:25 11.07.2019
5294 Rain 22 1011 52 0 3.15 133.149 13:56 11.07.2019
5295 Rain 22 1011 52 0 3.15 133.149 13:37 11.07.2019
5296 Rain 21 1011 54 0 2.72 129.876 13:18 11.07.2019
5297 Rain 21 1011 54 0 2.72 129.876 12:38 11.07.2019
5298 Rain 20 1014 60 0 1.89 192.224 12:19 11.07.2019
5299 Rain 20 1014 60 0 1.89 192.224 11:45 11.07.2019
5300 Clouds 19 1027 63 10000 3.1 210 11:24 11.07.2019
5301 Clouds 19 1027 63 10000 3.1 210 10:51 11.07.2019
5302 Clouds 19 1027 63 10000 3.1 210 10:20 11.07.2019
5303 Rain 20 1014 60 0 1.89 192.224 09:52 11.07.2019
5304 Rain 20 1014 60 0 1.89 192.224 09:31 11.07.2019
5305 Rain 14 1018 78 0 0.81 339.136 08:59 11.07.2019
5306 Rain 14 1018 78 0 0.81 339.136 08:39 11.07.2019
5307 Rain 14 1018 78 0 0.81 339.136 08:19 11.07.2019
5308 Rain 14 1018 78 0 0.81 339.136 07:43 11.07.2019
5309 Clouds 13 1027 82 10000 3.1 310 06:55 11.07.2019
5310 Clouds 12 1026 87 10000 2.1 320 06:18 11.07.2019
5311 Clouds 12 1026 87 10000 2.1 320 05:31 11.07.2019
5312 Rain 13 1016 93 0 2.29 112.847 04:56 11.07.2019
5313 Clouds 12 1024 93 10000 2.6 240 03:19 11.07.2019
5314 Rain 13 1014 93 0 0.81 175.083 02:18 11.07.2019
5315 Clouds 14 1025 82 10000 2.1 360 00:32 11.07.2019
5316 Clouds 15 1026 77 10000 2.6 350 23:50 10.07.2019
5317 Clouds 15 1026 77 10000 2.6 350 23:24 10.07.2019
5318 Clouds 15 1027 82 10000 0.5 310 22:54 10.07.2019
5319 Clouds 15 1027 82 10000 0.5 310 22:22 10.07.2019
5320 Clouds 15 1027 82 10000 2.1 150 21:56 10.07.2019
5321 Clouds 15 1027 82 10000 2.1 150 21:38 10.07.2019
5322 Clouds 15 1027 82 10000 2.1 150 21:19 10.07.2019
5323 Clouds 16 1026 87 10000 1.26 192.053 20:44 10.07.2019
5324 Clouds 16 1026 87 10000 1.26 192.053 20:26 10.07.2019
5325 Clouds 11 1025 121 10000 1.26 192.053 19:56 10.07.2019
5326 Clouds 11 1025 121 10000 1.26 192.053 19:37 10.07.2019
5327 Clouds 11 1025 121 10000 1.26 192.053 19:19 10.07.2019
5328 Clouds 18 1024 77 10000 1.26 192.053 18:44 10.07.2019
5329 Clouds 18 1024 77 10000 2.39 201.263 18:23 10.07.2019
5330 Clouds 18 1024 77 10000 2.39 201.263 18:23 10.07.2019
5331 Clouds 19 1024 68 10000 2.39 201.263 17:46 10.07.2019
5332 Clouds 19 1024 68 10000 2.39 201.263 17:27 10.07.2019
5333 Rain 17 1012 80 0 2.39 201.263 16:46 10.07.2019
5334 Clouds 20 1023 60 10000 3.6 250 16:21 10.07.2019
5335 Clouds 20 1023 60 10000 3.6 250 15:47 10.07.2019
5336 Clouds 20 1024 60 10000 5.1 180 15:25 10.07.2019
5337 Clouds 20 1024 60 10000 5.1 180 14:48 10.07.2019
5338 Clouds 20 1024 60 10000 5.1 180 14:29 10.07.2019
5339 Clouds 19 1024 63 10000 5.1 190 13:56 10.07.2019
5340 Clouds 19 1024 63 10000 5.1 190 13:36 10.07.2019
5341 Clouds 19 1024 63 10000 5.1 190 13:18 10.07.2019
5342 Clouds 19 1024 63 10000 5.1 190 13:18 10.07.2019
5343 Rain 19 1011 73 0 0.33 253.452 12:40 10.07.2019
5344 Clouds 19 1026 59 10000 2.6 230 12:21 10.07.2019
5345 Clouds 19 1026 59 10000 2.6 230 11:47 10.07.2019
5346 Clouds 19 1026 59 10000 2.6 230 11:22 10.07.2019
5347 Clouds 18 1026 63 10000 3.1 230 10:58 10.07.2019
5348 Clouds 18 1026 63 10000 3.1 230 10:24 10.07.2019
5349 Rain 17 1014 80 0 2.79 224.331 09:55 10.07.2019
5350 Clouds 14 1027 87 10000 4.6 300 09:36 10.07.2019
5351 Clouds 14 1027 87 10000 4.6 300 09:18 10.07.2019
5352 Clouds 14 1027 87 10000 4.6 300 08:45 10.07.2019
5353 Clouds 14 1027 87 10000 4.6 300 08:22 10.07.2019
5354 Rain 12 1028 100 6000 1.5 80 07:45 10.07.2019
5355 Rain 12 1028 100 6000 1.5 80 07:23 10.07.2019
5356 Rain 13 1028 93 0 3.6 80 06:33 10.07.2019
5357 Rain 13 1016 88 0 1.71 39.745 05:40 10.07.2019
5358 Rain 13 1016 88 0 1.71 39.745 04:30 10.07.2019
5359 Clouds 15 1025 87 10000 3.1 300 01:49 10.07.2019
5360 Clouds 15 1025 87 10000 3.1 300 01:49 10.07.2019
5361 Clouds 16 1026 82 10000 3.1 300 00:43 10.07.2019
5362 Rain 14 1016 88 0 0.41 309.428 23:42 09.07.2019
5363 Clouds 16 1027 82 10000 4.1 310 23:23 09.07.2019
5364 Clouds 16 1027 82 10000 4.1 310 22:57 09.07.2019
5365 Clouds 16 1027 82 10000 4.1 310 22:36 09.07.2019
5366 Clouds 16 1027 82 10000 4.1 310 22:18 09.07.2019
5367 Clouds 16 1027 82 10000 4.1 310 22:18 09.07.2019
5368 Rain 14 1016 88 0 0.41 309.428 21:43 09.07.2019
5369 Rain 15 1015 81 0 0.2 177.436 21:25 09.07.2019
5370 Rain 16 1014 82 0 0.14 291.879 20:44 09.07.2019
5371 Rain 16 1014 82 0 0.14 291.879 20:26 09.07.2019
5372 Rain 16 1014 82 0 0.14 291.879 19:44 09.07.2019
5373 Rain 16 1014 82 0 0.14 291.879 19:26 09.07.2019
5374 Rain 16 1014 82 0 0.14 291.879 18:49 09.07.2019
5375 Rain 16 1014 82 0 0.14 291.879 18:27 09.07.2019
5376 Rain 20 1012 71 0 0.99 129.257 17:58 09.07.2019
5377 Rain 20 1012 71 0 0.99 129.257 17:40 09.07.2019
5378 Clouds 21 1024 60 10000 4.1 290 17:20 09.07.2019
5379 Clouds 21 1024 60 10000 4.1 290 16:50 09.07.2019
5380 Clouds 21 1024 60 10000 4.1 290 16:25 09.07.2019
5381 Rain 20 1012 71 0 0.99 129.257 15:56 09.07.2019
5382 Rain 20 1012 71 0 0.99 129.257 15:36 09.07.2019
5383 Rain 21 1012 62 0 1.8 95.628 14:59 09.07.2019
5384 Rain 21 1012 62 0 1.8 95.628 14:40 09.07.2019
5385 Rain 21 1012 62 0 1.8 95.628 14:20 09.07.2019
5386 Rain 21 1012 62 0 1.8 95.628 13:45 09.07.2019
5387 Rain 20 1012 64 0 0.95 86.488 13:27 09.07.2019
5388 Rain 20 1012 64 0 0.95 86.488 12:42 09.07.2019
5389 Clouds 19 1028 68 10000 3.1 140 12:24 09.07.2019
5390 Clouds 19 1028 68 10000 3.1 140 11:59 09.07.2019
5391 Clouds 19 1028 68 10000 3.1 140 11:41 09.07.2019
5392 Clouds 19 1028 68 10000 3.1 140 11:21 09.07.2019
5393 Clouds 18 1028 77 10000 4.1 170 10:58 09.07.2019
5394 Clouds 18 1028 77 10000 4.1 170 10:34 09.07.2019
5395 Rain 20 1016 66 0 1.11 196.477 09:56 09.07.2019
5396 Rain 20 1016 66 0 1.11 196.477 09:37 09.07.2019
5397 Rain 17 1018 79 0 1.62 205.143 09:18 09.07.2019
5398 Rain 17 1018 79 0 1.62 205.143 08:41 09.07.2019
5399 Rain 14 1025 87 5000 3.6 350 04:18 05.07.2019
5400 Rain 13 1015 84 0 0.63 347.658 03:39 05.07.2019
5401 Rain 14 1014 84 0 0.34 222.228 03:19 05.07.2019
5402 Rain 14 1014 84 0 0.34 222.228 02:49 05.07.2019
5403 Clouds 14 1025 87 10000 2.6 320 01:52 05.07.2019
5404 Clouds 14 1025 87 10000 2.6 320 01:27 05.07.2019
5405 Clouds 14 1025 87 10000 2.1 340 00:51 05.07.2019
5406 Clouds 14 1025 87 10000 2.1 340 00:27 05.07.2019
5407 Clouds 14 1026 87 10000 3.1 330 23:24 04.07.2019
5408 Clouds 14 1026 87 10000 1.5 340 23:00 04.07.2019
5409 Clouds 14 1026 87 10000 1.5 340 22:40 04.07.2019
5410 Clouds 14 1026 87 10000 1.5 340 22:19 04.07.2019
5411 Clouds 14 1026 93 10000 2.1 330 21:44 04.07.2019
5412 Clouds 14 1026 93 10000 2.1 330 21:25 04.07.2019
5413 Clouds 15 1026 87 10000 1 210 20:58 04.07.2019
5414 Clouds 15 1026 87 10000 1 210 20:37 04.07.2019
5415 Clouds 15 1026 87 10000 1 210 20:18 04.07.2019
5416 Clouds 15 1025 87 10000 2.1 20 19:41 04.07.2019
5417 Clouds 15 1025 87 10000 2.1 20 19:21 04.07.2019
5418 Clouds 16 1024 82 10000 0.5 110 18:46 04.07.2019
5419 Clouds 16 1024 82 10000 0.5 110 18:28 04.07.2019
5420 Clouds 16 1024 82 9000 3.6 350 17:58 04.07.2019
5421 Clouds 16 1024 82 9000 3.6 350 17:40 04.07.2019
5422 Clouds 16 1024 82 9000 3.6 350 17:18 04.07.2019
5423 Clouds 16 1024 82 9000 3.6 350 17:18 04.07.2019
5424 Clouds 16 1024 82 9000 3.6 350 17:18 04.07.2019
5425 Clouds 19 1024 72 10000 5.7 320 15:45 04.07.2019
5426 Clouds 19 1024 72 10000 5.7 320 15:24 04.07.2019
5427 Clouds 18 1024 63 8000 4.6 80 14:59 04.07.2019
5428 Clouds 18 1024 63 8000 4.6 80 14:38 04.07.2019
5429 Clouds 18 1024 63 8000 4.6 80 14:19 04.07.2019
5430 Clouds 22 1025 60 10000 4.1 180 13:56 04.07.2019
5431 Clouds 22 1025 60 10000 4.1 180 13:38 04.07.2019
5432 Clouds 22 1025 60 10000 4.1 180 13:18 04.07.2019
5433 Clouds 21 1025 64 10000 3.1 220 12:38 04.07.2019
5434 Clouds 21 1025 64 10000 3.1 220 12:19 04.07.2019
5435 Rain 20 1015 60 0 1.86 162.072 11:43 04.07.2019
5436 Clouds 19 1027 72 10000 2.1 170 11:20 04.07.2019
5437 Clouds 19 1027 72 10000 2.1 170 10:45 04.07.2019
5438 Clouds 19 1027 72 10000 2.1 170 10:27 04.07.2019
5439 Clouds 19 1027 68 10000 2.6 220 09:56 04.07.2019
5440 Clouds 19 1027 68 10000 2.6 220 09:38 04.07.2019
5441 Clouds 19 1027 68 10000 2.6 220 09:18 04.07.2019
5442 Clouds 18 1027 72 10000 3.1 290 08:42 04.07.2019
5443 Clouds 18 1027 72 10000 3.1 290 08:18 04.07.2019
5444 Rain 17 1017 72 0 0.9 214.904 07:38 04.07.2019
5445 Rain 17 1017 72 0 0.9 214.904 07:18 04.07.2019
5446 Clouds 14 1026 87 10000 3.1 280 06:20 04.07.2019
5447 Clouds 14 1026 87 10000 2.1 260 05:41 04.07.2019
5448 Rain 14 1016 83 0 0.34 328.067 04:18 04.07.2019
5449 Clouds 14 1025 93 10000 3.1 260 01:52 04.07.2019
5450 Clouds 14 1025 93 10000 3.1 260 01:26 04.07.2019
5451 Rain 13 1015 88 0 0.61 320.651 00:39 04.07.2019
5452 Rain 14 1016 87 0 0.27 326.134 23:52 03.07.2019
5453 Rain 14 1016 87 0 0.27 326.134 23:21 03.07.2019
5454 Rain 14 1016 87 0 0.27 326.134 22:56 03.07.2019
5455 Rain 14 1016 87 0 0.27 326.134 22:37 03.07.2019
5456 Rain 14 1016 85 0 0.67 92.15 22:19 03.07.2019
5457 Rain 14 1016 85 0 0.67 92.15 21:54 03.07.2019
5458 Clouds 16 1025 82 10000 2.1 130 21:35 03.07.2019
5459 Clouds 16 1025 82 10000 2.1 130 20:48 03.07.2019
5460 Clouds 16 1025 82 10000 2.1 130 20:29 03.07.2019
5461 Clouds 16 1025 82 10000 2.1 130 19:59 03.07.2019
5462 Rain 15 1015 85 0 0.91 108.554 19:40 03.07.2019
5463 Rain 15 1015 85 0 0.91 108.554 18:58 03.07.2019
5464 Rain 15 1015 85 0 0.91 108.554 18:39 03.07.2019
5465 Clouds 18 1024 77 10000 2.1 250 18:20 03.07.2019
5466 Clouds 18 1024 77 10000 2.1 250 17:49 03.07.2019
5467 Clouds 18 1024 77 10000 2.1 250 17:19 03.07.2019
5468 Rain 18 1012 78 0 3.34 141.696 16:45 03.07.2019
5469 Clouds 20 1024 64 10000 2.6 210 16:24 03.07.2019
5470 Clouds 20 1024 64 10000 2.6 210 15:55 03.07.2019
5471 Rain 18 1012 78 0 3.34 141.696 15:37 03.07.2019
5472 Rain 19 1011 67 0 2.66 108.816 15:18 03.07.2019
5473 Rain 19 1011 67 0 2.66 108.816 14:43 03.07.2019
5474 Clouds 21 1024 60 10000 4.6 190 14:20 03.07.2019
5475 Rain 19 1011 67 0 2.66 108.816 13:45 03.07.2019
5476 Rain 19 1012 69 0 2.03 122.703 13:27 03.07.2019
5477 Rain 19 1012 69 0 2.03 122.703 12:51 03.07.2019
5478 Clouds 20 1026 68 10000 2.6 160 12:19 03.07.2019
5479 Clouds 20 1026 68 10000 2.6 160 11:43 03.07.2019
5480 Clouds 20 1026 68 10000 2.6 160 11:43 03.07.2019
5481 Clouds 20 1026 68 10000 2.6 160 11:23 03.07.2019
5482 Clouds 18 1026 63 10000 1 80 10:58 03.07.2019
5483 Clouds 16 1027 77 10000 2.1 360 10:37 03.07.2019
5484 Clouds 16 1027 77 10000 2.1 360 10:19 03.07.2019
5485 Clouds 16 1027 77 10000 2.1 360 09:40 03.07.2019
5486 Clouds 16 1027 77 10000 2.1 360 09:40 03.07.2019
5487 Clouds 16 1027 77 10000 2.1 360 09:20 03.07.2019
5488 Rain 15 1027 82 9000 2.1 360 08:50 03.07.2019
5489 Rain 15 1027 82 9000 2.1 360 08:28 03.07.2019
5490 Rain 14 1018 85 0 1.4 149.029 07:45 03.07.2019
5491 Drizzle 13 1026 93 9000 2.6 320 07:27 03.07.2019
5492 Drizzle 13 1026 93 9000 2.6 320 06:27 03.07.2019
5493 Rain 13 1017 92 0 2.56 104.774 05:34 03.07.2019
5494 Rain 13 1017 92 0 2.56 104.774 04:42 03.07.2019
5495 Rain 13 1026 93 7000 2.1 150 03:25 03.07.2019
5496 Rain 14 1025 87 7000 2.1 90 02:23 03.07.2019
5497 Rain 14 1025 87 9000 5.1 60 01:21 03.07.2019
5498 Rain 14 1014 88 0 2.49 78.663 00:46 03.07.2019
5499 Rain 15 1015 87 0 0.4 337.083 00:24 03.07.2019
5500 Rain 15 1015 87 0 0.4 337.083 23:38 02.07.2019
5501 Clouds 16 1025 82 10000 2.1 290 23:20 02.07.2019
5502 Clouds 16 1025 82 10000 2.1 290 22:57 02.07.2019
5503 Clouds 16 1025 82 10000 2.1 290 22:38 02.07.2019
5504 Clouds 16 1025 82 10000 2.6 320 22:19 02.07.2019
5505 Clouds 16 1025 82 10000 2.6 320 21:44 02.07.2019
5506 Clouds 16 1025 82 10000 2.6 320 21:23 02.07.2019
5507 Clouds 16 1024 82 10000 2.1 290 20:58 02.07.2019
5508 Clouds 16 1024 82 10000 2.1 290 20:39 02.07.2019
5509 Clouds 16 1024 82 10000 2.1 290 20:21 02.07.2019
5510 Clouds 17 1023 77 10000 2.1 300 19:43 02.07.2019
5511 Clouds 17 1023 77 10000 2.1 300 19:23 02.07.2019
5512 Clouds 17 1023 72 10000 3.1 130 18:50 02.07.2019
5513 Clouds 18 1023 63 10000 3.1 100 18:19 02.07.2019
5514 Clouds 18 1023 63 10000 3.1 100 17:45 02.07.2019
5515 Clouds 18 1023 63 10000 3.1 100 17:24 02.07.2019
5516 Fog 14 1023 100 9000 3.6 320 16:55 02.07.2019
5517 Rain 16 1024 82 9000 2.6 120 16:35 02.07.2019
5518 Rain 16 1024 82 9000 2.6 120 15:59 02.07.2019
5519 Rain 16 1024 82 9000 2.6 120 15:38 02.07.2019
5520 Rain 16 1024 82 9000 2.6 120 15:20 02.07.2019
5521 Rain 15 1025 82 7000 4.1 310 14:41 02.07.2019
5522 Rain 15 1025 82 7000 4.1 310 14:22 02.07.2019
5523 Rain 21 1010 60 0 1.56 48.79 13:43 02.07.2019
5524 Rain 21 1010 60 0 1.56 48.79 13:19 02.07.2019
5525 Rain 21 1010 60 0 1.56 48.79 12:44 02.07.2019
5526 Clouds 19 1026 63 10000 4.1 170 12:23 02.07.2019
5527 Clouds 19 1026 63 10000 4.1 170 11:45 02.07.2019
5528 Clouds 19 1026 63 10000 4.1 170 11:24 02.07.2019
5529 Rain 21 1013 57 0 1.88 208.062 10:59 02.07.2019
5530 Rain 21 1013 57 0 1.88 208.062 10:37 02.07.2019
5531 Rain 21 1013 57 0 1.88 208.062 10:19 02.07.2019
5532 Rain 21 1013 57 0 1.88 208.062 09:37 02.07.2019
5533 Rain 17 1016 72 0 1.42 310.343 09:19 02.07.2019
5534 Rain 17 1016 75 0 1.33 312.829 08:40 02.07.2019
5535 Clouds 16 1027 77 10000 2.1 240 08:20 02.07.2019
5536 Clouds 16 1027 77 10000 2.1 240 07:47 02.07.2019
5537 Clouds 16 1027 77 10000 2.1 240 07:20 02.07.2019
5538 Clouds 14 1026 87 10000 3.1 300 06:40 02.07.2019
5539 Rain 14 1016 87 0 0.53 290.429 05:46 02.07.2019
5540 Rain 14 1025 93 6000 2.6 20 02:43 02.07.2019
5541 Clouds 17 1026 77 10000 1.5 230 00:31 02.07.2019
5542 Clouds 17 1026 77 10000 1.5 230 23:39 01.07.2019
5543 Clouds 17 1026 77 10000 1.5 230 23:19 01.07.2019
5544 Clouds 16 1027 82 10000 3.1 310 22:43 01.07.2019
5545 Clouds 16 1027 82 10000 3.1 310 22:24 01.07.2019
5546 Clouds 16 1027 82 10000 2.1 190 21:45 01.07.2019
5547 Clouds 16 1027 82 10000 2.1 190 21:25 01.07.2019
5548 Clouds 18 1026 72 10000 2.6 170 20:51 01.07.2019
5549 Clouds 18 1026 72 10000 2.6 170 20:21 01.07.2019
5550 Rain 16 1015 80 0 1.05 77.246 19:56 01.07.2019
5551 Clouds 20 1024 52 10000 2.1 50 19:37 01.07.2019
5552 Clouds 20 1024 52 10000 2.1 50 19:18 01.07.2019
5553 Clouds 20 1024 52 10000 2.1 50 18:44 01.07.2019
5554 Clouds 20 1024 52 10000 2.1 50 18:26 01.07.2019
5555 Clouds 22 1023 43 10000 2.1 70 17:47 01.07.2019
5556 Clouds 22 1023 43 10000 2.1 70 17:26 01.07.2019
5557 Clouds 22 1024 43 10000 4.1 90 16:57 01.07.2019
5558 Clouds 22 1024 43 10000 4.1 90 16:39 01.07.2019
5559 Rain 19 1011 70 0 0.47 121.784 16:21 01.07.2019
5560 Rain 19 1011 70 0 0.47 121.784 15:44 01.07.2019
5561 Clouds 21 1024 49 10000 2.1 130 15:23 01.07.2019
5562 Clouds 21 1024 49 10000 2.1 130 14:44 01.07.2019
5563 Rain 20 1011 60 0 1.49 194.822 14:22 01.07.2019
5564 Rain 20 1011 60 0 1.49 194.822 13:48 01.07.2019
5565 Rain 20 1011 62 0 1.37 227.966 13:24 01.07.2019
5566 Rain 20 1011 62 0 1.37 227.966 12:58 01.07.2019
5567 Rain 20 1011 62 0 1.37 227.966 12:38 01.07.2019
5568 Clouds 19 1027 59 10000 1 140 12:20 01.07.2019
5569 Clouds 19 1027 59 10000 1 140 11:45 01.07.2019
5570 Rain 18 1015 67 0 2.21 200.105 11:23 01.07.2019
5571 Rain 18 1015 67 0 2.21 200.105 10:48 01.07.2019
5572 Clouds 18 1028 68 10000 2.1 110 10:25 01.07.2019
5573 Clouds 18 1028 68 10000 2.1 110 09:59 01.07.2019
5574 Clouds 18 1028 68 10000 2.1 110 09:40 01.07.2019
5575 Rain 14 1018 86 0 1.02 247.419 09:22 01.07.2019
5576 Rain 13 1018 96 0 2.26 257.171 08:39 01.07.2019
5577 Clouds 15 1027 82 10000 2.1 280 08:21 01.07.2019
5578 Clouds 15 1027 82 10000 2.1 280 07:28 01.07.2019
5579 Clouds 15 1027 77 10000 3.1 300 06:30 01.07.2019
5580 Clouds 15 1026 77 10000 4.1 310 02:27 01.07.2019
5581 Clouds 14 1027 93 10000 4.6 340 00:50 01.07.2019
5582 Clouds 14 1027 93 10000 4.6 340 00:30 01.07.2019
5583 Clouds 15 1028 82 10000 4.1 350 23:57 30.06.2019
5584 Rain 14 1017 86 0 0.87 291.753 23:22 30.06.2019
5585 Rain 14 1017 86 0 0.87 291.753 22:53 30.06.2019
5586 Rain 14 1017 86 0 0.87 291.753 22:22 30.06.2019
5587 Rain 14 1017 86 0 0.87 291.753 21:44 30.06.2019
5588 Rain 15 1016 83 0 4.84 9.801 21:26 30.06.2019
5589 Rain 15 1016 83 0 4.84 9.801 20:58 30.06.2019
5590 Rain 15 1016 83 0 4.84 9.801 20:39 30.06.2019
5591 Rain 13 1016 90 0 3.48 286.135 20:21 30.06.2019
5592 Rain 13 1016 90 0 3.48 286.135 19:45 30.06.2019
5593 Rain 13 1016 90 0 3.48 286.135 19:25 30.06.2019
5594 Rain 13 1016 90 0 3.48 286.135 18:39 30.06.2019
5595 Rain 16 1013 82 0 1.92 34.95 18:20 30.06.2019
5596 Rain 16 1013 82 0 1.92 34.95 18:20 30.06.2019
5597 Rain 16 1013 82 0 1.92 34.95 17:40 30.06.2019
5598 Clouds 18 1025 72 10000 2.1 330 17:18 30.06.2019
5599 Clouds 18 1025 72 10000 2.1 330 16:50 30.06.2019
5600 Clouds 18 1025 72 10000 2.1 330 16:31 30.06.2019
5601 Clouds 20 1025 64 10000 7.2 250 15:38 30.06.2019
5602 Clouds 20 1025 64 10000 7.2 250 15:19 30.06.2019
5603 Clouds 20 1025 64 10000 7.2 250 14:56 30.06.2019
5604 Clouds 20 1025 64 10000 7.2 250 14:38 30.06.2019
5605 Rain 19 1013 66 0 2.8 255.84 13:57 30.06.2019
5606 Rain 19 1013 66 0 2.8 255.84 13:38 30.06.2019
5607 Rain 20 1013 63 0 2.37 259.831 13:18 30.06.2019
5608 Rain 20 1013 63 0 2.37 259.831 12:44 30.06.2019
5609 Rain 18 1016 70 0 2.9 252.214 12:21 30.06.2019
5610 Rain 18 1016 70 0 2.9 252.214 11:47 30.06.2019
5611 Rain 18 1016 70 0 2.9 252.214 11:22 30.06.2019
5612 Rain 18 1016 70 0 2.9 252.214 10:56 30.06.2019
5613 Rain 18 1016 70 0 2.9 252.214 10:37 30.06.2019
5614 Rain 18 1016 70 0 2.9 252.214 10:18 30.06.2019
5615 Rain 18 1016 70 0 2.9 252.214 09:43 30.06.2019
5616 Rain 15 1018 84 0 1.73 248.229 09:22 30.06.2019
5617 Rain 16 1018 75 0 1.22 243.793 08:42 30.06.2019
5618 Rain 16 1018 75 0 1.22 243.793 08:23 30.06.2019
5619 Rain 16 1018 75 0 1.22 243.793 07:52 30.06.2019
5620 Rain 16 1018 75 0 1.22 243.793 07:26 30.06.2019
5621 Rain 16 1018 75 0 1.22 243.793 06:40 30.06.2019
5622 Clouds 14 1026 87 10000 5.1 270 04:56 30.06.2019
5623 Rain 14 1026 93 6000 3.1 10 02:41 30.06.2019
5624 Rain 14 1015 89 0 0.56 183.163 01:27 30.06.2019
5625 Rain 15 1015 86 0 2.05 231.45 00:26 30.06.2019
5626 Rain 15 1015 86 0 2.05 231.45 23:53 29.06.2019
5627 Rain 15 1015 86 0 2.05 231.45 23:24 29.06.2019
5628 Rain 15 1015 86 0 2.05 231.45 22:56 29.06.2019
5629 Rain 15 1015 86 0 2.05 231.45 22:25 29.06.2019
5630 Clouds 15 1015 85 0 1.68 209.787 21:59 29.06.2019
5631 Clouds 15 1015 85 0 1.68 209.787 21:40 29.06.2019
5632 Rain 16 1014 84 0 1.95 224.19 21:20 29.06.2019
5633 Rain 16 1014 84 0 1.95 224.19 20:40 29.06.2019
5634 Rain 16 1014 84 0 1.95 224.19 20:22 29.06.2019
5635 Rain 16 1014 84 0 1.95 224.19 19:48 29.06.2019
5636 Rain 16 1014 84 0 1.95 224.19 19:23 29.06.2019
5637 Rain 16 1014 84 0 1.95 224.19 18:49 29.06.2019
5638 Rain 19 1010 73 0 2.17 277.325 18:25 29.06.2019
5639 Rain 19 1010 73 0 2.17 277.325 17:42 29.06.2019
5640 Rain 19 1010 73 0 2.17 277.325 17:22 29.06.2019
5641 Rain 19 1010 73 0 2.17 277.325 16:57 29.06.2019
5642 Rain 19 1010 73 0 2.17 277.325 16:35 29.06.2019
5643 Rain 19 1010 73 0 2.17 277.325 15:48 29.06.2019
5644 Rain 22 1009 53 0 2.52 257.567 15:24 29.06.2019
5645 Rain 22 1009 53 0 2.52 257.567 14:44 29.06.2019
5646 Rain 22 1009 53 0 2.52 257.567 14:25 29.06.2019
5647 Rain 22 1009 53 0 2.52 257.567 13:46 29.06.2019
5648 Rain 23 1009 48 0 1.9 233.594 13:26 29.06.2019
5649 Rain 23 1009 48 0 1.9 233.594 12:51 29.06.2019
5650 Rain 23 1009 48 0 1.9 233.594 12:33 29.06.2019
5651 Rain 21 1012 59 0 2.56 210.86 11:54 29.06.2019
5652 Rain 21 1012 59 0 2.56 210.86 11:33 29.06.2019
5653 Rain 21 1012 59 0 2.56 210.86 10:56 29.06.2019
5654 Rain 21 1012 59 0 2.56 210.86 10:36 29.06.2019
5655 Rain 21 1012 59 0 2.56 210.86 10:36 29.06.2019
5656 Rain 21 1012 59 0 2.56 210.86 09:59 29.06.2019
5657 Rain 21 1012 59 0 2.56 210.86 09:38 29.06.2019
5658 Rain 17 1015 79 0 1.53 166.29 08:50 29.06.2019
5659 Rain 18 1015 74 0 2.12 181.707 07:59 29.06.2019
5660 Clouds 15 1026 87 10000 3.6 270 07:36 29.06.2019
5661 Clouds 15 1026 87 10000 3.6 270 06:45 29.06.2019
5662 Clouds 15 1026 87 10000 3.6 270 06:23 29.06.2019
5663 Clouds 14 1025 87 10000 3.1 310 02:51 29.06.2019
5664 Rain 15 1014 87 0 1.35 188.334 01:21 29.06.2019
5665 Rain 16 1014 81 0 0.33 258.039 00:24 29.06.2019
5666 Rain 16 1014 81 0 0.33 258.039 23:27 28.06.2019
5667 Rain 16 1014 81 0 0.33 258.039 22:57 28.06.2019
5668 Rain 16 1014 81 0 0.33 258.039 22:37 28.06.2019
5669 Clouds 15 1025 87 10000 2.6 350 21:52 28.06.2019
5670 Clouds 15 1025 87 10000 2.6 350 21:25 28.06.2019
5671 Clouds 16 1025 82 10000 1 230 20:49 28.06.2019
5672 Clouds 16 1025 82 10000 1 230 20:28 28.06.2019
5673 Clouds 16 1025 82 10000 1 230 19:54 28.06.2019
5674 Clouds 16 1013 76 0 0.36 194.228 19:30 28.06.2019
5675 Clouds 16 1013 76 0 0.36 194.228 18:59 28.06.2019
5676 Rain 17 1024 72 6000 6.2 50 18:38 28.06.2019
5677 Rain 17 1024 72 6000 6.2 50 18:20 28.06.2019
5678 Rain 17 1024 72 6000 6.2 50 17:30 28.06.2019
5679 Clouds 20 1009 61 0 1.58 105.616 16:51 28.06.2019
5680 Clouds 22 1022 56 10000 3.1 280 16:27 28.06.2019
5681 Clouds 22 1022 56 10000 3.1 280 15:48 28.06.2019
5682 Clouds 22 1022 56 10000 3.1 280 15:48 28.06.2019
5683 Clouds 22 1022 56 10000 3.1 280 15:26 28.06.2019
5684 Clouds 19 1023 63 10000 6.2 330 14:56 28.06.2019
5685 Clouds 19 1023 63 10000 6.2 330 14:37 28.06.2019
5686 Clouds 22 1023 46 10000 3.6 180 14:18 28.06.2019
5687 Clouds 22 1023 46 10000 3.6 180 13:44 28.06.2019
5688 Clouds 22 1023 46 10000 3.6 180 13:21 28.06.2019
5689 Clouds 22 1024 56 10000 3.6 190 12:48 28.06.2019
5690 Rain 21 1013 54 0 1.59 137.777 11:56 28.06.2019
5691 Rain 21 1013 54 0 1.59 137.777 11:27 28.06.2019
5692 Rain 21 1013 54 0 1.59 137.777 10:46 28.06.2019
5693 Rain 21 1013 54 0 1.59 137.777 10:23 28.06.2019
5694 Rain 21 1013 54 0 1.59 137.777 10:23 28.06.2019
5695 Rain 21 1013 54 0 1.59 137.777 09:49 28.06.2019
5696 Rain 21 1013 54 0 1.59 137.777 09:30 28.06.2019
5697 Rain 18 1016 69 0 1.2 185.259 08:49 28.06.2019
5698 Rain 18 1016 67 0 1.19 225.102 08:27 28.06.2019
5699 Rain 18 1016 67 0 1.19 225.102 07:53 28.06.2019
5700 Rain 18 1016 67 0 1.19 225.102 07:35 28.06.2019
5701 Rain 18 1016 67 0 1.19 225.102 06:33 28.06.2019
5702 Clouds 14 1025 93 10000 0.44 266.864 01:42 28.06.2019
5703 Clouds 14 1025 93 10000 0.42 266.466 00:44 28.06.2019
5704 Clouds 14 1025 93 10000 0.3 354.857 23:55 27.06.2019
5705 Clouds 15 1026 87 10000 4.1 280 23:37 27.06.2019
5706 Clear 14 1015 84 0 0.3 354.857 23:18 27.06.2019
5707 Clear 14 1015 84 0 0.3 354.857 22:41 27.06.2019
5708 Clear 14 1015 84 0 0.3 354.857 22:22 27.06.2019
5709 Clear 14 1015 84 0 0.3 354.857 21:49 27.06.2019
5710 Clouds 17 1026 82 10000 3.1 310 21:31 27.06.2019
5711 Clouds 17 1026 82 10000 3.1 310 20:58 27.06.2019
5712 Clouds 17 1026 82 10000 3.1 310 20:40 27.06.2019
5713 Rain 15 1014 85 0 1.82 317.667 20:21 27.06.2019
5714 Rain 15 1014 85 0 1.82 317.667 19:46 27.06.2019
5715 Rain 15 1014 85 0 1.82 317.667 19:25 27.06.2019
5716 Rain 15 1014 85 0 1.82 317.667 18:44 27.06.2019
5717 Rain 18 1011 75 0 3.46 181.061 18:25 27.06.2019
5718 Rain 18 1011 75 0 3.46 181.061 17:46 27.06.2019
5719 Clouds 20 1024 64 10000 5.1 250 17:23 27.06.2019
5720 Clouds 20 1024 64 10000 5.1 250 16:41 27.06.2019
5721 Rain 18 1011 75 0 3.46 181.061 16:20 27.06.2019
5722 Rain 18 1011 75 0 3.46 181.061 15:59 27.06.2019
5723 Rain 18 1011 75 0 3.46 181.061 15:40 27.06.2019
5724 Mist 21 1024 60 9000 4.1 210 15:18 27.06.2019
5725 Mist 21 1024 60 9000 4.1 210 14:40 27.06.2019
5726 Mist 21 1024 60 9000 4.1 210 14:22 27.06.2019
5727 Clouds 21 1024 64 9000 5.1 160 13:44 27.06.2019
5728 Clouds 21 1024 64 9000 5.1 160 13:26 27.06.2019
5729 Rain 16 1026 77 0 5.1 340 12:51 27.06.2019
5730 Rain 16 1026 77 0 5.1 340 12:33 27.06.2019
5731 Clouds 17 1026 67 0 6.2 330 11:55 27.06.2019
5732 Clouds 21 1027 60 10000 3.1 210 11:36 27.06.2019
5733 Clouds 21 1027 60 10000 3.1 210 11:18 27.06.2019
5734 Clouds 20 1028 60 10000 2.6 240 10:42 27.06.2019
5735 Clouds 20 1028 60 10000 2.6 240 10:20 27.06.2019
5736 Clouds 19 1028 68 10000 2.6 220 09:49 27.06.2019
5737 Clouds 18 1016 69 0 0.94 244.17 09:21 27.06.2019
5738 Clouds 18 1016 68 0 1.02 240.499 08:51 27.06.2019
5739 Clouds 18 1016 68 0 1.02 240.499 08:30 27.06.2019
5740 Clouds 18 1016 68 0 1.02 240.499 07:48 27.06.2019
5741 Clouds 18 1016 68 0 1.02 240.499 07:48 27.06.2019
5742 Clouds 15 1027 82 10000 2.1 230 07:24 27.06.2019
5743 Clouds 15 1027 82 10000 2.1 230 06:39 27.06.2019
5744 Clouds 14 1016 74 0 0.44 329.594 03:53 27.06.2019
5745 Clouds 17 1025 72 10000 1.5 360 02:43 27.06.2019
5746 Clouds 14 1014 74 0 0.31 254.308 01:46 27.06.2019
5747 Clouds 17 1026 67 10000 2.1 30 00:54 27.06.2019
5748 Clouds 17 1026 67 10000 2.1 30 00:31 27.06.2019
5749 Clouds 17 1027 67 10000 3.1 30 23:52 26.06.2019
5750 Clouds 17 1027 67 10000 3.1 30 23:24 26.06.2019
5751 Clouds 17 1027 67 10000 3.1 30 22:59 26.06.2019
5752 Clouds 17 1028 72 10000 4.1 60 22:41 26.06.2019
5753 Clouds 19 1027 63 10000 5.1 70 22:20 26.06.2019
5754 Clouds 19 1027 63 10000 5.1 70 21:55 26.06.2019
5755 Clouds 19 1027 63 10000 5.1 70 21:37 26.06.2019
5756 Clouds 19 1027 63 10000 5.1 70 21:18 26.06.2019
5757 Clouds 19 1026 63 10000 3.1 60 20:40 26.06.2019
5758 Clouds 19 1026 63 10000 3.1 60 20:40 26.06.2019
5759 Clouds 19 1026 63 10000 3.1 60 20:22 26.06.2019
5760 Clouds 21 1025 46 10000 2.1 100 19:44 26.06.2019
5761 Clouds 21 1025 46 10000 2.1 100 19:25 26.06.2019
5762 Clouds 22 1024 43 10000 4.1 100 18:48 26.06.2019
5763 Clouds 22 1024 43 10000 4.1 100 18:23 26.06.2019
5764 Clouds 24 1024 36 10000 6.2 100 17:59 26.06.2019
5765 Clouds 24 1024 36 10000 6.2 100 17:38 26.06.2019
5766 Clouds 25 1025 31 10000 8.2 100 17:19 26.06.2019
5767 Clouds 25 1025 31 10000 8.2 100 16:46 26.06.2019
5768 Clouds 25 1025 31 10000 8.2 100 16:24 26.06.2019
5769 Clouds 26 1024 29 10000 6.2 110 15:48 26.06.2019
5770 Clouds 26 1024 29 10000 6.2 110 15:26 26.06.2019
5771 Clouds 25 1024 41 10000 2.6 100 14:38 26.06.2019
5772 Clouds 24 1010 41 0 6.56 94.196 14:20 26.06.2019
5773 Clouds 24 1010 41 0 6.56 94.196 13:44 26.06.2019
5774 Clouds 23 1026 49 10000 2.1 100 13:21 26.06.2019
5775 Clouds 23 1026 49 10000 2.1 100 12:42 26.06.2019
5776 Clouds 23 1026 49 10000 2.1 100 12:42 26.06.2019
5777 Clouds 23 1026 49 10000 2.1 100 12:42 26.06.2019
5778 Clouds 23 1026 49 10000 2.1 100 12:23 26.06.2019
5779 Clouds 22 1026 53 10000 3.1 120 11:49 26.06.2019
5780 Clouds 20 1027 56 10000 3.1 170 11:23 26.06.2019
5781 Clouds 20 1027 56 10000 3.1 170 10:47 26.06.2019
5782 Clouds 20 1027 56 10000 3.1 170 10:28 26.06.2019
5783 Mist 19 1027 63 5000 3.1 190 09:49 26.06.2019
5784 Mist 19 1027 63 5000 3.1 190 09:24 26.06.2019
5785 Clouds 18 1028 68 5000 2.1 170 08:49 26.06.2019
5786 Clouds 17 1027 72 10000 2.1 130 08:20 26.06.2019
5787 Clouds 17 1027 72 10000 2.1 130 07:52 26.06.2019
5788 Clouds 17 1027 72 10000 2.1 130 07:34 26.06.2019
5789 Clouds 14 1027 82 10000 2.1 360 06:32 26.06.2019
5790 Clouds 16 1026 72 10000 1.26 1.64 01:31 26.06.2019
5791 Clouds 16 1026 72 10000 1.67 36.342 00:25 26.06.2019
5792 Clouds 14 1016 76 0 1.67 36.342 23:48 25.06.2019
5793 Clouds 17 1027 63 10000 1.67 36.342 23:28 25.06.2019
5794 Clouds 17 1027 63 10000 1.67 36.342 22:58 25.06.2019
5795 Clouds 17 1027 63 10000 1.67 36.342 22:39 25.06.2019
5796 Clouds 17 1027 63 10000 1.67 36.342 22:20 25.06.2019
5797 Clouds 18 1027 68 10000 1.67 36.342 21:44 25.06.2019
5798 Clouds 18 1027 68 10000 1.78 347.297 21:22 25.06.2019
5799 Clouds 18 1026 59 10000 2.03 338.539 20:47 25.06.2019
5800 Clouds 18 1026 59 10000 2.03 338.539 20:47 25.06.2019
5801 Clouds 18 1026 59 10000 2.03 338.539 20:47 25.06.2019
5802 Clouds 18 1026 59 10000 2.03 338.539 20:47 25.06.2019
5803 Rain 15 1014 77 0 2.03 338.539 20:23 25.06.2019
5804 Rain 15 1014 77 0 2.03 338.539 19:54 25.06.2019
5805 Clouds 21 1024 52 10000 2.03 338.539 19:36 25.06.2019
5806 Clouds 21 1024 52 10000 2.03 338.539 19:18 25.06.2019
5807 Clouds 21 1024 52 10000 2.03 338.539 18:40 25.06.2019
5808 Clouds 20 1023 60 10000 2.69 107.43 18:21 25.06.2019
5809 -273 0 0 0 0 0 17:37 25.06.2019
5810 -273 0 0 0 0 0 17:19 25.06.2019
5811 Rain 16 1011 76 0 2.69 107.43 17:18 25.06.2019
5812 Rain 16 1011 76 0 2.69 107.43 16:42 25.06.2019
5813 Clouds 21 1023 60 10000 2.1 130 16:24 25.06.2019
5814 Clouds 21 1023 60 10000 2.1 130 15:43 25.06.2019
5815 Clouds 21 1023 60 10000 2.1 130 15:24 25.06.2019
5816 Clouds 21 1023 60 10000 2.1 130 14:55 25.06.2019
5817 Clouds 21 1023 60 10000 2.1 130 14:36 25.06.2019
5818 Rain 21 1010 54 0 2.49 71.332 13:50 25.06.2019
5819 Rain 21 1011 53 0 2.49 100.899 13:30 25.06.2019
5820 Rain 21 1011 53 0 2.49 100.899 12:58 25.06.2019
5821 Rain 21 1011 53 0 2.49 100.899 12:38 25.06.2019
5822 Rain 20 1014 61 0 3.26 148.533 12:20 25.06.2019
5823 Rain 20 1014 61 0 3.26 148.533 11:44 25.06.2019
5824 Clouds 18 1027 72 10000 2.6 190 11:21 25.06.2019
5825 Clouds 18 1027 72 10000 2.6 190 10:45 25.06.2019
5826 Clouds 18 1027 72 10000 2.6 190 10:23 25.06.2019
5827 Clouds 18 1027 72 10000 2.6 190 09:56 25.06.2019
5828 Clouds 17 1027 77 10000 3.1 190 09:38 25.06.2019
5829 Clouds 17 1027 77 10000 3.1 190 09:19 25.06.2019
5830 Clouds 15 1027 87 9000 2.6 210 08:47 25.06.2019
5831 Clouds 15 1027 87 9000 2.6 210 08:28 25.06.2019
5832 Clouds 15 1026 82 9000 1 320 07:40 25.06.2019
5833 Clouds 12 1026 93 7000 2.1 70 06:58 25.06.2019
5834 Clouds 12 1026 93 7000 2.1 70 06:40 25.06.2019
5835 Rain 13 1014 87 0 0.5 211.102 02:48 25.06.2019
5836 Clouds 14 1025 76 10000 3.6 300 01:50 25.06.2019
5837 Clouds 13 1025 82 10000 3.6 330 00:37 25.06.2019
5838 Clouds 13 1025 82 10000 3.6 330 23:59 24.06.2019
5839 Rain 14 1015 84 0 0.29 235.169 23:40 24.06.2019
5840 Clouds 14 1026 87 10000 3.1 320 23:22 24.06.2019
5841 Clouds 14 1026 87 10000 3.1 320 22:41 24.06.2019
5842 Clouds 14 1026 87 10000 1.5 280 22:19 24.06.2019
5843 Clouds 14 1026 87 10000 1.5 280 21:41 24.06.2019
5844 Clouds 14 1026 87 10000 1.5 280 21:19 24.06.2019
5845 Clouds 14 1026 87 10000 1.5 280 20:57 24.06.2019
5846 Clouds 16 1013 77 0 1.18 238.612 20:39 24.06.2019
5847 Clouds 16 1024 77 10000 1.18 238.612 20:20 24.06.2019
5848 Clouds 16 1024 77 10000 1.18 238.612 19:46 24.06.2019
5849 Clouds 16 1024 77 10000 1.18 238.612 19:21 24.06.2019
5850 Clouds 16 1013 77 0 1.18 238.612 18:48 24.06.2019
5851 Clouds 16 1013 77 0 1.18 238.612 18:29 24.06.2019
5852 Clouds 20 1011 64 0 1.52 163.16 17:56 24.06.2019
5853 Clouds 20 1011 64 0 1.52 163.16 17:35 24.06.2019
5854 Clouds 20 1011 64 0 1.52 163.16 16:48 24.06.2019
5855 Clouds 20 1011 64 0 1.52 163.16 16:21 24.06.2019
5856 Clouds 20 1011 64 0 1.52 163.16 16:21 24.06.2019
5857 Clouds 20 1011 64 0 1.52 163.16 15:59 24.06.2019
5858 Clouds 20 1011 64 0 1.52 163.16 15:38 24.06.2019
5859 Clouds 23 1009 42 0 3.04 102.427 15:19 24.06.2019
5860 Clouds 23 1009 42 0 3.04 102.427 14:34 24.06.2019
5861 Clouds 23 1009 42 0 3.04 102.427 13:51 24.06.2019
5862 Clouds 19 1025 72 10000 5.7 270 13:29 24.06.2019
5863 Clouds 19 1025 72 10000 5.7 270 12:45 24.06.2019
5864 Rain 22 1012 47 0 2.13 66.89 12:22 24.06.2019
5865 Rain 22 1012 47 0 2.13 66.89 11:56 24.06.2019
5866 Rain 22 1012 47 0 2.13 66.89 11:38 24.06.2019
5867 Rain 22 1012 47 0 2.13 66.89 11:18 24.06.2019
5868 Rain 22 1012 47 0 2.13 66.89 10:42 24.06.2019
5869 Rain 22 1012 47 0 2.13 66.89 10:20 24.06.2019
5870 Rain 22 1012 47 0 2.13 66.89 09:48 24.06.2019
5871 Rain 18 1015 68 0 1.32 224.694 09:20 24.06.2019
5872 Rain 18 1015 68 0 1.32 224.694 08:51 24.06.2019
5873 Rain 18 1015 70 0 1.45 222.199 08:25 24.06.2019
5874 Rain 18 1015 70 0 1.45 222.199 08:25 24.06.2019
5875 Rain 18 1015 70 0 1.45 222.199 07:44 24.06.2019
5876 Rain 18 1015 70 0 1.45 222.199 07:25 24.06.2019
5877 Rain 18 1015 70 0 1.45 222.199 06:31 24.06.2019
5878 Clear 13 1015 84 0 0.67 325.197 05:57 24.06.2019
5879 Clear 13 1015 84 0 0.67 325.197 04:59 24.06.2019
5880 Clear 13 1015 84 0 0.67 325.197 04:23 24.06.2019
5881 Rain 14 1014 84 0 0.43 291.629 02:55 24.06.2019
5882 Rain 14 1014 84 0 0.43 291.629 01:59 24.06.2019
5883 Rain 14 1014 84 0 0.43 291.629 01:41 24.06.2019
5884 Clouds 14 1014 83 0 0.28 355.914 01:21 24.06.2019
5885 Clouds 14 1014 83 0 0.28 355.914 00:38 24.06.2019
5886 Rain 15 1015 82 0 0.59 241.991 00:18 24.06.2019
5887 Rain 15 1015 82 0 0.59 241.991 23:43 23.06.2019
5888 Rain 15 1015 82 0 0.59 241.991 23:21 23.06.2019
5889 Rain 15 1015 82 0 0.59 241.991 22:42 23.06.2019
5890 Rain 15 1015 82 0 0.59 241.991 22:20 23.06.2019
5891 Rain 15 1015 82 0 0.59 241.991 21:44 23.06.2019
5892 Rain 16 1014 80 0 0.72 291.595 21:25 23.06.2019
5893 Rain 16 1014 80 0 0.72 291.595 20:58 23.06.2019
5894 Rain 15 1014 82 0 0.81 279.113 20:38 23.06.2019
5895 Rain 15 1014 82 0 0.81 279.113 20:20 23.06.2019
5896 Rain 15 1014 82 0 0.81 279.113 19:43 23.06.2019
5897 Clouds 17 1024 82 10000 3.1 200 19:20 23.06.2019
5898 Clouds 17 1024 82 10000 3.1 200 18:48 23.06.2019
5899 Clouds 18 1023 68 10000 1 50 18:20 23.06.2019
5900 Clouds 18 1023 68 10000 1 50 17:46 23.06.2019
5901 Clouds 18 1023 68 10000 1 50 17:25 23.06.2019
5902 Clouds 18 1023 68 10000 3.6 290 16:47 23.06.2019
5903 Clouds 18 1023 68 10000 3.6 290 16:26 23.06.2019
5904 Clouds 18 1023 68 10000 3.6 290 15:59 23.06.2019
5905 Clouds 18 1023 59 10000 1.5 290 15:40 23.06.2019
5906 Clouds 14 1025 87 10000 1.5 290 15:19 23.06.2019
5907 Clouds 14 1025 87 10000 1.5 290 14:39 23.06.2019
5908 Rain 14 1025 87 0 6.7 140 14:21 23.06.2019
5909 Rain 14 1025 87 0 6.7 140 13:54 23.06.2019
5910 Rain 14 1025 87 0 6.7 140 13:36 23.06.2019
5911 Rain 14 1025 87 0 6.7 140 13:18 23.06.2019
5912 Clouds 21 1024 52 10000 1.5 140 12:42 23.06.2019
5913 Clouds 21 1024 52 10000 1.5 140 12:19 23.06.2019
5914 Rain 19 1013 65 0 3.24 175.181 11:49 23.06.2019
5915 Rain 19 1013 65 0 3.24 175.181 11:28 23.06.2019
5916 Rain 19 1013 65 0 3.24 175.181 11:28 23.06.2019
5917 Rain 19 1013 65 0 3.24 175.181 10:51 23.06.2019
5918 Clouds 18 1026 72 10000 3.6 250 10:21 23.06.2019
5919 Clouds 18 1026 72 10000 3.6 250 09:58 23.06.2019
5920 Clouds 18 1026 72 10000 3.6 250 09:25 23.06.2019
5921 Clouds 17 1027 72 10000 1 280 08:55 23.06.2019
5922 Clouds 17 1027 72 10000 1 280 08:36 23.06.2019
5923 Clouds 17 1027 72 10000 1 280 08:18 23.06.2019
5924 Rain 18 1015 65 0 0.56 175.554 07:45 23.06.2019
5925 Clouds 15 1026 82 10000 3.6 280 07:19 23.06.2019
5926 Clouds 15 1026 82 10000 3.6 280 06:52 23.06.2019
5927 Clouds 14 1025 87 10000 2.1 290 05:53 23.06.2019
5928 Rain 14 1014 85 0 1.02 258.657 02:52 23.06.2019
5929 Clouds 15 1025 82 10000 5.1 270 01:39 23.06.2019
5930 Rain 14 1014 87 0 0.68 208.859 01:20 23.06.2019
5931 Clouds 15 1025 87 10000 1 350 00:31 23.06.2019
5932 Clouds 15 1025 87 10000 1 350 23:47 22.06.2019
5933 Clouds 15 1025 87 10000 1 350 23:26 22.06.2019
5934 Clouds 15 1026 87 10000 4.1 170 22:47 22.06.2019
5935 Clouds 15 1026 87 10000 4.1 170 22:27 22.06.2019
5936 Clouds 15 1026 87 10000 4.1 170 21:56 22.06.2019
5937 Clouds 16 1025 82 10000 2.1 330 21:36 22.06.2019
5938 Clouds 17 1025 77 10000 4.1 270 21:18 22.06.2019
5939 Clouds 17 1025 77 10000 4.1 270 21:18 22.06.2019
5940 Clouds 17 1025 77 10000 4.1 270 20:43 22.06.2019
5941 Clouds 17 1025 77 10000 4.1 270 20:24 22.06.2019
5942 Rain 16 1014 81 0 0.85 256.698 19:41 22.06.2019
5943 Clouds 19 1024 68 9000 2.1 300 19:20 22.06.2019
5944 Clouds 19 1024 68 9000 2.1 300 18:43 22.06.2019
5945 Clouds 19 1024 68 9000 2.1 300 18:23 22.06.2019
5946 Clouds 20 1023 60 9000 3.1 240 17:46 22.06.2019
5947 Clouds 20 1023 60 9000 3.1 240 17:25 22.06.2019
5948 Rain 19 1023 68 0 2.1 250 16:44 22.06.2019
5949 Rain 19 1023 68 0 2.1 250 16:24 22.06.2019
5950 Rain 19 1010 67 0 1.52 235.903 15:45 22.06.2019
5951 Clouds 20 1023 56 10000 3.6 50 15:27 22.06.2019
5952 Clouds 20 1023 56 10000 3.6 50 14:52 22.06.2019
5953 Clouds 20 1023 56 10000 3.6 50 14:32 22.06.2019
5954 Rain 23 1009 47 0 2.78 93.299 13:57 22.06.2019
5955 Rain 23 1009 47 0 2.78 93.299 13:39 22.06.2019
5956 Rain 22 1009 48 0 2 91.176 13:18 22.06.2019
5957 Rain 22 1009 48 0 2 91.176 12:43 22.06.2019
5958 Clouds 21 1025 60 10000 3.1 160 12:20 22.06.2019
5959 Clouds 21 1025 60 10000 3.1 160 11:41 22.06.2019
5960 Clouds 21 1025 60 10000 3.1 160 11:19 22.06.2019
5961 Clouds 19 1027 68 10000 3.1 200 10:22 22.06.2019
5962 Clouds 19 1027 68 10000 3.1 200 09:58 22.06.2019
5963 Clouds 19 1027 68 10000 3.1 200 09:35 22.06.2019
5964 Rain 17 1015 72 0 1.34 253.86 08:49 22.06.2019
5965 Rain 17 1015 69 0 1 281.546 08:31 22.06.2019
5966 Rain 17 1015 69 0 1 281.546 07:52 22.06.2019
5967 Clouds 14 1026 87 10000 2.1 90 07:23 22.06.2019
5968 Clouds 14 1026 87 10000 2.1 90 06:40 22.06.2019
5969 Rain 14 1016 88 0 1.47 278.274 03:42 22.06.2019
5970 Clouds 15 1025 82 10000 3.1 280 02:24 22.06.2019
5971 Clouds 16 1025 77 10000 4.1 270 00:54 22.06.2019
5972 Clouds 16 1025 77 10000 4.1 270 00:30 22.06.2019
5973 Clear 15 1015 80 0 0.78 330.493 23:50 21.06.2019
5974 Clear 15 1015 80 0 0.78 330.493 23:23 21.06.2019
5975 Clear 15 1015 80 0 0.78 330.493 22:57 21.06.2019
5976 Clear 15 1015 80 0 0.78 330.493 22:34 21.06.2019
5977 Clear 15 1015 80 0 0.78 330.493 21:58 21.06.2019
5978 Clear 15 1015 80 0 0.78 330.493 21:38 21.06.2019
5979 Clouds 17 1013 72 0 1.08 316.353 21:19 21.06.2019
5980 Rain 16 1014 82 0 0.97 318.475 20:47 21.06.2019
5981 Clouds 18 1024 77 10000 2.1 20 20:25 21.06.2019
5982 Clouds 18 1024 77 10000 2.1 20 19:48 21.06.2019
5983 Clouds 18 1024 77 10000 2.1 20 19:21 21.06.2019
5984 Rain 16 1014 82 0 0.97 318.475 18:40 21.06.2019
5985 Clouds 20 1023 64 10000 2.1 310 18:22 21.06.2019
5986 Clouds 20 1023 64 10000 2.1 310 17:31 21.06.2019
5987 Rain 19 1010 71 0 2.63 176.399 16:43 21.06.2019
5988 Rain 19 1010 71 0 2.63 176.399 16:24 21.06.2019
5989 Rain 19 1010 71 0 2.63 176.399 15:58 21.06.2019
5990 Rain 19 1010 71 0 2.63 176.399 15:36 21.06.2019
5991 Clouds 21 1010 63 0 1.11 256.665 14:56 21.06.2019
5992 Thunderstorm 18 1026 72 7000 3.1 130 14:37 21.06.2019
5993 Thunderstorm 18 1026 72 7000 3.1 130 14:19 21.06.2019
5994 Thunderstorm 18 1026 72 7000 3.1 130 13:39 21.06.2019
5995 Thunderstorm 19 1026 59 7000 6.2 350 13:21 21.06.2019
5996 Thunderstorm 19 1026 59 7000 6.2 350 12:44 21.06.2019
5997 Clouds 22 1026 60 10000 4.1 170 12:22 21.06.2019
5998 Clouds 22 1026 60 10000 4.1 170 11:48 21.06.2019
5999 Clouds 22 1026 60 10000 4.1 170 11:28 21.06.2019
6000 Clouds 22 1026 60 10000 4.1 170 10:58 21.06.2019
6001 Mist 20 1027 64 6000 2.1 190 10:39 21.06.2019
6002 Mist 19 1028 68 6000 3.1 170 10:20 21.06.2019
6003 Mist 19 1028 68 6000 3.1 170 09:42 21.06.2019
6004 Mist 17 1028 77 6000 1 190 09:21 21.06.2019
6005 Mist 17 1028 77 6000 1 190 08:45 21.06.2019
6006 Mist 17 1028 77 6000 1 190 08:27 21.06.2019
6007 Clouds 17 1027 72 10000 2.1 120 07:57 21.06.2019
6008 Clouds 17 1027 72 10000 2.1 120 07:38 21.06.2019
6009 Clouds 13 1027 93 10000 1 30 06:59 21.06.2019
6010 Clear 13 1017 82 0 1.12 337.191 06:24 21.06.2019
6011 Clouds 13 1026 93 10000 1 350 05:33 21.06.2019
6012 Clouds 13 1026 93 10000 1 350 04:35 21.06.2019
6013 Clouds 15 1027 82 10000 3.1 300 03:35 21.06.2019
6014 Clouds 15 1027 82 10000 3.1 300 02:59 21.06.2019
6015 Clouds 14 1015 81 0 0.16 270.739 01:59 21.06.2019
6016 Clouds 14 1027 87 10000 2.6 310 01:25 21.06.2019
6017 Clouds 14 1027 87 10000 2.6 310 00:27 21.06.2019
6018 Clouds 15 1027 82 10000 3.1 280 23:53 20.06.2019
6019 Clouds 15 1027 82 10000 3.1 280 23:24 20.06.2019
6020 Clouds 14 1017 84 0 0.45 281.557 22:59 20.06.2019
6021 Clouds 14 1017 84 0 0.45 281.557 22:40 20.06.2019
6022 Clouds 14 1017 84 0 0.45 281.557 22:21 20.06.2019
6023 Clouds 14 1017 84 0 0.45 281.557 21:52 20.06.2019
6024 Mist 15 1026 93 8000 2.1 60 21:20 20.06.2019
6025 Mist 15 1026 93 8000 2.1 60 20:59 20.06.2019
6026 Mist 15 1026 93 8000 2.1 60 20:40 20.06.2019
6027 Rain 16 1015 78 0 0.9 338.328 20:20 20.06.2019
6028 Rain 16 1015 78 0 0.9 338.328 19:43 20.06.2019
6029 Clouds 16 1026 87 10000 2.1 320 19:19 20.06.2019
6030 Clouds 16 1026 87 10000 2.1 320 18:55 20.06.2019
6031 Clouds 16 1026 87 10000 2.1 320 18:37 20.06.2019
6032 Thunderstorm 15 1025 87 6000 3.1 40 18:18 20.06.2019
6033 Thunderstorm 15 1025 87 6000 3.1 40 17:43 20.06.2019
6034 Clouds 17 1024 72 10000 4.1 300 17:19 20.06.2019
6035 Clouds 17 1024 72 10000 4.1 300 16:40 20.06.2019
6036 Clouds 18 1024 77 0 4.1 290 16:19 20.06.2019
6037 Clouds 18 1024 77 0 4.1 290 15:43 20.06.2019
6038 Clouds 18 1024 77 0 4.1 290 15:23 20.06.2019
6039 Clouds 18 1024 77 0 4.1 290 14:54 20.06.2019
6040 Clouds 22 1024 56 10000 4.1 220 14:36 20.06.2019
6041 Rain 20 1011 62 0 1.32 172.794 14:18 20.06.2019
6042 Rain 20 1011 62 0 1.32 172.794 13:38 20.06.2019
6043 Rain 20 1012 64 0 0.84 107.914 13:18 20.06.2019
6044 Rain 20 1012 64 0 0.84 107.914 12:41 20.06.2019
6045 Rain 20 1016 66 0 2.25 184.365 12:21 20.06.2019
6046 Rain 20 1016 66 0 2.25 184.365 11:41 20.06.2019
6047 Clouds 20 1028 64 10000 3.6 170 11:22 20.06.2019
6048 Clouds 20 1028 64 10000 3.6 170 11:22 20.06.2019
6049 Clouds 20 1028 64 10000 3.6 170 10:44 20.06.2019
6050 Clouds 18 1028 72 10000 2.6 190 10:24 20.06.2019
6051 Clouds 18 1028 72 10000 2.6 190 09:55 20.06.2019
6052 Clouds 18 1028 72 10000 2.6 190 09:37 20.06.2019
6053 Clouds 18 1028 72 10000 2.6 190 09:37 20.06.2019
6054 Rain 16 1018 86 0 1.62 244.844 09:18 20.06.2019
6055 Rain 17 1018 70 0 1.61 164.485 08:43 20.06.2019
6056 Clouds 15 1028 82 9000 1.5 20 08:22 20.06.2019
6057 Clouds 15 1028 82 9000 1.5 20 07:44 20.06.2019
6058 Clouds 15 1028 82 9000 1.5 20 07:25 20.06.2019
6059 Clouds 13 1027 93 10000 2.1 40 06:20 20.06.2019
6060 Rain 13 1026 93 0 2.6 320 03:41 20.06.2019
6061 Clouds 14 1027 87 10000 2.1 300 02:26 20.06.2019
6062 Clear 16 1027 77 10000 2.1 320 00:33 20.06.2019
6063 Clear 16 1027 77 10000 2.1 320 23:48 19.06.2019
6064 Clear 16 1027 77 10000 2.1 320 23:29 19.06.2019
6065 Rain 14 1017 84 0 0.6 71.083 22:49 19.06.2019
6066 Rain 14 1017 84 0 0.6 71.083 22:24 19.06.2019
6067 Rain 14 1017 84 0 0.6 71.083 21:58 19.06.2019
6068 Rain 14 1017 84 0 0.6 71.083 21:58 19.06.2019
6069 Rain 14 1017 84 0 0.6 71.083 21:38 19.06.2019
6070 Clouds 17 1026 67 10000 2.1 310 21:19 19.06.2019
6071 Clouds 17 1026 67 10000 2.1 310 20:41 19.06.2019
6072 Clouds 18 1026 63 10000 0.62 278.662 20:21 19.06.2019
6073 Clouds 18 1026 63 10000 0.62 278.662 19:46 19.06.2019
6074 Clouds 18 1026 63 10000 0.62 278.662 19:26 19.06.2019
6075 Rain 15 1016 83 0 0.62 278.662 18:56 19.06.2019
6076 Clouds 19 1025 55 9000 3.1 100 18:24 19.06.2019
6077 Clouds 19 1025 55 9000 3.1 100 17:48 19.06.2019
6078 Clouds 19 1025 55 9000 3.1 100 17:26 19.06.2019
6079 Clouds 19 1025 55 9000 3.1 100 16:56 19.06.2019
6080 Rain 16 1012 82 0 1.97 0.842 16:37 19.06.2019
6081 Rain 16 1012 82 0 1.97 0.842 16:19 19.06.2019
6082 Rain 16 1012 82 0 1.97 0.842 15:44 19.06.2019
6083 Rain 18 1011 72 0 2.11 19.192 15:22 19.06.2019
6084 Rain 18 1011 72 0 2.11 19.192 14:43 19.06.2019
6085 Rain 18 1011 72 0 2.11 19.192 14:25 19.06.2019
6086 Clouds 21 1026 68 10000 4.1 120 13:48 19.06.2019
6087 Clouds 21 1026 68 10000 4.1 120 13:29 19.06.2019
6088 Clouds 21 1026 68 10000 4.1 120 12:59 19.06.2019
6089 Clouds 22 1027 56 10000 1.5 140 12:40 19.06.2019
6090 Clouds 19 1028 63 10000 3.1 200 12:18 19.06.2019
6091 Clouds 19 1028 63 10000 3.1 200 11:42 19.06.2019
6092 Clouds 19 1028 63 10000 3.1 200 11:21 19.06.2019
6093 Rain 19 1028 68 0 3.1 160 10:49 19.06.2019
6094 Rain 19 1028 68 0 3.1 160 10:28 19.06.2019
6095 Rain 19 1028 68 0 3.1 160 10:28 19.06.2019
6096 Clouds 18 1029 72 10000 1.5 160 09:56 19.06.2019
6097 Clouds 18 1029 72 10000 1.5 160 09:38 19.06.2019
6098 Clouds 16 1029 82 10000 2.6 180 09:18 19.06.2019
6099 Clouds 16 1029 82 10000 2.6 180 08:43 19.06.2019
6100 Clouds 16 1029 82 10000 2.6 180 08:25 19.06.2019
6101 Fog 14 1028 93 0 2.1 100 07:44 19.06.2019
6102 Fog 14 1028 93 0 2.1 100 07:23 19.06.2019
6103 Clouds 13 1028 100 10000 0.5 290 06:42 19.06.2019
6104 Rain 13 1018 92 0 0.63 212.332 06:19 19.06.2019
6105 Clouds 13 1027 93 10000 2.1 70 05:32 19.06.2019
6106 Clouds 13 1027 93 10000 2.1 70 03:54 19.06.2019
6107 Rain 14 1017 88 0 0.59 240.889 02:52 19.06.2019
6108 Clouds 14 1027 87 10000 2.6 330 01:44 19.06.2019
6109 Clouds 14 1028 87 10000 1 300 00:56 19.06.2019
6110 Clouds 14 1028 87 10000 1 300 00:56 19.06.2019
6111 Clouds 14 1028 87 10000 1 300 00:38 19.06.2019
6112 Clouds 14 1028 87 10000 1 310 00:18 19.06.2019
6113 Clouds 14 1028 87 10000 1 310 23:42 18.06.2019
6114 Clouds 14 1028 87 10000 1 310 23:24 18.06.2019
6115 Rain 14 1018 91 0 0.73 240.489 22:41 18.06.2019
6116 Rain 14 1018 91 0 0.73 240.489 22:23 18.06.2019
6117 Rain 14 1018 91 0 0.73 240.489 21:47 18.06.2019
6118 Rain 16 1017 85 0 1.69 264.31 21:23 18.06.2019
6119 Rain 16 1017 85 0 1.69 264.31 21:23 18.06.2019
6120 Rain 16 1017 86 0 1.44 242.061 20:59 18.06.2019
6121 Rain 16 1017 86 0 1.44 242.061 20:40 18.06.2019
6122 Clouds 16 1027 72 10000 4.1 280 20:21 18.06.2019
6123 Clouds 16 1027 72 10000 4.1 280 19:40 18.06.2019
6124 Rain 16 1017 86 0 1.44 242.061 19:22 18.06.2019
6125 Rain 16 1017 86 0 1.44 242.061 18:55 18.06.2019
6126 Clouds 20 1027 56 10000 2.1 290 18:25 18.06.2019
6127 Clouds 20 1027 56 10000 2.1 290 17:55 18.06.2019
6128 Clouds 20 1027 56 10000 2.1 290 17:36 18.06.2019
6129 Clouds 20 1026 60 10000 2.1 280 17:18 18.06.2019
6130 Clouds 20 1026 60 10000 2.1 280 16:42 18.06.2019
6131 Rain 17 1014 80 0 3.25 5.327 16:22 18.06.2019
6132 Rain 17 1014 80 0 3.25 5.327 15:41 18.06.2019
6133 Rain 22 1013 54 0 1.4 77.538 15:23 18.06.2019
6134 Rain 22 1013 54 0 1.4 77.538 14:56 18.06.2019
6135 Rain 18 1027 82 9000 3.1 220 14:37 18.06.2019
6136 Rain 18 1027 82 9000 3.1 220 14:19 18.06.2019
6137 Rain 22 1013 54 0 1.4 77.538 13:49 18.06.2019
6138 Clouds 20 1028 68 10000 4.6 210 13:29 18.06.2019
6139 Clouds 20 1028 68 10000 4.6 210 12:46 18.06.2019
6140 Clouds 20 1028 68 10000 4.6 210 12:28 18.06.2019
6141 Clouds 20 1029 68 10000 3.1 170 11:50 18.06.2019
6142 Clouds 20 1029 68 10000 3.1 170 11:24 18.06.2019
6143 Clouds 20 1029 68 10000 3.1 170 10:59 18.06.2019
6144 Clouds 19 1029 72 10000 3.1 160 10:40 18.06.2019
6145 Clouds 18 1030 77 10000 1.5 180 10:20 18.06.2019
6146 Clouds 18 1030 77 10000 1.5 180 09:51 18.06.2019
6147 Clouds 18 1030 77 10000 1.5 180 09:24 18.06.2019
6148 Rain 18 1019 66 0 1.58 134.614 08:49 18.06.2019
6149 Rain 17 1019 72 0 1.18 167.597 08:23 18.06.2019
6150 Rain 17 1019 72 0 1.18 167.597 07:55 18.06.2019
6151 Clouds 17 1029 72 10000 4.1 360 07:25 18.06.2019
6152 Clouds 17 1029 72 10000 4.1 360 06:52 18.06.2019
6153 Clouds 14 1029 87 10000 2.1 50 05:24 18.06.2019
6154 Clouds 14 1029 87 10000 2.1 50 04:21 18.06.2019
6155 Clouds 15 1028 82 10000 4.1 270 02:47 18.06.2019
6156 Clouds 15 1028 82 10000 3.1 270 01:27 18.06.2019
6157 Clouds 15 1028 82 10000 3.1 270 00:58 18.06.2019
6158 Clouds 15 1029 87 10000 1 270 00:30 18.06.2019
6159 Clouds 15 1029 87 10000 2.1 310 23:42 17.06.2019
6160 Clouds 15 1029 87 10000 2.1 310 23:42 17.06.2019
6161 Rain 15 1019 82 0 0.79 183.131 23:24 17.06.2019
6162 Rain 15 1019 82 0 0.79 183.131 22:58 17.06.2019
6163 Rain 15 1019 82 0 0.79 183.131 22:39 17.06.2019
6164 Rain 15 1019 82 0 0.79 183.131 22:20 17.06.2019
6165 Rain 15 1019 82 0 0.79 183.131 21:45 17.06.2019
6166 Rain 16 1017 81 0 0.49 5.457 21:23 17.06.2019
6167 Rain 16 1017 81 0 0.49 5.457 21:23 17.06.2019
6168 Rain 16 1017 81 0 0.49 5.457 20:41 17.06.2019
6169 Rain 16 1017 80 0 0.78 336.56 20:23 17.06.2019
6170 Rain 16 1017 80 0 0.78 336.56 19:57 17.06.2019
6171 Rain 16 1017 80 0 0.78 336.56 19:39 17.06.2019
6172 Clouds 16 1026 82 10000 2.1 210 19:20 17.06.2019
6173 Clouds 16 1026 82 10000 2.1 210 18:39 17.06.2019
6174 Clouds 16 1026 82 10000 2.1 210 18:18 17.06.2019
6175 Clouds 16 1026 82 10000 2.1 210 18:18 17.06.2019
6176 Clouds 20 1026 64 10000 3.1 240 17:48 17.06.2019
6177 Clouds 20 1026 64 10000 3.1 240 17:29 17.06.2019
6178 Rain 20 1013 67 0 1.41 184.811 16:59 17.06.2019
6179 Rain 20 1013 67 0 1.41 184.811 16:39 17.06.2019
6180 Clouds 19 1026 63 10000 2.1 240 16:21 17.06.2019
6181 Clouds 19 1026 63 10000 2.1 240 15:44 17.06.2019
6182 Clouds 19 1026 63 10000 2.1 240 15:20 17.06.2019
6183 Clouds 19 1027 59 10000 4.1 200 14:56 17.06.2019
6184 Clouds 19 1027 59 10000 4.1 200 14:37 17.06.2019
6185 Clouds 19 1027 59 10000 4.1 200 14:18 17.06.2019
6186 Clouds 20 1027 56 0 4.1 160 13:41 17.06.2019
6187 Clouds 20 1027 56 0 4.1 160 13:21 17.06.2019
6188 Clouds 20 1028 52 0 5.1 180 12:42 17.06.2019
6189 Clouds 20 1028 52 0 5.1 180 12:21 17.06.2019
6190 Rain 20 1016 61 0 1.44 137.363 11:43 17.06.2019
6191 Clouds 20 1029 56 0 4.1 180 11:25 17.06.2019
6192 Clouds 20 1029 56 0 4.1 180 10:48 17.06.2019
6193 Clouds 20 1029 56 0 4.1 180 10:29 17.06.2019
6194 Clouds 18 1029 59 0 3.1 280 09:56 17.06.2019
6195 Clouds 18 1029 59 0 3.1 280 09:35 17.06.2019
6196 Clouds 15 1029 72 0 5.1 300 08:58 17.06.2019
6197 Clouds 15 1029 72 0 5.1 300 08:38 17.06.2019
6198 Clouds 15 1029 72 0 5.1 300 08:20 17.06.2019
6199 Clouds 14 1030 82 0 3.1 280 07:39 17.06.2019
6200 Clouds 14 1030 82 0 3.1 280 07:19 17.06.2019
6201 Clouds 12 1029 93 9000 3.1 320 06:23 17.06.2019
6202 Thunderstorm 13 1028 87 4000 7.2 50 05:31 17.06.2019
6203 Thunderstorm 13 1028 87 4000 7.2 50 04:32 17.06.2019
6204 Clouds 15 1027 87 10000 1 320 03:32 17.06.2019
6205 Clouds 15 1026 87 10000 1 40 02:46 17.06.2019
6206 Clouds 15 1026 87 10000 1 40 02:28 17.06.2019
6207 Clouds 16 1026 82 10000 1 10 01:36 17.06.2019
6208 Rain 16 1016 81 0 0.47 312.503 00:58 17.06.2019
6209 Rain 16 1016 81 0 0.47 312.503 00:38 17.06.2019
6210 Rain 16 1017 81 0 0.66 154.368 00:19 17.06.2019
6211 Rain 16 1017 81 0 0.66 154.368 23:39 16.06.2019
6212 Rain 16 1017 81 0 0.66 154.368 23:20 16.06.2019
6213 Rain 16 1017 81 0 0.66 154.368 23:20 16.06.2019
6214 Rain 16 1017 81 0 0.66 154.368 22:45 16.06.2019
6215 Rain 16 1017 81 0 0.66 154.368 22:21 16.06.2019
6216 Rain 16 1017 81 0 0.66 154.368 21:58 16.06.2019
6217 Rain 16 1017 81 0 0.66 154.368 21:40 16.06.2019
6218 Rain 17 1015 80 0 0.89 120.677 21:21 16.06.2019
6219 Rain 17 1015 72 0 1.46 93.851 20:40 16.06.2019
6220 Rain 17 1015 72 0 1.46 93.851 20:19 16.06.2019
6221 Rain 17 1015 72 0 1.46 93.851 19:58 16.06.2019
6222 Rain 17 1015 72 0 1.46 93.851 19:39 16.06.2019
6223 Rain 17 1015 72 0 1.46 93.851 19:21 16.06.2019
6224 Rain 17 1015 72 0 1.46 93.851 18:42 16.06.2019
6225 Clouds 21 1025 60 9000 3.1 140 18:21 16.06.2019
6226 Clouds 21 1025 60 9000 3.1 140 17:57 16.06.2019
6227 Clouds 21 1025 60 9000 3.1 140 17:38 16.06.2019
6228 Clouds 21 1025 60 9000 3.1 140 17:20 16.06.2019
6229 Clouds 22 1024 56 9000 5.1 120 16:55 16.06.2019
6230 Clouds 22 1024 56 9000 5.1 120 16:36 16.06.2019
6231 Clouds 22 1024 56 9000 5.1 120 16:18 16.06.2019
6232 Clouds 23 1024 53 9000 5.1 150 15:39 16.06.2019
6233 Clouds 23 1024 53 9000 5.1 150 15:21 16.06.2019
6234 Clouds 23 1024 46 10000 3.1 140 14:40 16.06.2019
6235 Clouds 23 1024 46 10000 3.1 140 14:21 16.06.2019
6236 Rain 22 1011 57 0 2.85 90.542 13:50 16.06.2019
6237 Clouds 22 1026 56 10000 3.1 110 13:25 16.06.2019
6238 Clouds 22 1026 56 10000 3.1 110 12:47 16.06.2019
6239 Clouds 22 1026 56 10000 3.1 110 12:23 16.06.2019
6240 Clouds 22 1026 56 10000 3.1 110 12:23 16.06.2019
6241 Clouds 21 1027 60 10000 3.1 220 11:59 16.06.2019
6242 Clouds 21 1027 60 10000 3.1 220 11:38 16.06.2019
6243 Clouds 21 1027 60 10000 3.1 220 11:19 16.06.2019
6244 Clouds 20 1027 68 10000 4.1 170 10:45 16.06.2019
6245 Clouds 20 1027 68 10000 4.1 170 10:20 16.06.2019
6246 Mist 20 1028 68 5000 3.1 170 09:46 16.06.2019
6247 Mist 20 1028 68 5000 3.1 170 09:25 16.06.2019
6248 Mist 18 1028 72 5000 1.5 130 08:50 16.06.2019
6249 Mist 18 1028 72 5000 1.5 130 08:22 16.06.2019
6250 Clouds 15 1028 87 10000 1 30 07:49 16.06.2019
6251 Clouds 15 1028 87 10000 1 30 07:49 16.06.2019
6252 Clouds 15 1028 87 10000 1 30 07:31 16.06.2019
6253 Clouds 18 1017 71 0 1.92 179.911 06:55 16.06.2019
6254 Clouds 13 1026 93 10000 0.19 121.068 06:20 16.06.2019
6255 Clouds 13 1026 93 10000 0.19 121.068 05:26 16.06.2019
6256 Clouds 13 1026 93 10000 3.1 290 04:26 16.06.2019
6257 Clouds 13 1026 93 10000 2.1 250 03:43 16.06.2019
6258 Clouds 13 1026 93 10000 2.1 250 03:23 16.06.2019
6259 Clouds 14 1026 87 10000 2.6 300 01:51 16.06.2019
6260 Clouds 14 1026 87 10000 2.6 300 01:33 16.06.2019
6261 Clouds 14 1026 87 10000 2.1 350 00:49 16.06.2019
6262 Clouds 14 1026 87 10000 2.1 350 00:26 16.06.2019
6263 Clouds 15 1027 82 10000 3.1 290 23:59 15.06.2019
6264 Clouds 15 1027 82 10000 3.1 290 23:40 15.06.2019
6265 Clouds 15 1027 82 10000 3.1 290 23:20 15.06.2019
6266 Clouds 15 1026 87 10000 3.6 280 22:48 15.06.2019
6267 Clouds 15 1026 87 10000 3.6 280 22:26 15.06.2019
6268 Clouds 15 1026 87 10000 3.6 280 22:26 15.06.2019
6269 Rain 16 1017 84 0 0.87 244.432 21:45 15.06.2019
6270 Rain 15 1015 89 0 2.68 291.742 21:21 15.06.2019
6271 Rain 16 1015 86 0 1.09 269.895 20:46 15.06.2019
6272 Rain 16 1015 86 0 1.09 269.895 20:24 15.06.2019
6273 Rain 16 1015 86 0 1.09 269.895 19:53 15.06.2019
6274 Rain 16 1015 86 0 1.09 269.895 19:29 15.06.2019
6275 Rain 16 1015 86 0 1.09 269.895 18:59 15.06.2019
6276 Rain 16 1015 86 0 1.09 269.895 18:37 15.06.2019
6277 Rain 17 1011 77 0 3.5 60.095 18:18 15.06.2019
6278 Rain 17 1011 77 0 3.5 60.095 18:18 15.06.2019
6279 Rain 17 1011 77 0 3.5 60.095 17:40 15.06.2019
6280 Rain 15 1025 87 7000 5.1 10 17:21 15.06.2019
6281 Rain 15 1025 87 7000 5.1 10 16:44 15.06.2019
6282 Rain 15 1025 87 7000 5.1 10 16:18 15.06.2019
6283 Rain 17 1011 77 0 3.5 60.095 15:41 15.06.2019
6284 Rain 21 1010 55 0 1.76 76.452 15:22 15.06.2019
6285 Rain 21 1010 55 0 1.76 76.452 14:39 15.06.2019
6286 Rain 21 1010 55 0 1.76 76.452 14:18 15.06.2019
6287 Rain 21 1010 55 0 1.76 76.452 13:44 15.06.2019
6288 Rain 21 1010 55 0 1.76 76.452 13:21 15.06.2019
6289 Rain 21 1010 55 0 1.76 76.452 12:59 15.06.2019
6290 Rain 21 1010 55 0 1.76 76.452 12:40 15.06.2019
6291 Clouds 20 1027 68 10000 2.6 200 12:21 15.06.2019
6292 Clouds 20 1027 68 10000 2.6 200 11:45 15.06.2019
6293 Clouds 20 1027 68 10000 2.6 200 11:45 15.06.2019
6294 Clouds 20 1027 68 10000 2.6 200 11:27 15.06.2019
6295 Clouds 19 1028 72 10000 2.6 180 10:43 15.06.2019
6296 Clouds 19 1028 72 10000 2.6 180 10:25 15.06.2019
6297 Clouds 18 1028 68 10000 2.1 210 09:48 15.06.2019
6298 Clouds 18 1028 68 10000 2.1 210 09:26 15.06.2019
6299 Clouds 18 1028 68 10000 2.1 210 09:26 15.06.2019
6300 Rain 18 1017 66 0 0.92 146.327 08:54 15.06.2019
6301 Rain 18 1017 66 0 0.92 146.327 08:34 15.06.2019
6302 Rain 18 1017 66 0 0.92 146.327 08:34 15.06.2019
6303 Rain 18 1017 66 0 0.92 146.327 07:58 15.06.2019
6304 Rain 18 1017 66 0 0.92 146.327 07:25 15.06.2019
6305 Rain 18 1017 66 0 0.92 146.327 06:48 15.06.2019
6306 Clouds 14 1027 93 10000 2.1 150 06:22 15.06.2019
6307 -273 0 0 0 0 0 05:37 15.06.2019
6308 Clouds 15 1026 87 10000 2.1 250 04:51 15.06.2019
6309 Mist 15 1026 87 0 3.6 270 03:50 15.06.2019
6310 Mist 15 1026 87 0 3.6 270 03:21 15.06.2019
6311 Clouds 15 1026 93 10000 2.6 270 02:30 15.06.2019
6312 Rain 15 1015 87 0 1.22 216.832 01:50 15.06.2019
6313 Rain 15 1015 87 0 1.22 216.832 01:19 15.06.2019
6314 Rain 15 1027 93 0 1.22 216.832 00:40 15.06.2019
6315 Clouds 15 1027 93 10000 1 230 23:55 14.06.2019
6316 Clouds 15 1027 93 10000 1 230 23:37 14.06.2019
6317 Clouds 15 1027 93 10000 1 230 23:18 14.06.2019
6318 Clouds 15 1027 93 10000 1 230 23:18 14.06.2019
6319 Rain 15 1016 86 0 0.6 180.286 22:40 14.06.2019
6320 Rain 15 1016 86 0 0.6 180.286 22:21 14.06.2019
6321 Rain 15 1016 86 0 0.6 180.286 21:48 14.06.2019
6322 Clouds 16 1027 77 10000 2.1 330 21:27 14.06.2019
6323 Rain 15 1015 89 0 1.22 278.689 20:44 14.06.2019
6324 Rain 16 1026 77 0 2.1 310 20:19 14.06.2019
6325 Rain 16 1026 77 0 2.1 310 19:57 14.06.2019
6326 Rain 16 1026 77 0 2.1 310 19:37 14.06.2019
6327 Rain 16 1026 77 0 2.1 310 19:18 14.06.2019
6328 Mist 16 1025 72 8000 2.1 240 18:45 14.06.2019
6329 Mist 16 1025 72 8000 2.1 240 18:26 14.06.2019
6330 Rain 16 1013 86 0 2.32 185.141 17:58 14.06.2019
6331 Rain 16 1013 86 0 2.32 185.141 17:39 14.06.2019
6332 Rain 16 1013 86 0 2.32 185.141 17:20 14.06.2019
6333 Clouds 16 1024 77 10000 5.1 300 16:46 14.06.2019
6334 Clouds 16 1024 77 10000 5.1 300 16:21 14.06.2019
6335 Rain 16 1013 86 0 2.32 185.141 15:57 14.06.2019
6336 Rain 16 1013 86 0 2.32 185.141 15:38 14.06.2019
6337 Rain 22 1011 47 0 1.36 114.447 15:18 14.06.2019
6338 Rain 22 1011 47 0 1.36 114.447 14:40 14.06.2019
6339 Rain 22 1011 47 0 1.36 114.447 14:21 14.06.2019
6340 Rain 23 1011 46 0 0.94 177.793 13:44 14.06.2019
6341 Rain 23 1011 46 0 0.94 177.793 13:44 14.06.2019
6342 Clouds 22 1026 56 10000 4.6 180 13:26 14.06.2019
6343 Clouds 22 1026 56 10000 4.6 180 12:48 14.06.2019
6344 Clouds 22 1026 56 10000 4.6 180 12:27 14.06.2019
6345 Clouds 21 1027 60 10000 3.6 180 11:59 14.06.2019
6346 Clouds 21 1027 60 10000 3.6 180 11:41 14.06.2019
6347 Clouds 21 1027 60 10000 3.6 180 11:22 14.06.2019
6348 Clouds 20 1028 68 10000 3.1 220 10:45 14.06.2019
6349 Clouds 20 1028 68 10000 3.1 220 10:20 14.06.2019
6350 Clouds 18 1028 77 10000 3.1 240 09:49 14.06.2019
6351 Clouds 18 1028 77 10000 3.1 240 09:31 14.06.2019
6352 Mist 17 1028 82 9000 3.6 200 08:47 14.06.2019
6353 Mist 17 1028 82 9000 3.6 200 08:20 14.06.2019
6354 Mist 17 1028 82 9000 3.6 200 08:20 14.06.2019
6355 -273 0 0 0 0 0 07:52 14.06.2019
6356 -273 0 0 0 0 0 07:52 14.06.2019
6357 Clouds 13 1028 100 7000 1.5 190 07:22 14.06.2019
6358 Clouds 13 1028 100 7000 1.5 190 06:48 14.06.2019
6359 Clouds 13 1028 100 7000 1.5 190 06:18 14.06.2019
6360 Clouds 14 1026 93 10000 2.6 170 05:33 14.06.2019
6361 Clouds 14 1026 93 10000 2.6 170 04:51 14.06.2019
6362 Clouds 15 1026 87 10000 2.6 120 03:59 14.06.2019
6363 Clouds 15 1026 87 10000 2.6 120 03:26 14.06.2019
6364 Clouds 15 1025 87 10000 3.1 30 02:58 14.06.2019
6365 Clouds 15 1025 87 10000 3.1 30 02:35 14.06.2019
6366 Clouds 15 1026 87 10000 2.1 130 01:35 14.06.2019
6367 Rain 15 1015 76 0 1.04 235.699 00:36 14.06.2019
6368 Rain 17 1016 69 0 1.28 214.312 00:18 14.06.2019
6369 Rain 17 1016 69 0 1.28 214.312 23:48 13.06.2019
6370 Clouds 16 1027 82 10000 1.28 214.312 23:24 13.06.2019
6371 Clouds 16 1027 82 10000 1.28 214.312 22:40 13.06.2019
6372 Clouds 16 1027 82 10000 1.28 214.312 22:22 13.06.2019
6373 Rain 17 1016 69 0 1.28 214.312 21:56 13.06.2019
6374 Clouds 18 1026 59 10000 4.1 10 21:36 13.06.2019
6375 Clouds 18 1026 59 10000 4.1 10 21:36 13.06.2019
6376 Clouds 18 1026 59 10000 4.1 10 21:18 13.06.2019
6377 Clouds 18 1026 59 10000 4.1 10 20:42 13.06.2019
6378 Clouds 18 1026 59 10000 4.1 10 20:20 13.06.2019
6379 Clouds 20 1015 58 0 1.62 208.828 19:43 13.06.2019
6380 Clouds 17 1025 82 9000 2.1 300 19:24 13.06.2019
6381 Clouds 17 1025 82 9000 2.1 300 18:58 13.06.2019
6382 Clouds 17 1025 82 9000 2.1 300 18:40 13.06.2019
6383 Clouds 17 1025 82 9000 2.1 300 18:21 13.06.2019
6384 Rain 16 1025 82 9000 2.1 50 17:44 13.06.2019
6385 Rain 16 1025 82 9000 2.1 50 17:21 13.06.2019
6386 Clouds 16 1025 87 10000 4.6 340 16:56 13.06.2019
6387 Clouds 16 1025 87 10000 4.6 340 16:36 13.06.2019
6388 Clouds 15 1024 87 9000 9.8 50 16:18 13.06.2019
6389 Clouds 15 1024 87 9000 9.8 50 15:40 13.06.2019
6390 Clouds 15 1024 87 9000 9.8 50 15:22 13.06.2019
6391 Clouds 22 1024 56 10000 3.6 290 14:49 13.06.2019
6392 Clouds 22 1024 56 10000 3.6 290 14:31 13.06.2019
6393 Clouds 21 1025 60 10000 2.1 230 13:54 13.06.2019
6394 Clouds 21 1025 60 10000 2.1 230 13:36 13.06.2019
6395 Clouds 21 1025 60 10000 2.1 230 13:18 13.06.2019
6396 Clouds 22 1027 53 10000 2.1 220 12:39 13.06.2019
6397 Clouds 22 1027 53 10000 2.1 220 12:21 13.06.2019
6398 Clouds 22 1015 49 0 1.8 209.864 11:44 13.06.2019
6399 Clouds 20 1028 64 10000 2.6 200 11:25 13.06.2019
6400 Clouds 20 1028 64 10000 2.6 200 10:49 13.06.2019
6401 Clouds 20 1028 64 10000 2.6 200 10:29 13.06.2019
6402 Clouds 22 1015 49 0 1.8 209.864 09:53 13.06.2019
6403 Clouds 17 1029 77 10000 2.1 210 09:31 13.06.2019
6404 Clouds 17 1029 77 10000 2.1 210 08:56 13.06.2019
6405 Clouds 17 1029 77 10000 2.1 210 08:56 13.06.2019
6406 Clouds 17 1029 77 10000 2.1 210 08:56 13.06.2019
6407 Clouds 17 1029 77 10000 2.1 210 08:56 13.06.2019
6408 Clouds 17 1029 77 10000 2.1 210 08:38 13.06.2019
6409 Clouds 17 1029 77 10000 2.1 210 08:19 13.06.2019
6410 Clouds 16 1029 82 10000 1.5 220 07:39 13.06.2019
6411 Clouds 16 1029 82 10000 1.5 220 07:19 13.06.2019
6412 Clouds 15 1028 87 10000 1 300 06:40 13.06.2019
6413 Clouds 15 1028 87 10000 1 300 06:21 13.06.2019
6414 Clouds 14 1018 80 0 0.81 198.93 05:44 13.06.2019
6415 Clouds 14 1027 87 10000 2.1 260 05:26 13.06.2019
6416 Clouds 14 1018 80 0 0.81 198.93 03:50 13.06.2019
6417 Clouds 15 1027 82 10000 2.1 320 02:20 13.06.2019
6418 Clouds 15 1027 82 10000 2.1 310 00:36 13.06.2019
6419 Clouds 15 1028 82 10000 2.1 70 23:38 12.06.2019
6420 Clouds 15 1028 82 10000 2.1 70 23:20 12.06.2019
6421 Clouds 16 1028 82 10000 3.1 60 22:41 12.06.2019
6422 Clouds 16 1028 82 10000 3.1 60 22:41 12.06.2019
6423 Clouds 16 1028 82 10000 3.1 60 22:22 12.06.2019
6424 Clouds 17 1017 68 0 0.96 225.506 21:47 12.06.2019
6425 Clouds 18 1027 72 10000 2.1 180 21:28 12.06.2019
6426 Clouds 18 1027 72 10000 2.1 180 20:49 12.06.2019
6427 Clouds 18 1027 72 10000 2.1 180 20:31 12.06.2019
6428 Clouds 19 1026 68 10000 2.1 230 19:59 12.06.2019
6429 Clouds 19 1026 68 10000 2.1 230 19:40 12.06.2019
6430 Clouds 19 1026 68 10000 2.1 230 19:22 12.06.2019
6431 Clouds 19 1026 68 10000 2.1 230 18:49 12.06.2019
6432 Clouds 20 1025 64 10000 2.1 180 18:28 12.06.2019
6433 Clouds 20 1024 64 10000 3.1 140 17:51 12.06.2019
6434 Clouds 20 1024 64 10000 3.1 140 17:23 12.06.2019
6435 Rain 21 1012 58 0 1 60.695 16:59 12.06.2019
6436 Rain 21 1012 58 0 1 60.695 16:39 12.06.2019
6437 Rain 21 1012 58 0 1 60.695 16:20 12.06.2019
6438 Rain 21 1012 58 0 1 60.695 15:46 12.06.2019
6439 Rain 22 1012 50 0 2.28 95.256 15:28 12.06.2019
6440 Rain 22 1012 50 0 2.28 95.256 14:39 12.06.2019
6441 Clouds 22 1025 56 10000 4.1 150 14:20 12.06.2019
6442 Rain 22 1012 50 0 2.28 95.256 13:42 12.06.2019
6443 Clouds 21 1026 60 10000 4.1 150 13:20 12.06.2019
6444 Clouds 21 1026 60 10000 4.1 150 12:56 12.06.2019
6445 Clouds 21 1026 60 10000 4.1 150 12:37 12.06.2019
6446 Rain 21 1015 55 0 1.85 182.887 12:19 12.06.2019
6447 Clouds 21 1026 60 10000 4.1 150 12:19 12.06.2019
6448 Rain 21 1015 55 0 1.85 182.887 11:44 12.06.2019
6449 Clouds 19 1028 72 10000 4.1 180 11:26 12.06.2019
6450 Clouds 19 1028 72 10000 4.1 180 10:50 12.06.2019
6451 Clouds 19 1028 72 10000 4.1 180 10:25 12.06.2019
6452 Clouds 18 1029 77 10000 2.1 150 09:45 12.06.2019
6453 Clouds 18 1029 77 10000 2.1 150 09:23 12.06.2019
6454 Rain 17 1017 69 0 2.44 182.398 08:53 12.06.2019
6455 Clouds 16 1028 87 10000 2.1 280 08:21 12.06.2019
6456 Clouds 16 1028 87 10000 2.1 280 07:39 12.06.2019
6457 Clouds 14 1028 87 9000 2.1 290 06:53 12.06.2019
6458 Clouds 14 1027 87 10000 2.1 290 05:27 12.06.2019
6459 Clouds 14 1027 87 10000 2.1 290 04:29 12.06.2019
6460 Clouds 14 1026 87 10000 1.5 340 01:27 12.06.2019
6461 Rain 15 1016 77 0 1.32 179.26 00:38 12.06.2019
6462 Clouds 16 1016 69 0 1.44 158.814 23:47 11.06.2019
6463 Clouds 16 1016 69 0 1.44 158.814 23:29 11.06.2019
6464 Clouds 17 1016 68 0 1.71 160.835 22:44 11.06.2019
6465 Clouds 17 1016 68 0 1.71 160.835 22:19 11.06.2019
6466 Clouds 17 1016 68 0 1.71 160.835 21:57 11.06.2019
6467 Clouds 17 1016 68 0 1.71 160.835 21:38 11.06.2019
6468 Clouds 17 1026 82 10000 1 250 21:19 11.06.2019
6469 Clouds 17 1026 82 10000 1 250 20:48 11.06.2019
6470 Clouds 17 1026 82 10000 1 250 20:25 11.06.2019
6471 Clouds 17 1026 82 10000 1 250 20:25 11.06.2019
6472 Rain 18 1014 62 0 0.51 142.726 19:55 11.06.2019
6473 Clouds 18 1025 72 10000 2.1 150 19:32 11.06.2019
6474 Clouds 18 1025 72 10000 2.1 150 18:56 11.06.2019
6475 -273 0 0 0 0 0 18:22 11.06.2019
6476 Rain 20 1012 60 0 1.14 82.16 17:42 11.06.2019
6477 Rain 20 1012 60 0 1.14 82.16 17:42 11.06.2019
6478 Rain 20 1012 60 0 1.14 82.16 17:22 11.06.2019
6479 Rain 20 1012 60 0 1.14 82.16 16:57 11.06.2019
6480 Rain 20 1012 60 0 1.14 82.16 16:39 11.06.2019
6481 Rain 18 1024 72 0 2.1 150 16:21 11.06.2019
6482 Rain 18 1024 72 0 2.1 150 15:42 11.06.2019
6483 Rain 18 1024 72 0 2.1 150 15:23 11.06.2019
6484 Rain 19 1025 68 0 2.1 320 14:49 11.06.2019
6485 Rain 19 1025 68 0 2.1 320 14:21 11.06.2019
6486 Rain 22 1011 51 0 2.33 86.179 13:52 11.06.2019
6487 Clouds 20 1026 60 10000 3.1 170 13:24 11.06.2019
6488 Clouds 20 1026 60 10000 3.1 170 12:58 11.06.2019
6489 Clouds 20 1026 60 10000 3.1 170 12:40 11.06.2019
6490 Clouds 20 1026 60 10000 3.1 170 12:19 11.06.2019
6491 Clouds 20 1027 56 10000 3.1 210 11:39 11.06.2019
6492 Clouds 20 1027 56 10000 3.1 210 11:19 11.06.2019
6493 Clouds 18 1028 68 10000 2.1 210 10:46 11.06.2019
6494 Clouds 18 1028 68 10000 2.1 210 10:46 11.06.2019
6495 Clouds 18 1028 68 10000 2.1 210 10:25 11.06.2019
6496 Rain 21 1014 55 0 1.66 228.229 09:49 11.06.2019
6497 Clouds 16 1029 77 10000 1 170 09:24 11.06.2019
6498 Clouds 16 1029 77 10000 1 170 08:45 11.06.2019
6499 Clouds 16 1029 77 10000 1 170 08:26 11.06.2019
6500 Clouds 14 1028 82 10000 1 200 07:38 11.06.2019
6501 Clouds 14 1027 82 10000 1.5 120 06:56 11.06.2019
6502 Clouds 14 1027 82 10000 1.5 120 06:34 11.06.2019
6503 Clouds 14 1027 87 10000 4.1 40 04:55 11.06.2019
6504 Clouds 13 1026 87 10000 4.1 300 03:42 11.06.2019
6505 Rain 15 1016 86 0 1.47 207.404 01:40 11.06.2019
6506 Clouds 13 1026 93 10000 1 310 00:47 11.06.2019
6507 Rain 15 1016 85 0 1.51 202.244 23:48 10.06.2019
6508 Rain 15 1016 85 0 1.51 202.244 23:25 10.06.2019
6509 Rain 15 1016 84 0 1.33 220.667 22:56 10.06.2019
6510 Rain 15 1016 84 0 1.33 220.667 22:37 10.06.2019
6511 Rain 15 1016 84 0 1.33 220.667 22:19 10.06.2019
6512 Rain 15 1016 84 0 1.33 220.667 21:41 10.06.2019
6513 Rain 15 1015 82 0 1.75 245.385 21:22 10.06.2019
6514 Rain 15 1015 82 0 1.75 245.385 20:46 10.06.2019
6515 Rain 15 1015 82 0 1.75 245.385 20:25 10.06.2019
6516 Rain 15 1015 82 0 1.75 245.385 19:56 10.06.2019
6517 Rain 15 1015 82 0 1.75 245.385 19:36 10.06.2019
6518 Rain 15 1015 82 0 1.75 245.385 19:18 10.06.2019
6519 Rain 15 1015 82 0 1.75 245.385 18:55 10.06.2019
6520 Clouds 17 1025 72 9000 3.1 310 18:36 10.06.2019
6521 Clouds 17 1025 72 9000 3.1 310 18:18 10.06.2019
6522 Clouds 17 1025 72 9000 3.1 310 17:39 10.06.2019
6523 Clouds 17 1025 72 9000 3.1 310 17:20 10.06.2019
6524 Rain 17 1012 79 0 1.64 186.209 16:44 10.06.2019
6525 Rain 17 1012 79 0 1.64 186.209 16:25 10.06.2019
6526 Rain 17 1012 79 0 1.64 186.209 15:42 10.06.2019
6527 Rain 19 1011 65 0 1.27 236.047 15:24 10.06.2019
6528 Rain 19 1011 65 0 1.27 236.047 14:58 10.06.2019
6529 Rain 19 1011 65 0 1.27 236.047 14:38 10.06.2019
6530 Rain 19 1011 65 0 1.27 236.047 14:20 10.06.2019
6531 Rain 19 1011 65 0 1.27 236.047 13:43 10.06.2019
6532 Clouds 18 1025 82 10000 3.1 270 13:21 10.06.2019
6533 Clouds 18 1025 82 10000 3.1 270 12:43 10.06.2019
6534 Clouds 18 1025 82 10000 3.1 270 12:25 10.06.2019
6535 Rain 16 1026 87 8000 3.1 320 11:44 10.06.2019
6536 Rain 16 1026 87 8000 3.1 320 11:26 10.06.2019
6537 Clouds 18 1027 72 10000 3.6 240 10:43 10.06.2019
6538 Clouds 18 1027 72 10000 3.6 240 10:21 10.06.2019
6539 Clouds 18 1027 72 10000 3.6 240 09:57 10.06.2019
6540 Clouds 18 1027 72 10000 3.6 240 09:38 10.06.2019
6541 Clouds 18 1027 72 10000 3.6 240 09:19 10.06.2019
6542 Clouds 17 1028 77 10000 3.1 260 08:45 10.06.2019
6543 Clouds 17 1028 77 10000 3.1 260 08:25 10.06.2019
6544 Clouds 15 1027 87 10000 2.1 220 07:20 10.06.2019
6545 Clouds 15 1026 82 10000 2.1 290 04:29 10.06.2019
6546 Clouds 15 1026 82 10000 2.1 270 01:59 10.06.2019
6547 Clouds 15 1026 82 10000 2.1 270 01:26 10.06.2019
6548 Clouds 15 1026 87 10000 2.1 270 00:58 10.06.2019
6549 Clouds 15 1026 87 10000 2.1 270 00:20 10.06.2019
6550 Rain 15 1016 87 0 2.53 164.671 23:43 09.06.2019
6551 Clouds 14 1026 93 10000 1.5 180 23:20 09.06.2019
6552 Clouds 14 1026 93 10000 1.5 180 22:45 09.06.2019
6553 Clouds 14 1026 93 10000 1.5 180 22:25 09.06.2019
6554 Clouds 15 1026 87 10000 1 10 21:45 09.06.2019
6555 Clouds 15 1026 87 10000 1 10 21:26 09.06.2019
6556 Clouds 15 1026 87 10000 2.1 340 20:45 09.06.2019
6557 Clouds 15 1026 87 10000 2.1 340 20:23 09.06.2019
6558 Rain 16 1015 81 0 2.01 161.032 19:56 09.06.2019
6559 Rain 16 1015 81 0 2.01 161.032 19:36 09.06.2019
6560 Rain 16 1015 79 0 1.84 160.189 19:18 09.06.2019
6561 Rain 16 1015 79 0 1.84 160.189 18:41 09.06.2019
6562 Rain 16 1015 79 0 1.84 160.189 18:41 09.06.2019
6563 Clouds 15 1026 82 0 3.1 60 18:23 09.06.2019
6564 Clouds 15 1026 82 0 3.1 60 17:48 09.06.2019
6565 Clouds 15 1026 82 0 3.1 60 17:27 09.06.2019
6566 Clouds 13 1026 93 9000 4.1 60 16:55 09.06.2019
6567 Clouds 13 1026 93 9000 4.1 60 16:37 09.06.2019
6568 Clouds 13 1026 93 9000 4.1 60 16:19 09.06.2019
6569 Clouds 19 1024 68 10000 6.7 200 15:47 09.06.2019
6570 Clouds 19 1024 68 10000 6.7 200 15:27 09.06.2019
6571 Rain 21 1012 56 0 2.27 228.788 14:46 09.06.2019
6572 Clouds 20 1026 64 10000 5.1 260 14:27 09.06.2019
6573 Clouds 20 1026 64 10000 5.1 260 13:56 09.06.2019
6574 Clouds 20 1026 64 10000 5.1 260 13:35 09.06.2019
6575 Clouds 19 1026 63 10000 4.1 260 12:44 09.06.2019
6576 Clouds 19 1026 63 10000 4.1 260 12:26 09.06.2019
6577 Clouds 18 1027 72 0 3.1 220 11:48 09.06.2019
6578 Clouds 18 1027 72 0 3.1 220 11:29 09.06.2019
6579 Clouds 18 1028 77 10000 2.1 190 10:47 09.06.2019
6580 Clouds 18 1028 77 10000 2.1 190 10:24 09.06.2019
6581 Rain 18 1015 65 0 2.55 192.985 09:42 09.06.2019
6582 Clouds 16 1028 82 10000 3.1 240 09:24 09.06.2019
6583 Clouds 16 1028 82 10000 3.1 240 08:55 09.06.2019
6584 Mist 16 1028 82 0 3.1 260 08:36 09.06.2019
6585 Mist 16 1028 82 0 3.1 260 07:46 09.06.2019
6586 Mist 15 1028 82 0 3.1 270 06:30 09.06.2019
6587 Clouds 16 1027 77 10000 3.1 290 05:34 09.06.2019
6588 Rain 16 1016 81 0 2.2 249.353 01:58 09.06.2019
6589 Clouds 15 1027 77 10000 3.1 300 01:36 09.06.2019
6590 Clouds 15 1027 77 10000 3.1 300 01:36 09.06.2019
6591 Clouds 15 1027 77 10000 3.1 300 01:18 09.06.2019
6592 Clouds 15 1027 77 10000 3.1 300 00:21 09.06.2019
6593 Rain 17 1017 76 0 3.03 117.326 23:38 08.06.2019
6594 Clouds 16 1028 67 10000 4.1 30 23:20 08.06.2019
6595 Clouds 16 1028 67 10000 4.1 30 22:43 08.06.2019
6596 Clouds 16 1028 67 10000 4.1 30 22:25 08.06.2019
6597 Clouds 16 1028 72 10000 3.1 40 21:53 08.06.2019
6598 Clouds 16 1028 72 10000 3.1 40 21:34 08.06.2019
6599 Clouds 16 1028 77 10000 2.1 40 20:59 08.06.2019
6600 Clouds 16 1028 77 10000 2.1 40 20:40 08.06.2019
6601 Clouds 16 1028 77 10000 2.1 40 20:21 08.06.2019
6602 Rain 19 1015 65 0 1.12 208.488 19:42 08.06.2019
6603 Clouds 15 1027 87 10000 1 340 19:22 08.06.2019
6604 Clouds 15 1027 87 10000 1 340 18:58 08.06.2019
6605 Clouds 15 1027 87 10000 1 340 18:39 08.06.2019
6606 Clouds 15 1027 87 10000 1 340 18:18 08.06.2019
6607 Clouds 22 1012 49 0 0.74 224.014 17:41 08.06.2019
6608 Clouds 22 1012 49 0 0.74 224.014 17:19 08.06.2019
6609 Clouds 22 1012 49 0 0.74 224.014 16:45 08.06.2019
6610 Clouds 22 1012 49 0 0.74 224.014 16:24 08.06.2019
6611 -273 0 0 0 0 0 15:40 08.06.2019
6612 Clouds 21 1025 56 10000 4.6 250 15:40 08.06.2019
6613 Clouds 21 1025 56 10000 4.6 250 15:21 08.06.2019
6614 Clouds 21 1025 56 10000 4.6 250 14:42 08.06.2019
6615 Clouds 21 1025 56 10000 4.6 250 14:24 08.06.2019
6616 Clouds 22 1025 53 10000 3.1 210 13:38 08.06.2019
6617 Clouds 21 1026 56 10000 4.1 240 12:47 08.06.2019
6618 Clouds 21 1026 56 10000 4.1 240 12:27 08.06.2019
6619 Rain 23 1014 46 0 1.25 251.07 11:44 08.06.2019
6620 Clouds 20 1028 64 10000 3.6 220 11:24 08.06.2019
6621 Clouds 20 1028 64 10000 3.6 220 10:45 08.06.2019
6622 Clouds 20 1028 64 10000 3.6 220 10:24 08.06.2019
6623 Clouds 18 1028 77 10000 3.6 190 09:51 08.06.2019
6624 Clouds 18 1028 77 10000 3.6 190 09:24 08.06.2019
6625 Clouds 16 1028 93 10000 2.6 170 08:35 08.06.2019
6626 Clouds 16 1028 93 10000 2.6 170 07:59 08.06.2019
6627 Clouds 16 1027 87 10000 1.5 310 06:50 08.06.2019
6628 Clouds 14 1017 81 0 0.88 234.204 05:48 08.06.2019
6629 Clouds 16 1026 82 10000 1 80 03:32 08.06.2019
6630 Clouds 16 1026 82 10000 2.1 120 01:31 08.06.2019
6631 Clouds 16 1027 77 10000 1 150 00:26 08.06.2019
6632 Clouds 17 1027 67 10000 2.1 110 23:47 07.06.2019
6633 Clouds 17 1027 67 10000 2.1 110 23:20 07.06.2019
6634 Clouds 17 1027 67 10000 2.1 110 22:42 07.06.2019
6635 Clouds 17 1027 67 10000 2.1 110 22:23 07.06.2019
6636 Clouds 17 1027 72 10000 3.1 200 21:53 07.06.2019
6637 Clouds 17 1027 72 10000 3.1 200 21:30 07.06.2019
6638 Clouds 18 1027 68 10000 3.1 140 20:57 07.06.2019
6639 Clouds 19 1025 63 10000 3.1 250 20:37 07.06.2019
6640 Clouds 19 1025 63 10000 3.1 250 19:50 07.06.2019
6641 Clouds 19 1025 63 10000 3.1 250 19:24 07.06.2019
6642 Clouds 18 1014 66 0 2 146.873 18:58 07.06.2019
6643 Clouds 21 1024 52 10000 2.1 340 18:29 07.06.2019
6644 Clouds 21 1024 52 10000 2.1 340 18:29 07.06.2019
6645 Clouds 21 1024 52 10000 2.1 340 17:49 07.06.2019
6646 Clouds 21 1024 52 10000 2.1 340 17:28 07.06.2019
6647 Clouds 20 1024 56 10000 2.1 100 16:58 07.06.2019
6648 Clouds 21 1011 56 0 2.25 98.793 16:39 07.06.2019
6649 Clouds 21 1011 56 0 2.25 98.793 15:54 07.06.2019
6650 Clouds 21 1024 52 10000 5.1 320 15:23 07.06.2019
6651 Clouds 21 1024 52 10000 5.1 320 14:48 07.06.2019
6652 Clouds 21 1024 52 10000 5.1 320 14:26 07.06.2019
6653 Rain 23 1010 45 0 0.8 33.889 13:47 07.06.2019
6654 Clouds 21 1025 56 10000 5.1 200 13:25 07.06.2019
6655 Clouds 21 1025 56 10000 5.1 200 12:50 07.06.2019
6656 Clouds 21 1025 56 10000 5.1 200 12:24 07.06.2019
6657 Clouds 23 1013 49 0 0.88 239.574 11:53 07.06.2019
6658 Clouds 19 1027 63 10000 3.1 200 11:31 07.06.2019
6659 Clouds 19 1027 63 10000 3.1 200 10:51 07.06.2019
6660 Clouds 19 1027 63 10000 3.1 200 10:31 07.06.2019
6661 Clouds 23 1013 49 0 0.88 239.574 09:57 07.06.2019
6662 Clouds 17 1028 77 10000 4.1 240 09:37 07.06.2019
6663 Clouds 17 1028 77 10000 4.1 240 09:18 07.06.2019
6664 Clouds 17 1028 77 10000 4.1 240 08:42 07.06.2019
6665 Clouds 17 1028 77 10000 4.1 240 08:24 07.06.2019
6666 Clouds 18 1016 65 0 2.14 221.121 07:47 07.06.2019
6667 Clouds 18 1016 65 0 2.14 221.121 07:21 07.06.2019
6668 Clouds 18 1016 65 0 2.14 221.121 06:46 07.06.2019
6669 Clouds 13 1026 93 10000 1.8 245.474 06:21 07.06.2019
6670 Clouds 13 1026 93 10000 1.8 245.474 05:24 07.06.2019
6671 Rain 15 1015 80 0 1.68 256.75 02:20 07.06.2019
6672 Clouds 15 1025 82 10000 4.1 280 01:35 07.06.2019
6673 Rain 15 1016 80 0 2.14 249.241 00:44 07.06.2019
6674 Rain 16 1015 80 0 2.76 248.415 23:45 06.06.2019
6675 Rain 16 1015 80 0 2.76 248.415 23:24 06.06.2019
6676 Rain 15 1015 84 0 2.94 247.334 22:45 06.06.2019